<?xml version='1.0' encoding='UTF-8'?><gpx version="1.1" creator="JPX - https://github.com/jenetics/jpx" xmlns="http://www.topografix.com/GPX/1/1"><trk><trkseg><trkpt lat="44.00968517154122" lon="7.950670588463043"><ele>625.0</ele><time>2026-04-25T07:29:55Z</time></trkpt><trkpt lat="44.00961870897559" lon="7.9506879716862455"><ele>625.0</ele><time>2026-04-25T07:30:56Z</time></trkpt><trkpt lat="44.00954800487374" lon="7.950622003726754"><ele>625.0</ele><time>2026-04-25T07:30:59Z</time></trkpt><trkpt lat="44.00947964950499" lon="7.950580635836593"><ele>625.0</ele><time>2026-04-25T07:31:01Z</time></trkpt><trkpt lat="44.00939844729603" lon="7.950530379421892"><ele>625.0</ele><time>2026-04-25T07:31:04Z</time></trkpt><trkpt lat="44.009326324045894" lon="7.950431517365165"><ele>625.0</ele><time>2026-04-25T07:31:07Z</time></trkpt><trkpt lat="44.00929416887971" lon="7.950345712577778"><ele>625.0</ele><time>2026-04-25T07:31:08Z</time></trkpt><trkpt lat="44.009279182745786" lon="7.950224409015752"><ele>625.0</ele><time>2026-04-25T07:31:09Z</time></trkpt><trkpt lat="44.00927254966557" lon="7.950090122630639"><ele>625.0</ele><time>2026-04-25T07:31:10Z</time></trkpt><trkpt lat="44.009272319811465" lon="7.949955823711731"><ele>625.0</ele><time>2026-04-25T07:31:11Z</time></trkpt><trkpt lat="44.0092886818617" lon="7.949818287789352"><ele>625.0</ele><time>2026-04-25T07:31:12Z</time></trkpt><trkpt lat="44.00932242293649" lon="7.949696019414535"><ele>625.0</ele><time>2026-04-25T07:31:13Z</time></trkpt><trkpt lat="44.00938513426618" lon="7.949559371477376"><ele>625.0</ele><time>2026-04-25T07:31:14Z</time></trkpt><trkpt lat="44.00943830018211" lon="7.949375416777325"><ele>625.0</ele><time>2026-04-25T07:31:15Z</time></trkpt><trkpt lat="44.00947352758633" lon="7.949216729863578"><ele>625.0</ele><time>2026-04-25T07:31:16Z</time></trkpt><trkpt lat="44.009498032204874" lon="7.949073622877711"><ele>623.8333333333334</ele><time>2026-04-25T07:31:17Z</time></trkpt><trkpt lat="44.009551391581674" lon="7.9489558801308915"><ele>622.6666666666667</ele><time>2026-04-25T07:31:18Z</time></trkpt><trkpt lat="44.00960203880473" lon="7.948856780839022"><ele>621.5</ele><time>2026-04-25T07:31:19Z</time></trkpt><trkpt lat="44.00962935724393" lon="7.948744224193125"><ele>620.3333333333334</ele><time>2026-04-25T07:31:20Z</time></trkpt><trkpt lat="44.00962439435515" lon="7.948631298608582"><ele>619.1666666666666</ele><time>2026-04-25T07:31:21Z</time></trkpt><trkpt lat="44.00958251345988" lon="7.948545793330331"><ele>618.0</ele><time>2026-04-25T07:31:22Z</time></trkpt><trkpt lat="44.00947663938104" lon="7.948531210159701"><ele>618.0</ele><time>2026-04-25T07:31:23Z</time></trkpt><trkpt lat="44.009361725211676" lon="7.948532223226447"><ele>618.0</ele><time>2026-04-25T07:31:24Z</time></trkpt><trkpt lat="44.009219458894606" lon="7.948527946426086"><ele>618.0</ele><time>2026-04-25T07:31:25Z</time></trkpt><trkpt lat="44.009068964992665" lon="7.9485668377916"><ele>618.0</ele><time>2026-04-25T07:31:26Z</time></trkpt><trkpt lat="44.00893355254447" lon="7.948575285131484"><ele>622.5</ele><time>2026-04-25T07:31:27Z</time></trkpt><trkpt lat="44.00879789934776" lon="7.948567807941222"><ele>627.0</ele><time>2026-04-25T07:31:28Z</time></trkpt><trkpt lat="44.00867442716722" lon="7.948559761309713"><ele>631.5</ele><time>2026-04-25T07:31:29Z</time></trkpt><trkpt lat="44.00855170209435" lon="7.948546224159768"><ele>636.0</ele><time>2026-04-25T07:31:30Z</time></trkpt><trkpt lat="44.008439494315525" lon="7.948533411721236"><ele>636.0</ele><time>2026-04-25T07:31:31Z</time></trkpt><trkpt lat="44.00834963159076" lon="7.9484998500488695"><ele>636.0</ele><time>2026-04-25T07:31:32Z</time></trkpt><trkpt lat="44.008277105835425" lon="7.948470649924965"><ele>636.0</ele><time>2026-04-25T07:31:33Z</time></trkpt><trkpt lat="44.00822322695406" lon="7.948415197398749"><ele>636.0</ele><time>2026-04-25T07:31:34Z</time></trkpt><trkpt lat="44.008197227372854" lon="7.948322090693918"><ele>636.0</ele><time>2026-04-25T07:31:35Z</time></trkpt><trkpt lat="44.00822436348451" lon="7.948201809995213"><ele>636.0</ele><time>2026-04-25T07:31:36Z</time></trkpt><trkpt lat="44.00823354824009" lon="7.948030920603495"><ele>635.25</ele><time>2026-04-25T07:31:37Z</time></trkpt><trkpt lat="44.00821628102861" lon="7.947837862614367"><ele>634.5</ele><time>2026-04-25T07:31:38Z</time></trkpt><trkpt lat="44.00819530853647" lon="7.947665017351525"><ele>633.75</ele><time>2026-04-25T07:31:39Z</time></trkpt><trkpt lat="44.00817388036022" lon="7.947514971220847"><ele>633.0</ele><time>2026-04-25T07:31:40Z</time></trkpt><trkpt lat="44.00814320361592" lon="7.94737605987371"><ele>628.8333333333334</ele><time>2026-04-25T07:31:41Z</time></trkpt><trkpt lat="44.00812718716789" lon="7.94724672731148"><ele>624.6666666666666</ele><time>2026-04-25T07:31:42Z</time></trkpt><trkpt lat="44.008089993355206" lon="7.9471531533571715"><ele>620.5</ele><time>2026-04-25T07:31:43Z</time></trkpt><trkpt lat="44.00803982495169" lon="7.9470955912124355"><ele>616.3333333333333</ele><time>2026-04-25T07:31:44Z</time></trkpt><trkpt lat="44.00792570978548" lon="7.947043576402456"><ele>612.1666666666666</ele><time>2026-04-25T07:31:46Z</time></trkpt><trkpt lat="44.00784740327486" lon="7.947047492195803"><ele>608.0</ele><time>2026-04-25T07:31:47Z</time></trkpt><trkpt lat="44.007771059947586" lon="7.94705012704127"><ele>608.0</ele><time>2026-04-25T07:31:48Z</time></trkpt><trkpt lat="44.007707768111295" lon="7.947085217573553"><ele>608.0</ele><time>2026-04-25T07:31:49Z</time></trkpt><trkpt lat="44.00759908033819" lon="7.947144834174183"><ele>608.0</ele><time>2026-04-25T07:31:51Z</time></trkpt><trkpt lat="44.007500494506495" lon="7.9471878286197715"><ele>608.0</ele><time>2026-04-25T07:31:53Z</time></trkpt><trkpt lat="44.00740989304754" lon="7.947181371641266"><ele>608.0</ele><time>2026-04-25T07:31:55Z</time></trkpt><trkpt lat="44.00731865750651" lon="7.947114316591497"><ele>610.4</ele><time>2026-04-25T07:31:57Z</time></trkpt><trkpt lat="44.0072612064824" lon="7.946954006798766"><ele>612.8</ele><time>2026-04-25T07:31:59Z</time></trkpt><trkpt lat="44.00726710719837" lon="7.9468640664758174"><ele>615.2</ele><time>2026-04-25T07:32:00Z</time></trkpt><trkpt lat="44.00728945435453" lon="7.946773472248187"><ele>617.6</ele><time>2026-04-25T07:32:01Z</time></trkpt><trkpt lat="44.00733655040384" lon="7.946620887778522"><ele>620.0</ele><time>2026-04-25T07:32:03Z</time></trkpt><trkpt lat="44.00736707854639" lon="7.946519922733212"><ele>620.0</ele><time>2026-04-25T07:32:04Z</time></trkpt><trkpt lat="44.00739213936684" lon="7.946387261475516"><ele>620.0</ele><time>2026-04-25T07:32:05Z</time></trkpt><trkpt lat="44.00743182607126" lon="7.946279914333957"><ele>620.0</ele><time>2026-04-25T07:32:06Z</time></trkpt><trkpt lat="44.00746798287821" lon="7.946188158435324"><ele>620.0</ele><time>2026-04-25T07:32:07Z</time></trkpt><trkpt lat="44.00750245405086" lon="7.946085676716875"><ele>620.0</ele><time>2026-04-25T07:32:08Z</time></trkpt><trkpt lat="44.00752871774407" lon="7.945981372718831"><ele>620.0</ele><time>2026-04-25T07:32:09Z</time></trkpt><trkpt lat="44.00755324966283" lon="7.945876758396675"><ele>619.6666666666666</ele><time>2026-04-25T07:32:10Z</time></trkpt><trkpt lat="44.00756067295308" lon="7.945785429135832"><ele>619.3333333333333</ele><time>2026-04-25T07:32:11Z</time></trkpt><trkpt lat="44.007542063708186" lon="7.945681956976265"><ele>619.0</ele><time>2026-04-25T07:32:12Z</time></trkpt><trkpt lat="44.007511800092225" lon="7.9455797421214776"><ele>618.6666666666666</ele><time>2026-04-25T07:32:13Z</time></trkpt><trkpt lat="44.0074853894854" lon="7.9454465195055715"><ele>618.3333333333334</ele><time>2026-04-25T07:32:14Z</time></trkpt><trkpt lat="44.00746284124427" lon="7.945323408927139"><ele>618.0</ele><time>2026-04-25T07:32:15Z</time></trkpt><trkpt lat="44.00744718531121" lon="7.945220867416455"><ele>618.0</ele><time>2026-04-25T07:32:16Z</time></trkpt><trkpt lat="44.00743006880489" lon="7.945116227172935"><ele>618.0</ele><time>2026-04-25T07:32:17Z</time></trkpt><trkpt lat="44.0074153641977" lon="7.945026692641553"><ele>618.0</ele><time>2026-04-25T07:32:18Z</time></trkpt><trkpt lat="44.00740526936538" lon="7.944875353948623"><ele>618.0</ele><time>2026-04-25T07:32:20Z</time></trkpt><trkpt lat="44.00737520461793" lon="7.944745136272234"><ele>618.0</ele><time>2026-04-25T07:32:22Z</time></trkpt><trkpt lat="44.007342790636855" lon="7.9446144510247105"><ele>617.4</ele><time>2026-04-25T07:32:24Z</time></trkpt><trkpt lat="44.00731788914061" lon="7.944479957582064"><ele>616.8</ele><time>2026-04-25T07:32:26Z</time></trkpt><trkpt lat="44.00728317091317" lon="7.944297661156762"><ele>616.2</ele><time>2026-04-25T07:32:28Z</time></trkpt><trkpt lat="44.00727908264117" lon="7.944206669825841"><ele>615.6</ele><time>2026-04-25T07:32:29Z</time></trkpt><trkpt lat="44.00725864255381" lon="7.944109827126692"><ele>615.0</ele><time>2026-04-25T07:32:30Z</time></trkpt><trkpt lat="44.00721734274829" lon="7.943937041392191"><ele>613.0</ele><time>2026-04-25T07:32:32Z</time></trkpt><trkpt lat="44.00718589862007" lon="7.943835532449424"><ele>611.0</ele><time>2026-04-25T07:32:33Z</time></trkpt><trkpt lat="44.0071334925451" lon="7.9437058284594455"><ele>609.0</ele><time>2026-04-25T07:32:34Z</time></trkpt><trkpt lat="44.0070761729728" lon="7.943621676504001"><ele>607.0</ele><time>2026-04-25T07:32:35Z</time></trkpt><trkpt lat="44.007018877543025" lon="7.943545771327082"><ele>605.0</ele><time>2026-04-25T07:32:36Z</time></trkpt><trkpt lat="44.00695577528244" lon="7.943452397135462"><ele>603.0</ele><time>2026-04-25T07:32:37Z</time></trkpt><trkpt lat="44.006858378769714" lon="7.943349374219675"><ele>605.1999999999999</ele><time>2026-04-25T07:32:38Z</time></trkpt><trkpt lat="44.00672750506931" lon="7.943283241622896"><ele>607.4</ele><time>2026-04-25T07:32:39Z</time></trkpt><trkpt lat="44.00660733058155" lon="7.9432288729817095"><ele>609.5999999999999</ele><time>2026-04-25T07:32:40Z</time></trkpt><trkpt lat="44.00653281760651" lon="7.943173464685276"><ele>611.8</ele><time>2026-04-25T07:32:41Z</time></trkpt><trkpt lat="44.00647935919868" lon="7.943090290153914"><ele>614.0</ele><time>2026-04-25T07:32:42Z</time></trkpt><trkpt lat="44.006500143943974" lon="7.942971525092646"><ele>614.0</ele><time>2026-04-25T07:32:43Z</time></trkpt><trkpt lat="44.00653433175452" lon="7.942887040563364"><ele>614.0</ele><time>2026-04-25T07:32:44Z</time></trkpt><trkpt lat="44.00659703684763" lon="7.942814622912424"><ele>614.0</ele><time>2026-04-25T07:32:45Z</time></trkpt><trkpt lat="44.00669310061853" lon="7.942775910241227"><ele>614.0</ele><time>2026-04-25T07:32:46Z</time></trkpt><trkpt lat="44.00677852758549" lon="7.9427856478053736"><ele>614.0</ele><time>2026-04-25T07:32:47Z</time></trkpt><trkpt lat="44.006890011292725" lon="7.942771735100907"><ele>614.0</ele><time>2026-04-25T07:32:48Z</time></trkpt><trkpt lat="44.00704537849621" lon="7.942752286702954"><ele>605.0</ele><time>2026-04-25T07:32:49Z</time></trkpt><trkpt lat="44.00717267589121" lon="7.9427363520069125"><ele>596.0</ele><time>2026-04-25T07:32:50Z</time></trkpt><trkpt lat="44.00732246612443" lon="7.94271368601734"><ele>587.0</ele><time>2026-04-25T07:32:51Z</time></trkpt><trkpt lat="44.007442496689045" lon="7.942695437538853"><ele>578.0</ele><time>2026-04-25T07:32:52Z</time></trkpt><trkpt lat="44.00758225643918" lon="7.942674189595062"><ele>569.0</ele><time>2026-04-25T07:32:53Z</time></trkpt><trkpt lat="44.007723670252865" lon="7.942652690173819"><ele>560.0</ele><time>2026-04-25T07:32:54Z</time></trkpt><trkpt lat="44.007883563270084" lon="7.942628381322599"><ele>551.0</ele><time>2026-04-25T07:32:55Z</time></trkpt><trkpt lat="44.00803220519532" lon="7.9426071889394185"><ele>551.0</ele><time>2026-04-25T07:32:56Z</time></trkpt><trkpt lat="44.00817943049434" lon="7.942586777910224"><ele>551.0</ele><time>2026-04-25T07:32:57Z</time></trkpt><trkpt lat="44.0083301903513" lon="7.942565876858637"><ele>551.0</ele><time>2026-04-25T07:32:58Z</time></trkpt><trkpt lat="44.008476247629496" lon="7.942528198424995"><ele>551.0</ele><time>2026-04-25T07:32:59Z</time></trkpt><trkpt lat="44.008610565969185" lon="7.942522672200302"><ele>553.25</ele><time>2026-04-25T07:33:00Z</time></trkpt><trkpt lat="44.008739047873895" lon="7.9425157245911215"><ele>555.5</ele><time>2026-04-25T07:33:01Z</time></trkpt><trkpt lat="44.008859129776134" lon="7.942508774033755"><ele>557.75</ele><time>2026-04-25T07:33:02Z</time></trkpt><trkpt lat="44.008973860772635" lon="7.9425108069913195"><ele>560.0</ele><time>2026-04-25T07:33:03Z</time></trkpt><trkpt lat="44.00907844218644" lon="7.942502462114219"><ele>560.0</ele><time>2026-04-25T07:33:04Z</time></trkpt><trkpt lat="44.00915794642734" lon="7.942480537281535"><ele>560.0</ele><time>2026-04-25T07:33:05Z</time></trkpt><trkpt lat="44.00924123139134" lon="7.942389286984247"><ele>560.0</ele><time>2026-04-25T07:33:06Z</time></trkpt><trkpt lat="44.00929092223816" lon="7.942250929678682"><ele>560.0</ele><time>2026-04-25T07:33:07Z</time></trkpt><trkpt lat="44.00926935071394" lon="7.942097526309023"><ele>560.0</ele><time>2026-04-25T07:33:08Z</time></trkpt><trkpt lat="44.009269501729015" lon="7.941877882106438"><ele>556.6666666666666</ele><time>2026-04-25T07:33:09Z</time></trkpt><trkpt lat="44.009267621150414" lon="7.941605195911335"><ele>553.3333333333334</ele><time>2026-04-25T07:33:10Z</time></trkpt><trkpt lat="44.00923391190761" lon="7.941323175774428"><ele>550.0</ele><time>2026-04-25T07:33:11Z</time></trkpt><trkpt lat="44.0092156375118" lon="7.941134553043292"><ele>550.0</ele><time>2026-04-25T07:33:12Z</time></trkpt><trkpt lat="44.00922355652221" lon="7.940973275543975"><ele>550.0</ele><time>2026-04-25T07:33:14Z</time></trkpt><trkpt lat="44.00920328612627" lon="7.94085570584906"><ele>550.0</ele><time>2026-04-25T07:33:15Z</time></trkpt><trkpt lat="44.009178430906374" lon="7.940735742982018"><ele>550.0</ele><time>2026-04-25T07:33:16Z</time></trkpt><trkpt lat="44.00921960330949" lon="7.9405212855245875"><ele>549.75</ele><time>2026-04-25T07:33:17Z</time></trkpt><trkpt lat="44.00926277595872" lon="7.940350417616885"><ele>549.5</ele><time>2026-04-25T07:33:18Z</time></trkpt><trkpt lat="44.009330811406215" lon="7.94014851048643"><ele>549.25</ele><time>2026-04-25T07:33:19Z</time></trkpt><trkpt lat="44.00937966352548" lon="7.940030332056507"><ele>549.0</ele><time>2026-04-25T07:33:20Z</time></trkpt><trkpt lat="44.00945960937374" lon="7.9399718445471406"><ele>549.0</ele><time>2026-04-25T07:33:21Z</time></trkpt><trkpt lat="44.00954413764432" lon="7.939999328134467"><ele>549.0</ele><time>2026-04-25T07:33:22Z</time></trkpt><trkpt lat="44.009647625682184" lon="7.9401051288778355"><ele>549.0</ele><time>2026-04-25T07:33:23Z</time></trkpt><trkpt lat="44.009707122256536" lon="7.940278187138702"><ele>549.0</ele><time>2026-04-25T07:33:24Z</time></trkpt><trkpt lat="44.00978055204517" lon="7.940393491597688"><ele>549.0</ele><time>2026-04-25T07:33:25Z</time></trkpt><trkpt lat="44.009856420071095" lon="7.940483889936221"><ele>549.0</ele><time>2026-04-25T07:33:26Z</time></trkpt><trkpt lat="44.00998441696873" lon="7.940580625258812"><ele>549.0</ele><time>2026-04-25T07:33:27Z</time></trkpt><trkpt lat="44.01011099164885" lon="7.9406664606943105"><ele>549.0</ele><time>2026-04-25T07:33:28Z</time></trkpt><trkpt lat="44.01022943286289" lon="7.940757393426247"><ele>544.5</ele><time>2026-04-25T07:33:29Z</time></trkpt><trkpt lat="44.010363479393575" lon="7.940869064445615"><ele>540.0</ele><time>2026-04-25T07:33:30Z</time></trkpt><trkpt lat="44.01048796768556" lon="7.940992728541087"><ele>535.5</ele><time>2026-04-25T07:33:31Z</time></trkpt><trkpt lat="44.01058374058153" lon="7.941106756969833"><ele>531.0</ele><time>2026-04-25T07:33:32Z</time></trkpt><trkpt lat="44.01067254745384" lon="7.941210316059046"><ele>527.0</ele><time>2026-04-25T07:33:33Z</time></trkpt><trkpt lat="44.010763689201234" lon="7.941299283875565"><ele>523.0</ele><time>2026-04-25T07:33:34Z</time></trkpt><trkpt lat="44.010890141757876" lon="7.941373187686401"><ele>519.0</ele><time>2026-04-25T07:33:35Z</time></trkpt><trkpt lat="44.011008569741286" lon="7.941440385262525"><ele>515.0</ele><time>2026-04-25T07:33:36Z</time></trkpt><trkpt lat="44.01111942875949" lon="7.941471503645184"><ele>514.5</ele><time>2026-04-25T07:33:37Z</time></trkpt><trkpt lat="44.01124781582347" lon="7.941473819526796"><ele>514.0</ele><time>2026-04-25T07:33:38Z</time></trkpt><trkpt lat="44.01137026928602" lon="7.941432328823619"><ele>513.5</ele><time>2026-04-25T07:33:39Z</time></trkpt><trkpt lat="44.01145949576086" lon="7.941342574172209"><ele>513.0</ele><time>2026-04-25T07:33:40Z</time></trkpt><trkpt lat="44.011511163300256" lon="7.941238718796782"><ele>513.0</ele><time>2026-04-25T07:33:41Z</time></trkpt><trkpt lat="44.01155466929474" lon="7.941160043797141"><ele>513.0</ele><time>2026-04-25T07:33:42Z</time></trkpt><trkpt lat="44.011618939948406" lon="7.941077450514081"><ele>513.0</ele><time>2026-04-25T07:33:44Z</time></trkpt><trkpt lat="44.011565849522235" lon="7.941185746827973"><ele>513.0</ele><time>2026-04-25T07:34:02Z</time></trkpt><trkpt lat="44.01148767402632" lon="7.9412283922121665"><ele>513.0</ele><time>2026-04-25T07:34:04Z</time></trkpt><trkpt lat="44.01151177235678" lon="7.941457118895475"><ele>513.0</ele><time>2026-04-25T07:34:05Z</time></trkpt><trkpt lat="44.011417522930344" lon="7.941551112575136"><ele>513.0</ele><time>2026-04-25T07:34:07Z</time></trkpt><trkpt lat="44.01133443188516" lon="7.941636187399928"><ele>513.0</ele><time>2026-04-25T07:34:09Z</time></trkpt><trkpt lat="44.01121974695976" lon="7.941674213587085"><ele>513.0</ele><time>2026-04-25T07:34:11Z</time></trkpt><trkpt lat="44.01114270340687" lon="7.941665807656227"><ele>513.0</ele><time>2026-04-25T07:34:12Z</time></trkpt><trkpt lat="44.011070208815596" lon="7.941646338950656"><ele>513.0000000000001</ele><time>2026-04-25T07:34:13Z</time></trkpt><trkpt lat="44.01100195901347" lon="7.941624443683091"><ele>513.0</ele><time>2026-04-25T07:34:14Z</time></trkpt><trkpt lat="44.01092721196092" lon="7.9416211680700615"><ele>513.0</ele><time>2026-04-25T07:34:15Z</time></trkpt><trkpt lat="44.01085680283174" lon="7.941613103372801"><ele>513.0</ele><time>2026-04-25T07:34:16Z</time></trkpt><trkpt lat="44.0107933796067" lon="7.9415980745689225"><ele>513.0</ele><time>2026-04-25T07:34:17Z</time></trkpt><trkpt lat="44.010728117439335" lon="7.941580961840873"><ele>513.0000000000001</ele><time>2026-04-25T07:34:18Z</time></trkpt><trkpt lat="44.010663719554586" lon="7.941569643595843"><ele>513.0</ele><time>2026-04-25T07:34:19Z</time></trkpt><trkpt lat="44.01059869114589" lon="7.941560142381201"><ele>513.4</ele><time>2026-04-25T07:34:20Z</time></trkpt><trkpt lat="44.01052627639992" lon="7.941546628934637"><ele>513.8</ele><time>2026-04-25T07:34:21Z</time></trkpt><trkpt lat="44.010436236551946" lon="7.941553831321032"><ele>514.2</ele><time>2026-04-25T07:34:23Z</time></trkpt><trkpt lat="44.01036590121423" lon="7.941599300982162"><ele>514.6</ele><time>2026-04-25T07:34:25Z</time></trkpt><trkpt lat="44.01028603736318" lon="7.941696540749351"><ele>515.0</ele><time>2026-04-25T07:34:27Z</time></trkpt><trkpt lat="44.010227327781855" lon="7.941819853819218"><ele>515.6666666666666</ele><time>2026-04-25T07:34:29Z</time></trkpt><trkpt lat="44.01016440603236" lon="7.941911648548128"><ele>516.3333333333333</ele><time>2026-04-25T07:34:31Z</time></trkpt><trkpt lat="44.010151481257445" lon="7.942031636494698"><ele>517.0</ele><time>2026-04-25T07:34:33Z</time></trkpt><trkpt lat="44.01015355581395" lon="7.94214782242891"><ele>517.6666666666666</ele><time>2026-04-25T07:34:35Z</time></trkpt><trkpt lat="44.010185488867585" lon="7.942261101565184"><ele>518.3333333333334</ele><time>2026-04-25T07:34:37Z</time></trkpt><trkpt lat="44.01022825400273" lon="7.942355325867079"><ele>519.0</ele><time>2026-04-25T07:34:38Z</time></trkpt><trkpt lat="44.01028632128672" lon="7.942431364407251"><ele>519.0</ele><time>2026-04-25T07:34:39Z</time></trkpt><trkpt lat="44.01033640232469" lon="7.942492042874986"><ele>519.0</ele><time>2026-04-25T07:34:40Z</time></trkpt><trkpt lat="44.010386679520394" lon="7.9425598629761724"><ele>519.0</ele><time>2026-04-25T07:34:41Z</time></trkpt><trkpt lat="44.01044817138066" lon="7.942649770296412"><ele>519.0</ele><time>2026-04-25T07:34:43Z</time></trkpt><trkpt lat="44.01051455024411" lon="7.9427052151519835"><ele>519.0</ele><time>2026-04-25T07:34:45Z</time></trkpt><trkpt lat="44.01059222049004" lon="7.942806556568152"><ele>519.0</ele><time>2026-04-25T07:34:47Z</time></trkpt><trkpt lat="44.010648722097635" lon="7.9428865419916725"><ele>519.0</ele><time>2026-04-25T07:34:49Z</time></trkpt><trkpt lat="44.01068658801596" lon="7.942985578838237"><ele>519.0</ele><time>2026-04-25T07:34:51Z</time></trkpt><trkpt lat="44.01071581512559" lon="7.9430701624100575"><ele>519.0</ele><time>2026-04-25T07:34:53Z</time></trkpt><trkpt lat="44.01077131325972" lon="7.943145265165059"><ele>519.0</ele><time>2026-04-25T07:34:56Z</time></trkpt><trkpt lat="44.01084072781472" lon="7.94314395405639"><ele>519.0</ele><time>2026-04-25T07:35:00Z</time></trkpt><trkpt lat="44.01083927017936" lon="7.943056436521283"><ele>519.0</ele><time>2026-04-25T07:35:04Z</time></trkpt><trkpt lat="44.010878232684234" lon="7.943126606766444"><ele>519.0</ele><time>2026-04-25T07:35:46Z</time></trkpt><trkpt lat="44.01084353536424" lon="7.94304674160126"><ele>492.0</ele><time>2026-04-25T07:37:08Z</time></trkpt><trkpt lat="44.010902587711385" lon="7.942980962557446"><ele>492.0</ele><time>2026-04-25T07:38:36Z</time></trkpt><trkpt lat="44.010830957180154" lon="7.943020264734102"><ele>492.0</ele><time>2026-04-25T07:38:53Z</time></trkpt><trkpt lat="44.01087963918736" lon="7.942955912823169"><ele>492.0</ele><time>2026-04-25T07:39:30Z</time></trkpt><trkpt lat="44.010910464941595" lon="7.942873337553323"><ele>492.0</ele><time>2026-04-25T07:39:39Z</time></trkpt><trkpt lat="44.0109357050351" lon="7.9427913154286"><ele>492.0</ele><time>2026-04-25T07:40:12Z</time></trkpt></trkseg><trkseg><trkpt lat="44.00486335119536" lon="7.918294181898172"><ele>1098.0</ele><time>2026-04-25T09:00:00Z</time></trkpt><trkpt lat="44.004916672585786" lon="7.918222581757945"><ele>1098.0</ele><time>2026-04-25T09:00:03Z</time></trkpt><trkpt lat="44.00500292779135" lon="7.918160028238387"><ele>1098.0</ele><time>2026-04-25T09:00:06Z</time></trkpt><trkpt lat="44.00505628506838" lon="7.918107673333331"><ele>1098.0</ele><time>2026-04-25T09:00:08Z</time></trkpt><trkpt lat="44.00514483516114" lon="7.918058625110653"><ele>1098.0</ele><time>2026-04-25T09:00:10Z</time></trkpt><trkpt lat="44.005236555416545" lon="7.918017428529632"><ele>1098.0</ele><time>2026-04-25T09:00:12Z</time></trkpt><trkpt lat="44.005301459866416" lon="7.918000945906307"><ele>1094.6666666666667</ele><time>2026-04-25T09:00:13Z</time></trkpt><trkpt lat="44.00536421868128" lon="7.917989849617515"><ele>1091.3333333333333</ele><time>2026-04-25T09:00:14Z</time></trkpt><trkpt lat="44.00546553221363" lon="7.917955409156159"><ele>1088.0</ele><time>2026-04-25T09:00:16Z</time></trkpt><trkpt lat="44.005529063716075" lon="7.917922438959079"><ele>1084.6666666666665</ele><time>2026-04-25T09:00:17Z</time></trkpt><trkpt lat="44.00559076897961" lon="7.91785216954904"><ele>1081.3333333333333</ele><time>2026-04-25T09:00:18Z</time></trkpt><trkpt lat="44.00564937060273" lon="7.91777650645959"><ele>1078.0</ele><time>2026-04-25T09:00:19Z</time></trkpt><trkpt lat="44.00571031503628" lon="7.917700660136173"><ele>1078.0</ele><time>2026-04-25T09:00:20Z</time></trkpt><trkpt lat="44.00576725362444" lon="7.917646754697969"><ele>1078.0</ele><time>2026-04-25T09:00:21Z</time></trkpt><trkpt lat="44.00586684340296" lon="7.9175865144736886"><ele>1078.0</ele><time>2026-04-25T09:00:23Z</time></trkpt><trkpt lat="44.00593113498472" lon="7.91756278375095"><ele>1078.0</ele><time>2026-04-25T09:00:24Z</time></trkpt><trkpt lat="44.006031171338925" lon="7.917524854598474"><ele>1078.0</ele><time>2026-04-25T09:00:26Z</time></trkpt><trkpt lat="44.00609774713965" lon="7.917491395752029"><ele>1078.0</ele><time>2026-04-25T09:00:27Z</time></trkpt><trkpt lat="44.00619297849192" lon="7.917401869323507"><ele>1080.8</ele><time>2026-04-25T09:00:29Z</time></trkpt><trkpt lat="44.00628771275845" lon="7.917303772990904"><ele>1083.6</ele><time>2026-04-25T09:00:31Z</time></trkpt><trkpt lat="44.00638213875641" lon="7.91723077591307"><ele>1086.4</ele><time>2026-04-25T09:00:33Z</time></trkpt><trkpt lat="44.00646853981108" lon="7.917157143743584"><ele>1089.2</ele><time>2026-04-25T09:00:35Z</time></trkpt><trkpt lat="44.00656400855183" lon="7.91707918421795"><ele>1092.0</ele><time>2026-04-25T09:00:37Z</time></trkpt><trkpt lat="44.00664746021096" lon="7.917003755868335"><ele>1093.4</ele><time>2026-04-25T09:00:39Z</time></trkpt><trkpt lat="44.00673726008065" lon="7.916943892577538"><ele>1094.8000000000002</ele><time>2026-04-25T09:00:41Z</time></trkpt><trkpt lat="44.00684663099648" lon="7.916907462380253"><ele>1096.2</ele><time>2026-04-25T09:00:42.999Z</time></trkpt><trkpt lat="44.00692911826795" lon="7.91683575330031"><ele>1097.6000000000001</ele><time>2026-04-25T09:00:44.999Z</time></trkpt><trkpt lat="44.00699274485066" lon="7.916721182992753"><ele>1099.0</ele><time>2026-04-25T09:00:46.999Z</time></trkpt><trkpt lat="44.007085095288026" lon="7.916637060959926"><ele>1099.0</ele><time>2026-04-25T09:00:48.999Z</time></trkpt><trkpt lat="44.007197242743445" lon="7.916590828245537"><ele>1099.0</ele><time>2026-04-25T09:00:50.999Z</time></trkpt><trkpt lat="44.0072547386943" lon="7.916529698678487"><ele>1099.0</ele><time>2026-04-25T09:00:52.999Z</time></trkpt><trkpt lat="44.00733014946224" lon="7.916524832904075"><ele>1099.0</ele><time>2026-04-25T09:01:18.999Z</time></trkpt><trkpt lat="44.007392039413936" lon="7.916629356543343"><ele>1099.0</ele><time>2026-04-25T09:01:20.999Z</time></trkpt><trkpt lat="44.007444977471216" lon="7.916762625594347"><ele>1094.4</ele><time>2026-04-25T09:01:22.999Z</time></trkpt><trkpt lat="44.0075248851292" lon="7.91686401305993"><ele>1089.8000000000002</ele><time>2026-04-25T09:01:24.999Z</time></trkpt><trkpt lat="44.00762309094711" lon="7.916931998926738"><ele>1085.1999999999998</ele><time>2026-04-25T09:01:26.999Z</time></trkpt><trkpt lat="44.00771599313437" lon="7.9170076117029184"><ele>1080.6</ele><time>2026-04-25T09:01:28.999Z</time></trkpt><trkpt lat="44.00777114653683" lon="7.917052575027629"><ele>1076.0</ele><time>2026-04-25T09:01:29.999Z</time></trkpt><trkpt lat="44.00782635175502" lon="7.917104907601719"><ele>1076.0</ele><time>2026-04-25T09:01:30.999Z</time></trkpt><trkpt lat="44.007884577004425" lon="7.917156284794451"><ele>1076.0</ele><time>2026-04-25T09:01:31.999Z</time></trkpt><trkpt lat="44.00794419059021" lon="7.917202583353134"><ele>1076.0</ele><time>2026-04-25T09:01:32.999Z</time></trkpt><trkpt lat="44.0079995323837" lon="7.917245829681164"><ele>1076.0</ele><time>2026-04-25T09:01:33.999Z</time></trkpt><trkpt lat="44.00810378890661" lon="7.917322636632211"><ele>1076.0</ele><time>2026-04-25T09:01:35.999Z</time></trkpt><trkpt lat="44.008189137524404" lon="7.9174093989537715"><ele>1076.0</ele><time>2026-04-25T09:01:37.999Z</time></trkpt><trkpt lat="44.0082526875969" lon="7.91747979253108"><ele>1072.5</ele><time>2026-04-25T09:01:39.999Z</time></trkpt><trkpt lat="44.008311108590014" lon="7.917570244037502"><ele>1069.0</ele><time>2026-04-25T09:01:41.999Z</time></trkpt><trkpt lat="44.00834334217188" lon="7.917666525734096"><ele>1065.5</ele><time>2026-04-25T09:01:44.999Z</time></trkpt><trkpt lat="44.00839763804354" lon="7.917746108757026"><ele>1062.0</ele><time>2026-04-25T09:03:19Z</time></trkpt><trkpt lat="44.00848555731155" lon="7.91782354514634"><ele>1058.5</ele><time>2026-04-25T09:03:21Z</time></trkpt><trkpt lat="44.00854410277705" lon="7.9178945830749194"><ele>1055.0</ele><time>2026-04-25T09:03:23Z</time></trkpt><trkpt lat="44.00859621710336" lon="7.91798729032336"><ele>1055.0</ele><time>2026-04-25T09:03:26Z</time></trkpt><trkpt lat="44.008644812970694" lon="7.918059937219956"><ele>1055.0</ele><time>2026-04-25T09:03:28Z</time></trkpt><trkpt lat="44.00869320625631" lon="7.918116719647049"><ele>1055.0</ele><time>2026-04-25T09:03:30Z</time></trkpt><trkpt lat="44.00876460219021" lon="7.918083358332788"><ele>1055.0</ele><time>2026-04-25T09:03:34Z</time></trkpt><trkpt lat="44.00879714732877" lon="7.917998115587501"><ele>1055.0</ele><time>2026-04-25T09:03:36Z</time></trkpt><trkpt lat="44.00886043869665" lon="7.917873750513684"><ele>1055.0</ele><time>2026-04-25T09:03:38Z</time></trkpt><trkpt lat="44.00889200521883" lon="7.917737536462345"><ele>1057.6</ele><time>2026-04-25T09:03:40Z</time></trkpt><trkpt lat="44.00890469337512" lon="7.9175677752464235"><ele>1060.2</ele><time>2026-04-25T09:03:42Z</time></trkpt><trkpt lat="44.00889239261428" lon="7.917470226950745"><ele>1062.8</ele><time>2026-04-25T09:03:43Z</time></trkpt><trkpt lat="44.008861018084744" lon="7.917300559231286"><ele>1065.4</ele><time>2026-04-25T09:03:45Z</time></trkpt><trkpt lat="44.00882806951129" lon="7.917219036640514"><ele>1068.0</ele><time>2026-04-25T09:03:46Z</time></trkpt><trkpt lat="44.00878378927135" lon="7.917127995892111"><ele>1068.0000000000002</ele><time>2026-04-25T09:03:47Z</time></trkpt><trkpt lat="44.00874845287928" lon="7.9170439577027185"><ele>1068.0</ele><time>2026-04-25T09:03:48Z</time></trkpt><trkpt lat="44.00871895902175" lon="7.916965660633067"><ele>1068.0</ele><time>2026-04-25T09:03:49Z</time></trkpt><trkpt lat="44.00868476941409" lon="7.916881960213973"><ele>1068.0</ele><time>2026-04-25T09:03:50Z</time></trkpt><trkpt lat="44.00866135001814" lon="7.91679862534477"><ele>1068.0</ele><time>2026-04-25T09:03:51Z</time></trkpt><trkpt lat="44.00863527821654" lon="7.91671486805293"><ele>1068.0000000000002</ele><time>2026-04-25T09:03:52Z</time></trkpt><trkpt lat="44.008610848518906" lon="7.916631084563923"><ele>1068.0</ele><time>2026-04-25T09:03:53Z</time></trkpt><trkpt lat="44.008589725916075" lon="7.916542264823105"><ele>1067.8333333333333</ele><time>2026-04-25T09:03:54Z</time></trkpt><trkpt lat="44.00857186872274" lon="7.916456112179821"><ele>1067.6666666666667</ele><time>2026-04-25T09:03:55Z</time></trkpt><trkpt lat="44.008533577827805" lon="7.916295568716235"><ele>1067.5</ele><time>2026-04-25T09:03:57Z</time></trkpt><trkpt lat="44.00851987711841" lon="7.916205176582035"><ele>1067.3333333333335</ele><time>2026-04-25T09:03:58Z</time></trkpt><trkpt lat="44.00850360633492" lon="7.9160967970167695"><ele>1067.1666666666667</ele><time>2026-04-25T09:03:59Z</time></trkpt><trkpt lat="44.00848557326685" lon="7.9159923847454925"><ele>1067.0</ele><time>2026-04-25T09:04:00Z</time></trkpt><trkpt lat="44.00846449406789" lon="7.915898431135035"><ele>1064.5</ele><time>2026-04-25T09:04:01Z</time></trkpt><trkpt lat="44.008436764688874" lon="7.915808902976263"><ele>1062.0</ele><time>2026-04-25T09:04:02Z</time></trkpt><trkpt lat="44.00840392445333" lon="7.915722049014272"><ele>1059.5</ele><time>2026-04-25T09:04:03Z</time></trkpt><trkpt lat="44.00837873517554" lon="7.915636448825976"><ele>1057.0</ele><time>2026-04-25T09:04:04Z</time></trkpt><trkpt lat="44.0083366635105" lon="7.91548508612109"><ele>1054.5</ele><time>2026-04-25T09:04:06Z</time></trkpt><trkpt lat="44.0083209824995" lon="7.915353495246669"><ele>1052.0</ele><time>2026-04-25T09:04:08Z</time></trkpt><trkpt lat="44.008301620352434" lon="7.915232553336727"><ele>1057.4</ele><time>2026-04-25T09:04:10Z</time></trkpt><trkpt lat="44.0082757567231" lon="7.915077069353747"><ele>1062.8000000000002</ele><time>2026-04-25T09:04:12Z</time></trkpt><trkpt lat="44.008268564432065" lon="7.914904354179964"><ele>1068.2</ele><time>2026-04-25T09:04:14Z</time></trkpt><trkpt lat="44.00828951192499" lon="7.914804144068429"><ele>1073.6000000000001</ele><time>2026-04-25T09:04:15Z</time></trkpt><trkpt lat="44.00830426685821" lon="7.91471612397056"><ele>1079.0</ele><time>2026-04-25T09:04:16Z</time></trkpt><trkpt lat="44.008299109596834" lon="7.914563773301014"><ele>1079.0</ele><time>2026-04-25T09:04:18Z</time></trkpt><trkpt lat="44.00829183877326" lon="7.914414352560515"><ele>1079.0</ele><time>2026-04-25T09:04:20Z</time></trkpt><trkpt lat="44.00829612569635" lon="7.914310207446608"><ele>1079.0</ele><time>2026-04-25T09:04:21Z</time></trkpt><trkpt lat="44.00829307772183" lon="7.914206233924412"><ele>1079.0</ele><time>2026-04-25T09:04:22Z</time></trkpt><trkpt lat="44.00828124554561" lon="7.91411435187244"><ele>1079.0</ele><time>2026-04-25T09:04:23Z</time></trkpt><trkpt lat="44.00827893346263" lon="7.914026273346349"><ele>1079.0</ele><time>2026-04-25T09:04:24Z</time></trkpt><trkpt lat="44.00828524858348" lon="7.913934727830344"><ele>1078.5714285714287</ele><time>2026-04-25T09:04:25Z</time></trkpt><trkpt lat="44.00829937016899" lon="7.913837019132426"><ele>1078.142857142857</ele><time>2026-04-25T09:04:26Z</time></trkpt><trkpt lat="44.00832104730004" lon="7.913739909905566"><ele>1077.7142857142858</ele><time>2026-04-25T09:04:27Z</time></trkpt><trkpt lat="44.00834707724923" lon="7.913640806718964"><ele>1077.2857142857142</ele><time>2026-04-25T09:04:28Z</time></trkpt><trkpt lat="44.00837187324658" lon="7.91355005044986"><ele>1076.857142857143</ele><time>2026-04-25T09:04:29Z</time></trkpt><trkpt lat="44.008412007165624" lon="7.913453041961947"><ele>1076.4285714285716</ele><time>2026-04-25T09:04:30Z</time></trkpt><trkpt lat="44.0084639507137" lon="7.9133774431062"><ele>1076.0</ele><time>2026-04-25T09:04:31Z</time></trkpt><trkpt lat="44.008528260753025" lon="7.913310398855425"><ele>1070.6666666666667</ele><time>2026-04-25T09:04:32Z</time></trkpt><trkpt lat="44.008591839039546" lon="7.913251431123123"><ele>1065.3333333333335</ele><time>2026-04-25T09:04:33Z</time></trkpt><trkpt lat="44.00865840958406" lon="7.913176809446569"><ele>1060.0</ele><time>2026-04-25T09:04:34Z</time></trkpt><trkpt lat="44.00872465307864" lon="7.913101732695926"><ele>1054.6666666666667</ele><time>2026-04-25T09:04:35Z</time></trkpt><trkpt lat="44.008772905175675" lon="7.913027459826543"><ele>1049.3333333333333</ele><time>2026-04-25T09:04:36Z</time></trkpt><trkpt lat="44.00884523111249" lon="7.912904482931266"><ele>1044.0</ele><time>2026-04-25T09:04:38Z</time></trkpt><trkpt lat="44.00887041910427" lon="7.912729134617967"><ele>1044.0</ele><time>2026-04-25T09:04:40Z</time></trkpt><trkpt lat="44.00887436197265" lon="7.912624032388859"><ele>1044.0</ele><time>2026-04-25T09:04:41Z</time></trkpt><trkpt lat="44.008930757500934" lon="7.912471779913791"><ele>1044.0</ele><time>2026-04-25T09:04:43Z</time></trkpt><trkpt lat="44.00897822626308" lon="7.912389051267324"><ele>1044.0</ele><time>2026-04-25T09:04:44Z</time></trkpt><trkpt lat="44.009022169073816" lon="7.912324066932663"><ele>1044.0</ele><time>2026-04-25T09:04:45Z</time></trkpt><trkpt lat="44.00909970480525" lon="7.912195013378773"><ele>1044.0</ele><time>2026-04-25T09:04:47Z</time></trkpt><trkpt lat="44.00914822969519" lon="7.9121359483603015"><ele>1044.0</ele><time>2026-04-25T09:04:48Z</time></trkpt><trkpt lat="44.00920593983053" lon="7.912090461048528"><ele>1044.0</ele><time>2026-04-25T09:04:49Z</time></trkpt><trkpt lat="44.009268676715756" lon="7.9120701284689"><ele>1044.0</ele><time>2026-04-25T09:04:50Z</time></trkpt><trkpt lat="44.0093699850621" lon="7.912038825389882"><ele>1044.0</ele><time>2026-04-25T09:04:52Z</time></trkpt><trkpt lat="44.00941476147965" lon="7.911962445388248"><ele>1044.0</ele><time>2026-04-25T09:04:54Z</time></trkpt><trkpt lat="44.009495996935044" lon="7.911923186810224"><ele>1044.0</ele><time>2026-04-25T09:04:56Z</time></trkpt><trkpt lat="44.00956629870183" lon="7.911856810094838"><ele>1044.0</ele><time>2026-04-25T09:04:58Z</time></trkpt><trkpt lat="44.00956549172931" lon="7.9117127058592525"><ele>1044.0</ele><time>2026-04-25T09:05:00Z</time></trkpt><trkpt lat="44.00953953722207" lon="7.911629622409442"><ele>1044.0</ele><time>2026-04-25T09:05:01Z</time></trkpt><trkpt lat="44.00949256016347" lon="7.911492374454352"><ele>1044.0</ele><time>2026-04-25T09:05:03Z</time></trkpt><trkpt lat="44.0094688685902" lon="7.911405382259075"><ele>1044.0</ele><time>2026-04-25T09:05:04Z</time></trkpt><trkpt lat="44.00944519519802" lon="7.911309902028119"><ele>1045.8</ele><time>2026-04-25T09:05:05Z</time></trkpt><trkpt lat="44.00942778759959" lon="7.911211315640694"><ele>1047.6000000000001</ele><time>2026-04-25T09:05:06Z</time></trkpt><trkpt lat="44.00945011233776" lon="7.911065864046397"><ele>1049.4</ele><time>2026-04-25T09:05:08Z</time></trkpt><trkpt lat="44.009527560731236" lon="7.91093461023917"><ele>1051.2</ele><time>2026-04-25T09:05:10Z</time></trkpt><trkpt lat="44.00957818732501" lon="7.910845404227886"><ele>1053.0</ele><time>2026-04-25T09:05:11Z</time></trkpt><trkpt lat="44.009625946469534" lon="7.910755817721959"><ele>1054.0</ele><time>2026-04-25T09:05:12Z</time></trkpt><trkpt lat="44.00968181086428" lon="7.91067915542302"><ele>1055.0</ele><time>2026-04-25T09:05:13Z</time></trkpt><trkpt lat="44.00972910292193" lon="7.910612836416555"><ele>1056.0</ele><time>2026-04-25T09:05:14Z</time></trkpt><trkpt lat="44.00976294037774" lon="7.91045035240659"><ele>1057.0</ele><time>2026-04-25T09:05:16Z</time></trkpt><trkpt lat="44.00975351641174" lon="7.91033857478001"><ele>1058.0</ele><time>2026-04-25T09:05:17Z</time></trkpt><trkpt lat="44.00974825908935" lon="7.910225554420372"><ele>1059.0</ele><time>2026-04-25T09:05:18Z</time></trkpt><trkpt lat="44.00975448779949" lon="7.910138391612721"><ele>1060.4</ele><time>2026-04-25T09:05:19Z</time></trkpt><trkpt lat="44.00972745407461" lon="7.909985146178536"><ele>1061.8000000000002</ele><time>2026-04-25T09:05:21Z</time></trkpt><trkpt lat="44.009645675191344" lon="7.909870480508763"><ele>1063.1999999999998</ele><time>2026-04-25T09:05:23Z</time></trkpt><trkpt lat="44.00957354306464" lon="7.909768360344972"><ele>1064.6</ele><time>2026-04-25T09:05:25Z</time></trkpt><trkpt lat="44.009536391007394" lon="7.9096907680536725"><ele>1066.0</ele><time>2026-04-25T09:05:26Z</time></trkpt><trkpt lat="44.00946946019124" lon="7.909547476026756"><ele>1066.0</ele><time>2026-04-25T09:05:28Z</time></trkpt><trkpt lat="44.00941472363921" lon="7.909388809389025"><ele>1066.0</ele><time>2026-04-25T09:05:30Z</time></trkpt><trkpt lat="44.009364392470154" lon="7.909240924784151"><ele>1066.0</ele><time>2026-04-25T09:05:32Z</time></trkpt><trkpt lat="44.00932429866207" lon="7.9091733897993235"><ele>1066.0</ele><time>2026-04-25T09:05:33Z</time></trkpt><trkpt lat="44.00923992055703" lon="7.909057412519912"><ele>1066.0</ele><time>2026-04-25T09:05:35Z</time></trkpt><trkpt lat="44.009182136987896" lon="7.908998715543606"><ele>1067.8333333333333</ele><time>2026-04-25T09:05:36Z</time></trkpt><trkpt lat="44.00912414471804" lon="7.9089418807178715"><ele>1069.6666666666665</ele><time>2026-04-25T09:05:37Z</time></trkpt><trkpt lat="44.00906016370573" lon="7.908905414074585"><ele>1071.5</ele><time>2026-04-25T09:05:38Z</time></trkpt><trkpt lat="44.009001467351126" lon="7.9088657827581335"><ele>1073.3333333333333</ele><time>2026-04-25T09:05:39Z</time></trkpt><trkpt lat="44.00889191840769" lon="7.908820669057601"><ele>1075.1666666666667</ele><time>2026-04-25T09:05:41Z</time></trkpt><trkpt lat="44.00882926268051" lon="7.908790315749054"><ele>1077.0</ele><time>2026-04-25T09:05:42Z</time></trkpt><trkpt lat="44.00871773613122" lon="7.908738642552197"><ele>1077.0</ele><time>2026-04-25T09:05:44Z</time></trkpt><trkpt lat="44.008665175413434" lon="7.908662772138388"><ele>1077.0</ele><time>2026-04-25T09:05:45Z</time></trkpt><trkpt lat="44.00860621142213" lon="7.9085882168987975"><ele>1077.0</ele><time>2026-04-25T09:05:46Z</time></trkpt><trkpt lat="44.008541858546415" lon="7.908530380479442"><ele>1077.0</ele><time>2026-04-25T09:05:47Z</time></trkpt><trkpt lat="44.00848165087036" lon="7.908488137174453"><ele>1077.0</ele><time>2026-04-25T09:05:48Z</time></trkpt><trkpt lat="44.00840744471453" lon="7.90846641196792"><ele>1077.0</ele><time>2026-04-25T09:05:49Z</time></trkpt><trkpt lat="44.008326455981745" lon="7.908444906980466"><ele>1077.1666666666667</ele><time>2026-04-25T09:05:50Z</time></trkpt><trkpt lat="44.0082417970417" lon="7.9084421541836205"><ele>1077.3333333333333</ele><time>2026-04-25T09:05:51Z</time></trkpt><trkpt lat="44.00816882408941" lon="7.90842438772617"><ele>1077.5</ele><time>2026-04-25T09:05:52Z</time></trkpt><trkpt lat="44.008102617037196" lon="7.9084306025186"><ele>1077.6666666666665</ele><time>2026-04-25T09:05:53Z</time></trkpt><trkpt lat="44.00803692877383" lon="7.90842969432221"><ele>1077.8333333333333</ele><time>2026-04-25T09:05:54Z</time></trkpt><trkpt lat="44.00793013504529" lon="7.90839012311797"><ele>1078.0</ele><time>2026-04-25T09:05:56Z</time></trkpt><trkpt lat="44.007899619032344" lon="7.908308120951906"><ele>1078.0</ele><time>2026-04-25T09:05:57Z</time></trkpt><trkpt lat="44.00787323116712" lon="7.908208411452714"><ele>1078.0</ele><time>2026-04-25T09:05:58Z</time></trkpt><trkpt lat="44.00786115696917" lon="7.908090994269201"><ele>1078.0</ele><time>2026-04-25T09:05:59Z</time></trkpt><trkpt lat="44.007875271259195" lon="7.907980155939985"><ele>1078.0</ele><time>2026-04-25T09:06:00Z</time></trkpt><trkpt lat="44.00789547000571" lon="7.907857663173061"><ele>1078.0</ele><time>2026-04-25T09:06:01Z</time></trkpt><trkpt lat="44.007897967814465" lon="7.907740701532887"><ele>1078.0</ele><time>2026-04-25T09:06:02Z</time></trkpt><trkpt lat="44.0078863814354" lon="7.907622921925284"><ele>1076.857142857143</ele><time>2026-04-25T09:06:03Z</time></trkpt><trkpt lat="44.007879967857185" lon="7.907517728633226"><ele>1075.7142857142858</ele><time>2026-04-25T09:06:04Z</time></trkpt><trkpt lat="44.0078659030099" lon="7.907419731857496"><ele>1074.5714285714284</ele><time>2026-04-25T09:06:05Z</time></trkpt><trkpt lat="44.00782964934144" lon="7.907342304437465"><ele>1073.4285714285716</ele><time>2026-04-25T09:06:06Z</time></trkpt><trkpt lat="44.00779708505499" lon="7.907262688531784"><ele>1072.2857142857142</ele><time>2026-04-25T09:06:07Z</time></trkpt><trkpt lat="44.00775875415053" lon="7.907182047794197"><ele>1071.142857142857</ele><time>2026-04-25T09:06:08Z</time></trkpt><trkpt lat="44.007719254892734" lon="7.907095395717315"><ele>1070.0</ele><time>2026-04-25T09:06:09Z</time></trkpt><trkpt lat="44.00766689965062" lon="7.907025354670923"><ele>1070.0</ele><time>2026-04-25T09:06:10Z</time></trkpt><trkpt lat="44.007615875660576" lon="7.906961246965284"><ele>1070.0</ele><time>2026-04-25T09:06:11Z</time></trkpt><trkpt lat="44.00753950170756" lon="7.90691689846633"><ele>1070.0</ele><time>2026-04-25T09:06:12Z</time></trkpt><trkpt lat="44.00747872673807" lon="7.906877745616815"><ele>1070.0</ele><time>2026-04-25T09:06:13Z</time></trkpt><trkpt lat="44.00738843049239" lon="7.906808740011619"><ele>1070.0</ele><time>2026-04-25T09:06:15Z</time></trkpt><trkpt lat="44.007330432987644" lon="7.906759922572615"><ele>1070.0</ele><time>2026-04-25T09:06:16Z</time></trkpt><trkpt lat="44.007245703370764" lon="7.90669281156184"><ele>1073.4</ele><time>2026-04-25T09:06:18Z</time></trkpt><trkpt lat="44.00720818548432" lon="7.90655942355436"><ele>1076.8</ele><time>2026-04-25T09:06:20Z</time></trkpt><trkpt lat="44.00719676910805" lon="7.906443806059752"><ele>1080.2</ele><time>2026-04-25T09:06:21Z</time></trkpt><trkpt lat="44.00719469460203" lon="7.906343914207643"><ele>1083.6</ele><time>2026-04-25T09:06:22Z</time></trkpt><trkpt lat="44.00717580853646" lon="7.906212872247466"><ele>1087.0</ele><time>2026-04-25T09:06:24Z</time></trkpt><trkpt lat="44.00717789720164" lon="7.906076663134963"><ele>1087.0</ele><time>2026-04-25T09:06:26Z</time></trkpt><trkpt lat="44.0071351369214" lon="7.906010357375168"><ele>1087.0</ele><time>2026-04-25T09:06:28Z</time></trkpt><trkpt lat="44.00709498920293" lon="7.9058881317278225"><ele>1087.0</ele><time>2026-04-25T09:06:30Z</time></trkpt><trkpt lat="44.00714050301174" lon="7.905749825352894"><ele>1087.0</ele><time>2026-04-25T09:06:32Z</time></trkpt><trkpt lat="44.007177287662664" lon="7.9056279757851575"><ele>1087.0</ele><time>2026-04-25T09:06:33Z</time></trkpt><trkpt lat="44.00720577363028" lon="7.905544622127305"><ele>1087.0</ele><time>2026-04-25T09:06:34Z</time></trkpt><trkpt lat="44.00721721738536" lon="7.905386002453344"><ele>1085.3333333333333</ele><time>2026-04-25T09:06:36Z</time></trkpt><trkpt lat="44.0072474188772" lon="7.905298516612576"><ele>1083.6666666666665</ele><time>2026-04-25T09:06:37Z</time></trkpt><trkpt lat="44.0072790572099" lon="7.905119564864596"><ele>1082.0</ele><time>2026-04-25T09:06:39Z</time></trkpt><trkpt lat="44.007304528719004" lon="7.905021295072184"><ele>1080.3333333333333</ele><time>2026-04-25T09:06:40Z</time></trkpt><trkpt lat="44.00732812814707" lon="7.90492508184266"><ele>1078.6666666666667</ele><time>2026-04-25T09:06:41Z</time></trkpt><trkpt lat="44.007343843870984" lon="7.904840190543308"><ele>1077.0</ele><time>2026-04-25T09:06:42Z</time></trkpt><trkpt lat="44.007352833266445" lon="7.904697627830215"><ele>1077.0</ele><time>2026-04-25T09:06:44Z</time></trkpt><trkpt lat="44.00735130143968" lon="7.904590366359507"><ele>1077.0</ele><time>2026-04-25T09:06:45Z</time></trkpt><trkpt lat="44.00736372638636" lon="7.904487947840804"><ele>1077.0</ele><time>2026-04-25T09:06:46Z</time></trkpt><trkpt lat="44.00739760783733" lon="7.904379357168482"><ele>1077.0</ele><time>2026-04-25T09:06:47Z</time></trkpt><trkpt lat="44.00741082411243" lon="7.9042878987810425"><ele>1077.0</ele><time>2026-04-25T09:06:48Z</time></trkpt><trkpt lat="44.007426219671125" lon="7.90416603630703"><ele>1077.0</ele><time>2026-04-25T09:06:50Z</time></trkpt><trkpt lat="44.00739397824797" lon="7.904061511660996"><ele>1077.1666666666667</ele><time>2026-04-25T09:06:52Z</time></trkpt><trkpt lat="44.00735805683336" lon="7.90389435372668"><ele>1077.3333333333333</ele><time>2026-04-25T09:06:54Z</time></trkpt><trkpt lat="44.007326237264024" lon="7.903782626258631"><ele>1077.5</ele><time>2026-04-25T09:06:55Z</time></trkpt><trkpt lat="44.007294152679634" lon="7.903685499669136"><ele>1077.6666666666665</ele><time>2026-04-25T09:06:56Z</time></trkpt><trkpt lat="44.00725130287189" lon="7.903593692110418"><ele>1077.8333333333333</ele><time>2026-04-25T09:06:57Z</time></trkpt><trkpt lat="44.00722194668634" lon="7.903507716008266"><ele>1078.0</ele><time>2026-04-25T09:06:58Z</time></trkpt><trkpt lat="44.00718534421633" lon="7.903435980929495"><ele>1076.3333333333333</ele><time>2026-04-25T09:06:59Z</time></trkpt><trkpt lat="44.007136432779824" lon="7.90335062626222"><ele>1074.6666666666665</ele><time>2026-04-25T09:07:00Z</time></trkpt><trkpt lat="44.007091941787614" lon="7.903264872437231"><ele>1073.0</ele><time>2026-04-25T09:07:01Z</time></trkpt><trkpt lat="44.007042218069884" lon="7.9031717807674"><ele>1071.3333333333333</ele><time>2026-04-25T09:07:02Z</time></trkpt><trkpt lat="44.00699742171163" lon="7.9030719795378666"><ele>1069.6666666666667</ele><time>2026-04-25T09:07:03Z</time></trkpt><trkpt lat="44.00696078328168" lon="7.902967926257605"><ele>1068.0</ele><time>2026-04-25T09:07:04Z</time></trkpt><trkpt lat="44.0068822597864" lon="7.902829694638513"><ele>1068.0000000000002</ele><time>2026-04-25T09:07:06Z</time></trkpt><trkpt lat="44.006838511572326" lon="7.902747037312204"><ele>1068.0</ele><time>2026-04-25T09:07:07Z</time></trkpt><trkpt lat="44.00679081907359" lon="7.902669304468013"><ele>1068.0</ele><time>2026-04-25T09:07:08Z</time></trkpt><trkpt lat="44.00674340789035" lon="7.902602102008312"><ele>1068.0</ele><time>2026-04-25T09:07:09Z</time></trkpt><trkpt lat="44.006689653882326" lon="7.9025410609121005"><ele>1068.0</ele><time>2026-04-25T09:07:10Z</time></trkpt><trkpt lat="44.006644524918" lon="7.902468896766962"><ele>1068.0000000000002</ele><time>2026-04-25T09:07:11Z</time></trkpt><trkpt lat="44.006591767414655" lon="7.902407690482889"><ele>1068.0</ele><time>2026-04-25T09:07:12Z</time></trkpt><trkpt lat="44.006505189723306" lon="7.902293703331467"><ele>1069.8333333333333</ele><time>2026-04-25T09:07:14Z</time></trkpt><trkpt lat="44.006483770967684" lon="7.902185054018914"><ele>1071.6666666666667</ele><time>2026-04-25T09:07:16Z</time></trkpt><trkpt lat="44.00643644358674" lon="7.9020922990335665"><ele>1073.5</ele><time>2026-04-25T09:07:18Z</time></trkpt><trkpt lat="44.00641293233111" lon="7.901965709826858"><ele>1075.3333333333335</ele><time>2026-04-25T09:07:20Z</time></trkpt><trkpt lat="44.006455279899335" lon="7.901899746263775"><ele>1077.1666666666667</ele><time>2026-04-25T09:07:22Z</time></trkpt><trkpt lat="44.00652189883978" lon="7.90188423716345"><ele>1079.0</ele><time>2026-04-25T09:07:24Z</time></trkpt><trkpt lat="44.00661422349163" lon="7.9018793823424645"><ele>1074.1666666666667</ele><time>2026-04-25T09:07:26Z</time></trkpt><trkpt lat="44.006694478687" lon="7.901863468775329"><ele>1069.3333333333335</ele><time>2026-04-25T09:07:28Z</time></trkpt><trkpt lat="44.00676080522664" lon="7.9018452279154605"><ele>1064.5</ele><time>2026-04-25T09:07:30Z</time></trkpt><trkpt lat="44.00680709836167" lon="7.901781036558643"><ele>1059.6666666666667</ele><time>2026-04-25T09:07:32Z</time></trkpt><trkpt lat="44.00686954959798" lon="7.901671714409677"><ele>1054.8333333333333</ele><time>2026-04-25T09:07:34Z</time></trkpt><trkpt lat="44.00692343402431" lon="7.901611723229874"><ele>1050.0</ele><time>2026-04-25T09:07:36Z</time></trkpt><trkpt lat="44.00699075503725" lon="7.901574740892395"><ele>1049.6</ele><time>2026-04-25T09:07:38Z</time></trkpt><trkpt lat="44.00705328321036" lon="7.901534480524789"><ele>1049.2</ele><time>2026-04-25T09:07:40Z</time></trkpt><trkpt lat="44.00712935400423" lon="7.90149397823953"><ele>1048.8</ele><time>2026-04-25T09:07:42Z</time></trkpt><trkpt lat="44.00722968459027" lon="7.901472946123915"><ele>1048.4</ele><time>2026-04-25T09:07:44Z</time></trkpt><trkpt lat="44.00732605044039" lon="7.901419165239526"><ele>1048.0</ele><time>2026-04-25T09:07:47Z</time></trkpt><trkpt lat="44.00745460456274" lon="7.90140505161213"><ele>1045.8333333333333</ele><time>2026-04-25T09:07:49Z</time></trkpt><trkpt lat="44.007529538487006" lon="7.901396183285751"><ele>1043.6666666666665</ele><time>2026-04-25T09:07:51Z</time></trkpt><trkpt lat="44.007612552258365" lon="7.901431373994917"><ele>1041.5</ele><time>2026-04-25T09:07:54Z</time></trkpt><trkpt lat="44.00761277453097" lon="7.901524472511671"><ele>1039.3333333333333</ele><time>2026-04-25T09:07:56Z</time></trkpt><trkpt lat="44.00769214293196" lon="7.901570231167529"><ele>1037.1666666666667</ele><time>2026-04-25T09:07:59Z</time></trkpt><trkpt lat="44.007792695571325" lon="7.901567139450841"><ele>1035.0</ele><time>2026-04-25T09:08:01Z</time></trkpt><trkpt lat="44.00787747051839" lon="7.901585518614646"><ele>1035.0</ele><time>2026-04-25T09:08:04Z</time></trkpt><trkpt lat="44.00795319998659" lon="7.901662040612677"><ele>1035.0</ele><time>2026-04-25T09:08:06Z</time></trkpt><trkpt lat="44.00800930874427" lon="7.901724916319541"><ele>1035.0</ele><time>2026-04-25T09:08:08Z</time></trkpt><trkpt lat="44.00794575051924" lon="7.901773163394862"><ele>1035.0</ele><time>2026-04-25T09:08:16Z</time></trkpt><trkpt lat="44.007836565053026" lon="7.901768998496778"><ele>1035.0</ele><time>2026-04-25T09:08:19Z</time></trkpt><trkpt lat="44.00781256305488" lon="7.901853101455245"><ele>1035.0</ele><time>2026-04-25T09:08:21Z</time></trkpt><trkpt lat="44.00786532435804" lon="7.9019140292564405"><ele>1034.3333333333333</ele><time>2026-04-25T09:08:24Z</time></trkpt><trkpt lat="44.00792959682532" lon="7.901935376580397"><ele>1033.6666666666667</ele><time>2026-04-25T09:08:26Z</time></trkpt><trkpt lat="44.00800938218888" lon="7.90197587244416"><ele>1033.0</ele><time>2026-04-25T09:08:29Z</time></trkpt><trkpt lat="44.00807110227947" lon="7.902009204892077"><ele>1032.3333333333335</ele><time>2026-04-25T09:08:31Z</time></trkpt><trkpt lat="44.00816257122814" lon="7.902022113092478"><ele>1031.6666666666667</ele><time>2026-04-25T09:08:33Z</time></trkpt><trkpt lat="44.00818422698371" lon="7.9021248188103765"><ele>1031.0</ele><time>2026-04-25T09:08:36Z</time></trkpt><trkpt lat="44.00814101648875" lon="7.902190778314788"><ele>1031.0</ele><time>2026-04-25T09:08:38Z</time></trkpt><trkpt lat="44.00805839498747" lon="7.902261419621286"><ele>1031.0</ele><time>2026-04-25T09:08:41Z</time></trkpt><trkpt lat="44.00800996592021" lon="7.90237451894757"><ele>1031.0</ele><time>2026-04-25T09:08:44Z</time></trkpt><trkpt lat="44.007973831662234" lon="7.902508166172011"><ele>1031.0</ele><time>2026-04-25T09:08:48Z</time></trkpt><trkpt lat="44.00801936092657" lon="7.902575986888114"><ele>1031.0</ele><time>2026-04-25T09:08:50Z</time></trkpt><trkpt lat="44.00808992578352" lon="7.902617204389937"><ele>1031.0</ele><time>2026-04-25T09:08:52Z</time></trkpt><trkpt lat="44.00815523738713" lon="7.902710214998227"><ele>1032.1666666666667</ele><time>2026-04-25T09:08:54Z</time></trkpt><trkpt lat="44.00823113085306" lon="7.902790308019082"><ele>1033.3333333333335</ele><time>2026-04-25T09:08:56Z</time></trkpt><trkpt lat="44.00829430766299" lon="7.902832049695905"><ele>1034.5</ele><time>2026-04-25T09:08:58Z</time></trkpt><trkpt lat="44.008370163258505" lon="7.902901609444443"><ele>1035.6666666666667</ele><time>2026-04-25T09:09:00Z</time></trkpt><trkpt lat="44.00843823931299" lon="7.90294335155895"><ele>1036.8333333333333</ele><time>2026-04-25T09:09:02Z</time></trkpt><trkpt lat="44.00853013829274" lon="7.902879621168066"><ele>1038.0</ele><time>2026-04-25T09:09:04Z</time></trkpt><trkpt lat="44.0085538102053" lon="7.902792915791537"><ele>1033.1666666666667</ele><time>2026-04-25T09:09:06Z</time></trkpt><trkpt lat="44.008605895152854" lon="7.902702046284092"><ele>1028.3333333333333</ele><time>2026-04-25T09:09:09Z</time></trkpt><trkpt lat="44.00867747502577" lon="7.90271128838079"><ele>1023.5</ele><time>2026-04-25T09:09:11Z</time></trkpt><trkpt lat="44.008751108693374" lon="7.902771636878408"><ele>1018.6666666666666</ele><time>2026-04-25T09:09:13Z</time></trkpt><trkpt lat="44.00883705026714" lon="7.902845862005098"><ele>1013.8333333333333</ele><time>2026-04-25T09:09:15Z</time></trkpt><trkpt lat="44.0088917056027" lon="7.902921393873031"><ele>1009.0</ele><time>2026-04-25T09:09:17Z</time></trkpt><trkpt lat="44.008926773849474" lon="7.902998372630643"><ele>1009.0</ele><time>2026-04-25T09:09:19Z</time></trkpt><trkpt lat="44.00898525587148" lon="7.903108445926619"><ele>1009.0000000000001</ele><time>2026-04-25T09:09:21Z</time></trkpt><trkpt lat="44.00904245513264" lon="7.903189382141969"><ele>1009.0000000000001</ele><time>2026-04-25T09:09:23Z</time></trkpt><trkpt lat="44.00911189025238" lon="7.903297432850703"><ele>1009.0</ele><time>2026-04-25T09:09:25Z</time></trkpt><trkpt lat="44.00920021592362" lon="7.903277946466354"><ele>1009.0</ele><time>2026-04-25T09:09:28Z</time></trkpt><trkpt lat="44.00925091719638" lon="7.903194368953334"><ele>1007.6666666666666</ele><time>2026-04-25T09:10:25Z</time></trkpt><trkpt lat="44.00924855251303" lon="7.9031030783839755"><ele>1006.3333333333333</ele><time>2026-04-25T09:10:27Z</time></trkpt><trkpt lat="44.00928266384291" lon="7.902991216819893"><ele>1005.0</ele><time>2026-04-25T09:10:29Z</time></trkpt><trkpt lat="44.00935162267086" lon="7.902883011542036"><ele>1003.6666666666667</ele><time>2026-04-25T09:10:32Z</time></trkpt><trkpt lat="44.009387111513625" lon="7.902785819295281"><ele>1002.3333333333334</ele><time>2026-04-25T09:10:34Z</time></trkpt><trkpt lat="44.0093969585847" lon="7.902658586566399"><ele>1001.0</ele><time>2026-04-25T09:10:36Z</time></trkpt><trkpt lat="44.00941044278958" lon="7.902509661115052"><ele>1001.0</ele><time>2026-04-25T09:10:38Z</time></trkpt><trkpt lat="44.009412624623" lon="7.9023887912419895"><ele>1000.9999999999999</ele><time>2026-04-25T09:10:40Z</time></trkpt><trkpt lat="44.00939836186643" lon="7.902281684301737"><ele>1000.9999999999999</ele><time>2026-04-25T09:10:42Z</time></trkpt><trkpt lat="44.00936653501547" lon="7.902147078150135"><ele>1001.0</ele><time>2026-04-25T09:10:44Z</time></trkpt><trkpt lat="44.0093243131732" lon="7.902024131367567"><ele>1001.0</ele><time>2026-04-25T09:10:46Z</time></trkpt><trkpt lat="44.00933111604341" lon="7.901906148264159"><ele>1001.0</ele><time>2026-04-25T09:10:48Z</time></trkpt><trkpt lat="44.009326529272215" lon="7.901786546224378"><ele>1000.9999999999999</ele><time>2026-04-25T09:10:50Z</time></trkpt><trkpt lat="44.00932157586439" lon="7.901661994927313"><ele>1000.9999999999999</ele><time>2026-04-25T09:10:52Z</time></trkpt><trkpt lat="44.009348631062444" lon="7.901527310897734"><ele>1001.0</ele><time>2026-04-25T09:10:54Z</time></trkpt><trkpt lat="44.00937347212114" lon="7.90135415122134"><ele>1001.0</ele><time>2026-04-25T09:10:56Z</time></trkpt><trkpt lat="44.00935183478951" lon="7.901233142048797"><ele>1000.8333333333334</ele><time>2026-04-25T09:10:58Z</time></trkpt><trkpt lat="44.00933923935922" lon="7.901099787096944"><ele>1000.6666666666667</ele><time>2026-04-25T09:11:00Z</time></trkpt><trkpt lat="44.00931826346433" lon="7.900972227928364"><ele>1000.5</ele><time>2026-04-25T09:11:02Z</time></trkpt><trkpt lat="44.00926523071558" lon="7.900908139055342"><ele>1000.3333333333333</ele><time>2026-04-25T09:11:05Z</time></trkpt><trkpt lat="44.00926958828838" lon="7.900818794406952"><ele>1000.1666666666666</ele><time>2026-04-25T09:11:07Z</time></trkpt><trkpt lat="44.0093440023798" lon="7.900712950352147"><ele>1000.0</ele><time>2026-04-25T09:11:11Z</time></trkpt><trkpt lat="44.009391657584416" lon="7.900636513780439"><ele>1000.0</ele><time>2026-04-25T09:11:14Z</time></trkpt><trkpt lat="44.00946165830915" lon="7.900602867512923"><ele>1000.0</ele><time>2026-04-25T09:11:16Z</time></trkpt><trkpt lat="44.00968807918745" lon="7.900402785802179"><ele>1000.0</ele><time>2026-04-25T09:11:19Z</time></trkpt><trkpt lat="44.00973754526947" lon="7.90030120283276"><ele>1000.0</ele><time>2026-04-25T09:11:21Z</time></trkpt><trkpt lat="44.009768746812234" lon="7.900198720064949"><ele>999.9999999999999</ele><time>2026-04-25T09:11:23Z</time></trkpt><trkpt lat="44.00981831530513" lon="7.900101264835467"><ele>1000.0</ele><time>2026-04-25T09:11:25Z</time></trkpt><trkpt lat="44.00985063787639" lon="7.899988513644903"><ele>1000.0</ele><time>2026-04-25T09:11:27Z</time></trkpt><trkpt lat="44.0098763729714" lon="7.899893896159219"><ele>1000.0</ele><time>2026-04-25T09:11:29Z</time></trkpt><trkpt lat="44.009895290791086" lon="7.899793101674845"><ele>999.9999999999999</ele><time>2026-04-25T09:11:31Z</time></trkpt><trkpt lat="44.009887008140176" lon="7.899664095555428"><ele>1000.0</ele><time>2026-04-25T09:11:33Z</time></trkpt><trkpt lat="44.00981985819172" lon="7.899552711448719"><ele>999.9999999999999</ele><time>2026-04-25T09:11:35Z</time></trkpt><trkpt lat="44.009737602431684" lon="7.899463235219282"><ele>1000.0</ele><time>2026-04-25T09:11:37Z</time></trkpt><trkpt lat="44.009739149742785" lon="7.899345130348931"><ele>1000.0</ele><time>2026-04-25T09:11:39Z</time></trkpt><trkpt lat="44.009766296224214" lon="7.899257650655587"><ele>1000.0</ele><time>2026-04-25T09:11:42Z</time></trkpt><trkpt lat="44.00979483032341" lon="7.899176487056253"><ele>999.9999999999999</ele><time>2026-04-25T09:11:44Z</time></trkpt><trkpt lat="44.00980729502431" lon="7.899078039117705"><ele>1000.0</ele><time>2026-04-25T09:11:47Z</time></trkpt><trkpt lat="44.00980123374969" lon="7.898936799264442"><ele>999.6666666666666</ele><time>2026-04-25T09:11:50Z</time></trkpt><trkpt lat="44.009892713906865" lon="7.898861125243888"><ele>999.3333333333333</ele><time>2026-04-25T09:11:52Z</time></trkpt><trkpt lat="44.00994463328971" lon="7.898810599132919"><ele>999.0</ele><time>2026-04-25T09:11:53Z</time></trkpt><trkpt lat="44.010015162440936" lon="7.898764233125038"><ele>998.6666666666667</ele><time>2026-04-25T09:11:57Z</time></trkpt><trkpt lat="44.01008643819626" lon="7.898749393407612"><ele>998.3333333333334</ele><time>2026-04-25T09:11:59Z</time></trkpt><trkpt lat="44.010167592724" lon="7.8987172586415175"><ele>998.0</ele><time>2026-04-25T09:12:02Z</time></trkpt><trkpt lat="44.010267509906775" lon="7.898755454710647"><ele>993.2857142857144</ele><time>2026-04-25T09:12:05Z</time></trkpt><trkpt lat="44.01032819683329" lon="7.898725641882621"><ele>988.5714285714287</ele><time>2026-04-25T09:12:08Z</time></trkpt><trkpt lat="44.01039430936898" lon="7.898690050005578"><ele>983.8571428571429</ele><time>2026-04-25T09:15:34Z</time></trkpt><trkpt lat="44.010443561728586" lon="7.898631718962076"><ele>979.1428571428572</ele><time>2026-04-25T09:15:38Z</time></trkpt><trkpt lat="44.010514246849674" lon="7.898633602070576"><ele>974.4285714285716</ele><time>2026-04-25T09:15:41Z</time></trkpt><trkpt lat="44.01058193849175" lon="7.898722633452693"><ele>969.7142857142857</ele><time>2026-04-25T09:15:43Z</time></trkpt><trkpt lat="44.01064850537415" lon="7.8987690113889135"><ele>965.0</ele><time>2026-04-25T09:15:45Z</time></trkpt><trkpt lat="44.010739865982536" lon="7.898764064408707"><ele>965.0000000000001</ele><time>2026-04-25T09:15:48Z</time></trkpt><trkpt lat="44.010790103776515" lon="7.898702076748158"><ele>965.0</ele><time>2026-04-25T09:15:50Z</time></trkpt><trkpt lat="44.01084654978702" lon="7.898641437663634"><ele>965.0</ele><time>2026-04-25T09:15:52Z</time></trkpt><trkpt lat="44.010901045190934" lon="7.898587505667381"><ele>965.0</ele><time>2026-04-25T09:15:53Z</time></trkpt><trkpt lat="44.01097182120869" lon="7.898510283938508"><ele>965.0000000000001</ele><time>2026-04-25T09:15:55Z</time></trkpt><trkpt lat="44.01102751222783" lon="7.898439656534808"><ele>965.0</ele><time>2026-04-25T09:15:57Z</time></trkpt><trkpt lat="44.0110945281955" lon="7.8983818043258704"><ele>963.1666666666667</ele><time>2026-04-25T09:15:59Z</time></trkpt><trkpt lat="44.01113383922495" lon="7.898290971762322"><ele>961.3333333333334</ele><time>2026-04-25T09:16:01Z</time></trkpt><trkpt lat="44.01120064615646" lon="7.898214941284961"><ele>959.5</ele><time>2026-04-25T09:16:03Z</time></trkpt><trkpt lat="44.011298761249236" lon="7.898251728819793"><ele>957.6666666666667</ele><time>2026-04-25T09:16:06Z</time></trkpt><trkpt lat="44.01136380230158" lon="7.898256834986023"><ele>955.8333333333334</ele><time>2026-04-25T09:16:08Z</time></trkpt><trkpt lat="44.01144574773397" lon="7.8982500684629136"><ele>954.0</ele><time>2026-04-25T09:16:13Z</time></trkpt><trkpt lat="44.011512700864664" lon="7.898298628102537"><ele>954.0</ele><time>2026-04-25T09:16:18Z</time></trkpt><trkpt lat="44.01144124915122" lon="7.8983739375368724"><ele>954.0</ele><time>2026-04-25T09:16:21Z</time></trkpt><trkpt lat="44.011400745524284" lon="7.89848488967623"><ele>954.0</ele><time>2026-04-25T09:16:24Z</time></trkpt><trkpt lat="44.01141144107392" lon="7.898582604633245"><ele>954.0</ele><time>2026-04-25T09:16:26Z</time></trkpt><trkpt lat="44.0114286035981" lon="7.898670280413394"><ele>954.0</ele><time>2026-04-25T09:16:28Z</time></trkpt><trkpt lat="44.011369401280625" lon="7.898760127827471"><ele>954.0</ele><time>2026-04-25T09:16:31Z</time></trkpt><trkpt lat="44.0113098767605" lon="7.898869310288072"><ele>951.8333333333334</ele><time>2026-04-25T09:16:33Z</time></trkpt><trkpt lat="44.01127472614111" lon="7.898988119885347"><ele>949.6666666666667</ele><time>2026-04-25T09:16:35Z</time></trkpt><trkpt lat="44.01125313791716" lon="7.899072104428854"><ele>947.5</ele><time>2026-04-25T09:16:36Z</time></trkpt><trkpt lat="44.01120655393544" lon="7.899162508655832"><ele>945.3333333333334</ele><time>2026-04-25T09:16:38Z</time></trkpt><trkpt lat="44.01119953918705" lon="7.899287491180461"><ele>943.1666666666667</ele><time>2026-04-25T09:16:40Z</time></trkpt><trkpt lat="44.011201606245336" lon="7.8993965058027555"><ele>941.0</ele><time>2026-04-25T09:16:42Z</time></trkpt><trkpt lat="44.01116993237221" lon="7.899518300636821"><ele>939.0</ele><time>2026-04-25T09:16:44Z</time></trkpt><trkpt lat="44.011094349371284" lon="7.899600563866792"><ele>936.9999999999999</ele><time>2026-04-25T09:16:46Z</time></trkpt><trkpt lat="44.011000518033335" lon="7.899623677282613"><ele>934.9999999999999</ele><time>2026-04-25T09:16:48Z</time></trkpt><trkpt lat="44.010914436472575" lon="7.899592272461026"><ele>933.0</ele><time>2026-04-25T09:16:50Z</time></trkpt><trkpt lat="44.01084837654075" lon="7.899659066160644"><ele>931.0</ele><time>2026-04-25T09:16:54Z</time></trkpt><trkpt lat="44.010839675258836" lon="7.899783981257859"><ele>931.0</ele><time>2026-04-25T09:16:56Z</time></trkpt><trkpt lat="44.01082973165475" lon="7.899889814895583"><ele>930.9999999999999</ele><time>2026-04-25T09:16:58Z</time></trkpt><trkpt lat="44.01082731046023" lon="7.900038390970259"><ele>930.9999999999999</ele><time>2026-04-25T09:17:00Z</time></trkpt><trkpt lat="44.01079066922969" lon="7.90017608485591"><ele>931.0</ele><time>2026-04-25T09:17:02Z</time></trkpt><trkpt lat="44.01076307082226" lon="7.900320761707046"><ele>931.0</ele><time>2026-04-25T09:17:04Z</time></trkpt><trkpt lat="44.01073666508487" lon="7.9004012004778295"><ele>930.9999999999999</ele><time>2026-04-25T09:17:06Z</time></trkpt><trkpt lat="44.01076570494555" lon="7.900487960215657"><ele>931.0</ele><time>2026-04-25T09:17:08Z</time></trkpt><trkpt lat="44.01081054097811" lon="7.900578070885212"><ele>931.0</ele><time>2026-04-25T09:17:10Z</time></trkpt><trkpt lat="44.01083725847567" lon="7.900707029125975"><ele>931.0</ele><time>2026-04-25T09:17:12Z</time></trkpt><trkpt lat="44.01087724827076" lon="7.900814444475643"><ele>930.9999999999999</ele><time>2026-04-25T09:17:14Z</time></trkpt><trkpt lat="44.010927698004124" lon="7.900902161294656"><ele>931.0</ele><time>2026-04-25T09:17:16Z</time></trkpt><trkpt lat="44.01096683176372" lon="7.901000617619244"><ele>932.5999999999999</ele><time>2026-04-25T09:17:18Z</time></trkpt><trkpt lat="44.011037730618966" lon="7.901095051443378"><ele>934.1999999999999</ele><time>2026-04-25T09:17:21Z</time></trkpt><trkpt lat="44.0110793448102" lon="7.9011985012871575"><ele>935.8000000000001</ele><time>2026-04-25T09:17:23Z</time></trkpt><trkpt lat="44.01111766001175" lon="7.9012918876049625"><ele>937.4000000000001</ele><time>2026-04-25T09:17:24Z</time></trkpt><trkpt lat="44.01122963988207" lon="7.901373492833956"><ele>939.0</ele><time>2026-04-25T09:17:26Z</time></trkpt><trkpt lat="44.011290312665906" lon="7.901428888642989"><ele>939.0</ele><time>2026-04-25T09:17:27Z</time></trkpt><trkpt lat="44.01135260694666" lon="7.90145401461876"><ele>939.0</ele><time>2026-04-25T09:17:28Z</time></trkpt><trkpt lat="44.01142838977442" lon="7.901519402671476"><ele>939.0</ele><time>2026-04-25T09:17:30Z</time></trkpt><trkpt lat="44.011485634988574" lon="7.90158126490132"><ele>939.0</ele><time>2026-04-25T09:17:33Z</time></trkpt><trkpt lat="44.01156573982022" lon="7.90166800425064"><ele>939.0</ele><time>2026-04-25T09:17:35Z</time></trkpt><trkpt lat="44.01162482083787" lon="7.901721290457274"><ele>939.0</ele><time>2026-04-25T09:17:37Z</time></trkpt><trkpt lat="44.01170537103805" lon="7.90179176925345"><ele>933.1666666666666</ele><time>2026-04-25T09:17:39Z</time></trkpt><trkpt lat="44.01176103362161" lon="7.901858970470129"><ele>927.3333333333333</ele><time>2026-04-25T09:17:41Z</time></trkpt><trkpt lat="44.01181292274538" lon="7.90193618737998"><ele>921.5</ele><time>2026-04-25T09:17:43Z</time></trkpt><trkpt lat="44.01185968172503" lon="7.901998057990207"><ele>915.6666666666666</ele><time>2026-04-25T09:17:45Z</time></trkpt><trkpt lat="44.011927285658906" lon="7.902080280484445"><ele>909.8333333333333</ele><time>2026-04-25T09:17:48Z</time></trkpt><trkpt lat="44.0119042898476" lon="7.902169449683778"><ele>904.0</ele><time>2026-04-25T09:17:50Z</time></trkpt><trkpt lat="44.011846415266014" lon="7.9022445308027685"><ele>903.9999999999999</ele><time>2026-04-25T09:17:52Z</time></trkpt><trkpt lat="44.01181068375442" lon="7.902333119667509"><ele>904.0</ele><time>2026-04-25T09:17:55Z</time></trkpt><trkpt lat="44.011752416814964" lon="7.902451393388212"><ele>904.0</ele><time>2026-04-25T09:17:57Z</time></trkpt><trkpt lat="44.01172758857408" lon="7.902532908404548"><ele>904.0</ele><time>2026-04-25T09:17:59Z</time></trkpt><trkpt lat="44.011683839227935" lon="7.90263199799935"><ele>903.9999999999999</ele><time>2026-04-25T09:18:02Z</time></trkpt><trkpt lat="44.011645853065176" lon="7.9027022186088525"><ele>904.0</ele><time>2026-04-25T09:18:04Z</time></trkpt><trkpt lat="44.011604554315106" lon="7.902770934826805"><ele>908.8333333333333</ele><time>2026-04-25T09:18:06Z</time></trkpt><trkpt lat="44.011547491025176" lon="7.902818687781807"><ele>913.6666666666666</ele><time>2026-04-25T09:18:08Z</time></trkpt><trkpt lat="44.01148781411173" lon="7.902886244503983"><ele>918.5</ele><time>2026-04-25T09:18:11Z</time></trkpt><trkpt lat="44.01148252970645" lon="7.902977845498944"><ele>923.3333333333333</ele><time>2026-04-25T09:18:13Z</time></trkpt><trkpt lat="44.01149098822502" lon="7.903127718931869"><ele>928.1666666666666</ele><time>2026-04-25T09:18:15Z</time></trkpt><trkpt lat="44.011491709685565" lon="7.903230208209538"><ele>933.0</ele><time>2026-04-25T09:18:16Z</time></trkpt><trkpt lat="44.01148686739305" lon="7.903367343177928"><ele>933.0</ele><time>2026-04-25T09:18:18Z</time></trkpt><trkpt lat="44.01150916794869" lon="7.903457240431301"><ele>933.0</ele><time>2026-04-25T09:18:20Z</time></trkpt><trkpt lat="44.01152121389352" lon="7.9035970635026755"><ele>933.0</ele><time>2026-04-25T09:18:23Z</time></trkpt><trkpt lat="44.01154388585617" lon="7.903678982547656"><ele>933.0</ele><time>2026-04-25T09:18:25Z</time></trkpt><trkpt lat="44.01158098003333" lon="7.903579867218168"><ele>933.0</ele><time>2026-04-25T09:18:29Z</time></trkpt><trkpt lat="44.01159083691849" lon="7.903478958301384"><ele>933.0</ele><time>2026-04-25T09:18:31Z</time></trkpt><trkpt lat="44.01158033140459" lon="7.903377022331202"><ele>933.0</ele><time>2026-04-25T09:18:33Z</time></trkpt><trkpt lat="44.011610244301075" lon="7.9032627223283125"><ele>933.0</ele><time>2026-04-25T09:18:36Z</time></trkpt><trkpt lat="44.011679700801494" lon="7.903181572396297"><ele>933.0</ele><time>2026-04-25T09:18:39Z</time></trkpt><trkpt lat="44.01175998443754" lon="7.9031367739450875"><ele>933.0</ele><time>2026-04-25T09:18:41Z</time></trkpt><trkpt lat="44.011884426563434" lon="7.903102135162231"><ele>933.0</ele><time>2026-04-25T09:18:44Z</time></trkpt><trkpt lat="44.01195242264863" lon="7.903029559277454"><ele>926.6666666666666</ele><time>2026-04-25T09:18:46Z</time></trkpt><trkpt lat="44.01201799677659" lon="7.902965565101632"><ele>920.3333333333333</ele><time>2026-04-25T09:18:48Z</time></trkpt><trkpt lat="44.01208107326857" lon="7.9029272303687215"><ele>914.0</ele><time>2026-04-25T09:18:49Z</time></trkpt><trkpt lat="44.01214945029223" lon="7.902904339258947"><ele>907.6666666666666</ele><time>2026-04-25T09:18:50Z</time></trkpt><trkpt lat="44.01223876138883" lon="7.90286852067959"><ele>901.3333333333333</ele><time>2026-04-25T09:18:52Z</time></trkpt><trkpt lat="44.01232353480179" lon="7.902831078154482"><ele>895.0</ele><time>2026-04-25T09:18:54Z</time></trkpt><trkpt lat="44.01242464596737" lon="7.902764865119937"><ele>894.9999999999999</ele><time>2026-04-25T09:18:56Z</time></trkpt><trkpt lat="44.01247364337687" lon="7.902706290268007"><ele>895.0</ele><time>2026-04-25T09:18:59Z</time></trkpt><trkpt lat="44.01253067151245" lon="7.902660723061983"><ele>895.0</ele><time>2026-04-25T09:19:01Z</time></trkpt><trkpt lat="44.01259208315628" lon="7.90260502414426"><ele>895.0</ele><time>2026-04-25T09:19:03Z</time></trkpt><trkpt lat="44.01264538872213" lon="7.902509506722359"><ele>894.9999999999999</ele><time>2026-04-25T09:19:06Z</time></trkpt><trkpt lat="44.01265930443436" lon="7.902361853876441"><ele>895.0</ele><time>2026-04-25T09:19:08Z</time></trkpt><trkpt lat="44.01266151592413" lon="7.902264262578524"><ele>896.4999999999999</ele><time>2026-04-25T09:19:10Z</time></trkpt><trkpt lat="44.01267887301164" lon="7.902172835822127"><ele>898.0</ele><time>2026-04-25T09:19:12Z</time></trkpt><trkpt lat="44.012678243254705" lon="7.9020637552591495"><ele>899.5</ele><time>2026-04-25T09:19:14Z</time></trkpt><trkpt lat="44.01262647250929" lon="7.901938951297935"><ele>901.0</ele><time>2026-04-25T09:19:16Z</time></trkpt><trkpt lat="44.01253747961188" lon="7.90184483120944"><ele>902.4999999999999</ele><time>2026-04-25T09:19:18Z</time></trkpt><trkpt lat="44.01248236220562" lon="7.901777178756566"><ele>904.0</ele><time>2026-04-25T09:19:20Z</time></trkpt><trkpt lat="44.01241075565456" lon="7.901664139094287"><ele>904.3333333333333</ele><time>2026-04-25T09:19:22Z</time></trkpt><trkpt lat="44.01236982216665" lon="7.9015748958478484"><ele>904.6666666666666</ele><time>2026-04-25T09:19:23Z</time></trkpt><trkpt lat="44.01235989539009" lon="7.901465431389556"><ele>905.0</ele><time>2026-04-25T09:19:24Z</time></trkpt><trkpt lat="44.012368448614154" lon="7.90135645452471"><ele>905.3333333333333</ele><time>2026-04-25T09:19:26Z</time></trkpt><trkpt lat="44.012363950212375" lon="7.901257666889995"><ele>905.6666666666666</ele><time>2026-04-25T09:19:28Z</time></trkpt><trkpt lat="44.01242820591807" lon="7.901124210984209"><ele>906.0</ele><time>2026-04-25T09:19:31Z</time></trkpt><trkpt lat="44.012484707431625" lon="7.901084414673875"><ele>901.8333333333334</ele><time>2026-04-25T09:19:34Z</time></trkpt><trkpt lat="44.012555498334606" lon="7.901047432117694"><ele>897.6666666666667</ele><time>2026-04-25T09:19:37Z</time></trkpt><trkpt lat="44.01261702135386" lon="7.900956261534607"><ele>893.5</ele><time>2026-04-25T09:19:40Z</time></trkpt><trkpt lat="44.01266645713358" lon="7.90087409155435"><ele>889.3333333333334</ele><time>2026-04-25T09:19:42Z</time></trkpt><trkpt lat="44.01269547872872" lon="7.900754922419755"><ele>885.1666666666667</ele><time>2026-04-25T09:19:45Z</time></trkpt><trkpt lat="44.012701961927135" lon="7.900655989313991"><ele>881.0</ele><time>2026-04-25T09:19:47Z</time></trkpt><trkpt lat="44.01271072303995" lon="7.90053973397873"><ele>881.0000000000001</ele><time>2026-04-25T09:19:50Z</time></trkpt><trkpt lat="44.01276614159537" lon="7.900426538873605"><ele>881.0</ele><time>2026-04-25T09:19:53Z</time></trkpt><trkpt lat="44.01280279281629" lon="7.9003375752095355"><ele>881.0</ele><time>2026-04-25T09:19:55Z</time></trkpt><trkpt lat="44.01286233568065" lon="7.9002299619099485"><ele>881.0</ele><time>2026-04-25T09:19:58Z</time></trkpt><trkpt lat="44.01293422448417" lon="7.900219176826091"><ele>881.0000000000001</ele><time>2026-04-25T09:20:00Z</time></trkpt><trkpt lat="44.01299277094673" lon="7.900173246361361"><ele>881.0</ele><time>2026-04-25T09:20:03Z</time></trkpt><trkpt lat="44.01307033784358" lon="7.9001213335107074"><ele>882.5000000000001</ele><time>2026-04-25T09:20:06Z</time></trkpt><trkpt lat="44.0130832557342" lon="7.900033546628086"><ele>884.0</ele><time>2026-04-25T09:20:08Z</time></trkpt><trkpt lat="44.01307169971519" lon="7.8999232861336885"><ele>885.5</ele><time>2026-04-25T09:20:10Z</time></trkpt><trkpt lat="44.013100826426246" lon="7.8998034611531605"><ele>887.0</ele><time>2026-04-25T09:20:12Z</time></trkpt><trkpt lat="44.01315657802183" lon="7.899699190059549"><ele>888.5000000000001</ele><time>2026-04-25T09:20:16Z</time></trkpt><trkpt lat="44.01323359847801" lon="7.899630145674525"><ele>890.0</ele><time>2026-04-25T09:20:18Z</time></trkpt><trkpt lat="44.013295951899195" lon="7.8996036905579805"><ele>885.8571428571429</ele><time>2026-04-25T09:20:20Z</time></trkpt><trkpt lat="44.01336749231119" lon="7.899631299724387"><ele>881.7142857142857</ele><time>2026-04-25T09:20:23Z</time></trkpt><trkpt lat="44.01343050786417" lon="7.8996233908754965"><ele>877.5714285714286</ele><time>2026-04-25T09:20:25Z</time></trkpt><trkpt lat="44.01348434421554" lon="7.899553508227699"><ele>873.4285714285714</ele><time>2026-04-25T09:20:27Z</time></trkpt><trkpt lat="44.01353807695323" lon="7.8995013752145145"><ele>869.2857142857142</ele><time>2026-04-25T09:20:29Z</time></trkpt><trkpt lat="44.01356964805659" lon="7.8994131904377145"><ele>865.1428571428571</ele><time>2026-04-25T09:20:31Z</time></trkpt><trkpt lat="44.013600939041154" lon="7.899336010546091"><ele>861.0</ele><time>2026-04-25T09:20:32Z</time></trkpt><trkpt lat="44.013658130720756" lon="7.899281982686691"><ele>863.6666666666666</ele><time>2026-04-25T09:20:33Z</time></trkpt><trkpt lat="44.0137272955555" lon="7.899246483954092"><ele>866.3333333333333</ele><time>2026-04-25T09:20:34Z</time></trkpt><trkpt lat="44.01382336519563" lon="7.899199175276845"><ele>869.0</ele><time>2026-04-25T09:20:36Z</time></trkpt><trkpt lat="44.01390486295517" lon="7.89915910830513"><ele>871.6666666666666</ele><time>2026-04-25T09:20:38Z</time></trkpt><trkpt lat="44.01394477021525" lon="7.8990497502152275"><ele>874.3333333333333</ele><time>2026-04-25T09:20:42Z</time></trkpt><trkpt lat="44.01400502762473" lon="7.899009022189647"><ele>877.0</ele><time>2026-04-25T09:20:45Z</time></trkpt><trkpt lat="44.014053325830666" lon="7.899068682898839"><ele>877.0000000000001</ele><time>2026-04-25T09:20:48Z</time></trkpt><trkpt lat="44.01400409052782" lon="7.8991523027780195"><ele>877.0</ele><time>2026-04-25T09:20:52Z</time></trkpt><trkpt lat="44.0139691226929" lon="7.89924348971342"><ele>877.0</ele><time>2026-04-25T09:20:55Z</time></trkpt><trkpt lat="44.01393961910374" lon="7.899322947705363"><ele>877.0</ele><time>2026-04-25T09:20:57Z</time></trkpt><trkpt lat="44.01388873313207" lon="7.899397633469584"><ele>877.0</ele><time>2026-04-25T09:20:58Z</time></trkpt><trkpt lat="44.01385166709522" lon="7.899468625847546"><ele>877.0000000000001</ele><time>2026-04-25T09:20:59Z</time></trkpt><trkpt lat="44.01379355964976" lon="7.899566088628774"><ele>877.0</ele><time>2026-04-25T09:21:01Z</time></trkpt><trkpt lat="44.013768821913494" lon="7.899656779637295"><ele>874.3333333333333</ele><time>2026-04-25T09:21:03Z</time></trkpt><trkpt lat="44.01374535929318" lon="7.8997914352279075"><ele>871.6666666666666</ele><time>2026-04-25T09:21:05Z</time></trkpt><trkpt lat="44.01371285555995" lon="7.89988542594638"><ele>869.0</ele><time>2026-04-25T09:21:07Z</time></trkpt><trkpt lat="44.01368000815686" lon="7.899987800740188"><ele>866.3333333333333</ele><time>2026-04-25T09:21:09Z</time></trkpt><trkpt lat="44.01360627221324" lon="7.900083267274232"><ele>863.6666666666666</ele><time>2026-04-25T09:21:12Z</time></trkpt><trkpt lat="44.013608956562514" lon="7.9001868245857585"><ele>861.0</ele><time>2026-04-25T09:21:15Z</time></trkpt><trkpt lat="44.01366703880341" lon="7.900273412569869"><ele>861.0</ele><time>2026-04-25T09:21:18Z</time></trkpt><trkpt lat="44.01373369852021" lon="7.900303352840833"><ele>861.0</ele><time>2026-04-25T09:21:21Z</time></trkpt><trkpt lat="44.013802951760105" lon="7.900296763912579"><ele>861.0</ele><time>2026-04-25T09:21:24Z</time></trkpt><trkpt lat="44.01384690416436" lon="7.900209022808473"><ele>861.0</ele><time>2026-04-25T09:21:27Z</time></trkpt><trkpt lat="44.01390898329731" lon="7.900153708984231"><ele>861.0</ele><time>2026-04-25T09:21:29Z</time></trkpt><trkpt lat="44.01396524296493" lon="7.900084609143749"><ele>861.0</ele><time>2026-04-25T09:21:31Z</time></trkpt><trkpt lat="44.01400375108933" lon="7.90000739938178"><ele>861.0</ele><time>2026-04-25T09:21:33Z</time></trkpt><trkpt lat="44.01405799735312" lon="7.899959186285319"><ele>861.0</ele><time>2026-04-25T09:21:35Z</time></trkpt><trkpt lat="44.01411038768997" lon="7.8998789275883565"><ele>860.9999999999999</ele><time>2026-04-25T09:21:38Z</time></trkpt><trkpt lat="44.01418357806869" lon="7.899796937447422"><ele>860.9999999999999</ele><time>2026-04-25T09:21:40Z</time></trkpt><trkpt lat="44.01424814180205" lon="7.899727318356061"><ele>861.0</ele><time>2026-04-25T09:21:43Z</time></trkpt><trkpt lat="44.01434470463437" lon="7.89966082421659"><ele>861.0</ele><time>2026-04-25T09:21:45Z</time></trkpt><trkpt lat="44.01450215400602" lon="7.899487247218028"><ele>859.4</ele><time>2026-04-25T09:21:47Z</time></trkpt><trkpt lat="44.014583986107006" lon="7.899410762541021"><ele>857.8</ele><time>2026-04-25T09:21:49Z</time></trkpt><trkpt lat="44.01467476821733" lon="7.899373169524229"><ele>856.1999999999999</ele><time>2026-04-25T09:21:51Z</time></trkpt><trkpt lat="44.014763996704005" lon="7.899392329862139"><ele>854.5999999999999</ele><time>2026-04-25T09:21:53Z</time></trkpt><trkpt lat="44.014849312135624" lon="7.89933984852304"><ele>853.0</ele><time>2026-04-25T09:21:55Z</time></trkpt><trkpt lat="44.0149109694578" lon="7.899227453535111"><ele>852.9999999999999</ele><time>2026-04-25T09:21:57Z</time></trkpt><trkpt lat="44.01494067678805" lon="7.899102371901992"><ele>853.0</ele><time>2026-04-25T09:21:59Z</time></trkpt><trkpt lat="44.01497624831756" lon="7.898999350132446"><ele>853.0</ele><time>2026-04-25T09:22:01Z</time></trkpt><trkpt lat="44.01502390487422" lon="7.898910394844713"><ele>853.0</ele><time>2026-04-25T09:22:03Z</time></trkpt><trkpt lat="44.0151141640709" lon="7.898893355489896"><ele>852.9999999999999</ele><time>2026-04-25T09:22:06Z</time></trkpt><trkpt lat="44.01520472353644" lon="7.898860259999333"><ele>853.0</ele><time>2026-04-25T09:22:08Z</time></trkpt><trkpt lat="44.01526975357901" lon="7.898787775452974"><ele>848.3333333333333</ele><time>2026-04-25T09:22:11Z</time></trkpt><trkpt lat="44.01532739530964" lon="7.898733365987457"><ele>843.6666666666666</ele><time>2026-04-25T09:22:13Z</time></trkpt><trkpt lat="44.01538290483215" lon="7.8986733750419615"><ele>839.0</ele><time>2026-04-25T09:22:16Z</time></trkpt><trkpt lat="44.015455171906446" lon="7.898605382338054"><ele>834.3333333333333</ele><time>2026-04-25T09:22:18Z</time></trkpt><trkpt lat="44.0155182144858" lon="7.898560985098442"><ele>829.6666666666666</ele><time>2026-04-25T09:22:20Z</time></trkpt><trkpt lat="44.01560259870111" lon="7.898537049189038"><ele>825.0</ele><time>2026-04-25T09:22:23Z</time></trkpt><trkpt lat="44.015698004784284" lon="7.898582596227286"><ele>825.0</ele><time>2026-04-25T09:22:26Z</time></trkpt><trkpt lat="44.01576124116959" lon="7.898592500936676"><ele>825.0</ele><time>2026-04-25T09:22:29Z</time></trkpt><trkpt lat="44.01584537908193" lon="7.898582776220789"><ele>825.0</ele><time>2026-04-25T09:22:32Z</time></trkpt><trkpt lat="44.01592172870722" lon="7.898575291068404"><ele>825.0</ele><time>2026-04-25T09:22:36Z</time></trkpt><trkpt lat="44.015984821105675" lon="7.8984936357817555"><ele>825.0</ele><time>2026-04-25T09:22:38Z</time></trkpt><trkpt lat="44.0160408477423" lon="7.898410149003794"><ele>825.0</ele><time>2026-04-25T09:22:41Z</time></trkpt><trkpt lat="44.016106028551505" lon="7.8983776001311"><ele>824.0</ele><time>2026-04-25T09:22:44Z</time></trkpt><trkpt lat="44.01618048711923" lon="7.898392258513487"><ele>823.0</ele><time>2026-04-25T09:23:42Z</time></trkpt><trkpt lat="44.01616884864914" lon="7.898494199831214"><ele>822.0</ele><time>2026-04-25T09:27:56Z</time></trkpt><trkpt lat="44.0161276922564" lon="7.89856173296486"><ele>821.0</ele><time>2026-04-25T09:27:59Z</time></trkpt><trkpt lat="44.01606826547066" lon="7.898635045657088"><ele>820.0</ele><time>2026-04-25T09:28:02Z</time></trkpt><trkpt lat="44.01602264758958" lon="7.8987207867575595"><ele>819.0</ele><time>2026-04-25T09:28:05Z</time></trkpt><trkpt lat="44.01595088293058" lon="7.89876192949812"><ele>818.0</ele><time>2026-04-25T09:28:07Z</time></trkpt><trkpt lat="44.01587765486299" lon="7.8987940155563034"><ele>819.1666666666667</ele><time>2026-04-25T09:28:09Z</time></trkpt><trkpt lat="44.01579807629078" lon="7.898807965685424"><ele>820.3333333333334</ele><time>2026-04-25T09:28:12Z</time></trkpt><trkpt lat="44.01572747249202" lon="7.89885369384242"><ele>821.5</ele><time>2026-04-25T09:28:14Z</time></trkpt><trkpt lat="44.01568923523059" lon="7.898928091212332"><ele>822.6666666666667</ele><time>2026-04-25T09:28:16Z</time></trkpt><trkpt lat="44.01564993693175" lon="7.899000285446835"><ele>823.8333333333334</ele><time>2026-04-25T09:28:18Z</time></trkpt><trkpt lat="44.01557875323399" lon="7.899101767812704"><ele>825.0</ele><time>2026-04-25T09:28:20Z</time></trkpt><trkpt lat="44.01550973600658" lon="7.899169383313289"><ele>822.1666666666666</ele><time>2026-04-25T09:28:23Z</time></trkpt><trkpt lat="44.015490204508126" lon="7.899262952018011"><ele>819.3333333333333</ele><time>2026-04-25T09:28:25Z</time></trkpt><trkpt lat="44.01550732841709" lon="7.8993777665242915"><ele>816.5</ele><time>2026-04-25T09:28:27Z</time></trkpt><trkpt lat="44.01548477402124" lon="7.899484806063289"><ele>813.6666666666666</ele><time>2026-04-25T09:28:29Z</time></trkpt><trkpt lat="44.01545890405514" lon="7.899610001036777"><ele>810.8333333333333</ele><time>2026-04-25T09:28:31Z</time></trkpt><trkpt lat="44.01542474333098" lon="7.89968936806909"><ele>808.0</ele><time>2026-04-25T09:28:33Z</time></trkpt><trkpt lat="44.01538864929117" lon="7.899789043050251"><ele>807.9999999999999</ele><time>2026-04-25T09:28:35Z</time></trkpt><trkpt lat="44.015357557449356" lon="7.899888363796766"><ele>808.0</ele><time>2026-04-25T09:28:37Z</time></trkpt><trkpt lat="44.01529293782587" lon="7.899985341183942"><ele>808.0</ele><time>2026-04-25T09:28:39Z</time></trkpt><trkpt lat="44.01524298966589" lon="7.900077391109531"><ele>808.0</ele><time>2026-04-25T09:28:41Z</time></trkpt><trkpt lat="44.01520661497353" lon="7.900181799747903"><ele>807.9999999999999</ele><time>2026-04-25T09:28:43Z</time></trkpt><trkpt lat="44.01517357493129" lon="7.90029437461143"><ele>808.0</ele><time>2026-04-25T09:28:45Z</time></trkpt><trkpt lat="44.015136435216185" lon="7.900403769956137"><ele>810.1666666666666</ele><time>2026-04-25T09:28:47Z</time></trkpt><trkpt lat="44.01509140440323" lon="7.900506995804797"><ele>812.3333333333333</ele><time>2026-04-25T09:28:49Z</time></trkpt><trkpt lat="44.01505392189415" lon="7.900603310319964"><ele>814.5</ele><time>2026-04-25T09:28:51Z</time></trkpt><trkpt lat="44.015022354366415" lon="7.900729202381045"><ele>816.6666666666667</ele><time>2026-04-25T09:28:53Z</time></trkpt><trkpt lat="44.014970723241014" lon="7.900825318074025"><ele>818.8333333333334</ele><time>2026-04-25T09:28:55Z</time></trkpt><trkpt lat="44.01491004330445" lon="7.900925231796756"><ele>821.0</ele><time>2026-04-25T09:28:57Z</time></trkpt><trkpt lat="44.01488092587353" lon="7.901032533617666"><ele>821.0</ele><time>2026-04-25T09:28:59Z</time></trkpt><trkpt lat="44.01487982080651" lon="7.901182618083722"><ele>821.0</ele><time>2026-04-25T09:29:01Z</time></trkpt><trkpt lat="44.014869645749854" lon="7.901328452484727"><ele>821.0</ele><time>2026-04-25T09:29:03Z</time></trkpt><trkpt lat="44.014835540453625" lon="7.9014450665532845"><ele>821.0</ele><time>2026-04-25T09:29:05Z</time></trkpt><trkpt lat="44.01480854216168" lon="7.901544809603957"><ele>821.0</ele><time>2026-04-25T09:29:07Z</time></trkpt><trkpt lat="44.014779589179824" lon="7.901635376510487"><ele>821.0000000000001</ele><time>2026-04-25T09:29:10Z</time></trkpt><trkpt lat="44.01485306572562" lon="7.9015766237791425"><ele>821.0</ele><time>2026-04-25T09:29:18Z</time></trkpt><trkpt lat="44.01490673418598" lon="7.901484754448843"><ele>821.0</ele><time>2026-04-25T09:29:20Z</time></trkpt><trkpt lat="44.014960793759876" lon="7.901342679081566"><ele>821.0</ele><time>2026-04-25T09:31:08Z</time></trkpt><trkpt lat="44.01496164619019" lon="7.901243178883811"><ele>821.0000000000001</ele><time>2026-04-25T09:31:12Z</time></trkpt><trkpt lat="44.01502894527242" lon="7.901166682030123"><ele>821.0</ele><time>2026-04-25T09:31:15Z</time></trkpt><trkpt lat="44.015096284219524" lon="7.901164518240574"><ele>815.4</ele><time>2026-04-25T09:31:17Z</time></trkpt><trkpt lat="44.01516119121004" lon="7.901131221429775"><ele>809.8</ele><time>2026-04-25T09:31:20Z</time></trkpt><trkpt lat="44.015233263835846" lon="7.901021217923294"><ele>804.1999999999999</ele><time>2026-04-25T09:31:23Z</time></trkpt><trkpt lat="44.015275667789496" lon="7.900921431411259"><ele>798.5999999999999</ele><time>2026-04-25T09:31:25Z</time></trkpt><trkpt lat="44.015351517072496" lon="7.900837910870318"><ele>793.0</ele><time>2026-04-25T09:31:27Z</time></trkpt><trkpt lat="44.01542982950233" lon="7.900765452352955"><ele>793.0</ele><time>2026-04-25T09:31:29Z</time></trkpt><trkpt lat="44.015501779863776" lon="7.9006458090452"><ele>793.0</ele><time>2026-04-25T09:31:30.999Z</time></trkpt><trkpt lat="44.01557481389675" lon="7.900538780858088"><ele>793.0</ele><time>2026-04-25T09:31:32.999Z</time></trkpt><trkpt lat="44.01565280832704" lon="7.900430345572945"><ele>793.0</ele><time>2026-04-25T09:31:34.999Z</time></trkpt><trkpt lat="44.01573044507526" lon="7.900359234744374"><ele>793.0</ele><time>2026-04-25T09:31:36.999Z</time></trkpt><trkpt lat="44.0157977204076" lon="7.900291942230805"><ele>790.8333333333333</ele><time>2026-04-25T09:31:38.999Z</time></trkpt><trkpt lat="44.015866262786965" lon="7.90020119178447"><ele>788.6666666666666</ele><time>2026-04-25T09:31:40.999Z</time></trkpt><trkpt lat="44.015912297306635" lon="7.900097161898246"><ele>786.5</ele><time>2026-04-25T09:31:42.999Z</time></trkpt><trkpt lat="44.0159580333794" lon="7.900006570778327"><ele>784.3333333333333</ele><time>2026-04-25T09:31:44.999Z</time></trkpt><trkpt lat="44.01602466181888" lon="7.89994538479909"><ele>782.1666666666666</ele><time>2026-04-25T09:31:46.999Z</time></trkpt><trkpt lat="44.01608742947935" lon="7.899873239118713"><ele>780.0</ele><time>2026-04-25T09:31:48.999Z</time></trkpt><trkpt lat="44.01616363040416" lon="7.899802034356162"><ele>780.0</ele><time>2026-04-25T09:31:50.999Z</time></trkpt><trkpt lat="44.01624273403102" lon="7.899751507060343"><ele>780.0</ele><time>2026-04-25T09:31:52.999Z</time></trkpt><trkpt lat="44.01628873074019" lon="7.899658830061393"><ele>780.0</ele><time>2026-04-25T09:31:54.999Z</time></trkpt><trkpt lat="44.01633569069018" lon="7.899585017921952"><ele>780.0</ele><time>2026-04-25T09:31:56.999Z</time></trkpt><trkpt lat="44.01638996200836" lon="7.899534606311741"><ele>780.0</ele><time>2026-04-25T09:31:58.999Z</time></trkpt><trkpt lat="44.016459830726355" lon="7.899549353857854"><ele>780.0</ele><time>2026-04-25T09:32:01.999Z</time></trkpt><trkpt lat="44.01640634258521" lon="7.899658528789759"><ele>780.0</ele><time>2026-04-25T09:32:04.999Z</time></trkpt><trkpt lat="44.016355812443905" lon="7.899737088937625"><ele>780.0</ele><time>2026-04-25T09:32:06.999Z</time></trkpt><trkpt lat="44.01631022820213" lon="7.899847198628978"><ele>780.0</ele><time>2026-04-25T09:32:08.999Z</time></trkpt><trkpt lat="44.016292978773926" lon="7.899960500900855"><ele>780.0</ele><time>2026-04-25T09:32:10.999Z</time></trkpt><trkpt lat="44.0162558582195" lon="7.90006962607338"><ele>780.0</ele><time>2026-04-25T09:32:13Z</time></trkpt><trkpt lat="44.016191320740525" lon="7.900146567640911"><ele>780.0</ele><time>2026-04-25T09:32:15Z</time></trkpt><trkpt lat="44.016169136647505" lon="7.900245007392846"><ele>777.0</ele><time>2026-04-25T09:32:17Z</time></trkpt><trkpt lat="44.016187323489746" lon="7.900353922553039"><ele>774.0</ele><time>2026-04-25T09:32:19Z</time></trkpt><trkpt lat="44.016189428141935" lon="7.9004842946275495"><ele>771.0</ele><time>2026-04-25T09:32:21Z</time></trkpt><trkpt lat="44.0161471332374" lon="7.900591862449161"><ele>768.0</ele><time>2026-04-25T09:32:23Z</time></trkpt><trkpt lat="44.01605864318651" lon="7.900677973713922"><ele>765.0</ele><time>2026-04-25T09:32:25Z</time></trkpt><trkpt lat="44.015986484704676" lon="7.90075566498225"><ele>765.0</ele><time>2026-04-25T09:32:27Z</time></trkpt><trkpt lat="44.01591160780529" lon="7.900868684767025"><ele>765.0</ele><time>2026-04-25T09:32:29Z</time></trkpt><trkpt lat="44.015873511038194" lon="7.900953183246145"><ele>765.0</ele><time>2026-04-25T09:32:31Z</time></trkpt><trkpt lat="44.015810528542765" lon="7.901096277123242"><ele>765.0</ele><time>2026-04-25T09:32:33Z</time></trkpt><trkpt lat="44.0157747851027" lon="7.9012186285795885"><ele>765.0</ele><time>2026-04-25T09:32:35Z</time></trkpt><trkpt lat="44.01572297549565" lon="7.901341526395333"><ele>768.3333333333334</ele><time>2026-04-25T09:32:37Z</time></trkpt><trkpt lat="44.015688478061314" lon="7.901430403446632"><ele>771.6666666666667</ele><time>2026-04-25T09:32:39Z</time></trkpt><trkpt lat="44.01564403805486" lon="7.901534286065481"><ele>775.0</ele><time>2026-04-25T09:32:41Z</time></trkpt><trkpt lat="44.01559862859844" lon="7.901640173525351"><ele>778.3333333333334</ele><time>2026-04-25T09:32:44Z</time></trkpt><trkpt lat="44.01560287403321" lon="7.9017378954666535"><ele>781.6666666666667</ele><time>2026-04-25T09:32:46Z</time></trkpt><trkpt lat="44.015637517263336" lon="7.901825541310284"><ele>785.0</ele><time>2026-04-25T09:32:48Z</time></trkpt><trkpt lat="44.01565817556546" lon="7.901911419872235"><ele>785.8</ele><time>2026-04-25T09:32:50Z</time></trkpt><trkpt lat="44.01572323578282" lon="7.901923213145426"><ele>786.6</ele><time>2026-04-25T09:32:53Z</time></trkpt><trkpt lat="44.01578043116971" lon="7.901861817136484"><ele>787.4000000000001</ele><time>2026-04-25T09:32:56Z</time></trkpt><trkpt lat="44.01582593800718" lon="7.901729365347258"><ele>788.2</ele><time>2026-04-25T09:32:59Z</time></trkpt><trkpt lat="44.015887759263705" lon="7.901610434674927"><ele>789.0</ele><time>2026-04-25T09:33:01Z</time></trkpt><trkpt lat="44.01599459099558" lon="7.90144866598311"><ele>781.6</ele><time>2026-04-25T09:33:02Z</time></trkpt><trkpt lat="44.016082055310655" lon="7.901350302413314"><ele>774.2</ele><time>2026-04-25T09:33:04Z</time></trkpt><trkpt lat="44.01614705861703" lon="7.901243871847012"><ele>766.8000000000001</ele><time>2026-04-25T09:33:05.999Z</time></trkpt><trkpt lat="44.016210295398324" lon="7.901121474366107"><ele>759.4000000000001</ele><time>2026-04-25T09:33:07.999Z</time></trkpt><trkpt lat="44.016275338500904" lon="7.9010394785988165"><ele>752.0</ele><time>2026-04-25T09:33:09.999Z</time></trkpt><trkpt lat="44.01634983873906" lon="7.90094345424511"><ele>754.6</ele><time>2026-04-25T09:33:11.999Z</time></trkpt><trkpt lat="44.01645089150089" lon="7.900867785904656"><ele>757.2</ele><time>2026-04-25T09:33:13.999Z</time></trkpt><trkpt lat="44.016547469290224" lon="7.900778956136124"><ele>759.8</ele><time>2026-04-25T09:33:15.999Z</time></trkpt><trkpt lat="44.01665158851508" lon="7.900714046559553"><ele>762.4</ele><time>2026-04-25T09:33:17.999Z</time></trkpt><trkpt lat="44.016723081228506" lon="7.900657356389122"><ele>765.0</ele><time>2026-04-25T09:33:19.999Z</time></trkpt><trkpt lat="44.01670795001278" lon="7.900561775527865"><ele>760.6666666666666</ele><time>2026-04-25T09:33:22.999Z</time></trkpt><trkpt lat="44.01676709352274" lon="7.900489191224597"><ele>756.3333333333334</ele><time>2026-04-25T09:33:24.999Z</time></trkpt><trkpt lat="44.01681722697317" lon="7.9004355887664754"><ele>752.0</ele><time>2026-04-25T09:33:26.999Z</time></trkpt><trkpt lat="44.01686071283417" lon="7.900330633896524"><ele>747.6666666666667</ele><time>2026-04-25T09:33:28.999Z</time></trkpt><trkpt lat="44.01696201191319" lon="7.900260082339977"><ele>743.3333333333334</ele><time>2026-04-25T09:33:30.999Z</time></trkpt><trkpt lat="44.0170336068855" lon="7.900238310566909"><ele>739.0</ele><time>2026-04-25T09:33:31.999Z</time></trkpt><trkpt lat="44.017120576875" lon="7.900187870004384"><ele>739.0</ele><time>2026-04-25T09:33:33.999Z</time></trkpt><trkpt lat="44.017203666295245" lon="7.900089156687254"><ele>739.0</ele><time>2026-04-25T09:33:35.999Z</time></trkpt><trkpt lat="44.017270217515744" lon="7.899978736139007"><ele>739.0</ele><time>2026-04-25T09:33:37.999Z</time></trkpt><trkpt lat="44.017373754927576" lon="7.899902007737125"><ele>739.0</ele><time>2026-04-25T09:33:39.999Z</time></trkpt><trkpt lat="44.0174638889354" lon="7.899829480930956"><ele>739.0</ele><time>2026-04-25T09:33:41.999Z</time></trkpt><trkpt lat="44.01754729391904" lon="7.899748477241499"><ele>737.4000000000001</ele><time>2026-04-25T09:33:43.999Z</time></trkpt><trkpt lat="44.01765836853951" lon="7.899695523207706"><ele>735.8</ele><time>2026-04-25T09:33:45.999Z</time></trkpt><trkpt lat="44.01774620552068" lon="7.899633111285707"><ele>734.2</ele><time>2026-04-25T09:33:47.999Z</time></trkpt><trkpt lat="44.01783635939142" lon="7.8995735496443125"><ele>732.5999999999999</ele><time>2026-04-25T09:33:49.999Z</time></trkpt><trkpt lat="44.01790825225117" lon="7.8995518430438025"><ele>731.0</ele><time>2026-04-25T09:33:50.999Z</time></trkpt><trkpt lat="44.01797952793426" lon="7.899486104556049"><ele>731.0</ele><time>2026-04-25T09:33:52.999Z</time></trkpt><trkpt lat="44.01805213166345" lon="7.899401149302073"><ele>731.0</ele><time>2026-04-25T09:33:54.999Z</time></trkpt><trkpt lat="44.01814633292353" lon="7.8993432386659395"><ele>731.0</ele><time>2026-04-25T09:33:56.999Z</time></trkpt><trkpt lat="44.01822852870454" lon="7.899286227818265"><ele>731.0</ele><time>2026-04-25T09:33:58.999Z</time></trkpt><trkpt lat="44.0182683211326" lon="7.89920327243813"><ele>731.0</ele><time>2026-04-25T09:34:01Z</time></trkpt><trkpt lat="44.018277412075726" lon="7.8990684169358065"><ele>730.0</ele><time>2026-04-25T09:34:03Z</time></trkpt><trkpt lat="44.01827830706444" lon="7.898945199522144"><ele>729.0</ele><time>2026-04-25T09:34:05Z</time></trkpt><trkpt lat="44.01831208960908" lon="7.8988214687499045"><ele>728.0</ele><time>2026-04-25T09:34:07Z</time></trkpt><trkpt lat="44.01835061043615" lon="7.898725288133967"><ele>727.0</ele><time>2026-04-25T09:34:10Z</time></trkpt><trkpt lat="44.01840864355777" lon="7.8986771174735"><ele>726.0</ele><time>2026-04-25T09:34:12Z</time></trkpt><trkpt lat="44.01848972380503" lon="7.89864304918599"><ele>725.0</ele><time>2026-04-25T09:34:13Z</time></trkpt><trkpt lat="44.01858059882024" lon="7.898567742225769"><ele>725.0</ele><time>2026-04-25T09:34:15Z</time></trkpt><trkpt lat="44.018680167728505" lon="7.89849900302066"><ele>725.0</ele><time>2026-04-25T09:34:17Z</time></trkpt><trkpt lat="44.01876565438286" lon="7.898449041185011"><ele>725.0</ele><time>2026-04-25T09:34:19.001Z</time></trkpt><trkpt lat="44.018871391393205" lon="7.898375022918213"><ele>725.0</ele><time>2026-04-25T09:34:21.001Z</time></trkpt><trkpt lat="44.018928671732155" lon="7.898313779504683"><ele>725.0</ele><time>2026-04-25T09:34:24.001Z</time></trkpt><trkpt lat="44.01897051533037" lon="7.898379393183949"><ele>725.0</ele><time>2026-04-25T09:34:27.001Z</time></trkpt><trkpt lat="44.01889178552123" lon="7.898437913202657"><ele>725.0</ele><time>2026-04-25T09:34:30.001Z</time></trkpt><trkpt lat="44.0188370143365" lon="7.8984851403313145"><ele>725.0</ele><time>2026-04-25T09:34:32Z</time></trkpt><trkpt lat="44.01877973905965" lon="7.8985348250108105"><ele>725.0</ele><time>2026-04-25T09:34:33Z</time></trkpt><trkpt lat="44.01871934217595" lon="7.898596957901614"><ele>725.0</ele><time>2026-04-25T09:34:35Z</time></trkpt><trkpt lat="44.01860862515623" lon="7.898688766798048"><ele>725.0</ele><time>2026-04-25T09:34:38Z</time></trkpt><trkpt lat="44.01853422406822" lon="7.898741665097026"><ele>725.0</ele><time>2026-04-25T09:34:40Z</time></trkpt><trkpt lat="44.01849392084947" lon="7.8988314107586985"><ele>725.0</ele><time>2026-04-25T09:34:42Z</time></trkpt><trkpt lat="44.01851513186579" lon="7.89897525569073"><ele>725.0</ele><time>2026-04-25T09:34:44Z</time></trkpt><trkpt lat="44.018496672567814" lon="7.8991034679927825"><ele>725.0</ele><time>2026-04-25T09:34:46Z</time></trkpt><trkpt lat="44.01845991132156" lon="7.8992251745897715"><ele>725.0</ele><time>2026-04-25T09:34:48Z</time></trkpt><trkpt lat="44.01847101939229" lon="7.899350143272972"><ele>726.0</ele><time>2026-04-25T09:34:50Z</time></trkpt><trkpt lat="44.018441200984114" lon="7.899441259626761"><ele>727.0</ele><time>2026-04-25T09:34:52Z</time></trkpt><trkpt lat="44.01837915171041" lon="7.8995128240674"><ele>728.0</ele><time>2026-04-25T09:34:54Z</time></trkpt><trkpt lat="44.0183271288925" lon="7.899591727273373"><ele>729.0</ele><time>2026-04-25T09:34:56Z</time></trkpt><trkpt lat="44.01825146594556" lon="7.89968115686521"><ele>730.0</ele><time>2026-04-25T09:34:58Z</time></trkpt><trkpt lat="44.018179307001105" lon="7.899789808419257"><ele>731.0</ele><time>2026-04-25T09:35:00Z</time></trkpt><trkpt lat="44.01812442370028" lon="7.899888338657203"><ele>731.0</ele><time>2026-04-25T09:35:02Z</time></trkpt><trkpt lat="44.018053537911946" lon="7.899962286111294"><ele>731.0</ele><time>2026-04-25T09:35:04Z</time></trkpt><trkpt lat="44.01800597759703" lon="7.9000541431023485"><ele>731.0</ele><time>2026-04-25T09:35:06Z</time></trkpt><trkpt lat="44.01792975829178" lon="7.900167533739843"><ele>731.0</ele><time>2026-04-25T09:35:08Z</time></trkpt><trkpt lat="44.01784340734719" lon="7.900266932574844"><ele>731.0</ele><time>2026-04-25T09:35:10Z</time></trkpt><trkpt lat="44.017760696445606" lon="7.900398373333212"><ele>732.5999999999999</ele><time>2026-04-25T09:35:12Z</time></trkpt><trkpt lat="44.01771312136238" lon="7.900484405918683"><ele>734.2</ele><time>2026-04-25T09:35:14Z</time></trkpt><trkpt lat="44.017644662395114" lon="7.90052266196109"><ele>735.8</ele><time>2026-04-25T09:35:16Z</time></trkpt><trkpt lat="44.017522156427184" lon="7.900565735609001"><ele>737.4000000000001</ele><time>2026-04-25T09:35:18Z</time></trkpt><trkpt lat="44.01743445639181" lon="7.90065104905853"><ele>739.0</ele><time>2026-04-25T09:35:20Z</time></trkpt><trkpt lat="44.017362990424715" lon="7.900717596084714"><ele>739.0</ele><time>2026-04-25T09:35:22Z</time></trkpt><trkpt lat="44.017310042775655" lon="7.900830782644304"><ele>739.0</ele><time>2026-04-25T09:35:25Z</time></trkpt><trkpt lat="44.01730869326736" lon="7.90093174863107"><ele>739.0</ele><time>2026-04-25T09:35:27Z</time></trkpt><trkpt lat="44.01729394235487" lon="7.901047655533697"><ele>739.0</ele><time>2026-04-25T09:35:29Z</time></trkpt><trkpt lat="44.01728709923605" lon="7.901171412813637"><ele>739.0</ele><time>2026-04-25T09:35:31Z</time></trkpt><trkpt lat="44.01733759114306" lon="7.901286690811799"><ele>739.0</ele><time>2026-04-25T09:35:33Z</time></trkpt><trkpt lat="44.0173923789291" lon="7.901359921464802"><ele>736.5</ele><time>2026-04-25T09:35:35Z</time></trkpt><trkpt lat="44.017430502746" lon="7.901433796213558"><ele>734.0</ele><time>2026-04-25T09:35:37Z</time></trkpt><trkpt lat="44.017403670439506" lon="7.901545880875329"><ele>731.5</ele><time>2026-04-25T09:35:39Z</time></trkpt><trkpt lat="44.01737515234874" lon="7.901676398042263"><ele>729.0</ele><time>2026-04-25T09:35:41Z</time></trkpt><trkpt lat="44.017340990589176" lon="7.901823886927508"><ele>726.5</ele><time>2026-04-25T09:35:43Z</time></trkpt><trkpt lat="44.01732503800907" lon="7.901911403230796"><ele>724.0</ele><time>2026-04-25T09:35:44Z</time></trkpt><trkpt lat="44.017304572399155" lon="7.902021392198148"><ele>723.0</ele><time>2026-04-25T09:35:46Z</time></trkpt><trkpt lat="44.01729422982707" lon="7.902139031360993"><ele>722.0</ele><time>2026-04-25T09:35:48Z</time></trkpt><trkpt lat="44.017278024377546" lon="7.90223676753649"><ele>721.0</ele><time>2026-04-25T09:35:50Z</time></trkpt><trkpt lat="44.01728457652836" lon="7.902369396083107"><ele>720.0</ele><time>2026-04-25T09:35:53Z</time></trkpt><trkpt lat="44.01732049165689" lon="7.902481279110891"><ele>719.0</ele><time>2026-04-25T09:35:55Z</time></trkpt><trkpt lat="44.01736329069902" lon="7.902566340763339"><ele>718.0</ele><time>2026-04-25T09:35:57Z</time></trkpt><trkpt lat="44.017368757963354" lon="7.902683290878578"><ele>717.2</ele><time>2026-04-25T09:35:59Z</time></trkpt><trkpt lat="44.01733736237568" lon="7.902807899353939"><ele>716.4</ele><time>2026-04-25T09:36:01Z</time></trkpt><trkpt lat="44.017294303306976" lon="7.902920491252044"><ele>715.6</ele><time>2026-04-25T09:36:03Z</time></trkpt><trkpt lat="44.017253071248966" lon="7.903046405851825"><ele>714.8000000000001</ele><time>2026-04-25T09:36:05Z</time></trkpt><trkpt lat="44.017227291081625" lon="7.903190801318661"><ele>714.0</ele><time>2026-04-25T09:36:07Z</time></trkpt><trkpt lat="44.017245197580785" lon="7.903318755333368"><ele>714.0</ele><time>2026-04-25T09:36:11Z</time></trkpt><trkpt lat="44.01729821704232" lon="7.903410682100398"><ele>714.0</ele><time>2026-04-25T09:36:13Z</time></trkpt><trkpt lat="44.017341240433865" lon="7.903525217545641"><ele>714.0</ele><time>2026-04-25T09:36:15Z</time></trkpt><trkpt lat="44.01739231633693" lon="7.903655144786561"><ele>714.0</ele><time>2026-04-25T09:36:17Z</time></trkpt><trkpt lat="44.017438626076306" lon="7.9037473643499165"><ele>714.0</ele><time>2026-04-25T09:36:19Z</time></trkpt><trkpt lat="44.01748944921494" lon="7.903814893228348"><ele>714.0</ele><time>2026-04-25T09:36:21Z</time></trkpt><trkpt lat="44.01750485886973" lon="7.903923657184101"><ele>715.5</ele><time>2026-04-25T09:36:23Z</time></trkpt><trkpt lat="44.01754785079141" lon="7.9039943435516475"><ele>717.0</ele><time>2026-04-25T09:36:25Z</time></trkpt><trkpt lat="44.01760097263401" lon="7.90412619443061"><ele>718.5</ele><time>2026-04-25T09:36:27Z</time></trkpt><trkpt lat="44.0176472914463" lon="7.904194960657272"><ele>720.0</ele><time>2026-04-25T09:36:29Z</time></trkpt><trkpt lat="44.01771190923853" lon="7.904230726675342"><ele>721.5</ele><time>2026-04-25T09:36:32Z</time></trkpt><trkpt lat="44.0178400371581" lon="7.904267432535524"><ele>723.0</ele><time>2026-04-25T09:36:35Z</time></trkpt><trkpt lat="44.01791290268049" lon="7.904295164113185"><ele>723.0</ele><time>2026-04-25T09:36:36Z</time></trkpt><trkpt lat="44.018017751826775" lon="7.904376203758153"><ele>723.0</ele><time>2026-04-25T09:36:38Z</time></trkpt><trkpt lat="44.018117667146555" lon="7.904455686580683"><ele>723.0</ele><time>2026-04-25T09:36:40Z</time></trkpt><trkpt lat="44.018161177616584" lon="7.904544434830212"><ele>723.0</ele><time>2026-04-25T09:36:41Z</time></trkpt><trkpt lat="44.018224421944474" lon="7.904624907004023"><ele>723.0</ele><time>2026-04-25T09:36:42Z</time></trkpt><trkpt lat="44.0182732741827" lon="7.904702150765387"><ele>723.0</ele><time>2026-04-25T09:36:43Z</time></trkpt><trkpt lat="44.01831744315286" lon="7.90477145205288"><ele>723.0</ele><time>2026-04-25T09:36:44Z</time></trkpt><trkpt lat="44.01839476397388" lon="7.904888948766871"><ele>723.0</ele><time>2026-04-25T09:36:46Z</time></trkpt><trkpt lat="44.01846542410714" lon="7.9050361105037865"><ele>723.0</ele><time>2026-04-25T09:36:48Z</time></trkpt><trkpt lat="44.018536160142226" lon="7.9051467152107096"><ele>723.0</ele><time>2026-04-25T09:36:51Z</time></trkpt><trkpt lat="44.01858971200426" lon="7.905245319297289"><ele>715.0</ele><time>2026-04-25T09:36:54Z</time></trkpt><trkpt lat="44.018738444700105" lon="7.905417539641306"><ele>707.0</ele><time>2026-04-25T09:36:56Z</time></trkpt><trkpt lat="44.018738752891416" lon="7.905549226050453"><ele>699.0</ele><time>2026-04-25T09:36:58Z</time></trkpt><trkpt lat="44.018727763677994" lon="7.90564534400985"><ele>691.0</ele><time>2026-04-25T09:36:59Z</time></trkpt><trkpt lat="44.018696945348296" lon="7.905737885229933"><ele>683.0</ele><time>2026-04-25T09:37:00Z</time></trkpt><trkpt lat="44.01864065675694" lon="7.905881168991366"><ele>680.5999999999999</ele><time>2026-04-25T09:37:02Z</time></trkpt><trkpt lat="44.01858607854672" lon="7.905985942955836"><ele>678.1999999999999</ele><time>2026-04-25T09:37:04Z</time></trkpt><trkpt lat="44.01857750541423" lon="7.906117646718474"><ele>675.8</ele><time>2026-04-25T09:37:06Z</time></trkpt><trkpt lat="44.01856280709653" lon="7.906260694961356"><ele>673.4</ele><time>2026-04-25T09:37:08Z</time></trkpt><trkpt lat="44.01853974829733" lon="7.9063474375922445"><ele>671.0</ele><time>2026-04-25T09:37:09Z</time></trkpt><trkpt lat="44.01852372123979" lon="7.906497244693931"><ele>671.0</ele><time>2026-04-25T09:37:11Z</time></trkpt><trkpt lat="44.01850229607183" lon="7.906646291283774"><ele>671.0</ele><time>2026-04-25T09:37:13Z</time></trkpt><trkpt lat="44.01846100467938" lon="7.906770774248033"><ele>671.0</ele><time>2026-04-25T09:37:15Z</time></trkpt><trkpt lat="44.01840162291981" lon="7.906874620902295"><ele>671.0</ele><time>2026-04-25T09:37:17Z</time></trkpt><trkpt lat="44.01831210462248" lon="7.907001485272536"><ele>671.0</ele><time>2026-04-25T09:37:19Z</time></trkpt><trkpt lat="44.01825163751988" lon="7.907133964609613"><ele>672.0</ele><time>2026-04-25T09:37:21Z</time></trkpt><trkpt lat="44.01821188421651" lon="7.907278726326752"><ele>673.0</ele><time>2026-04-25T09:37:23Z</time></trkpt><trkpt lat="44.01816280832028" lon="7.907373128619887"><ele>674.0</ele><time>2026-04-25T09:37:25Z</time></trkpt><trkpt lat="44.018071309997474" lon="7.90751106512579"><ele>675.0</ele><time>2026-04-25T09:37:27Z</time></trkpt><trkpt lat="44.017988978760826" lon="7.907579099262478"><ele>676.0</ele><time>2026-04-25T09:37:29Z</time></trkpt><trkpt lat="44.01792598331982" lon="7.907601058559016"><ele>676.0</ele><time>2026-04-25T09:37:31Z</time></trkpt><trkpt lat="44.01785430238519" lon="7.90755198698778"><ele>676.0</ele><time>2026-04-25T09:37:33Z</time></trkpt><trkpt lat="44.01778573410253" lon="7.907533891087431"><ele>676.0</ele><time>2026-04-25T09:37:34Z</time></trkpt><trkpt lat="44.017676999441335" lon="7.907511220513897"><ele>676.0</ele><time>2026-04-25T09:37:36Z</time></trkpt><trkpt lat="44.01760629729559" lon="7.907540539455636"><ele>676.0</ele><time>2026-04-25T09:37:38Z</time></trkpt><trkpt lat="44.01755256593358" lon="7.907636303658011"><ele>676.0</ele><time>2026-04-25T09:37:40Z</time></trkpt><trkpt lat="44.01750353464199" lon="7.9077928259078645"><ele>674.3333333333334</ele><time>2026-04-25T09:37:42Z</time></trkpt><trkpt lat="44.01747070523301" lon="7.907898717805368"><ele>672.6666666666667</ele><time>2026-04-25T09:37:45Z</time></trkpt><trkpt lat="44.01752252597668" lon="7.907969456509083"><ele>671.0</ele><time>2026-04-25T09:39:32Z</time></trkpt><trkpt lat="44.01759153403044" lon="7.908030314625381"><ele>669.3333333333334</ele><time>2026-04-25T09:39:35Z</time></trkpt><trkpt lat="44.01766173663445" lon="7.908145141074366"><ele>667.6666666666666</ele><time>2026-04-25T09:39:38Z</time></trkpt><trkpt lat="44.01773296204105" lon="7.90822738207353"><ele>666.0</ele><time>2026-04-25T09:39:40Z</time></trkpt><trkpt lat="44.017807897263054" lon="7.908236650117451"><ele>666.0</ele><time>2026-04-25T09:39:42Z</time></trkpt><trkpt lat="44.017837781978656" lon="7.90834303876154"><ele>666.0</ele><time>2026-04-25T09:39:44Z</time></trkpt><trkpt lat="44.01791669096985" lon="7.908364155638869"><ele>666.0</ele><time>2026-04-25T09:39:48Z</time></trkpt><trkpt lat="44.017932963646906" lon="7.908265834477951"><ele>666.0</ele><time>2026-04-25T09:39:50Z</time></trkpt><trkpt lat="44.0178966703425" lon="7.908173942657946"><ele>666.0</ele><time>2026-04-25T09:39:52Z</time></trkpt><trkpt lat="44.017838891885205" lon="7.908083404635547"><ele>666.0</ele><time>2026-04-25T09:39:55Z</time></trkpt><trkpt lat="44.01784192515455" lon="7.90797595781074"><ele>666.0</ele><time>2026-04-25T09:39:57Z</time></trkpt><trkpt lat="44.017924730128314" lon="7.907917848970992"><ele>666.0</ele><time>2026-04-25T09:39:59Z</time></trkpt><trkpt lat="44.018028670778094" lon="7.90793543661073"><ele>666.0</ele><time>2026-04-25T09:40:01Z</time></trkpt><trkpt lat="44.01809249101606" lon="7.907918647283012"><ele>666.0</ele><time>2026-04-25T09:40:03Z</time></trkpt><trkpt lat="44.018204044582106" lon="7.90790117101957"><ele>666.0</ele><time>2026-04-25T09:40:05Z</time></trkpt><trkpt lat="44.01829154657385" lon="7.907814969309654"><ele>664.0</ele><time>2026-04-25T09:40:08Z</time></trkpt><trkpt lat="44.01835998127155" lon="7.907677990404433"><ele>662.0</ele><time>2026-04-25T09:40:10Z</time></trkpt><trkpt lat="44.018415367284945" lon="7.907562580812823"><ele>660.0</ele><time>2026-04-25T09:40:12Z</time></trkpt><trkpt lat="44.01847582168812" lon="7.9075051198459185"><ele>658.0</ele><time>2026-04-25T09:40:13Z</time></trkpt><trkpt lat="44.018580814353236" lon="7.907407765175994"><ele>656.0</ele><time>2026-04-25T09:40:15Z</time></trkpt><trkpt lat="44.01864259034443" lon="7.907342562138725"><ele>656.0</ele><time>2026-04-25T09:40:16Z</time></trkpt><trkpt lat="44.01869724929612" lon="7.907267911668365"><ele>656.0</ele><time>2026-04-25T09:40:17Z</time></trkpt><trkpt lat="44.018797252071764" lon="7.9071460285604385"><ele>656.0</ele><time>2026-04-25T09:40:19Z</time></trkpt><trkpt lat="44.018848893008546" lon="7.907073168600534"><ele>656.0</ele><time>2026-04-25T09:40:20Z</time></trkpt><trkpt lat="44.01887744573789" lon="7.906971280628734"><ele>656.0</ele><time>2026-04-25T09:40:21Z</time></trkpt><trkpt lat="44.01890999842757" lon="7.9068788866346065"><ele>656.0</ele><time>2026-04-25T09:40:22Z</time></trkpt><trkpt lat="44.018964065863976" lon="7.906729918672"><ele>653.8333333333333</ele><time>2026-04-25T09:40:24Z</time></trkpt><trkpt lat="44.01898980223727" lon="7.906648010745452"><ele>651.6666666666666</ele><time>2026-04-25T09:40:25Z</time></trkpt><trkpt lat="44.01903512281069" lon="7.906486082579593"><ele>649.5</ele><time>2026-04-25T09:40:27Z</time></trkpt><trkpt lat="44.01906083380222" lon="7.906399647677105"><ele>647.3333333333334</ele><time>2026-04-25T09:40:28Z</time></trkpt><trkpt lat="44.0190844363158" lon="7.90627287100174"><ele>645.1666666666667</ele><time>2026-04-25T09:40:30Z</time></trkpt><trkpt lat="44.01916009043904" lon="7.906235633601627"><ele>643.0</ele><time>2026-04-25T09:40:33Z</time></trkpt><trkpt lat="44.01917787575654" lon="7.9063585372239675"><ele>645.5999999999999</ele><time>2026-04-25T09:40:35Z</time></trkpt><trkpt lat="44.01914475446514" lon="7.906583490827961"><ele>648.1999999999999</ele><time>2026-04-25T09:40:38Z</time></trkpt><trkpt lat="44.01909295376343" lon="7.906736798338317"><ele>650.8</ele><time>2026-04-25T09:40:40Z</time></trkpt><trkpt lat="44.01905554150512" lon="7.906828923142974"><ele>653.4</ele><time>2026-04-25T09:40:41Z</time></trkpt><trkpt lat="44.01902599771554" lon="7.9069072455223415"><ele>656.0</ele><time>2026-04-25T09:40:42Z</time></trkpt><trkpt lat="44.01897994969278" lon="7.907050117506293"><ele>656.0</ele><time>2026-04-25T09:40:44Z</time></trkpt><trkpt lat="44.01898131939224" lon="7.90716242308535"><ele>656.0</ele><time>2026-04-25T09:40:46Z</time></trkpt><trkpt lat="44.018984104727565" lon="7.907284584009281"><ele>656.0</ele><time>2026-04-25T09:40:48Z</time></trkpt><trkpt lat="44.018931205652905" lon="7.9074121252759815"><ele>656.0</ele><time>2026-04-25T09:40:50Z</time></trkpt><trkpt lat="44.018862976663065" lon="7.907548552295916"><ele>656.0</ele><time>2026-04-25T09:40:52Z</time></trkpt><trkpt lat="44.018835039857066" lon="7.907641645178271"><ele>653.6666666666666</ele><time>2026-04-25T09:40:53Z</time></trkpt><trkpt lat="44.01879543221721" lon="7.907738649225746"><ele>651.3333333333333</ele><time>2026-04-25T09:40:54Z</time></trkpt><trkpt lat="44.018761655612444" lon="7.9078151928776075"><ele>649.0</ele><time>2026-04-25T09:40:55Z</time></trkpt><trkpt lat="44.018677800640226" lon="7.907890910432848"><ele>646.6666666666666</ele><time>2026-04-25T09:40:57Z</time></trkpt><trkpt lat="44.01858562954135" lon="7.907946289758978"><ele>644.3333333333334</ele><time>2026-04-25T09:40:59Z</time></trkpt><trkpt lat="44.01863578776369" lon="7.90799928325056"><ele>642.0</ele><time>2026-04-25T09:41:04Z</time></trkpt><trkpt lat="44.01869981902468" lon="7.907967952366244"><ele>642.0</ele><time>2026-04-25T09:41:06Z</time></trkpt><trkpt lat="44.0187741248462" lon="7.907891117417485"><ele>642.0</ele><time>2026-04-25T09:41:08Z</time></trkpt><trkpt lat="44.0188366374575" lon="7.907814135028214"><ele>642.0</ele><time>2026-04-25T09:41:10Z</time></trkpt><trkpt lat="44.018906075787115" lon="7.907722832546948"><ele>642.0</ele><time>2026-04-25T09:41:13Z</time></trkpt><trkpt lat="44.018991240389106" lon="7.907599830811158"><ele>642.0</ele><time>2026-04-25T09:41:15Z</time></trkpt><trkpt lat="44.019042507597696" lon="7.907514322719345"><ele>640.3333333333334</ele><time>2026-04-25T09:41:17Z</time></trkpt><trkpt lat="44.01909871618832" lon="7.907430198873886"><ele>638.6666666666666</ele><time>2026-04-25T09:41:20Z</time></trkpt><trkpt lat="44.01914957967896" lon="7.907358818768164"><ele>637.0</ele><time>2026-04-25T09:41:22Z</time></trkpt><trkpt lat="44.0192251314568" lon="7.90728721294311"><ele>635.3333333333333</ele><time>2026-04-25T09:41:24Z</time></trkpt><trkpt lat="44.01931380632613" lon="7.907284918515655"><ele>633.6666666666666</ele><time>2026-04-25T09:41:25Z</time></trkpt><trkpt lat="44.01938024754495" lon="7.907254865692323"><ele>632.0</ele><time>2026-04-25T09:41:27Z</time></trkpt><trkpt lat="44.01942769413167" lon="7.907171504962082"><ele>632.0</ele><time>2026-04-25T09:41:29Z</time></trkpt><trkpt lat="44.01951378014511" lon="7.907110530573057"><ele>632.0</ele><time>2026-04-25T09:41:31Z</time></trkpt><trkpt lat="44.019602105743466" lon="7.907081869055044"><ele>632.0</ele><time>2026-04-25T09:41:33Z</time></trkpt><trkpt lat="44.01960726819292" lon="7.906953141044909"><ele>632.0</ele><time>2026-04-25T09:41:35Z</time></trkpt><trkpt lat="44.01961156885395" lon="7.906815300314405"><ele>632.0</ele><time>2026-04-25T09:41:37Z</time></trkpt><trkpt lat="44.01965331140607" lon="7.906742259932802"><ele>632.0</ele><time>2026-04-25T09:41:38Z</time></trkpt><trkpt lat="44.01970900175493" lon="7.906635863638507"><ele>634.2</ele><time>2026-04-25T09:41:40Z</time></trkpt><trkpt lat="44.01973856404533" lon="7.906538945444619"><ele>636.4000000000001</ele><time>2026-04-25T09:41:42Z</time></trkpt><trkpt lat="44.01975236296105" lon="7.906397054633373"><ele>638.5999999999999</ele><time>2026-04-25T09:41:44Z</time></trkpt><trkpt lat="44.01974645148112" lon="7.906230557330532"><ele>640.8</ele><time>2026-04-25T09:41:46Z</time></trkpt><trkpt lat="44.01975621591399" lon="7.9060706474928075"><ele>643.0</ele><time>2026-04-25T09:41:48Z</time></trkpt><trkpt lat="44.01972269114578" lon="7.905955821807472"><ele>643.0</ele><time>2026-04-25T09:41:50Z</time></trkpt><trkpt lat="44.019744167359576" lon="7.90586840966026"><ele>643.0</ele><time>2026-04-25T09:41:53Z</time></trkpt><trkpt lat="44.01979502803773" lon="7.905935813400079"><ele>643.0</ele><time>2026-04-25T09:41:55Z</time></trkpt><trkpt lat="44.01982621725119" lon="7.906088940272455"><ele>643.0</ele><time>2026-04-25T09:41:57Z</time></trkpt><trkpt lat="44.01986418065469" lon="7.906191903633642"><ele>643.0</ele><time>2026-04-25T09:42:01Z</time></trkpt><trkpt lat="44.019987551815305" lon="7.906402628042018"><ele>638.1666666666667</ele><time>2026-04-25T09:42:02Z</time></trkpt><trkpt lat="44.02002198976657" lon="7.906559113531693"><ele>633.3333333333334</ele><time>2026-04-25T09:42:04Z</time></trkpt><trkpt lat="44.020049437728105" lon="7.906729112899602"><ele>628.5</ele><time>2026-04-25T09:42:06Z</time></trkpt><trkpt lat="44.0200807744915" lon="7.906816810350739"><ele>623.6666666666666</ele><time>2026-04-25T09:42:07Z</time></trkpt><trkpt lat="44.0201117815082" lon="7.9068932830327165"><ele>618.8333333333333</ele><time>2026-04-25T09:42:08Z</time></trkpt><trkpt lat="44.02014532297224" lon="7.906969309299004"><ele>614.0</ele><time>2026-04-25T09:42:09Z</time></trkpt><trkpt lat="44.02016434639128" lon="7.907119746669505"><ele>612.3333333333333</ele><time>2026-04-25T09:42:11Z</time></trkpt><trkpt lat="44.02022133737656" lon="7.907245424010396"><ele>610.6666666666666</ele><time>2026-04-25T09:42:13Z</time></trkpt><trkpt lat="44.02024299960332" lon="7.907341885543063"><ele>609.0</ele><time>2026-04-25T09:42:15Z</time></trkpt><trkpt lat="44.02017176040435" lon="7.907425718087005"><ele>607.3333333333334</ele><time>2026-04-25T09:42:17Z</time></trkpt><trkpt lat="44.02008286318836" lon="7.907486822063837"><ele>605.6666666666667</ele><time>2026-04-25T09:42:19Z</time></trkpt><trkpt lat="44.02001624106747" lon="7.9075282117351"><ele>604.0</ele><time>2026-04-25T09:42:20Z</time></trkpt><trkpt lat="44.01991935278689" lon="7.907524611825844"><ele>605.8</ele><time>2026-04-25T09:42:22Z</time></trkpt><trkpt lat="44.019816408807365" lon="7.90755424749672"><ele>607.5999999999999</ele><time>2026-04-25T09:42:24Z</time></trkpt><trkpt lat="44.01973820451279" lon="7.907641359927177"><ele>609.4</ele><time>2026-04-25T09:42:26Z</time></trkpt><trkpt lat="44.01966587841711" lon="7.907688765404078"><ele>611.1999999999999</ele><time>2026-04-25T09:42:28Z</time></trkpt><trkpt lat="44.019591867916425" lon="7.907766354497173"><ele>613.0</ele><time>2026-04-25T09:42:30Z</time></trkpt><trkpt lat="44.019523660316416" lon="7.907836857104536"><ele>613.0</ele><time>2026-04-25T09:42:32Z</time></trkpt><trkpt lat="44.01945792100947" lon="7.907952250194528"><ele>613.0</ele><time>2026-04-25T09:42:34Z</time></trkpt><trkpt lat="44.019376533237136" lon="7.908033942808552"><ele>613.0</ele><time>2026-04-25T09:42:36Z</time></trkpt><trkpt lat="44.01929358900797" lon="7.908117526435239"><ele>613.0</ele><time>2026-04-25T09:42:38Z</time></trkpt><trkpt lat="44.019241203162785" lon="7.9081864828910335"><ele>613.0</ele><time>2026-04-25T09:42:40Z</time></trkpt><trkpt lat="44.01918185829332" lon="7.908292863242563"><ele>613.0</ele><time>2026-04-25T09:42:43Z</time></trkpt><trkpt lat="44.01922380325706" lon="7.90838418568976"><ele>613.0</ele><time>2026-04-25T09:42:45Z</time></trkpt><trkpt lat="44.01925180149529" lon="7.908490234361046"><ele>613.0</ele><time>2026-04-25T09:42:47Z</time></trkpt><trkpt lat="44.01927353702283" lon="7.908586424061006"><ele>613.0</ele><time>2026-04-25T09:42:48Z</time></trkpt><trkpt lat="44.0193508950415" lon="7.908529689396302"><ele>613.0</ele><time>2026-04-25T09:42:51Z</time></trkpt><trkpt lat="44.01930254283786" lon="7.908427418456038"><ele>613.0</ele><time>2026-04-25T09:42:54Z</time></trkpt><trkpt lat="44.01935223374284" lon="7.908328512931834"><ele>613.0</ele><time>2026-04-25T09:42:56Z</time></trkpt><trkpt lat="44.01944154339788" lon="7.908295235226839"><ele>613.0</ele><time>2026-04-25T09:42:58Z</time></trkpt><trkpt lat="44.01949222992053" lon="7.9082303844506185"><ele>613.0</ele><time>2026-04-25T09:43:00Z</time></trkpt><trkpt lat="44.019561685398344" lon="7.9081355748137625"><ele>613.0</ele><time>2026-04-25T09:43:02Z</time></trkpt><trkpt lat="44.01965835944204" lon="7.908099551958534"><ele>613.0</ele><time>2026-04-25T09:43:04Z</time></trkpt><trkpt lat="44.01972200577236" lon="7.908067679240846"><ele>613.0</ele><time>2026-04-25T09:43:05Z</time></trkpt><trkpt lat="44.019833441288625" lon="7.908015142381328"><ele>613.0</ele><time>2026-04-25T09:43:07Z</time></trkpt><trkpt lat="44.019883528916324" lon="7.9079558404223835"><ele>613.0</ele><time>2026-04-25T09:43:08Z</time></trkpt><trkpt lat="44.019940154274785" lon="7.907871145069818"><ele>613.0</ele><time>2026-04-25T09:43:09Z</time></trkpt><trkpt lat="44.019988611558794" lon="7.9077898514304765"><ele>613.0</ele><time>2026-04-25T09:43:10Z</time></trkpt><trkpt lat="44.020042997490336" lon="7.90773146906903"><ele>613.0</ele><time>2026-04-25T09:43:11Z</time></trkpt><trkpt lat="44.0201496860908" lon="7.907634572964043"><ele>613.0</ele><time>2026-04-25T09:43:13Z</time></trkpt><trkpt lat="44.02025326180373" lon="7.9075571491440275"><ele>611.5</ele><time>2026-04-25T09:43:15Z</time></trkpt><trkpt lat="44.020325367657335" lon="7.907535311151886"><ele>610.0</ele><time>2026-04-25T09:43:17Z</time></trkpt><trkpt lat="44.02042827604058" lon="7.907520032354139"><ele>608.5</ele><time>2026-04-25T09:43:20Z</time></trkpt><trkpt lat="44.02048171102886" lon="7.907407367385805"><ele>607.0</ele><time>2026-04-25T09:43:22Z</time></trkpt><trkpt lat="44.020487465026484" lon="7.907311760745376"><ele>605.5</ele><time>2026-04-25T09:43:23Z</time></trkpt><trkpt lat="44.02050564776298" lon="7.907202294610162"><ele>604.0</ele><time>2026-04-25T09:43:24Z</time></trkpt><trkpt lat="44.020529888673735" lon="7.90706618740695"><ele>604.0</ele><time>2026-04-25T09:43:26Z</time></trkpt><trkpt lat="44.02055451103599" lon="7.906947280649338"><ele>604.0</ele><time>2026-04-25T09:43:29Z</time></trkpt><trkpt lat="44.02063759758942" lon="7.9069795867605155"><ele>604.0</ele><time>2026-04-25T09:43:31Z</time></trkpt><trkpt lat="44.020664597871665" lon="7.907109857206633"><ele>604.0</ele><time>2026-04-25T09:43:33Z</time></trkpt><trkpt lat="44.02061422810133" lon="7.907261201111422"><ele>604.0</ele><time>2026-04-25T09:43:35Z</time></trkpt><trkpt lat="44.02057298616423" lon="7.907408259129199"><ele>604.0</ele><time>2026-04-25T09:43:37Z</time></trkpt><trkpt lat="44.02055424240069" lon="7.9075346784597835"><ele>604.0</ele><time>2026-04-25T09:43:39Z</time></trkpt><trkpt lat="44.020533427195396" lon="7.9076339061427205"><ele>604.0</ele><time>2026-04-25T09:43:41Z</time></trkpt><trkpt lat="44.0204409781255" lon="7.907682408368768"><ele>604.0</ele><time>2026-04-25T09:43:43Z</time></trkpt><trkpt lat="44.02037358094608" lon="7.907716721207181"><ele>604.0</ele><time>2026-04-25T09:43:44Z</time></trkpt><trkpt lat="44.02027674082652" lon="7.907780829707527"><ele>604.0</ele><time>2026-04-25T09:43:46Z</time></trkpt><trkpt lat="44.0201812531308" lon="7.907853919539096"><ele>600.0</ele><time>2026-04-25T09:43:48Z</time></trkpt><trkpt lat="44.02012578929839" lon="7.907960401602419"><ele>596.0</ele><time>2026-04-25T09:43:50Z</time></trkpt><trkpt lat="44.02010394323022" lon="7.908136967526296"><ele>592.0</ele><time>2026-04-25T09:43:52Z</time></trkpt><trkpt lat="44.02007852242394" lon="7.9082807563200515"><ele>588.0</ele><time>2026-04-25T09:43:54Z</time></trkpt><trkpt lat="44.02003518872367" lon="7.908387200105163"><ele>584.0</ele><time>2026-04-25T09:43:57Z</time></trkpt><trkpt lat="44.020066046022414" lon="7.9086686179949925"><ele>584.0</ele><time>2026-04-25T09:44:00Z</time></trkpt><trkpt lat="44.02013042958655" lon="7.908695512181263"><ele>584.0</ele><time>2026-04-25T09:44:02Z</time></trkpt><trkpt lat="44.02017874288058" lon="7.9085582196097315"><ele>584.0</ele><time>2026-04-25T09:44:04Z</time></trkpt><trkpt lat="44.02016606785016" lon="7.908437160852533"><ele>584.0</ele><time>2026-04-25T09:44:06Z</time></trkpt><trkpt lat="44.02020069336951" lon="7.908281040691416"><ele>584.0</ele><time>2026-04-25T09:44:08Z</time></trkpt><trkpt lat="44.02024391000335" lon="7.908159617358259"><ele>584.0</ele><time>2026-04-25T09:44:09Z</time></trkpt><trkpt lat="44.02032380653364" lon="7.90804527361837"><ele>584.0</ele><time>2026-04-25T09:44:11Z</time></trkpt><trkpt lat="44.02044732590659" lon="7.907987722812355"><ele>584.0</ele><time>2026-04-25T09:44:13Z</time></trkpt><trkpt lat="44.020516721458335" lon="7.907952119244618"><ele>584.0</ele><time>2026-04-25T09:44:14Z</time></trkpt><trkpt lat="44.0205946078459" lon="7.907901082521065"><ele>584.0</ele><time>2026-04-25T09:44:15Z</time></trkpt><trkpt lat="44.02066199902142" lon="7.907861210613762"><ele>584.0</ele><time>2026-04-25T09:44:16Z</time></trkpt><trkpt lat="44.0207353659346" lon="7.907817809216203"><ele>584.0</ele><time>2026-04-25T09:44:17Z</time></trkpt><trkpt lat="44.020797002226224" lon="7.907775728698146"><ele>584.0</ele><time>2026-04-25T09:44:18Z</time></trkpt><trkpt lat="44.02089037477635" lon="7.9076881938943915"><ele>584.0</ele><time>2026-04-25T09:44:20Z</time></trkpt><trkpt lat="44.02094599644235" lon="7.90758811031454"><ele>584.0</ele><time>2026-04-25T09:44:22Z</time></trkpt><trkpt lat="44.021018243367195" lon="7.9074564618305345"><ele>582.5</ele><time>2026-04-25T09:44:24Z</time></trkpt><trkpt lat="44.021059617004966" lon="7.907388829369427"><ele>581.0</ele><time>2026-04-25T09:44:25Z</time></trkpt><trkpt lat="44.021127515890484" lon="7.907290991201042"><ele>579.5</ele><time>2026-04-25T09:44:28Z</time></trkpt><trkpt lat="44.02118609448498" lon="7.907394362477689"><ele>578.0</ele><time>2026-04-25T09:44:30Z</time></trkpt><trkpt lat="44.021169387938585" lon="7.907486619950946"><ele>576.5</ele><time>2026-04-25T09:44:31Z</time></trkpt><trkpt lat="44.02115135684655" lon="7.907578674101397"><ele>575.0</ele><time>2026-04-25T09:44:32Z</time></trkpt><trkpt lat="44.02114994841554" lon="7.907750414767264"><ele>573.3333333333333</ele><time>2026-04-25T09:44:34Z</time></trkpt><trkpt lat="44.02117369460991" lon="7.907838199325242"><ele>571.6666666666666</ele><time>2026-04-25T09:44:35Z</time></trkpt><trkpt lat="44.0211940425216" lon="7.907936778439513"><ele>570.0</ele><time>2026-04-25T09:44:36Z</time></trkpt><trkpt lat="44.021213504158766" lon="7.908025930078451"><ele>568.3333333333334</ele><time>2026-04-25T09:44:37Z</time></trkpt><trkpt lat="44.021225471743975" lon="7.908155956547002"><ele>566.6666666666667</ele><time>2026-04-25T09:44:39Z</time></trkpt><trkpt lat="44.021169465857156" lon="7.908262275898509"><ele>565.0</ele><time>2026-04-25T09:44:41Z</time></trkpt><trkpt lat="44.02111643302357" lon="7.908312770097503"><ele>564.6</ele><time>2026-04-25T09:44:42Z</time></trkpt><trkpt lat="44.021033077894806" lon="7.908426433056843"><ele>564.2</ele><time>2026-04-25T09:44:44Z</time></trkpt><trkpt lat="44.0209983176136" lon="7.908596403923282"><ele>563.8</ele><time>2026-04-25T09:44:46Z</time></trkpt><trkpt lat="44.02100394010741" lon="7.90869635496615"><ele>563.4</ele><time>2026-04-25T09:44:47Z</time></trkpt><trkpt lat="44.02101725164438" lon="7.908798000479777"><ele>563.0</ele><time>2026-04-25T09:44:48Z</time></trkpt><trkpt lat="44.02101633989273" lon="7.908942725209705"><ele>563.0</ele><time>2026-04-25T09:44:50Z</time></trkpt><trkpt lat="44.02098838873638" lon="7.909061182555275"><ele>563.0</ele><time>2026-04-25T09:44:52Z</time></trkpt><trkpt lat="44.021012381979716" lon="7.909159555656361"><ele>563.0</ele><time>2026-04-25T09:44:54Z</time></trkpt><trkpt lat="44.02110150970537" lon="7.909198644302554"><ele>563.0</ele><time>2026-04-25T09:44:56Z</time></trkpt><trkpt lat="44.02119530154637" lon="7.909175692474705"><ele>563.0</ele><time>2026-04-25T09:44:57Z</time></trkpt><trkpt lat="44.02126784238403" lon="7.909152143350355"><ele>563.0</ele><time>2026-04-25T09:44:58Z</time></trkpt><trkpt lat="44.021397321904004" lon="7.909144553684701"><ele>563.0</ele><time>2026-04-25T09:45:00Z</time></trkpt><trkpt lat="44.02148880246321" lon="7.909105897082533"><ele>563.0</ele><time>2026-04-25T09:45:02Z</time></trkpt><trkpt lat="44.021551420360105" lon="7.90899973116985"><ele>563.0</ele><time>2026-04-25T09:45:04Z</time></trkpt><trkpt lat="44.0215397889656" lon="7.90887504032401"><ele>563.0</ele><time>2026-04-25T09:45:06Z</time></trkpt><trkpt lat="44.0214992767745" lon="7.908727169345142"><ele>563.0</ele><time>2026-04-25T09:45:08Z</time></trkpt><trkpt lat="44.02144644109034" lon="7.9085928548395135"><ele>563.0</ele><time>2026-04-25T09:45:10Z</time></trkpt><trkpt lat="44.0214654897953" lon="7.908460497454463"><ele>563.0</ele><time>2026-04-25T09:45:12Z</time></trkpt><trkpt lat="44.021558103989314" lon="7.908370794657203"><ele>563.0</ele><time>2026-04-25T09:45:14Z</time></trkpt><trkpt lat="44.02165668234248" lon="7.908298733091115"><ele>563.0</ele><time>2026-04-25T09:45:16Z</time></trkpt><trkpt lat="44.02175510513322" lon="7.908235783448707"><ele>563.0</ele><time>2026-04-25T09:45:18Z</time></trkpt><trkpt lat="44.021834719929814" lon="7.908143006852507"><ele>561.0</ele><time>2026-04-25T09:45:20Z</time></trkpt><trkpt lat="44.02191433205426" lon="7.908061462085025"><ele>559.0</ele><time>2026-04-25T09:45:22Z</time></trkpt><trkpt lat="44.02199328531802" lon="7.908079946702573"><ele>557.0</ele><time>2026-04-25T09:45:25Z</time></trkpt><trkpt lat="44.02195687546867" lon="7.908200972205577"><ele>555.0</ele><time>2026-04-25T09:45:27Z</time></trkpt><trkpt lat="44.02185233967364" lon="7.9082383221707016"><ele>553.0</ele><time>2026-04-25T09:45:29Z</time></trkpt><trkpt lat="44.02178850128048" lon="7.908223027723313"><ele>551.0</ele><time>2026-04-25T09:45:31Z</time></trkpt><trkpt lat="44.021778657804816" lon="7.908339134031006"><ele>550.0</ele><time>2026-04-25T09:45:33Z</time></trkpt><trkpt lat="44.02181144857193" lon="7.908492191820968"><ele>549.0</ele><time>2026-04-25T09:45:35Z</time></trkpt><trkpt lat="44.021824968525465" lon="7.908579907434403"><ele>548.0</ele><time>2026-04-25T09:45:36Z</time></trkpt><trkpt lat="44.02185461729568" lon="7.908668428478221"><ele>547.0</ele><time>2026-04-25T09:45:37Z</time></trkpt><trkpt lat="44.02190255204097" lon="7.90873135434186"><ele>546.0</ele><time>2026-04-25T09:45:38Z</time></trkpt><trkpt lat="44.02198213361666" lon="7.9088462300522115"><ele>545.0</ele><time>2026-04-25T09:45:40Z</time></trkpt><trkpt lat="44.022027643711326" lon="7.908976259697682"><ele>545.0</ele><time>2026-04-25T09:45:42Z</time></trkpt><trkpt lat="44.022075904471166" lon="7.909116582112902"><ele>545.0</ele><time>2026-04-25T09:45:44Z</time></trkpt><trkpt lat="44.02212927642084" lon="7.909263830179704"><ele>545.0</ele><time>2026-04-25T09:45:46Z</time></trkpt><trkpt lat="44.02214476109815" lon="7.909366146532514"><ele>545.0</ele><time>2026-04-25T09:45:47Z</time></trkpt><trkpt lat="44.022156777118155" lon="7.90948669151856"><ele>545.0</ele><time>2026-04-25T09:45:48Z</time></trkpt><trkpt lat="44.0221722897888" lon="7.909588905673011"><ele>544.6666666666666</ele><time>2026-04-25T09:45:49Z</time></trkpt><trkpt lat="44.02215208766759" lon="7.909690891116387"><ele>544.3333333333333</ele><time>2026-04-25T09:45:51Z</time></trkpt><trkpt lat="44.02217660610205" lon="7.909799054272166"><ele>544.0</ele><time>2026-04-25T09:45:54Z</time></trkpt><trkpt lat="44.022260002773066" lon="7.9097780335750825"><ele>543.6666666666666</ele><time>2026-04-25T09:45:56Z</time></trkpt><trkpt lat="44.0223168062533" lon="7.909735872333302"><ele>543.3333333333334</ele><time>2026-04-25T09:45:57Z</time></trkpt><trkpt lat="44.022361883412486" lon="7.909620932408858"><ele>543.0</ele><time>2026-04-25T09:45:59Z</time></trkpt><trkpt lat="44.02237120081129" lon="7.909453227869949"><ele>543.0</ele><time>2026-04-25T09:46:01Z</time></trkpt><trkpt lat="44.022375572968244" lon="7.9093232921166585"><ele>543.0</ele><time>2026-04-25T09:46:03Z</time></trkpt><trkpt lat="44.022346024469705" lon="7.909182343655315"><ele>543.0</ele><time>2026-04-25T09:46:05Z</time></trkpt><trkpt lat="44.022321102539024" lon="7.909087580217735"><ele>543.0</ele><time>2026-04-25T09:46:07Z</time></trkpt><trkpt lat="44.02233803021354" lon="7.909003251222408"><ele>543.0</ele><time>2026-04-25T09:46:08Z</time></trkpt><trkpt lat="44.022416330536835" lon="7.908874648123823"><ele>540.5</ele><time>2026-04-25T09:46:10Z</time></trkpt><trkpt lat="44.02251611283365" lon="7.908796738451347"><ele>538.0</ele><time>2026-04-25T09:46:12Z</time></trkpt><trkpt lat="44.02258606361792" lon="7.908744139801835"><ele>535.5</ele><time>2026-04-25T09:46:13Z</time></trkpt><trkpt lat="44.02262197333352" lon="7.90867216094085"><ele>533.0</ele><time>2026-04-25T09:46:14Z</time></trkpt><trkpt lat="44.02264165802877" lon="7.908585601332067"><ele>530.5</ele><time>2026-04-25T09:46:15Z</time></trkpt><trkpt lat="44.02265680390355" lon="7.9084964935268"><ele>528.0</ele><time>2026-04-25T09:46:16Z</time></trkpt><trkpt lat="44.022658161172785" lon="7.908405276271494"><ele>528.0</ele><time>2026-04-25T09:46:18Z</time></trkpt><trkpt lat="44.02267298825872" lon="7.90829488471501"><ele>528.0</ele><time>2026-04-25T09:46:20Z</time></trkpt><trkpt lat="44.02274435594269" lon="7.908283642102676"><ele>528.0</ele><time>2026-04-25T09:46:22Z</time></trkpt><trkpt lat="44.02276040382404" lon="7.908424101857825"><ele>528.0</ele><time>2026-04-25T09:46:24Z</time></trkpt><trkpt lat="44.02273230090935" lon="7.9085789218379015"><ele>528.0</ele><time>2026-04-25T09:46:26Z</time></trkpt><trkpt lat="44.02274111830034" lon="7.908700544234906"><ele>527.0</ele><time>2026-04-25T09:46:28Z</time></trkpt><trkpt lat="44.02271154614526" lon="7.908828951664518"><ele>526.0</ele><time>2026-04-25T09:46:30Z</time></trkpt><trkpt lat="44.02268676045922" lon="7.908927553125436"><ele>525.0</ele><time>2026-04-25T09:46:32Z</time></trkpt><trkpt lat="44.02271844051701" lon="7.909055767745603"><ele>524.0</ele><time>2026-04-25T09:46:35Z</time></trkpt><trkpt lat="44.02277724899197" lon="7.909204997457113"><ele>523.0</ele><time>2026-04-25T09:46:37Z</time></trkpt><trkpt lat="44.0227937057023" lon="7.909324883342542"><ele>521.8</ele><time>2026-04-25T09:46:38Z</time></trkpt><trkpt lat="44.02284565674095" lon="7.909444127936893"><ele>520.5999999999999</ele><time>2026-04-25T09:46:40Z</time></trkpt><trkpt lat="44.0228683272191" lon="7.909596472174023"><ele>519.4000000000001</ele><time>2026-04-25T09:46:42Z</time></trkpt><trkpt lat="44.022866034013" lon="7.909747246271292"><ele>518.2</ele><time>2026-04-25T09:46:44Z</time></trkpt><trkpt lat="44.02282289605557" lon="7.909884742724388"><ele>517.0</ele><time>2026-04-25T09:46:46Z</time></trkpt><trkpt lat="44.02277574797112" lon="7.910004458417248"><ele>517.0</ele><time>2026-04-25T09:46:48Z</time></trkpt><trkpt lat="44.022821752563075" lon="7.910080851189515"><ele>517.0</ele><time>2026-04-25T09:46:51Z</time></trkpt><trkpt lat="44.02287723130053" lon="7.909985372762955"><ele>517.0</ele><time>2026-04-25T09:46:53Z</time></trkpt><trkpt lat="44.022905355570074" lon="7.909900078831428"><ele>517.0</ele><time>2026-04-25T09:46:54Z</time></trkpt><trkpt lat="44.02294132794642" lon="7.90973827620881"><ele>517.0</ele><time>2026-04-25T09:46:56Z</time></trkpt><trkpt lat="44.022981679982394" lon="7.909629874841669"><ele>517.0</ele><time>2026-04-25T09:46:57Z</time></trkpt><trkpt lat="44.02302184074395" lon="7.909498232326359"><ele>517.0</ele><time>2026-04-25T09:46:59Z</time></trkpt><trkpt lat="44.0230114596709" lon="7.909333647820189"><ele>517.0</ele><time>2026-04-25T09:47:01Z</time></trkpt><trkpt lat="44.0229974541429" lon="7.909194171750705"><ele>517.0</ele><time>2026-04-25T09:47:03Z</time></trkpt><trkpt lat="44.02301146891308" lon="7.9090684591538025"><ele>517.0</ele><time>2026-04-25T09:47:05Z</time></trkpt><trkpt lat="44.02308976312623" lon="7.9089654400597045"><ele>517.0</ele><time>2026-04-25T09:47:07Z</time></trkpt><trkpt lat="44.02314389990885" lon="7.908914524131547"><ele>518.2</ele><time>2026-04-25T09:47:08Z</time></trkpt><trkpt lat="44.02319598341751" lon="7.908800079299997"><ele>519.4000000000001</ele><time>2026-04-25T09:47:10Z</time></trkpt><trkpt lat="44.023196152122665" lon="7.908709986461925"><ele>520.5999999999999</ele><time>2026-04-25T09:47:11Z</time></trkpt><trkpt lat="44.02318574425456" lon="7.908566279961072"><ele>521.8</ele><time>2026-04-25T09:47:13Z</time></trkpt><trkpt lat="44.02318289328682" lon="7.90843819537354"><ele>523.0</ele><time>2026-04-25T09:47:15Z</time></trkpt><trkpt lat="44.02313077136471" lon="7.908288399301934"><ele>524.0</ele><time>2026-04-25T09:47:17Z</time></trkpt><trkpt lat="44.02308051726698" lon="7.908167977282318"><ele>525.0</ele><time>2026-04-25T09:47:19Z</time></trkpt><trkpt lat="44.023064746699106" lon="7.908009554379212"><ele>526.0</ele><time>2026-04-25T09:47:21Z</time></trkpt><trkpt lat="44.02305672145415" lon="7.907854767847933"><ele>527.0</ele><time>2026-04-25T09:47:23Z</time></trkpt><trkpt lat="44.02302988388657" lon="7.907707039460341"><ele>528.0</ele><time>2026-04-25T09:47:25Z</time></trkpt><trkpt lat="44.02302511005202" lon="7.907617931075444"><ele>527.5</ele><time>2026-04-25T09:47:26Z</time></trkpt><trkpt lat="44.023033467627336" lon="7.907433378571335"><ele>527.0</ele><time>2026-04-25T09:47:28Z</time></trkpt><trkpt lat="44.02303576887929" lon="7.907266604384962"><ele>526.5</ele><time>2026-04-25T09:47:30Z</time></trkpt><trkpt lat="44.0230483448548" lon="7.907178758375248"><ele>526.0</ele><time>2026-04-25T09:47:31Z</time></trkpt><trkpt lat="44.02306954114936" lon="7.907090385414838"><ele>525.5</ele><time>2026-04-25T09:47:32Z</time></trkpt><trkpt lat="44.02310447509583" lon="7.907014722915045"><ele>525.0</ele><time>2026-04-25T09:47:33Z</time></trkpt><trkpt lat="44.02318370365402" lon="7.90689727264698"><ele>524.1666666666666</ele><time>2026-04-25T09:47:35Z</time></trkpt><trkpt lat="44.02321611156383" lon="7.906742766725123"><ele>523.3333333333334</ele><time>2026-04-25T09:47:37Z</time></trkpt><trkpt lat="44.02322934400252" lon="7.9066491944468265"><ele>522.5</ele><time>2026-04-25T09:47:38Z</time></trkpt><trkpt lat="44.0232461282154" lon="7.906562808860223"><ele>521.6666666666667</ele><time>2026-04-25T09:47:39Z</time></trkpt><trkpt lat="44.02324380382772" lon="7.906464568902371"><ele>520.8333333333334</ele><time>2026-04-25T09:47:40Z</time></trkpt><trkpt lat="44.02323302259834" lon="7.906330751307477"><ele>520.0</ele><time>2026-04-25T09:47:42Z</time></trkpt><trkpt lat="44.02329730890325" lon="7.9062821806216546"><ele>520.0</ele><time>2026-04-25T09:47:46Z</time></trkpt><trkpt lat="44.02332415156214" lon="7.906418972958619"><ele>520.0</ele><time>2026-04-25T09:47:48Z</time></trkpt><trkpt lat="44.023310354473836" lon="7.906544269273871"><ele>520.0</ele><time>2026-04-25T09:47:50Z</time></trkpt><trkpt lat="44.02336278701034" lon="7.906667456957555"><ele>520.0</ele><time>2026-04-25T09:47:52Z</time></trkpt><trkpt lat="44.02339672499039" lon="7.906794839314911"><ele>520.0</ele><time>2026-04-25T09:47:54Z</time></trkpt><trkpt lat="44.02340067968572" lon="7.9068864723714665"><ele>512.8333333333334</ele><time>2026-04-25T09:47:55Z</time></trkpt><trkpt lat="44.02339878311317" lon="7.906980444057354"><ele>505.6666666666667</ele><time>2026-04-25T09:47:56Z</time></trkpt><trkpt lat="44.02339866657627" lon="7.9070691843775345"><ele>498.5</ele><time>2026-04-25T09:47:57Z</time></trkpt><trkpt lat="44.0234023041295" lon="7.907158556590686"><ele>491.33333333333337</ele><time>2026-04-25T09:47:58Z</time></trkpt><trkpt lat="44.02341697832366" lon="7.907246920182796"><ele>484.1666666666667</ele><time>2026-04-25T09:47:59Z</time></trkpt><trkpt lat="44.02345959349087" lon="7.907394219650288"><ele>477.0</ele><time>2026-04-25T09:48:01Z</time></trkpt><trkpt lat="44.02347934758819" lon="7.907544308938173"><ele>478.1666666666667</ele><time>2026-04-25T09:48:03Z</time></trkpt><trkpt lat="44.02347642726894" lon="7.907635832312357"><ele>479.33333333333337</ele><time>2026-04-25T09:48:04Z</time></trkpt><trkpt lat="44.02347373730232" lon="7.907732214779056"><ele>480.5</ele><time>2026-04-25T09:48:05Z</time></trkpt><trkpt lat="44.02346307573659" lon="7.907825185695809"><ele>481.6666666666667</ele><time>2026-04-25T09:48:06Z</time></trkpt><trkpt lat="44.02346281192517" lon="7.907986843600853"><ele>482.83333333333337</ele><time>2026-04-25T09:48:08Z</time></trkpt><trkpt lat="44.023470768085375" lon="7.908080128453987"><ele>484.0</ele><time>2026-04-25T09:48:09Z</time></trkpt><trkpt lat="44.02351565345479" lon="7.908192248006527"><ele>484.00000000000006</ele><time>2026-04-25T09:48:11Z</time></trkpt><trkpt lat="44.02354224007095" lon="7.908280654291372"><ele>484.0</ele><time>2026-04-25T09:48:13Z</time></trkpt><trkpt lat="44.02356163695698" lon="7.908382226642705"><ele>484.0</ele><time>2026-04-25T09:48:16Z</time></trkpt><trkpt lat="44.02359834535337" lon="7.908464718866628"><ele>484.0</ele><time>2026-04-25T09:48:19Z</time></trkpt><trkpt lat="44.02363766832891" lon="7.9085558125116835"><ele>484.00000000000006</ele><time>2026-04-25T09:48:22Z</time></trkpt><trkpt lat="44.02368314899196" lon="7.908672510036991"><ele>484.0</ele><time>2026-04-25T09:48:25Z</time></trkpt><trkpt lat="44.023728343099194" lon="7.9087619312515764"><ele>484.00000000000006</ele><time>2026-04-25T09:48:27Z</time></trkpt><trkpt lat="44.023769012382445" lon="7.908837165088004"><ele>484.0</ele><time>2026-04-25T09:48:29Z</time></trkpt><trkpt lat="44.023793277238276" lon="7.908964684251239"><ele>484.0</ele><time>2026-04-25T09:48:31Z</time></trkpt><trkpt lat="44.023798316404374" lon="7.909089075271076"><ele>484.0</ele><time>2026-04-25T09:48:33Z</time></trkpt><trkpt lat="44.02381791465344" lon="7.909262821948239"><ele>484.00000000000006</ele><time>2026-04-25T09:48:35Z</time></trkpt><trkpt lat="44.02385111729436" lon="7.909347628741429"><ele>484.0</ele><time>2026-04-25T09:48:36Z</time></trkpt><trkpt lat="44.02388965423397" lon="7.909417974719651"><ele>484.0</ele><time>2026-04-25T09:48:37Z</time></trkpt><trkpt lat="44.02396171803224" lon="7.909556351897102"><ele>484.0</ele><time>2026-04-25T09:48:39Z</time></trkpt><trkpt lat="44.02402287432411" lon="7.909677503563563"><ele>484.0</ele><time>2026-04-25T09:48:41Z</time></trkpt><trkpt lat="44.02404819999431" lon="7.9098365464534695"><ele>484.0</ele><time>2026-04-25T09:48:43Z</time></trkpt><trkpt lat="44.0240230926652" lon="7.909995714968577"><ele>482.2</ele><time>2026-04-25T09:48:45Z</time></trkpt><trkpt lat="44.0240333740682" lon="7.910141453612932"><ele>480.4</ele><time>2026-04-25T09:48:47Z</time></trkpt><trkpt lat="44.02406185716099" lon="7.910296653899592"><ele>478.6</ele><time>2026-04-25T09:48:49Z</time></trkpt><trkpt lat="44.02405453043483" lon="7.91043553046634"><ele>476.8</ele><time>2026-04-25T09:48:51Z</time></trkpt><trkpt lat="44.02401562662677" lon="7.910529595588372"><ele>475.0</ele><time>2026-04-25T09:48:52Z</time></trkpt><trkpt lat="44.02396725504626" lon="7.910601825754349"><ele>475.0</ele><time>2026-04-25T09:48:53Z</time></trkpt><trkpt lat="44.02388711625346" lon="7.910691138741668"><ele>475.0</ele><time>2026-04-25T09:48:55Z</time></trkpt><trkpt lat="44.0237732198115" lon="7.9107237091183205"><ele>475.0</ele><time>2026-04-25T09:48:57Z</time></trkpt><trkpt lat="44.02370706365955" lon="7.910808902744325"><ele>475.0</ele><time>2026-04-25T09:48:59Z</time></trkpt><trkpt lat="44.023701535193936" lon="7.910902841795253"><ele>475.0</ele><time>2026-04-25T09:49:01Z</time></trkpt><trkpt lat="44.02373160371853" lon="7.910995113417509"><ele>473.33333333333337</ele><time>2026-04-25T09:49:03Z</time></trkpt><trkpt lat="44.02376971565215" lon="7.911135453709302"><ele>471.6666666666667</ele><time>2026-04-25T09:49:04Z</time></trkpt><trkpt lat="44.02377550557364" lon="7.911249236056389"><ele>470.0</ele><time>2026-04-25T09:49:05Z</time></trkpt><trkpt lat="44.023771349013" lon="7.911399632707285"><ele>468.33333333333337</ele><time>2026-04-25T09:49:07Z</time></trkpt><trkpt lat="44.02377545183147" lon="7.9114934746791254"><ele>466.6666666666667</ele><time>2026-04-25T09:49:08Z</time></trkpt><trkpt lat="44.02375569087794" lon="7.9115967009562835"><ele>465.0</ele><time>2026-04-25T09:49:10Z</time></trkpt><trkpt lat="44.02374661195215" lon="7.911696449181487"><ele>466.1666666666667</ele><time>2026-04-25T09:49:12Z</time></trkpt><trkpt lat="44.02376363564035" lon="7.911874299725832"><ele>467.33333333333337</ele><time>2026-04-25T09:49:14Z</time></trkpt><trkpt lat="44.02379641195395" lon="7.911971912597364"><ele>468.5</ele><time>2026-04-25T09:49:16Z</time></trkpt><trkpt lat="44.02375415444809" lon="7.912064264574889"><ele>469.6666666666667</ele><time>2026-04-25T09:49:19Z</time></trkpt><trkpt lat="44.023768474826845" lon="7.9121664120272985"><ele>470.83333333333337</ele><time>2026-04-25T09:49:22Z</time></trkpt><trkpt lat="44.023830589036905" lon="7.912082963919267"><ele>472.0</ele><time>2026-04-25T09:49:25Z</time></trkpt><trkpt lat="44.0238786969249" lon="7.911976668327469"><ele>472.00000000000006</ele><time>2026-04-25T09:49:26Z</time></trkpt><trkpt lat="44.02389286561087" lon="7.911888618087496"><ele>472.0</ele><time>2026-04-25T09:49:27Z</time></trkpt><trkpt lat="44.02390832103764" lon="7.911766482465461"><ele>472.0</ele><time>2026-04-25T09:49:29Z</time></trkpt><trkpt lat="44.02393507924778" lon="7.911665466385549"><ele>472.0</ele><time>2026-04-25T09:49:31Z</time></trkpt><trkpt lat="44.023980830328426" lon="7.9115789024742"><ele>472.00000000000006</ele><time>2026-04-25T09:49:33Z</time></trkpt><trkpt lat="44.024045137685555" lon="7.911484206770613"><ele>472.0</ele><time>2026-04-25T09:49:35Z</time></trkpt><trkpt lat="44.024013122342964" lon="7.911336029859783"><ele>470.83333333333337</ele><time>2026-04-25T09:49:37Z</time></trkpt><trkpt lat="44.0239775093713" lon="7.911259795181769"><ele>469.6666666666667</ele><time>2026-04-25T09:49:38Z</time></trkpt><trkpt lat="44.02395180814644" lon="7.911177823734228"><ele>468.5</ele><time>2026-04-25T09:49:39Z</time></trkpt><trkpt lat="44.023950321116665" lon="7.911054872968145"><ele>467.33333333333337</ele><time>2026-04-25T09:49:41Z</time></trkpt><trkpt lat="44.02399266389204" lon="7.910974131911919"><ele>466.1666666666667</ele><time>2026-04-25T09:49:43Z</time></trkpt><trkpt lat="44.024094796629974" lon="7.910995796960383"><ele>465.0</ele><time>2026-04-25T09:49:45Z</time></trkpt><trkpt lat="44.024159469428746" lon="7.911044366227417"><ele>460.8333333333333</ele><time>2026-04-25T09:49:46Z</time></trkpt><trkpt lat="44.02425608196865" lon="7.911031096125562"><ele>456.66666666666663</ele><time>2026-04-25T09:49:48Z</time></trkpt><trkpt lat="44.02430498589405" lon="7.910893905303764"><ele>452.5</ele><time>2026-04-25T09:49:50Z</time></trkpt><trkpt lat="44.02431546519844" lon="7.910793199102175"><ele>448.3333333333333</ele><time>2026-04-25T09:49:51Z</time></trkpt><trkpt lat="44.024349312375506" lon="7.910690871629232"><ele>444.16666666666663</ele><time>2026-04-25T09:49:52Z</time></trkpt><trkpt lat="44.024381077662305" lon="7.910609002098255"><ele>440.0</ele><time>2026-04-25T09:49:53Z</time></trkpt><trkpt lat="44.024422017072695" lon="7.9104726147779"><ele>439.99999999999994</ele><time>2026-04-25T09:49:55Z</time></trkpt><trkpt lat="44.02443296403317" lon="7.910309278317433"><ele>440.0</ele><time>2026-04-25T09:49:57Z</time></trkpt><trkpt lat="44.024435778446126" lon="7.910210584749241"><ele>440.0</ele><time>2026-04-25T09:49:58Z</time></trkpt><trkpt lat="44.02443385265448" lon="7.910119978817875"><ele>440.0</ele><time>2026-04-25T09:49:59Z</time></trkpt><trkpt lat="44.02445128083309" lon="7.909961045959525"><ele>439.99999999999994</ele><time>2026-04-25T09:50:01Z</time></trkpt><trkpt lat="44.02445121447154" lon="7.909860821550252"><ele>440.0</ele><time>2026-04-25T09:50:02Z</time></trkpt><trkpt lat="44.02445874545497" lon="7.909766144893514"><ele>440.49999999999994</ele><time>2026-04-25T09:50:03Z</time></trkpt><trkpt lat="44.024476659975804" lon="7.909675611785119"><ele>441.0</ele><time>2026-04-25T09:50:04Z</time></trkpt><trkpt lat="44.02450532242858" lon="7.909594271115815"><ele>441.5</ele><time>2026-04-25T09:50:05Z</time></trkpt><trkpt lat="44.02452236921497" lon="7.909494089169523"><ele>442.0</ele><time>2026-04-25T09:50:06Z</time></trkpt><trkpt lat="44.024524914909996" lon="7.90939291568937"><ele>442.49999999999994</ele><time>2026-04-25T09:50:07Z</time></trkpt><trkpt lat="44.02455603011875" lon="7.909242506632134"><ele>443.0</ele><time>2026-04-25T09:50:09Z</time></trkpt><trkpt lat="44.02459903013308" lon="7.9090915660051"><ele>443.0</ele><time>2026-04-25T09:50:11Z</time></trkpt><trkpt lat="44.02460914150247" lon="7.908909606753854"><ele>442.99999999999994</ele><time>2026-04-25T09:50:13Z</time></trkpt><trkpt lat="44.02459699111192" lon="7.908788380647649"><ele>442.99999999999994</ele><time>2026-04-25T09:50:14Z</time></trkpt><trkpt lat="44.0246001638759" lon="7.90868961514713"><ele>443.0</ele><time>2026-04-25T09:50:15Z</time></trkpt><trkpt lat="44.024617429039296" lon="7.908545536087048"><ele>443.0</ele><time>2026-04-25T09:50:17Z</time></trkpt><trkpt lat="44.02466541853394" lon="7.908423296539074"><ele>442.25</ele><time>2026-04-25T09:50:19Z</time></trkpt><trkpt lat="44.024715080087965" lon="7.908303301331161"><ele>441.5</ele><time>2026-04-25T09:50:21Z</time></trkpt><trkpt lat="44.02470526857755" lon="7.908179148489834"><ele>440.75</ele><time>2026-04-25T09:50:24Z</time></trkpt><trkpt lat="44.02467951709184" lon="7.908070995562693"><ele>440.0</ele><time>2026-04-25T09:50:27Z</time></trkpt><trkpt lat="44.024605679641304" lon="7.907766670381039"><ele>439.99999999999994</ele><time>2026-04-25T09:50:29Z</time></trkpt><trkpt lat="44.02460023205019" lon="7.9076732461758255"><ele>440.0</ele><time>2026-04-25T09:50:30Z</time></trkpt><trkpt lat="44.02459295360247" lon="7.907575481675572"><ele>440.0</ele><time>2026-04-25T09:50:31Z</time></trkpt><trkpt lat="44.02459388097849" lon="7.907448412603255"><ele>440.0</ele><time>2026-04-25T09:50:33Z</time></trkpt><trkpt lat="44.02468022279325" lon="7.907470231548961"><ele>439.99999999999994</ele><time>2026-04-25T09:50:35Z</time></trkpt><trkpt lat="44.02474555315823" lon="7.907577889773159"><ele>440.0</ele><time>2026-04-25T09:50:37Z</time></trkpt><trkpt lat="44.02479087246026" lon="7.907679296865033"><ele>440.0</ele><time>2026-04-25T09:50:39Z</time></trkpt><trkpt lat="44.02488054995796" lon="7.907763999021912"><ele>440.0</ele><time>2026-04-25T09:50:41Z</time></trkpt><trkpt lat="44.02496722528453" lon="7.90782563165956"><ele>440.0</ele><time>2026-04-25T09:50:43Z</time></trkpt><trkpt lat="44.02503751686782" lon="7.907913556559403"><ele>440.0</ele><time>2026-04-25T09:50:45Z</time></trkpt><trkpt lat="44.02509665950842" lon="7.908031293997853"><ele>440.0</ele><time>2026-04-25T09:50:47Z</time></trkpt><trkpt lat="44.025097778212704" lon="7.908184346673739"><ele>434.8333333333333</ele><time>2026-04-25T09:50:49Z</time></trkpt><trkpt lat="44.025083321501285" lon="7.90830558413675"><ele>429.66666666666663</ele><time>2026-04-25T09:50:50Z</time></trkpt><trkpt lat="44.0250703836092" lon="7.908424477337778"><ele>424.5</ele><time>2026-04-25T09:50:51Z</time></trkpt><trkpt lat="44.025064187465695" lon="7.908594262620943"><ele>419.33333333333337</ele><time>2026-04-25T09:50:53Z</time></trkpt><trkpt lat="44.025054621645424" lon="7.90869709356498"><ele>414.1666666666667</ele><time>2026-04-25T09:50:54Z</time></trkpt><trkpt lat="44.025037490764454" lon="7.908793837926133"><ele>409.0</ele><time>2026-04-25T09:50:55Z</time></trkpt><trkpt lat="44.025042887436214" lon="7.908881852261465"><ele>408.2</ele><time>2026-04-25T09:50:56Z</time></trkpt><trkpt lat="44.02506051169774" lon="7.9089704510362635"><ele>407.4</ele><time>2026-04-25T09:50:57Z</time></trkpt><trkpt lat="44.025110181554666" lon="7.909113742350664"><ele>406.6</ele><time>2026-04-25T09:50:59Z</time></trkpt><trkpt lat="44.02512764790742" lon="7.9092409607067795"><ele>405.8</ele><time>2026-04-25T09:51:01Z</time></trkpt><trkpt lat="44.02514020712148" lon="7.909378826249297"><ele>405.0</ele><time>2026-04-25T09:51:03Z</time></trkpt><trkpt lat="44.025100702064336" lon="7.909508846738454"><ele>404.8333333333333</ele><time>2026-04-25T09:51:05Z</time></trkpt><trkpt lat="44.02506039079759" lon="7.909587976656391"><ele>404.66666666666663</ele><time>2026-04-25T09:51:06Z</time></trkpt><trkpt lat="44.025019953537814" lon="7.909756575589951"><ele>404.5</ele><time>2026-04-25T09:51:08Z</time></trkpt><trkpt lat="44.02500613110424" lon="7.909870313398259"><ele>404.3333333333333</ele><time>2026-04-25T09:51:09Z</time></trkpt><trkpt lat="44.02500226147978" lon="7.909962485912793"><ele>404.16666666666663</ele><time>2026-04-25T09:51:10Z</time></trkpt><trkpt lat="44.025021555754535" lon="7.910049075102499"><ele>404.0</ele><time>2026-04-25T09:51:11Z</time></trkpt><trkpt lat="44.025053970933165" lon="7.910127447100061"><ele>403.75</ele><time>2026-04-25T09:51:12Z</time></trkpt><trkpt lat="44.02507292926696" lon="7.910307051364454"><ele>403.5</ele><time>2026-04-25T09:51:14Z</time></trkpt><trkpt lat="44.02508501300303" lon="7.910443615990498"><ele>403.25</ele><time>2026-04-25T09:51:16Z</time></trkpt><trkpt lat="44.02509456252591" lon="7.910601171757782"><ele>403.0</ele><time>2026-04-25T09:51:18Z</time></trkpt><trkpt lat="44.025083919367056" lon="7.910750230392654"><ele>403.0</ele><time>2026-04-25T09:51:20Z</time></trkpt><trkpt lat="44.02502513230843" lon="7.910854179913042"><ele>403.0</ele><time>2026-04-25T09:51:22Z</time></trkpt><trkpt lat="44.02499581620708" lon="7.910962993539848"><ele>403.0</ele><time>2026-04-25T09:51:25Z</time></trkpt><trkpt lat="44.02506593662428" lon="7.911070391827676"><ele>403.0</ele><time>2026-04-25T09:51:27Z</time></trkpt><trkpt lat="44.0251862359951" lon="7.911066296261094"><ele>403.0</ele><time>2026-04-25T09:51:29Z</time></trkpt><trkpt lat="44.02529806847502" lon="7.911056788438161"><ele>403.2</ele><time>2026-04-25T09:51:31Z</time></trkpt><trkpt lat="44.02537921284254" lon="7.911074923870835"><ele>403.4</ele><time>2026-04-25T09:51:33Z</time></trkpt><trkpt lat="44.02544142714391" lon="7.911171380172105"><ele>403.59999999999997</ele><time>2026-04-25T09:51:35Z</time></trkpt><trkpt lat="44.02547874041911" lon="7.911315983582193"><ele>403.79999999999995</ele><time>2026-04-25T09:51:37Z</time></trkpt><trkpt lat="44.025500910145446" lon="7.911444595998135"><ele>404.0</ele><time>2026-04-25T09:51:39Z</time></trkpt><trkpt lat="44.02550535287134" lon="7.9115740264503485"><ele>404.0</ele><time>2026-04-25T09:51:41Z</time></trkpt><trkpt lat="44.02545448669492" lon="7.911725465871891"><ele>404.0</ele><time>2026-04-25T09:51:43Z</time></trkpt><trkpt lat="44.025401624289366" lon="7.911809828652569"><ele>404.0</ele><time>2026-04-25T09:51:45Z</time></trkpt><trkpt lat="44.02545899097146" lon="7.911871452250241"><ele>404.0</ele><time>2026-04-25T09:51:47Z</time></trkpt><trkpt lat="44.02551450620601" lon="7.911789984937062"><ele>404.0</ele><time>2026-04-25T09:51:49Z</time></trkpt><trkpt lat="44.0255645430529" lon="7.911640920737799"><ele>404.0</ele><time>2026-04-25T09:51:51Z</time></trkpt><trkpt lat="44.02559446249" lon="7.911533345965745"><ele>404.0</ele><time>2026-04-25T09:51:53Z</time></trkpt><trkpt lat="44.0256201170735" lon="7.911415796355399"><ele>404.0</ele><time>2026-04-25T09:51:55Z</time></trkpt><trkpt lat="44.02564349253979" lon="7.9112607566360245"><ele>404.0</ele><time>2026-04-25T09:51:57Z</time></trkpt><trkpt lat="44.02564297358161" lon="7.911112528034544"><ele>404.0</ele><time>2026-04-25T09:51:59Z</time></trkpt><trkpt lat="44.025630409292745" lon="7.910968048508103"><ele>403.79999999999995</ele><time>2026-04-25T09:52:01Z</time></trkpt><trkpt lat="44.02558725807029" lon="7.910828965052321"><ele>403.59999999999997</ele><time>2026-04-25T09:52:03Z</time></trkpt><trkpt lat="44.02550925169037" lon="7.910745581887894"><ele>403.4</ele><time>2026-04-25T09:52:05Z</time></trkpt><trkpt lat="44.02547218675099" lon="7.910617184978878"><ele>403.2</ele><time>2026-04-25T09:52:07Z</time></trkpt><trkpt lat="44.02553244677625" lon="7.910463017774475"><ele>403.0</ele><time>2026-04-25T09:52:09Z</time></trkpt><trkpt lat="44.02562755417246" lon="7.910352743151693"><ele>403.0</ele><time>2026-04-25T09:52:11Z</time></trkpt><trkpt lat="44.02571043497325" lon="7.910237126170583"><ele>403.0</ele><time>2026-04-25T09:52:13Z</time></trkpt><trkpt lat="44.02574272198836" lon="7.910149256956914"><ele>403.0</ele><time>2026-04-25T09:52:14Z</time></trkpt><trkpt lat="44.02579710800947" lon="7.910016587078107"><ele>403.0</ele><time>2026-04-25T09:52:16Z</time></trkpt><trkpt lat="44.02583105980497" lon="7.909898490232674"><ele>403.0</ele><time>2026-04-25T09:52:18Z</time></trkpt><trkpt lat="44.025827022453484" lon="7.909735600623113"><ele>403.1666666666667</ele><time>2026-04-25T09:52:20Z</time></trkpt><trkpt lat="44.02580170934" lon="7.909615692929525"><ele>403.33333333333337</ele><time>2026-04-25T09:52:21Z</time></trkpt><trkpt lat="44.02579857354191" lon="7.909511817924186"><ele>403.5</ele><time>2026-04-25T09:52:22Z</time></trkpt><trkpt lat="44.02579725951205" lon="7.909421453695246"><ele>403.66666666666663</ele><time>2026-04-25T09:52:23Z</time></trkpt><trkpt lat="44.02579591331938" lon="7.909327727296108"><ele>403.8333333333333</ele><time>2026-04-25T09:52:24Z</time></trkpt><trkpt lat="44.02582035976226" lon="7.909216163878675"><ele>404.0</ele><time>2026-04-25T09:52:25Z</time></trkpt><trkpt lat="44.02584561470087" lon="7.909103851583908"><ele>397.66666666666663</ele><time>2026-04-25T09:52:26Z</time></trkpt><trkpt lat="44.02586585899953" lon="7.909017439968777"><ele>391.3333333333333</ele><time>2026-04-25T09:52:27Z</time></trkpt><trkpt lat="44.0258831069611" lon="7.908921055006405"><ele>385.0</ele><time>2026-04-25T09:52:28Z</time></trkpt><trkpt lat="44.02589638581787" lon="7.908809535811647"><ele>378.66666666666663</ele><time>2026-04-25T09:52:29Z</time></trkpt><trkpt lat="44.0258936743936" lon="7.908714327029745"><ele>372.3333333333333</ele><time>2026-04-25T09:52:30Z</time></trkpt><trkpt lat="44.02589334126762" lon="7.908541234349781"><ele>366.0</ele><time>2026-04-25T09:52:32Z</time></trkpt><trkpt lat="44.02590701340524" lon="7.9084408878825805"><ele>366.6</ele><time>2026-04-25T09:52:33Z</time></trkpt><trkpt lat="44.02593254499373" lon="7.908326386726683"><ele>367.20000000000005</ele><time>2026-04-25T09:52:34Z</time></trkpt><trkpt lat="44.02597599519533" lon="7.908213692355279"><ele>367.79999999999995</ele><time>2026-04-25T09:52:35Z</time></trkpt><trkpt lat="44.02600231823156" lon="7.908116492427775"><ele>368.4</ele><time>2026-04-25T09:52:36Z</time></trkpt><trkpt lat="44.02601632492747" lon="7.9079293597233145"><ele>369.0</ele><time>2026-04-25T09:52:38Z</time></trkpt><trkpt lat="44.0260074097041" lon="7.90780351605531"><ele>369.0</ele><time>2026-04-25T09:52:39Z</time></trkpt><trkpt lat="44.026020094268105" lon="7.907697358680721"><ele>369.0</ele><time>2026-04-25T09:52:40Z</time></trkpt><trkpt lat="44.02604752111519" lon="7.907615054003935"><ele>369.0</ele><time>2026-04-25T09:52:41Z</time></trkpt><trkpt lat="44.026110929315344" lon="7.907466380137264"><ele>369.0</ele><time>2026-04-25T09:52:43Z</time></trkpt><trkpt lat="44.02617763885869" lon="7.90734958719274"><ele>369.0</ele><time>2026-04-25T09:52:45Z</time></trkpt><trkpt lat="44.026231026249235" lon="7.907283375360074"><ele>369.0</ele><time>2026-04-25T09:52:47Z</time></trkpt><trkpt lat="44.02630094527189" lon="7.907259189794426"><ele>368.8333333333333</ele><time>2026-04-25T09:58:00Z</time></trkpt><trkpt lat="44.02636351819486" lon="7.90723231173664"><ele>368.6666666666667</ele><time>2026-04-25T09:58:03Z</time></trkpt><trkpt lat="44.026426834428364" lon="7.907181608922336"><ele>368.5</ele><time>2026-04-25T09:58:12Z</time></trkpt><trkpt lat="44.02651552611754" lon="7.907112457325907"><ele>368.33333333333337</ele><time>2026-04-25T09:58:15Z</time></trkpt><trkpt lat="44.02654344123461" lon="7.906973318174819"><ele>368.1666666666667</ele><time>2026-04-25T09:58:17Z</time></trkpt><trkpt lat="44.02652542200153" lon="7.906865590603962"><ele>368.0</ele><time>2026-04-25T09:58:18Z</time></trkpt><trkpt lat="44.02650397825654" lon="7.906771009284446"><ele>367.5</ele><time>2026-04-25T09:58:19Z</time></trkpt><trkpt lat="44.02648496247102" lon="7.906645379113362"><ele>367.0</ele><time>2026-04-25T09:58:20Z</time></trkpt><trkpt lat="44.026471772021765" lon="7.906506347901478"><ele>366.5</ele><time>2026-04-25T09:58:21Z</time></trkpt><trkpt lat="44.02643166711564" lon="7.906398148523744"><ele>366.0</ele><time>2026-04-25T09:58:22Z</time></trkpt><trkpt lat="44.02641105044303" lon="7.9062999364738085"><ele>365.5</ele><time>2026-04-25T09:58:23Z</time></trkpt><trkpt lat="44.02639171883127" lon="7.906204353866242"><ele>365.0</ele><time>2026-04-25T09:58:24Z</time></trkpt><trkpt lat="44.026390081373684" lon="7.906048926974436"><ele>365.0</ele><time>2026-04-25T09:58:26Z</time></trkpt><trkpt lat="44.02640207627748" lon="7.905928792068045"><ele>365.0</ele><time>2026-04-25T09:58:28Z</time></trkpt><trkpt lat="44.026467586913874" lon="7.905900522366625"><ele>365.0</ele><time>2026-04-25T09:58:29Z</time></trkpt><trkpt lat="44.026541624080906" lon="7.9060501388267355"><ele>365.0</ele><time>2026-04-25T09:58:30Z</time></trkpt><trkpt lat="44.026637031659654" lon="7.9060779564219095"><ele>365.0</ele><time>2026-04-25T09:58:31Z</time></trkpt><trkpt lat="44.02672557228526" lon="7.906064505909026"><ele>362.0</ele><time>2026-04-25T09:58:32Z</time></trkpt><trkpt lat="44.02682998108554" lon="7.906017445444257"><ele>359.0</ele><time>2026-04-25T09:58:33Z</time></trkpt><trkpt lat="44.026911247880015" lon="7.905982084643065"><ele>356.0</ele><time>2026-04-25T09:58:34Z</time></trkpt><trkpt lat="44.02699734534079" lon="7.905926904043895"><ele>353.0</ele><time>2026-04-25T09:58:35Z</time></trkpt><trkpt lat="44.02707890462663" lon="7.905815695556872"><ele>350.0</ele><time>2026-04-25T09:58:35.999Z</time></trkpt><trkpt lat="44.02714897102941" lon="7.9057040116308475"><ele>350.0</ele><time>2026-04-25T09:58:36.999Z</time></trkpt><trkpt lat="44.02721012363596" lon="7.90559574942068"><ele>350.0</ele><time>2026-04-25T09:58:37.999Z</time></trkpt><trkpt lat="44.027261044020136" lon="7.905498038449652"><ele>350.0</ele><time>2026-04-25T09:58:38.999Z</time></trkpt><trkpt lat="44.02729080920335" lon="7.90537021531876"><ele>350.0</ele><time>2026-04-25T09:58:39.999Z</time></trkpt><trkpt lat="44.02728558492376" lon="7.905249513724772"><ele>350.0</ele><time>2026-04-25T09:58:40.999Z</time></trkpt><trkpt lat="44.0272792171946" lon="7.905135908775867"><ele>352.8</ele><time>2026-04-25T09:58:41.999Z</time></trkpt><trkpt lat="44.02728173371781" lon="7.905014225746074"><ele>355.6</ele><time>2026-04-25T09:58:42.999Z</time></trkpt><trkpt lat="44.027290762591804" lon="7.904903936811506"><ele>358.4</ele><time>2026-04-25T09:58:43.999Z</time></trkpt><trkpt lat="44.027301130482115" lon="7.904812719228141"><ele>361.2</ele><time>2026-04-25T09:58:44.999Z</time></trkpt><trkpt lat="44.02731119988986" lon="7.904719316867858"><ele>364.0</ele><time>2026-04-25T09:58:45.999Z</time></trkpt><trkpt lat="44.027371615242025" lon="7.904470795741294"><ele>364.0</ele><time>2026-04-25T09:58:46.999Z</time></trkpt><trkpt lat="44.027334000086704" lon="7.904394085488081"><ele>364.0</ele><time>2026-04-25T09:58:47.999Z</time></trkpt><trkpt lat="44.02727689540231" lon="7.9042837972662605"><ele>364.0</ele><time>2026-04-25T09:58:49.999Z</time></trkpt><trkpt lat="44.02722637108219" lon="7.904166777263226"><ele>364.0</ele><time>2026-04-25T09:58:51.999Z</time></trkpt><trkpt lat="44.02722648199489" lon="7.90405726260748"><ele>364.0</ele><time>2026-04-25T09:58:52.999Z</time></trkpt><trkpt lat="44.02724244045701" lon="7.903939236036591"><ele>364.0</ele><time>2026-04-25T09:58:53.999Z</time></trkpt><trkpt lat="44.02724498137149" lon="7.9038247462670395"><ele>365.3333333333333</ele><time>2026-04-25T09:58:54.999Z</time></trkpt><trkpt lat="44.02722810287078" lon="7.903718830856429"><ele>366.66666666666663</ele><time>2026-04-25T09:58:55.999Z</time></trkpt><trkpt lat="44.027233389127595" lon="7.903621236452847"><ele>368.0</ele><time>2026-04-25T09:58:56.999Z</time></trkpt><trkpt lat="44.02725455855155" lon="7.90346820402478"><ele>369.3333333333333</ele><time>2026-04-25T09:58:58.999Z</time></trkpt><trkpt lat="44.02733682348044" lon="7.903455188561391"><ele>370.6666666666667</ele><time>2026-04-25T09:59:00.999Z</time></trkpt><trkpt lat="44.02735416897075" lon="7.903543920624827"><ele>372.0</ele><time>2026-04-25T09:59:01.999Z</time></trkpt><trkpt lat="44.027293951309105" lon="7.9036628323196645"><ele>372.0</ele><time>2026-04-25T09:59:02.999Z</time></trkpt><trkpt lat="44.02728051191226" lon="7.903800696946695"><ele>372.0</ele><time>2026-04-25T09:59:03.999Z</time></trkpt><trkpt lat="44.027274858562095" lon="7.903907422804009"><ele>372.0</ele><time>2026-04-25T09:59:04.999Z</time></trkpt><trkpt lat="44.027286798794144" lon="7.904015933216268"><ele>372.0</ele><time>2026-04-25T09:59:05.999Z</time></trkpt><trkpt lat="44.027300601454385" lon="7.904136081247259"><ele>372.0</ele><time>2026-04-25T09:59:06.999Z</time></trkpt><trkpt lat="44.02735597240318" lon="7.904258820137821"><ele>372.0</ele><time>2026-04-25T09:59:07.999Z</time></trkpt><trkpt lat="44.02741265476246" lon="7.90435427706275"><ele>370.6666666666667</ele><time>2026-04-25T09:59:08.999Z</time></trkpt><trkpt lat="44.02745313988012" lon="7.90444736314461"><ele>369.3333333333333</ele><time>2026-04-25T09:59:09.999Z</time></trkpt><trkpt lat="44.027502182164135" lon="7.904532815512619"><ele>368.0</ele><time>2026-04-25T09:59:10.999Z</time></trkpt><trkpt lat="44.0275621292004" lon="7.9046177888417075"><ele>366.66666666666663</ele><time>2026-04-25T09:59:11.999Z</time></trkpt><trkpt lat="44.027615593957535" lon="7.904699103788094"><ele>365.3333333333333</ele><time>2026-04-25T09:59:12.999Z</time></trkpt><trkpt lat="44.027692265875" lon="7.90473129771345"><ele>364.0</ele><time>2026-04-25T09:59:13.999Z</time></trkpt><trkpt lat="44.027799080713294" lon="7.9046890217953"><ele>358.79999999999995</ele><time>2026-04-25T09:59:14.999Z</time></trkpt><trkpt lat="44.0279270243362" lon="7.904669431451591"><ele>353.59999999999997</ele><time>2026-04-25T09:59:15.999Z</time></trkpt><trkpt lat="44.02803694651687" lon="7.904668377368043"><ele>348.4</ele><time>2026-04-25T09:59:16.999Z</time></trkpt><trkpt lat="44.02812792020635" lon="7.9046563731049915"><ele>343.2</ele><time>2026-04-25T09:59:17.999Z</time></trkpt><trkpt lat="44.02819907393874" lon="7.904660994613057"><ele>338.0</ele><time>2026-04-25T09:59:18.999Z</time></trkpt><trkpt lat="44.028258271372216" lon="7.904715939221494"><ele>338.0</ele><time>2026-04-25T09:59:19.999Z</time></trkpt><trkpt lat="44.02825233071188" lon="7.9048540237927725"><ele>338.0</ele><time>2026-04-25T09:59:20.999Z</time></trkpt><trkpt lat="44.028241768695764" lon="7.904999249847826"><ele>338.0</ele><time>2026-04-25T09:59:21.999Z</time></trkpt><trkpt lat="44.028208727649286" lon="7.905170977880559"><ele>338.0</ele><time>2026-04-25T09:59:22.999Z</time></trkpt><trkpt lat="44.028190569507366" lon="7.905367569162742"><ele>335.5</ele><time>2026-04-25T09:59:23.999Z</time></trkpt><trkpt lat="44.02812573293675" lon="7.9055104115100425"><ele>333.0</ele><time>2026-04-25T09:59:24.999Z</time></trkpt><trkpt lat="44.02809472229805" lon="7.905663581930549"><ele>330.5</ele><time>2026-04-25T09:59:25.999Z</time></trkpt><trkpt lat="44.02806423262651" lon="7.9058263689420825"><ele>328.0</ele><time>2026-04-25T09:59:26.999Z</time></trkpt><trkpt lat="44.02804062389463" lon="7.906035126713126"><ele>328.0</ele><time>2026-04-25T09:59:27.999Z</time></trkpt><trkpt lat="44.028015436241226" lon="7.906262564716255"><ele>328.0</ele><time>2026-04-25T09:59:28.999Z</time></trkpt><trkpt lat="44.02800661834822" lon="7.906453991503043"><ele>328.0</ele><time>2026-04-25T09:59:29.999Z</time></trkpt><trkpt lat="44.02798414106718" lon="7.906617072151078"><ele>328.0</ele><time>2026-04-25T09:59:31Z</time></trkpt><trkpt lat="44.02796310492865" lon="7.9067678874475575"><ele>328.0</ele><time>2026-04-25T09:59:32Z</time></trkpt><trkpt lat="44.02793582211566" lon="7.906896534680465"><ele>328.0</ele><time>2026-04-25T09:59:33Z</time></trkpt><trkpt lat="44.02788477231273" lon="7.906993059321361"><ele>328.0</ele><time>2026-04-25T09:59:34Z</time></trkpt><trkpt lat="44.02785074753005" lon="7.907125716493609"><ele>328.0</ele><time>2026-04-25T09:59:36Z</time></trkpt><trkpt lat="44.02783680820017" lon="7.907220737980379"><ele>328.0</ele><time>2026-04-25T09:59:38Z</time></trkpt><trkpt lat="44.027994937869224" lon="7.907099188001911"><ele>328.0</ele><time>2026-04-25T09:59:45Z</time></trkpt><trkpt lat="44.0280162647069" lon="7.906954255175953"><ele>328.0</ele><time>2026-04-25T09:59:46Z</time></trkpt><trkpt lat="44.02803786169461" lon="7.9067878376937335"><ele>328.0</ele><time>2026-04-25T09:59:47Z</time></trkpt><trkpt lat="44.02807738589327" lon="7.906602517411793"><ele>328.0</ele><time>2026-04-25T09:59:48Z</time></trkpt><trkpt lat="44.02811933947793" lon="7.906408905633367"><ele>328.0</ele><time>2026-04-25T09:59:49Z</time></trkpt><trkpt lat="44.02815819499899" lon="7.906197113377351"><ele>328.0</ele><time>2026-04-25T09:59:50Z</time></trkpt><trkpt lat="44.02818984111886" lon="7.905971086450795"><ele>328.0</ele><time>2026-04-25T09:59:51Z</time></trkpt><trkpt lat="44.02821861051704" lon="7.9057224406534425"><ele>328.0</ele><time>2026-04-25T09:59:52Z</time></trkpt><trkpt lat="44.028244862391126" lon="7.905463919915057"><ele>328.0</ele><time>2026-04-25T09:59:53Z</time></trkpt><trkpt lat="44.028304144613706" lon="7.905236134497716"><ele>328.0</ele><time>2026-04-25T09:59:54Z</time></trkpt><trkpt lat="44.02834192306908" lon="7.9050241148171265"><ele>330.5</ele><time>2026-04-25T09:59:55Z</time></trkpt><trkpt lat="44.028373090251065" lon="7.904839302111671"><ele>333.0</ele><time>2026-04-25T09:59:56Z</time></trkpt><trkpt lat="44.028356828291" lon="7.904647386642162"><ele>335.5</ele><time>2026-04-25T09:59:57Z</time></trkpt><trkpt lat="44.028311652113466" lon="7.904448523553389"><ele>338.0</ele><time>2026-04-25T09:59:58Z</time></trkpt><trkpt lat="44.02825645815419" lon="7.904275161813532"><ele>338.0</ele><time>2026-04-25T09:59:59Z</time></trkpt><trkpt lat="44.028210837359254" lon="7.904125285055892"><ele>338.0</ele><time>2026-04-25T10:00:00Z</time></trkpt><trkpt lat="44.02818503143482" lon="7.9039699384823106"><ele>338.0</ele><time>2026-04-25T10:00:01Z</time></trkpt><trkpt lat="44.028195193283885" lon="7.903788683011155"><ele>338.0</ele><time>2026-04-25T10:00:02Z</time></trkpt><trkpt lat="44.02823070977727" lon="7.903625814555683"><ele>338.0</ele><time>2026-04-25T10:00:03Z</time></trkpt><trkpt lat="44.02828887982823" lon="7.903492473784724"><ele>338.0</ele><time>2026-04-25T10:00:04Z</time></trkpt><trkpt lat="44.02838277208244" lon="7.903378982114014"><ele>338.0</ele><time>2026-04-25T10:00:05Z</time></trkpt><trkpt lat="44.02847107162918" lon="7.903251866049797"><ele>338.0</ele><time>2026-04-25T10:00:06Z</time></trkpt><trkpt lat="44.02855900542462" lon="7.903158121553465"><ele>339.75</ele><time>2026-04-25T10:00:07Z</time></trkpt><trkpt lat="44.02860342531517" lon="7.903033622835046"><ele>341.5</ele><time>2026-04-25T10:00:08Z</time></trkpt><trkpt lat="44.02860645236613" lon="7.902857700629497"><ele>343.25</ele><time>2026-04-25T10:00:09Z</time></trkpt><trkpt lat="44.02857845246423" lon="7.9026684583592575"><ele>345.0</ele><time>2026-04-25T10:00:10Z</time></trkpt><trkpt lat="44.02853442135216" lon="7.902483535530517"><ele>345.0</ele><time>2026-04-25T10:00:11Z</time></trkpt><trkpt lat="44.028517485396755" lon="7.9023027126189636"><ele>345.0</ele><time>2026-04-25T10:00:12Z</time></trkpt><trkpt lat="44.028539627016876" lon="7.902105075803309"><ele>345.0</ele><time>2026-04-25T10:00:13Z</time></trkpt><trkpt lat="44.028579665868726" lon="7.901921887019113"><ele>345.0</ele><time>2026-04-25T10:00:14Z</time></trkpt><trkpt lat="44.02859870792906" lon="7.901751119191775"><ele>349.3333333333333</ele><time>2026-04-25T10:00:14.999Z</time></trkpt><trkpt lat="44.02856645648487" lon="7.901558620487275"><ele>353.66666666666663</ele><time>2026-04-25T10:00:15.999Z</time></trkpt><trkpt lat="44.02850175496416" lon="7.901338974968794"><ele>358.0</ele><time>2026-04-25T10:00:16.999Z</time></trkpt><trkpt lat="44.02842834464621" lon="7.901099513017573"><ele>353.75</ele><time>2026-04-25T10:00:17.999Z</time></trkpt><trkpt lat="44.028376353977364" lon="7.900875122264192"><ele>349.5</ele><time>2026-04-25T10:00:18.999Z</time></trkpt><trkpt lat="44.028337018272374" lon="7.900686337579741"><ele>345.25</ele><time>2026-04-25T10:00:19.999Z</time></trkpt><trkpt lat="44.02829116166918" lon="7.900517865568004"><ele>341.0</ele><time>2026-04-25T10:00:20.999Z</time></trkpt><trkpt lat="44.0282159668858" lon="7.900347846196214"><ele>341.0</ele><time>2026-04-25T10:00:21.999Z</time></trkpt><trkpt lat="44.028100412987" lon="7.900177902814565"><ele>341.0</ele><time>2026-04-25T10:00:22.999Z</time></trkpt><trkpt lat="44.027972852413704" lon="7.900046309731286"><ele>341.0</ele><time>2026-04-25T10:00:23.999Z</time></trkpt><trkpt lat="44.02784224570549" lon="7.899959278732146"><ele>346.0</ele><time>2026-04-25T10:00:24.999Z</time></trkpt><trkpt lat="44.02773436029651" lon="7.899871748762202"><ele>351.0</ele><time>2026-04-25T10:00:25.999Z</time></trkpt><trkpt lat="44.02764998607186" lon="7.899767602044571"><ele>356.0</ele><time>2026-04-25T10:00:26.999Z</time></trkpt><trkpt lat="44.02758225226189" lon="7.899658330420532"><ele>361.0</ele><time>2026-04-25T10:00:27.999Z</time></trkpt><trkpt lat="44.027580809457355" lon="7.899498330694326"><ele>361.0</ele><time>2026-04-25T10:00:28.999Z</time></trkpt><trkpt lat="44.02755758794163" lon="7.899309861417187"><ele>361.0</ele><time>2026-04-25T10:00:29.999Z</time></trkpt><trkpt lat="44.02755324930887" lon="7.899125809921272"><ele>361.0</ele><time>2026-04-25T10:00:30.999Z</time></trkpt><trkpt lat="44.027555805828676" lon="7.898946450753555"><ele>361.0</ele><time>2026-04-25T10:00:31.999Z</time></trkpt><trkpt lat="44.027609208710395" lon="7.898776989822459"><ele>362.4</ele><time>2026-04-25T10:00:32.999Z</time></trkpt><trkpt lat="44.027650364022655" lon="7.898600003643841"><ele>363.8</ele><time>2026-04-25T10:00:33.999Z</time></trkpt><trkpt lat="44.0277022014739" lon="7.898449937799055"><ele>365.2</ele><time>2026-04-25T10:00:34.999Z</time></trkpt><trkpt lat="44.02775029402537" lon="7.898326713265649"><ele>366.59999999999997</ele><time>2026-04-25T10:00:35.999Z</time></trkpt><trkpt lat="44.027793480738104" lon="7.898216848642368"><ele>368.0</ele><time>2026-04-25T10:00:36.999Z</time></trkpt><trkpt lat="44.027825662200236" lon="7.898090453847585"><ele>368.0</ele><time>2026-04-25T10:00:37.999Z</time></trkpt><trkpt lat="44.02785457989088" lon="7.8979439568374366"><ele>368.0</ele><time>2026-04-25T10:00:38.999Z</time></trkpt><trkpt lat="44.027879846608634" lon="7.8977910003411536"><ele>368.0</ele><time>2026-04-25T10:00:39.999Z</time></trkpt><trkpt lat="44.02789417588495" lon="7.897644662320474"><ele>368.0</ele><time>2026-04-25T10:00:40.999Z</time></trkpt><trkpt lat="44.02789692646085" lon="7.897515677900878"><ele>368.0</ele><time>2026-04-25T10:00:41.999Z</time></trkpt><trkpt lat="44.02789989565566" lon="7.897409048153176"><ele>367.5</ele><time>2026-04-25T10:00:42.999Z</time></trkpt><trkpt lat="44.027904780316526" lon="7.8972997305027866"><ele>367.0</ele><time>2026-04-25T10:00:43.999Z</time></trkpt><trkpt lat="44.02789101839975" lon="7.89719575820821"><ele>366.5</ele><time>2026-04-25T10:00:44.999Z</time></trkpt><trkpt lat="44.02783253432664" lon="7.897097378716535"><ele>366.0</ele><time>2026-04-25T10:00:45.999Z</time></trkpt><trkpt lat="44.027772807938724" lon="7.897025673847117"><ele>365.5</ele><time>2026-04-25T10:00:46.999Z</time></trkpt><trkpt lat="44.02773930600174" lon="7.896926396002224"><ele>365.0</ele><time>2026-04-25T10:00:47.999Z</time></trkpt><trkpt lat="44.027745224467914" lon="7.896789745545917"><ele>369.8</ele><time>2026-04-25T10:00:48.999Z</time></trkpt><trkpt lat="44.02775650599825" lon="7.896677504920458"><ele>374.6</ele><time>2026-04-25T10:00:49.999Z</time></trkpt><trkpt lat="44.02774691598368" lon="7.896509815424459"><ele>379.4</ele><time>2026-04-25T10:00:51.999Z</time></trkpt><trkpt lat="44.027691452437686" lon="7.896438788664196"><ele>384.2</ele><time>2026-04-25T10:00:52.999Z</time></trkpt><trkpt lat="44.027605398938164" lon="7.896406656676252"><ele>389.0</ele><time>2026-04-25T10:00:53.999Z</time></trkpt><trkpt lat="44.02751603406778" lon="7.896412226704871"><ele>383.6</ele><time>2026-04-25T10:00:54.999Z</time></trkpt><trkpt lat="44.02743151216242" lon="7.896416482930174"><ele>378.2</ele><time>2026-04-25T10:00:55.999Z</time></trkpt><trkpt lat="44.02734993149945" lon="7.896376808148703"><ele>372.8</ele><time>2026-04-25T10:00:56.999Z</time></trkpt><trkpt lat="44.027289654404015" lon="7.896261185661967"><ele>367.40000000000003</ele><time>2026-04-25T10:00:57.999Z</time></trkpt><trkpt lat="44.02726239141672" lon="7.896113056582331"><ele>362.0</ele><time>2026-04-25T10:00:58.999Z</time></trkpt><trkpt lat="44.02725353029817" lon="7.8959851925373385"><ele>364.25</ele><time>2026-04-25T10:00:59.999Z</time></trkpt><trkpt lat="44.02725913835278" lon="7.895856810546972"><ele>366.5</ele><time>2026-04-25T10:01:00.999Z</time></trkpt><trkpt lat="44.027274151532" lon="7.895707959657114"><ele>368.75</ele><time>2026-04-25T10:01:01.999Z</time></trkpt><trkpt lat="44.02730089636549" lon="7.895535515938819"><ele>371.0</ele><time>2026-04-25T10:01:02.999Z</time></trkpt><trkpt lat="44.027307370807655" lon="7.895346242211688"><ele>371.0</ele><time>2026-04-25T10:01:03.999Z</time></trkpt><trkpt lat="44.02731173814139" lon="7.895195787912623"><ele>371.0</ele><time>2026-04-25T10:01:04.999Z</time></trkpt><trkpt lat="44.027337323838005" lon="7.895063593714042"><ele>371.0</ele><time>2026-04-25T10:01:05.999Z</time></trkpt><trkpt lat="44.027386240880595" lon="7.894901780884437"><ele>371.0</ele><time>2026-04-25T10:01:06.999Z</time></trkpt><trkpt lat="44.027441437507704" lon="7.894727915396405"><ele>384.33333333333337</ele><time>2026-04-25T10:01:07.999Z</time></trkpt><trkpt lat="44.027493149427706" lon="7.894551430857537"><ele>397.6666666666667</ele><time>2026-04-25T10:01:08.999Z</time></trkpt><trkpt lat="44.02751312256192" lon="7.894339299296916"><ele>411.0</ele><time>2026-04-25T10:01:09.999Z</time></trkpt><trkpt lat="44.02751533780036" lon="7.894103861867816"><ele>412.5</ele><time>2026-04-25T10:01:10.999Z</time></trkpt><trkpt lat="44.02750700783159" lon="7.893899781838019"><ele>414.0</ele><time>2026-04-25T10:01:11.999Z</time></trkpt><trkpt lat="44.02749006012668" lon="7.893716063685541"><ele>415.5</ele><time>2026-04-25T10:01:12.999Z</time></trkpt><trkpt lat="44.027466014641185" lon="7.893539458549454"><ele>417.0</ele><time>2026-04-25T10:01:13.999Z</time></trkpt><trkpt lat="44.027445878456355" lon="7.893376362795388"><ele>418.20000000000005</ele><time>2026-04-25T10:01:14.999Z</time></trkpt><trkpt lat="44.02744943679601" lon="7.893220103772725"><ele>419.4</ele><time>2026-04-25T10:01:15.999Z</time></trkpt><trkpt lat="44.02747564382101" lon="7.89306778758692"><ele>420.6</ele><time>2026-04-25T10:01:16.999Z</time></trkpt><trkpt lat="44.02748098626402" lon="7.89293089214741"><ele>421.79999999999995</ele><time>2026-04-25T10:01:17.999Z</time></trkpt><trkpt lat="44.02743351651651" lon="7.892770767376837"><ele>423.0</ele><time>2026-04-25T10:01:18.999Z</time></trkpt><trkpt lat="44.027357718833336" lon="7.892604327099097"><ele>415.0</ele><time>2026-04-25T10:01:19.999Z</time></trkpt><trkpt lat="44.027312259571744" lon="7.892461310813813"><ele>407.0</ele><time>2026-04-25T10:01:20.999Z</time></trkpt><trkpt lat="44.027257313135344" lon="7.892338883706504"><ele>399.0</ele><time>2026-04-25T10:01:21.999Z</time></trkpt><trkpt lat="44.02715550053487" lon="7.892245591513958"><ele>391.0</ele><time>2026-04-25T10:01:22.999Z</time></trkpt><trkpt lat="44.02702169196407" lon="7.89216061851252"><ele>391.0</ele><time>2026-04-25T10:01:23.999Z</time></trkpt><trkpt lat="44.02690026755173" lon="7.892070947772139"><ele>391.0</ele><time>2026-04-25T10:01:24.999Z</time></trkpt><trkpt lat="44.02680207250421" lon="7.891991444532831"><ele>391.0</ele><time>2026-04-25T10:01:25.999Z</time></trkpt><trkpt lat="44.02671379282513" lon="7.891918298375987"><ele>391.0</ele><time>2026-04-25T10:01:26.999Z</time></trkpt><trkpt lat="44.02663592824537" lon="7.891832177411264"><ele>388.5</ele><time>2026-04-25T10:01:27.999Z</time></trkpt><trkpt lat="44.02657204446276" lon="7.891708705216933"><ele>386.0</ele><time>2026-04-25T10:01:28.999Z</time></trkpt><trkpt lat="44.02656757915334" lon="7.891552005776104"><ele>383.5</ele><time>2026-04-25T10:01:29.999Z</time></trkpt><trkpt lat="44.02655582567512" lon="7.891378317889096"><ele>381.0</ele><time>2026-04-25T10:01:30.999Z</time></trkpt><trkpt lat="44.026560679870165" lon="7.89118519966224"><ele>381.0</ele><time>2026-04-25T10:01:31.999Z</time></trkpt><trkpt lat="44.0265508949396" lon="7.890981943185287"><ele>381.0</ele><time>2026-04-25T10:01:32.999Z</time></trkpt><trkpt lat="44.02652194099232" lon="7.890786512790249"><ele>381.0</ele><time>2026-04-25T10:01:33.999Z</time></trkpt><trkpt lat="44.02647431270796" lon="7.890611631732106"><ele>381.0</ele><time>2026-04-25T10:01:34.999Z</time></trkpt><trkpt lat="44.02642904260437" lon="7.890457528782967"><ele>382.25</ele><time>2026-04-25T10:01:35.999Z</time></trkpt><trkpt lat="44.02639143642906" lon="7.890293523752189"><ele>383.5</ele><time>2026-04-25T10:01:37Z</time></trkpt><trkpt lat="44.026370432299245" lon="7.890101972681653"><ele>384.75</ele><time>2026-04-25T10:01:38Z</time></trkpt><trkpt lat="44.02636924571095" lon="7.8898881804885805"><ele>386.0</ele><time>2026-04-25T10:01:39Z</time></trkpt><trkpt lat="44.02636615968117" lon="7.889669872633123"><ele>389.5</ele><time>2026-04-25T10:01:40Z</time></trkpt><trkpt lat="44.02635871225758" lon="7.889481389579362"><ele>393.0</ele><time>2026-04-25T10:01:41Z</time></trkpt><trkpt lat="44.02634000944453" lon="7.889315227256346"><ele>396.5</ele><time>2026-04-25T10:01:42Z</time></trkpt><trkpt lat="44.026293080921285" lon="7.889149874456922"><ele>400.0</ele><time>2026-04-25T10:01:43Z</time></trkpt><trkpt lat="44.0262107505812" lon="7.888996639685051"><ele>402.5</ele><time>2026-04-25T10:01:44Z</time></trkpt><trkpt lat="44.02612362512241" lon="7.888883368054587"><ele>405.0</ele><time>2026-04-25T10:01:45Z</time></trkpt><trkpt lat="44.026059309597855" lon="7.888761990210448"><ele>407.5</ele><time>2026-04-25T10:01:46Z</time></trkpt><trkpt lat="44.0260332920184" lon="7.888592298614584"><ele>410.0</ele><time>2026-04-25T10:01:47Z</time></trkpt><trkpt lat="44.02598690377974" lon="7.888405060372614"><ele>413.25</ele><time>2026-04-25T10:01:48Z</time></trkpt><trkpt lat="44.02596156029973" lon="7.888204123280418"><ele>416.5</ele><time>2026-04-25T10:01:49Z</time></trkpt><trkpt lat="44.02594943323733" lon="7.8880184602191115"><ele>419.75</ele><time>2026-04-25T10:01:50Z</time></trkpt><trkpt lat="44.02595440934407" lon="7.887843385499871"><ele>423.0</ele><time>2026-04-25T10:01:51Z</time></trkpt><trkpt lat="44.02596430555772" lon="7.887664783233804"><ele>428.33333333333337</ele><time>2026-04-25T10:01:52Z</time></trkpt><trkpt lat="44.025957735014494" lon="7.887473763467158"><ele>433.6666666666667</ele><time>2026-04-25T10:01:53Z</time></trkpt><trkpt lat="44.02591731141219" lon="7.887251873177335"><ele>439.0</ele><time>2026-04-25T10:01:54Z</time></trkpt><trkpt lat="44.02587008886238" lon="7.887041308036619"><ele>439.0</ele><time>2026-04-25T10:01:54.999Z</time></trkpt><trkpt lat="44.02582727066613" lon="7.886866695478214"><ele>439.0</ele><time>2026-04-25T10:01:55.999Z</time></trkpt><trkpt lat="44.02578534087069" lon="7.886697733463286"><ele>439.0</ele><time>2026-04-25T10:01:56.999Z</time></trkpt><trkpt lat="44.02574948860145" lon="7.886523287996175"><ele>439.0</ele><time>2026-04-25T10:01:57.999Z</time></trkpt><trkpt lat="44.0257227241219" lon="7.886362008795284"><ele>440.25</ele><time>2026-04-25T10:01:58.999Z</time></trkpt><trkpt lat="44.025711422506504" lon="7.886211918313588"><ele>441.5</ele><time>2026-04-25T10:01:59.999Z</time></trkpt><trkpt lat="44.025746060607126" lon="7.886047942682321"><ele>442.75</ele><time>2026-04-25T10:02:00.999Z</time></trkpt><trkpt lat="44.02584210589355" lon="7.885911573350774"><ele>444.0</ele><time>2026-04-25T10:02:01.999Z</time></trkpt><trkpt lat="44.02592653874364" lon="7.88577922106554"><ele>444.0</ele><time>2026-04-25T10:02:02.999Z</time></trkpt><trkpt lat="44.02600135601982" lon="7.885672462679829"><ele>444.0</ele><time>2026-04-25T10:02:03.999Z</time></trkpt><trkpt lat="44.02608164017532" lon="7.8856051723741585"><ele>444.0</ele><time>2026-04-25T10:02:04.999Z</time></trkpt><trkpt lat="44.02613691660175" lon="7.885532574273014"><ele>444.0</ele><time>2026-04-25T10:02:05.999Z</time></trkpt><trkpt lat="44.02615694935226" lon="7.88544064953474"><ele>444.0</ele><time>2026-04-25T10:02:06.999Z</time></trkpt><trkpt lat="44.02614230737577" lon="7.885332106955404"><ele>444.0</ele><time>2026-04-25T10:02:07.999Z</time></trkpt><trkpt lat="44.0260779799697" lon="7.885226376902246"><ele>444.0</ele><time>2026-04-25T10:02:08.999Z</time></trkpt><trkpt lat="44.02601338623216" lon="7.885120932533676"><ele>444.0</ele><time>2026-04-25T10:02:09.999Z</time></trkpt><trkpt lat="44.025934890882105" lon="7.885057422183987"><ele>444.0</ele><time>2026-04-25T10:02:10.999Z</time></trkpt><trkpt lat="44.02588532661858" lon="7.884979946206942"><ele>444.0</ele><time>2026-04-25T10:02:11.999Z</time></trkpt><trkpt lat="44.02586401421337" lon="7.884843705796066"><ele>444.0</ele><time>2026-04-25T10:02:12.999Z</time></trkpt><trkpt lat="44.02591629175459" lon="7.884711405866011"><ele>443.0</ele><time>2026-04-25T10:02:13.999Z</time></trkpt><trkpt lat="44.02596830617915" lon="7.884600938959877"><ele>442.0</ele><time>2026-04-25T10:02:14.999Z</time></trkpt><trkpt lat="44.02601323409284" lon="7.884503935264203"><ele>441.0</ele><time>2026-04-25T10:02:15.999Z</time></trkpt><trkpt lat="44.02605500380557" lon="7.884388351127175"><ele>440.0</ele><time>2026-04-25T10:02:16.999Z</time></trkpt><trkpt lat="44.026086545774916" lon="7.884250902658199"><ele>439.0</ele><time>2026-04-25T10:02:17.999Z</time></trkpt><trkpt lat="44.026117880961735" lon="7.884118253318961"><ele>438.5</ele><time>2026-04-25T10:02:18.999Z</time></trkpt><trkpt lat="44.026139778773874" lon="7.883983187636192"><ele>438.0</ele><time>2026-04-25T10:02:19.999Z</time></trkpt><trkpt lat="44.02616154709051" lon="7.883843557442144"><ele>437.5</ele><time>2026-04-25T10:02:20.999Z</time></trkpt><trkpt lat="44.026171544258396" lon="7.8836769643198075"><ele>437.0</ele><time>2026-04-25T10:02:21.999Z</time></trkpt><trkpt lat="44.02616789282652" lon="7.883471246596752"><ele>439.3333333333333</ele><time>2026-04-25T10:02:22.999Z</time></trkpt><trkpt lat="44.026178284885006" lon="7.883250753288523"><ele>441.66666666666663</ele><time>2026-04-25T10:02:23.999Z</time></trkpt><trkpt lat="44.02615306620371" lon="7.883000314723351"><ele>444.0</ele><time>2026-04-25T10:02:24.999Z</time></trkpt><trkpt lat="44.02612903459196" lon="7.8827568712697245"><ele>448.0</ele><time>2026-04-25T10:02:25.999Z</time></trkpt><trkpt lat="44.026108461980144" lon="7.882518899350118"><ele>452.0</ele><time>2026-04-25T10:02:26.999Z</time></trkpt><trkpt lat="44.02607706780892" lon="7.882318879582658"><ele>456.0</ele><time>2026-04-25T10:02:27.999Z</time></trkpt><trkpt lat="44.02607417372915" lon="7.882128301948417"><ele>456.0</ele><time>2026-04-25T10:02:28.999Z</time></trkpt><trkpt lat="44.02606597715725" lon="7.881943900586001"><ele>456.0</ele><time>2026-04-25T10:02:29.999Z</time></trkpt><trkpt lat="44.026057156995385" lon="7.881752581187192"><ele>456.0</ele><time>2026-04-25T10:02:30.999Z</time></trkpt><trkpt lat="44.02604388521109" lon="7.881567997343043"><ele>456.0</ele><time>2026-04-25T10:02:31.999Z</time></trkpt><trkpt lat="44.02603495123373" lon="7.881392516463221"><ele>459.5</ele><time>2026-04-25T10:02:32.999Z</time></trkpt><trkpt lat="44.02602017516022" lon="7.881219782298247"><ele>463.0</ele><time>2026-04-25T10:02:33.999Z</time></trkpt><trkpt lat="44.02598338152746" lon="7.881058565058983"><ele>466.5</ele><time>2026-04-25T10:02:34.999Z</time></trkpt><trkpt lat="44.02590901534985" lon="7.880917683022997"><ele>470.0</ele><time>2026-04-25T10:02:35.999Z</time></trkpt><trkpt lat="44.025797008306974" lon="7.880806546216542"><ele>471.75</ele><time>2026-04-25T10:02:36.999Z</time></trkpt><trkpt lat="44.02567770388033" lon="7.8807457042621545"><ele>473.5</ele><time>2026-04-25T10:02:37.999Z</time></trkpt><trkpt lat="44.02553483902619" lon="7.880727505768444"><ele>475.25</ele><time>2026-04-25T10:02:38.999Z</time></trkpt><trkpt lat="44.02537698747443" lon="7.880749746865231"><ele>477.0</ele><time>2026-04-25T10:02:39.999Z</time></trkpt><trkpt lat="44.02522809633521" lon="7.880747044403729"><ele>477.0</ele><time>2026-04-25T10:02:40.999Z</time></trkpt><trkpt lat="44.02508468639709" lon="7.880707596749263"><ele>477.0</ele><time>2026-04-25T10:02:41.999Z</time></trkpt><trkpt lat="44.024952766373616" lon="7.880655438333265"><ele>477.0</ele><time>2026-04-25T10:02:42.999Z</time></trkpt><trkpt lat="44.02482605251255" lon="7.880625471073932"><ele>477.0</ele><time>2026-04-25T10:02:43.999Z</time></trkpt><trkpt lat="44.02470840589156" lon="7.880614155100448"><ele>469.0</ele><time>2026-04-25T10:02:44.999Z</time></trkpt><trkpt lat="44.02459243240848" lon="7.880577922896281"><ele>461.0</ele><time>2026-04-25T10:02:45.999Z</time></trkpt><trkpt lat="44.02448458317347" lon="7.880487973457512"><ele>453.0</ele><time>2026-04-25T10:02:46.999Z</time></trkpt><trkpt lat="44.02440702533517" lon="7.880328830809996"><ele>445.0</ele><time>2026-04-25T10:02:47.999Z</time></trkpt><trkpt lat="44.02432778368168" lon="7.880166989632945"><ele>440.25</ele><time>2026-04-25T10:02:48.999Z</time></trkpt><trkpt lat="44.024244519243986" lon="7.880002136016909"><ele>435.5</ele><time>2026-04-25T10:02:49.999Z</time></trkpt><trkpt lat="44.02416942904812" lon="7.879822075099718"><ele>430.75</ele><time>2026-04-25T10:02:50.999Z</time></trkpt><trkpt lat="44.02409397584444" lon="7.87964438050997"><ele>426.0</ele><time>2026-04-25T10:02:51.999Z</time></trkpt><trkpt lat="44.02403733935019" lon="7.87948405268623"><ele>426.0</ele><time>2026-04-25T10:02:52.999Z</time></trkpt><trkpt lat="44.02400210410849" lon="7.879332520023308"><ele>426.0</ele><time>2026-04-25T10:02:53.999Z</time></trkpt><trkpt lat="44.02399370601423" lon="7.8791760580153705"><ele>426.0</ele><time>2026-04-25T10:02:54.999Z</time></trkpt><trkpt lat="44.02404257977621" lon="7.878995933466919"><ele>426.0</ele><time>2026-04-25T10:02:55.999Z</time></trkpt><trkpt lat="44.02406002132847" lon="7.878788728325517"><ele>429.25</ele><time>2026-04-25T10:02:56.999Z</time></trkpt><trkpt lat="44.024098136115946" lon="7.878583039276202"><ele>432.5</ele><time>2026-04-25T10:02:57.999Z</time></trkpt><trkpt lat="44.02414840514801" lon="7.878405539665652"><ele>435.75</ele><time>2026-04-25T10:02:58.999Z</time></trkpt><trkpt lat="44.02418908315069" lon="7.878252786421007"><ele>439.0</ele><time>2026-04-25T10:02:59.999Z</time></trkpt><trkpt lat="44.02425188272091" lon="7.87809756132193"><ele>450.0</ele><time>2026-04-25T10:03:00.999Z</time></trkpt><trkpt lat="44.02432577693547" lon="7.877929138314211"><ele>461.0</ele><time>2026-04-25T10:03:01.999Z</time></trkpt><trkpt lat="44.024400664673166" lon="7.877741864650397"><ele>472.0</ele><time>2026-04-25T10:03:02.999Z</time></trkpt><trkpt lat="44.02445053030443" lon="7.87752206265261"><ele>472.0</ele><time>2026-04-25T10:03:03.999Z</time></trkpt><trkpt lat="44.024506554586125" lon="7.877307441431503"><ele>472.0</ele><time>2026-04-25T10:03:04.999Z</time></trkpt><trkpt lat="44.024577986181775" lon="7.877132642315368"><ele>472.0</ele><time>2026-04-25T10:03:05.999Z</time></trkpt><trkpt lat="44.024611003879066" lon="7.8769405926371645"><ele>471.75</ele><time>2026-04-25T10:03:06.999Z</time></trkpt><trkpt lat="44.02463955591866" lon="7.876741237398244"><ele>471.5</ele><time>2026-04-25T10:03:07.999Z</time></trkpt><trkpt lat="44.0246486581416" lon="7.876529739072838"><ele>471.25</ele><time>2026-04-25T10:03:08.999Z</time></trkpt><trkpt lat="44.02468210462375" lon="7.876355390350084"><ele>471.0</ele><time>2026-04-25T10:03:09.999Z</time></trkpt><trkpt lat="44.024716687003654" lon="7.87620917521627"><ele>471.0</ele><time>2026-04-25T10:03:10.999Z</time></trkpt><trkpt lat="44.024775442562465" lon="7.876092011419364"><ele>471.0</ele><time>2026-04-25T10:03:11.999Z</time></trkpt><trkpt lat="44.02487116180649" lon="7.876003885901168"><ele>471.0</ele><time>2026-04-25T10:03:12.999Z</time></trkpt><trkpt lat="44.024980309551246" lon="7.875896342202165"><ele>471.0</ele><time>2026-04-25T10:03:13.999Z</time></trkpt><trkpt lat="44.025100022366985" lon="7.875779930651607"><ele>477.75</ele><time>2026-04-25T10:03:14.999Z</time></trkpt><trkpt lat="44.02521002381933" lon="7.875654459081953"><ele>484.5</ele><time>2026-04-25T10:03:15.999Z</time></trkpt><trkpt lat="44.025288118153576" lon="7.875501477941159"><ele>491.25</ele><time>2026-04-25T10:03:16.999Z</time></trkpt><trkpt lat="44.02534714554203" lon="7.875347960215043"><ele>498.0</ele><time>2026-04-25T10:03:17.999Z</time></trkpt><trkpt lat="44.025405877608435" lon="7.875185981439608"><ele>498.75</ele><time>2026-04-25T10:03:18.999Z</time></trkpt><trkpt lat="44.02549937673524" lon="7.87502493183481"><ele>499.5</ele><time>2026-04-25T10:03:19.999Z</time></trkpt><trkpt lat="44.02558932337823" lon="7.874868586777087"><ele>500.25</ele><time>2026-04-25T10:03:20.999Z</time></trkpt><trkpt lat="44.02566577036752" lon="7.874705017645427"><ele>501.0</ele><time>2026-04-25T10:03:21.999Z</time></trkpt><trkpt lat="44.02572810180023" lon="7.874528121507356"><ele>501.0</ele><time>2026-04-25T10:03:22.999Z</time></trkpt><trkpt lat="44.025768348713946" lon="7.874352324986056"><ele>501.0</ele><time>2026-04-25T10:03:23.999Z</time></trkpt><trkpt lat="44.02580071564145" lon="7.87420171038807"><ele>501.0</ele><time>2026-04-25T10:03:24.999Z</time></trkpt><trkpt lat="44.02582957977651" lon="7.874069808017525"><ele>501.0</ele><time>2026-04-25T10:03:25.999Z</time></trkpt><trkpt lat="44.025840802684826" lon="7.873953148444255"><ele>501.0</ele><time>2026-04-25T10:03:26.999Z</time></trkpt><trkpt lat="44.02582261820981" lon="7.873843433511397"><ele>507.20000000000005</ele><time>2026-04-25T10:03:28Z</time></trkpt><trkpt lat="44.02575445587882" lon="7.8737438269310225"><ele>513.4000000000001</ele><time>2026-04-25T10:03:29Z</time></trkpt><trkpt lat="44.02565421968217" lon="7.873698942544439"><ele>519.6</ele><time>2026-04-25T10:03:30Z</time></trkpt><trkpt lat="44.02554686736705" lon="7.873725708586649"><ele>525.8000000000001</ele><time>2026-04-25T10:03:31Z</time></trkpt><trkpt lat="44.02545548355221" lon="7.873815911705463"><ele>532.0</ele><time>2026-04-25T10:03:32Z</time></trkpt><trkpt lat="44.02539172110158" lon="7.873970219133841"><ele>532.0</ele><time>2026-04-25T10:03:33Z</time></trkpt><trkpt lat="44.025331747290814" lon="7.874146244924997"><ele>532.0</ele><time>2026-04-25T10:03:34Z</time></trkpt><trkpt lat="44.02524477117459" lon="7.874310890197863"><ele>532.0</ele><time>2026-04-25T10:03:35Z</time></trkpt><trkpt lat="44.02514720549535" lon="7.874429946727322"><ele>532.0</ele><time>2026-04-25T10:03:36Z</time></trkpt><trkpt lat="44.02504691569489" lon="7.874494425246868"><ele>525.0</ele><time>2026-04-25T10:03:37Z</time></trkpt><trkpt lat="44.02496335167926" lon="7.874581472581865"><ele>518.0</ele><time>2026-04-25T10:03:38Z</time></trkpt><trkpt lat="44.0248526524839" lon="7.87463153253757"><ele>511.0</ele><time>2026-04-25T10:03:39Z</time></trkpt><trkpt lat="44.02472777444189" lon="7.874601416612899"><ele>504.0</ele><time>2026-04-25T10:03:40Z</time></trkpt><trkpt lat="44.02460683171714" lon="7.874612658975906"><ele>504.0</ele><time>2026-04-25T10:03:41Z</time></trkpt><trkpt lat="44.02449527379105" lon="7.87459140360258"><ele>504.0</ele><time>2026-04-25T10:03:42Z</time></trkpt><trkpt lat="44.02438581335132" lon="7.874527700640901"><ele>504.0</ele><time>2026-04-25T10:03:43Z</time></trkpt><trkpt lat="44.02425585233904" lon="7.874483187555057"><ele>504.0</ele><time>2026-04-25T10:03:44Z</time></trkpt><trkpt lat="44.02411585457231" lon="7.874416665117703"><ele>505.0</ele><time>2026-04-25T10:03:45Z</time></trkpt><trkpt lat="44.02397948430239" lon="7.8743576541390885"><ele>506.0</ele><time>2026-04-25T10:03:46Z</time></trkpt><trkpt lat="44.023840554104545" lon="7.874297064267474"><ele>507.0</ele><time>2026-04-25T10:03:47Z</time></trkpt><trkpt lat="44.02372143114809" lon="7.874243761086631"><ele>508.0</ele><time>2026-04-25T10:03:48Z</time></trkpt><trkpt lat="44.02361296665417" lon="7.87420687677539"><ele>508.00000000000006</ele><time>2026-04-25T10:03:49Z</time></trkpt><trkpt lat="44.02351446238059" lon="7.874204292814215"><ele>508.0</ele><time>2026-04-25T10:03:50Z</time></trkpt><trkpt lat="44.023429207229924" lon="7.87425178686862"><ele>508.0</ele><time>2026-04-25T10:03:51Z</time></trkpt><trkpt lat="44.023361080830234" lon="7.874299339081793"><ele>508.0</ele><time>2026-04-25T10:03:52Z</time></trkpt><trkpt lat="44.02329803829803" lon="7.874342704463914"><ele>508.00000000000006</ele><time>2026-04-25T10:03:53Z</time></trkpt><trkpt lat="44.02322661908804" lon="7.874381606935377"><ele>508.0</ele><time>2026-04-25T10:03:54Z</time></trkpt><trkpt lat="44.02313899406834" lon="7.87439543437024"><ele>513.75</ele><time>2026-04-25T10:03:55Z</time></trkpt><trkpt lat="44.02304836913375" lon="7.874433702521659"><ele>519.5</ele><time>2026-04-25T10:03:56Z</time></trkpt><trkpt lat="44.02286710379213" lon="7.874523320824675"><ele>525.25</ele><time>2026-04-25T10:03:58Z</time></trkpt><trkpt lat="44.02279214367212" lon="7.874689588714727"><ele>531.0</ele><time>2026-04-25T10:03:59Z</time></trkpt><trkpt lat="44.022691233509484" lon="7.874773404617993"><ele>531.0</ele><time>2026-04-25T10:04:00Z</time></trkpt><trkpt lat="44.02260334280468" lon="7.874857675698682"><ele>531.0</ele><time>2026-04-25T10:04:01Z</time></trkpt><trkpt lat="44.022517239253084" lon="7.874959013974764"><ele>531.0</ele><time>2026-04-25T10:04:02Z</time></trkpt><trkpt lat="44.02244915376805" lon="7.875083745824476"><ele>531.0</ele><time>2026-04-25T10:04:03Z</time></trkpt><trkpt lat="44.022400400740246" lon="7.87520777336739"><ele>531.0</ele><time>2026-04-25T10:04:04Z</time></trkpt><trkpt lat="44.022353647607694" lon="7.8753042396789485"><ele>528.8</ele><time>2026-04-25T10:04:05Z</time></trkpt><trkpt lat="44.02230549645898" lon="7.875373505641114"><ele>526.6</ele><time>2026-04-25T10:04:06Z</time></trkpt><trkpt lat="44.02225427696753" lon="7.875434800939237"><ele>524.4</ele><time>2026-04-25T10:04:07Z</time></trkpt><trkpt lat="44.02216071974927" lon="7.875543492464429"><ele>522.2</ele><time>2026-04-25T10:04:09Z</time></trkpt><trkpt lat="44.02215594193388" lon="7.875644275025643"><ele>520.0</ele><time>2026-04-25T10:04:10Z</time></trkpt><trkpt lat="44.02209715929637" lon="7.87580824098903"><ele>520.0</ele><time>2026-04-25T10:04:12Z</time></trkpt><trkpt lat="44.02205903903913" lon="7.875900697446215"><ele>520.0</ele><time>2026-04-25T10:04:13Z</time></trkpt><trkpt lat="44.02202277309108" lon="7.875996285394551"><ele>520.0</ele><time>2026-04-25T10:04:14Z</time></trkpt><trkpt lat="44.021993076373825" lon="7.876100458889469"><ele>520.0</ele><time>2026-04-25T10:04:15Z</time></trkpt><trkpt lat="44.02197009566545" lon="7.876205683221831"><ele>520.0</ele><time>2026-04-25T10:04:16Z</time></trkpt><trkpt lat="44.02192099560736" lon="7.876346429150911"><ele>520.0</ele><time>2026-04-25T10:04:18Z</time></trkpt><trkpt lat="44.021840279907515" lon="7.876411088550212"><ele>515.0</ele><time>2026-04-25T10:04:20Z</time></trkpt><trkpt lat="44.021785840117744" lon="7.8764719056363806"><ele>510.0</ele><time>2026-04-25T10:04:22Z</time></trkpt><trkpt lat="44.02187507001142" lon="7.876520875222239"><ele>505.0</ele><time>2026-04-25T10:04:24Z</time></trkpt><trkpt lat="44.02193492586006" lon="7.8764714883712745"><ele>500.0</ele><time>2026-04-25T10:04:25Z</time></trkpt><trkpt lat="44.022025200618" lon="7.876351037217012"><ele>495.00000000000006</ele><time>2026-04-25T10:04:27Z</time></trkpt><trkpt lat="44.02208537224301" lon="7.876285603937431"><ele>490.0</ele><time>2026-04-25T10:04:28Z</time></trkpt><trkpt lat="44.022144895991666" lon="7.876221015881252"><ele>490.00000000000006</ele><time>2026-04-25T10:04:29Z</time></trkpt><trkpt lat="44.02221066215984" lon="7.876163474568936"><ele>490.0</ele><time>2026-04-25T10:04:30Z</time></trkpt><trkpt lat="44.0222857069236" lon="7.876099960176421"><ele>490.0</ele><time>2026-04-25T10:04:31Z</time></trkpt><trkpt lat="44.022350378353686" lon="7.87602730767719"><ele>490.0</ele><time>2026-04-25T10:04:32Z</time></trkpt><trkpt lat="44.0224083867432" lon="7.875959457889521"><ele>490.00000000000006</ele><time>2026-04-25T10:04:33Z</time></trkpt><trkpt lat="44.022458319659194" lon="7.875903703787717"><ele>490.0</ele><time>2026-04-25T10:04:34Z</time></trkpt><trkpt lat="44.022504174857964" lon="7.8758319057428094"><ele>490.0</ele><time>2026-04-25T10:04:35Z</time></trkpt><trkpt lat="44.02256285580312" lon="7.87572323769045"><ele>490.0</ele><time>2026-04-25T10:04:37Z</time></trkpt><trkpt lat="44.02262761078904" lon="7.875787025739047"><ele>490.0</ele><time>2026-04-25T10:04:40Z</time></trkpt><trkpt lat="44.02256620142197" lon="7.875907226127955"><ele>490.0</ele><time>2026-04-25T10:04:42Z</time></trkpt><trkpt lat="44.022514854058755" lon="7.875967562452281"><ele>490.0</ele><time>2026-04-25T10:04:43Z</time></trkpt><trkpt lat="44.022474556508904" lon="7.8761000380729955"><ele>490.00000000000006</ele><time>2026-04-25T10:04:45Z</time></trkpt><trkpt lat="44.022464443306106" lon="7.876238450762983"><ele>490.0</ele><time>2026-04-25T10:04:47Z</time></trkpt><trkpt lat="44.02240780187322" lon="7.876333453427247"><ele>490.0</ele><time>2026-04-25T10:04:49Z</time></trkpt><trkpt lat="44.02240033769562" lon="7.876430099663472"><ele>490.0</ele><time>2026-04-25T10:04:52Z</time></trkpt><trkpt lat="44.02247797674913" lon="7.876391570049861"><ele>490.00000000000006</ele><time>2026-04-25T10:04:54Z</time></trkpt><trkpt lat="44.02253539675725" lon="7.876308063787592"><ele>490.0</ele><time>2026-04-25T10:04:55Z</time></trkpt><trkpt lat="44.022617387921294" lon="7.876192660010934"><ele>489.1666666666667</ele><time>2026-04-25T10:04:57Z</time></trkpt><trkpt lat="44.02268125981125" lon="7.876158511551697"><ele>488.33333333333337</ele><time>2026-04-25T10:04:58Z</time></trkpt><trkpt lat="44.022753385113425" lon="7.876135272089257"><ele>487.5</ele><time>2026-04-25T10:04:59Z</time></trkpt><trkpt lat="44.022837584243725" lon="7.876120147995383"><ele>486.66666666666663</ele><time>2026-04-25T10:05:00Z</time></trkpt><trkpt lat="44.02293116509462" lon="7.876098883300968"><ele>485.8333333333333</ele><time>2026-04-25T10:05:01Z</time></trkpt><trkpt lat="44.023021437359596" lon="7.87604247695753"><ele>485.0</ele><time>2026-04-25T10:05:02Z</time></trkpt><trkpt lat="44.023105156225604" lon="7.875996232112863"><ele>484.99999999999994</ele><time>2026-04-25T10:05:03Z</time></trkpt><trkpt lat="44.02319089577032" lon="7.875968182817076"><ele>485.0</ele><time>2026-04-25T10:05:04Z</time></trkpt><trkpt lat="44.02327791292317" lon="7.875945719820733"><ele>485.0</ele><time>2026-04-25T10:05:05Z</time></trkpt><trkpt lat="44.02335555731094" lon="7.875915927984487"><ele>485.0</ele><time>2026-04-25T10:05:06Z</time></trkpt><trkpt lat="44.02343619218483" lon="7.875880334112451"><ele>484.99999999999994</ele><time>2026-04-25T10:05:07Z</time></trkpt><trkpt lat="44.02350454581526" lon="7.875815265065402"><ele>485.0</ele><time>2026-04-25T10:05:08Z</time></trkpt><trkpt lat="44.023582656760844" lon="7.875758729296379"><ele>485.4</ele><time>2026-04-25T10:05:09Z</time></trkpt><trkpt lat="44.023672499103654" lon="7.875731848514799"><ele>485.8</ele><time>2026-04-25T10:05:10Z</time></trkpt><trkpt lat="44.02376773310081" lon="7.875736359976707"><ele>486.20000000000005</ele><time>2026-04-25T10:05:11Z</time></trkpt><trkpt lat="44.02383432890992" lon="7.87574838876895"><ele>486.6</ele><time>2026-04-25T10:05:12Z</time></trkpt><trkpt lat="44.023922239159894" lon="7.875835892300669"><ele>487.0</ele><time>2026-04-25T10:05:14Z</time></trkpt><trkpt lat="44.02395903054318" lon="7.875999675989206"><ele>484.0</ele><time>2026-04-25T10:05:16Z</time></trkpt><trkpt lat="44.02395775571067" lon="7.8760993699324455"><ele>481.00000000000006</ele><time>2026-04-25T10:05:17Z</time></trkpt><trkpt lat="44.02395199535225" lon="7.8762602042208885"><ele>478.00000000000006</ele><time>2026-04-25T10:05:19Z</time></trkpt><trkpt lat="44.023926615540084" lon="7.8764131564020685"><ele>475.0</ele><time>2026-04-25T10:05:21Z</time></trkpt><trkpt lat="44.02387822990943" lon="7.876562062125652"><ele>472.0</ele><time>2026-04-25T10:05:23Z</time></trkpt><trkpt lat="44.02382942174684" lon="7.876698275578433"><ele>468.0</ele><time>2026-04-25T10:05:25Z</time></trkpt><trkpt lat="44.0237435673289" lon="7.8768396710421005"><ele>464.0</ele><time>2026-04-25T10:05:27Z</time></trkpt><trkpt lat="44.02369601096771" lon="7.87698375500694"><ele>460.0</ele><time>2026-04-25T10:05:29Z</time></trkpt><trkpt lat="44.02359218884686" lon="7.877052930902034"><ele>456.0</ele><time>2026-04-25T10:05:31Z</time></trkpt><trkpt lat="44.02350191247585" lon="7.87707199830702"><ele>456.0</ele><time>2026-04-25T10:05:32Z</time></trkpt><trkpt lat="44.02343348056381" lon="7.877121513179751"><ele>456.0</ele><time>2026-04-25T10:05:33Z</time></trkpt><trkpt lat="44.023378630324856" lon="7.877188584024657"><ele>456.0</ele><time>2026-04-25T10:05:34Z</time></trkpt><trkpt lat="44.02331777513617" lon="7.877251501690635"><ele>456.0</ele><time>2026-04-25T10:05:35Z</time></trkpt><trkpt lat="44.02326740750946" lon="7.877311952715858"><ele>456.0</ele><time>2026-04-25T10:05:36Z</time></trkpt><trkpt lat="44.02322324779837" lon="7.877475955845418"><ele>456.0</ele><time>2026-04-25T10:05:38Z</time></trkpt><trkpt lat="44.02311747861276" lon="7.877552074739095"><ele>456.1666666666667</ele><time>2026-04-25T10:05:40Z</time></trkpt><trkpt lat="44.02305326169425" lon="7.877544640094408"><ele>456.33333333333337</ele><time>2026-04-25T10:05:41Z</time></trkpt><trkpt lat="44.02298976347037" lon="7.877545375081773"><ele>456.5</ele><time>2026-04-25T10:05:42Z</time></trkpt><trkpt lat="44.022941680645964" lon="7.877633585400662"><ele>456.6666666666667</ele><time>2026-04-25T10:05:44Z</time></trkpt><trkpt lat="44.022931251117306" lon="7.877770658820868"><ele>456.83333333333337</ele><time>2026-04-25T10:05:46Z</time></trkpt><trkpt lat="44.02286462330821" lon="7.877898416286297"><ele>457.0</ele><time>2026-04-25T10:05:48Z</time></trkpt><trkpt lat="44.022806729652935" lon="7.877978660565208"><ele>457.0</ele><time>2026-04-25T10:05:50Z</time></trkpt><trkpt lat="44.022751710864554" lon="7.878060424394516"><ele>457.00000000000006</ele><time>2026-04-25T10:05:52Z</time></trkpt><trkpt lat="44.022782330777346" lon="7.878199533084564"><ele>457.00000000000006</ele><time>2026-04-25T10:05:54Z</time></trkpt><trkpt lat="44.0228044234866" lon="7.878361342966957"><ele>457.0</ele><time>2026-04-25T10:05:56Z</time></trkpt><trkpt lat="44.02273941080663" lon="7.878511896842595"><ele>457.0</ele><time>2026-04-25T10:05:58Z</time></trkpt><trkpt lat="44.022684303247274" lon="7.878640006805657"><ele>452.83333333333337</ele><time>2026-04-25T10:06:00Z</time></trkpt><trkpt lat="44.022647587421616" lon="7.878802488332957"><ele>448.6666666666667</ele><time>2026-04-25T10:06:02Z</time></trkpt><trkpt lat="44.02260846428856" lon="7.8788770414503695"><ele>444.5</ele><time>2026-04-25T10:06:03Z</time></trkpt><trkpt lat="44.02256504247853" lon="7.878956026447147"><ele>440.33333333333337</ele><time>2026-04-25T10:06:04Z</time></trkpt><trkpt lat="44.02251534260039" lon="7.879009792942158"><ele>436.1666666666667</ele><time>2026-04-25T10:06:05Z</time></trkpt><trkpt lat="44.02241188242795" lon="7.879098657353298"><ele>432.0</ele><time>2026-04-25T10:06:07Z</time></trkpt><trkpt lat="44.02229773293766" lon="7.87914107817111"><ele>431.0</ele><time>2026-04-25T10:06:09Z</time></trkpt><trkpt lat="44.022229440085866" lon="7.879144338772238"><ele>430.00000000000006</ele><time>2026-04-25T10:06:10Z</time></trkpt><trkpt lat="44.022109166611195" lon="7.879166862416508"><ele>429.00000000000006</ele><time>2026-04-25T10:06:12Z</time></trkpt><trkpt lat="44.0220024311654" lon="7.879209575073236"><ele>428.0</ele><time>2026-04-25T10:06:14Z</time></trkpt><trkpt lat="44.021874088195446" lon="7.879167104952446"><ele>427.0</ele><time>2026-04-25T10:06:16Z</time></trkpt><trkpt lat="44.021805402421016" lon="7.879159649343365"><ele>427.0</ele><time>2026-04-25T10:06:17Z</time></trkpt><trkpt lat="44.02169695557206" lon="7.879132165981794"><ele>427.00000000000006</ele><time>2026-04-25T10:06:19Z</time></trkpt><trkpt lat="44.02158814822083" lon="7.879125145146262"><ele>427.00000000000006</ele><time>2026-04-25T10:06:21Z</time></trkpt><trkpt lat="44.02151703360222" lon="7.879150208447861"><ele>427.0</ele><time>2026-04-25T10:06:46Z</time></trkpt><trkpt lat="44.02143939220153" lon="7.879208582598393"><ele>427.0</ele><time>2026-04-25T10:06:48Z</time></trkpt><trkpt lat="44.0213619575961" lon="7.87922716611584"><ele>431.40000000000003</ele><time>2026-04-25T10:06:50Z</time></trkpt><trkpt lat="44.0212869316103" lon="7.879229206277068"><ele>435.80000000000007</ele><time>2026-04-25T10:06:52Z</time></trkpt><trkpt lat="44.02121511429469" lon="7.879260951922948"><ele>440.2</ele><time>2026-04-25T10:06:54Z</time></trkpt><trkpt lat="44.021211141502135" lon="7.87942754057621"><ele>444.6</ele><time>2026-04-25T10:06:57Z</time></trkpt><trkpt lat="44.02125400114454" lon="7.879575211384476"><ele>449.0</ele><time>2026-04-25T10:06:59Z</time></trkpt><trkpt lat="44.02129816554237" lon="7.879694356200333"><ele>453.6</ele><time>2026-04-25T10:07:02Z</time></trkpt><trkpt lat="44.02121725281305" lon="7.879734280253864"><ele>458.2</ele><time>2026-04-25T10:07:05Z</time></trkpt><trkpt lat="44.02117029394639" lon="7.87959905555915"><ele>462.80000000000007</ele><time>2026-04-25T10:07:07Z</time></trkpt><trkpt lat="44.02114162629643" lon="7.8795059434081764"><ele>467.40000000000003</ele><time>2026-04-25T10:07:08Z</time></trkpt><trkpt lat="44.02109411526433" lon="7.879438444989018"><ele>472.0</ele><time>2026-04-25T10:07:09Z</time></trkpt><trkpt lat="44.021059498596856" lon="7.879278587713365"><ele>468.1666666666667</ele><time>2026-04-25T10:07:11Z</time></trkpt><trkpt lat="44.02109636196312" lon="7.8790936659011495"><ele>464.33333333333337</ele><time>2026-04-25T10:07:13Z</time></trkpt><trkpt lat="44.021111841590375" lon="7.879004461203487"><ele>460.5</ele><time>2026-04-25T10:07:14Z</time></trkpt><trkpt lat="44.02111900265601" lon="7.878909586580248"><ele>456.66666666666663</ele><time>2026-04-25T10:07:15Z</time></trkpt><trkpt lat="44.02111471744491" lon="7.878820216763559"><ele>452.8333333333333</ele><time>2026-04-25T10:07:16Z</time></trkpt><trkpt lat="44.021100676519424" lon="7.878719105537157"><ele>449.0</ele><time>2026-04-25T10:07:17Z</time></trkpt><trkpt lat="44.02109225931373" lon="7.87861496098703"><ele>449.0</ele><time>2026-04-25T10:07:18Z</time></trkpt><trkpt lat="44.02108954191766" lon="7.878511989474729"><ele>449.0</ele><time>2026-04-25T10:07:19Z</time></trkpt><trkpt lat="44.021084447900996" lon="7.878416079841325"><ele>449.0</ele><time>2026-04-25T10:07:20Z</time></trkpt><trkpt lat="44.02105905042909" lon="7.8782729692426985"><ele>449.0</ele><time>2026-04-25T10:07:22Z</time></trkpt><trkpt lat="44.021004200579156" lon="7.878149316633853"><ele>449.0</ele><time>2026-04-25T10:07:24Z</time></trkpt><trkpt lat="44.020900809964395" lon="7.878060833482725"><ele>449.66666666666663</ele><time>2026-04-25T10:07:26Z</time></trkpt><trkpt lat="44.02082809424398" lon="7.878045774193846"><ele>450.3333333333333</ele><time>2026-04-25T10:07:27Z</time></trkpt><trkpt lat="44.020737770500084" lon="7.878042153706352"><ele>451.0</ele><time>2026-04-25T10:07:28Z</time></trkpt><trkpt lat="44.02064739062324" lon="7.878039066868915"><ele>451.66666666666663</ele><time>2026-04-25T10:07:29Z</time></trkpt><trkpt lat="44.020565817802" lon="7.8780317945590355"><ele>452.3333333333333</ele><time>2026-04-25T10:07:30Z</time></trkpt><trkpt lat="44.020495563885405" lon="7.878023121845876"><ele>453.0</ele><time>2026-04-25T10:07:31Z</time></trkpt><trkpt lat="44.02041238858417" lon="7.878029016711741"><ele>453.0</ele><time>2026-04-25T10:07:32Z</time></trkpt><trkpt lat="44.02031645785383" lon="7.878015148088168"><ele>452.99999999999994</ele><time>2026-04-25T10:07:33Z</time></trkpt><trkpt lat="44.02020891946583" lon="7.878009083967681"><ele>452.99999999999994</ele><time>2026-04-25T10:07:34Z</time></trkpt><trkpt lat="44.020099261715814" lon="7.877992687063164"><ele>453.0</ele><time>2026-04-25T10:07:35Z</time></trkpt><trkpt lat="44.02000159416076" lon="7.8779669281842635"><ele>453.0</ele><time>2026-04-25T10:07:36Z</time></trkpt><trkpt lat="44.01990028978825" lon="7.87795535078522"><ele>456.0</ele><time>2026-04-25T10:07:37Z</time></trkpt><trkpt lat="44.01980506830618" lon="7.87794306780227"><ele>459.0</ele><time>2026-04-25T10:07:38Z</time></trkpt><trkpt lat="44.01972022014797" lon="7.877925873486634"><ele>462.0</ele><time>2026-04-25T10:07:39Z</time></trkpt><trkpt lat="44.01963920442065" lon="7.877924149175364"><ele>465.0</ele><time>2026-04-25T10:07:40Z</time></trkpt><trkpt lat="44.01956433000378" lon="7.877905767712933"><ele>468.0</ele><time>2026-04-25T10:07:41Z</time></trkpt><trkpt lat="44.01949132890408" lon="7.877866976197026"><ele>471.0</ele><time>2026-04-25T10:07:42Z</time></trkpt><trkpt lat="44.019414100580065" lon="7.877828950647765"><ele>471.0</ele><time>2026-04-25T10:07:43Z</time></trkpt><trkpt lat="44.0193440214147" lon="7.877786530601346"><ele>471.0</ele><time>2026-04-25T10:07:44Z</time></trkpt><trkpt lat="44.01927835622057" lon="7.877724789951513"><ele>471.0</ele><time>2026-04-25T10:07:45Z</time></trkpt><trkpt lat="44.01919685281441" lon="7.877640374842539"><ele>471.0</ele><time>2026-04-25T10:07:46Z</time></trkpt><trkpt lat="44.01911491020945" lon="7.87756259073066"><ele>471.0</ele><time>2026-04-25T10:07:47Z</time></trkpt><trkpt lat="44.0190539902117" lon="7.877509588176112"><ele>471.0</ele><time>2026-04-25T10:07:48Z</time></trkpt><trkpt lat="44.01899831495842" lon="7.877452125188042"><ele>472.4</ele><time>2026-04-25T10:07:49Z</time></trkpt><trkpt lat="44.018889695066164" lon="7.877349168531347"><ele>473.8</ele><time>2026-04-25T10:07:51Z</time></trkpt><trkpt lat="44.01882216126845" lon="7.877282225166021"><ele>475.19999999999993</ele><time>2026-04-25T10:07:52Z</time></trkpt><trkpt lat="44.0187574426309" lon="7.877195308836455"><ele>476.59999999999997</ele><time>2026-04-25T10:07:53Z</time></trkpt><trkpt lat="44.018701478866554" lon="7.877087590849759"><ele>478.0</ele><time>2026-04-25T10:07:54Z</time></trkpt><trkpt lat="44.01865113195295" lon="7.876953543741964"><ele>478.00000000000006</ele><time>2026-04-25T10:07:55Z</time></trkpt><trkpt lat="44.01860742862538" lon="7.8768559154101006"><ele>478.0</ele><time>2026-04-25T10:07:56Z</time></trkpt><trkpt lat="44.01857272684203" lon="7.876759002164748"><ele>478.0</ele><time>2026-04-25T10:07:57Z</time></trkpt><trkpt lat="44.018539104248184" lon="7.876664646936781"><ele>478.0</ele><time>2026-04-25T10:07:58Z</time></trkpt><trkpt lat="44.0185087598482" lon="7.8765711745673075"><ele>478.00000000000006</ele><time>2026-04-25T10:07:59Z</time></trkpt><trkpt lat="44.01850516845316" lon="7.876463301637207"><ele>478.0</ele><time>2026-04-25T10:08:00Z</time></trkpt><trkpt lat="44.018523693847676" lon="7.87633531681985"><ele>475.33333333333337</ele><time>2026-04-25T10:08:01Z</time></trkpt><trkpt lat="44.01853979474838" lon="7.876210916291894"><ele>472.6666666666667</ele><time>2026-04-25T10:08:02Z</time></trkpt><trkpt lat="44.018528226066266" lon="7.876104602011955"><ele>470.0</ele><time>2026-04-25T10:08:03Z</time></trkpt><trkpt lat="44.01853479713731" lon="7.875996794486932"><ele>467.33333333333337</ele><time>2026-04-25T10:08:04Z</time></trkpt><trkpt lat="44.01853514588076" lon="7.875898146696485"><ele>464.6666666666667</ele><time>2026-04-25T10:08:05Z</time></trkpt><trkpt lat="44.01853059455289" lon="7.875801725462904"><ele>462.0</ele><time>2026-04-25T10:08:07Z</time></trkpt><trkpt lat="44.01848053485522" lon="7.875737337445151"><ele>460.8333333333333</ele><time>2026-04-25T10:08:09Z</time></trkpt><trkpt lat="44.01841369244969" lon="7.875734286111064"><ele>459.66666666666663</ele><time>2026-04-25T10:08:11Z</time></trkpt><trkpt lat="44.01831330773023" lon="7.875707587157336"><ele>458.5</ele><time>2026-04-25T10:08:13Z</time></trkpt><trkpt lat="44.018252214705676" lon="7.875620058259225"><ele>457.3333333333333</ele><time>2026-04-25T10:08:15Z</time></trkpt><trkpt lat="44.01819283232862" lon="7.875527731161917"><ele>456.16666666666663</ele><time>2026-04-25T10:08:17Z</time></trkpt><trkpt lat="44.01812244360712" lon="7.875602571252649"><ele>455.0</ele><time>2026-04-25T10:08:19Z</time></trkpt><trkpt lat="44.018156669897145" lon="7.875756491965035"><ele>463.2</ele><time>2026-04-25T10:08:21Z</time></trkpt><trkpt lat="44.01819301720169" lon="7.8758319753885955"><ele>471.4</ele><time>2026-04-25T10:08:22Z</time></trkpt><trkpt lat="44.01819631691494" lon="7.8759740009918096"><ele>479.6</ele><time>2026-04-25T10:08:24Z</time></trkpt><trkpt lat="44.01811245640203" lon="7.876014450962903"><ele>487.8</ele><time>2026-04-25T10:08:27Z</time></trkpt><trkpt lat="44.01809237579357" lon="7.87589515448695"><ele>496.0</ele><time>2026-04-25T10:08:29Z</time></trkpt><trkpt lat="44.01802720392351" lon="7.875715274094381"><ele>496.0</ele><time>2026-04-25T10:08:31Z</time></trkpt><trkpt lat="44.01800472874174" lon="7.875623297377726"><ele>496.0</ele><time>2026-04-25T10:08:32Z</time></trkpt><trkpt lat="44.017979674525" lon="7.8755175510481354"><ele>496.0</ele><time>2026-04-25T10:08:33Z</time></trkpt><trkpt lat="44.017938259652304" lon="7.875325778997777"><ele>496.0</ele><time>2026-04-25T10:08:35Z</time></trkpt><trkpt lat="44.01793533257515" lon="7.875209936799896"><ele>496.0</ele><time>2026-04-25T10:08:36Z</time></trkpt><trkpt lat="44.0179578737014" lon="7.875100007037649"><ele>490.20000000000005</ele><time>2026-04-25T10:08:37Z</time></trkpt><trkpt lat="44.01798975884537" lon="7.874996891717492"><ele>484.40000000000003</ele><time>2026-04-25T10:08:38Z</time></trkpt><trkpt lat="44.01800175976" lon="7.874905726499132"><ele>478.6</ele><time>2026-04-25T10:08:39Z</time></trkpt><trkpt lat="44.017980589400494" lon="7.874814467076232"><ele>472.8</ele><time>2026-04-25T10:08:40Z</time></trkpt><trkpt lat="44.01790142351785" lon="7.874727672948779"><ele>467.0</ele><time>2026-04-25T10:08:42Z</time></trkpt><trkpt lat="44.0177626007339" lon="7.874766528403913"><ele>467.0</ele><time>2026-04-25T10:08:44Z</time></trkpt><trkpt lat="44.01765920198993" lon="7.874814485381017"><ele>467.00000000000006</ele><time>2026-04-25T10:08:45Z</time></trkpt><trkpt lat="44.017561336393285" lon="7.874845455985536"><ele>467.00000000000006</ele><time>2026-04-25T10:08:46Z</time></trkpt><trkpt lat="44.01745741720982" lon="7.874837470441181"><ele>467.0</ele><time>2026-04-25T10:08:47Z</time></trkpt><trkpt lat="44.017372731355856" lon="7.874828772182246"><ele>467.0</ele><time>2026-04-25T10:08:48Z</time></trkpt><trkpt lat="44.01730050897976" lon="7.874827492536791"><ele>469.20000000000005</ele><time>2026-04-25T10:08:49Z</time></trkpt><trkpt lat="44.017218616254176" lon="7.874814564138087"><ele>471.40000000000003</ele><time>2026-04-25T10:08:50Z</time></trkpt><trkpt lat="44.01713284339371" lon="7.874780572590979"><ele>473.59999999999997</ele><time>2026-04-25T10:08:51Z</time></trkpt><trkpt lat="44.01704674141671" lon="7.874716442188418"><ele>475.79999999999995</ele><time>2026-04-25T10:08:52Z</time></trkpt><trkpt lat="44.01695885198721" lon="7.874645363545342"><ele>478.0</ele><time>2026-04-25T10:08:53Z</time></trkpt><trkpt lat="44.016885964281585" lon="7.874580474089374"><ele>478.0</ele><time>2026-04-25T10:08:54Z</time></trkpt><trkpt lat="44.016825730235055" lon="7.874531135589428"><ele>477.99999999999994</ele><time>2026-04-25T10:08:55Z</time></trkpt><trkpt lat="44.01675500630726" lon="7.874482007860221"><ele>477.99999999999994</ele><time>2026-04-25T10:08:56Z</time></trkpt><trkpt lat="44.01665395386875" lon="7.874432355261623"><ele>478.0</ele><time>2026-04-25T10:08:57Z</time></trkpt><trkpt lat="44.01653539100642" lon="7.874395535944732"><ele>478.0</ele><time>2026-04-25T10:08:58Z</time></trkpt><trkpt lat="44.01641337527563" lon="7.874337827324543"><ele>476.79999999999995</ele><time>2026-04-25T10:08:59Z</time></trkpt><trkpt lat="44.01630605307316" lon="7.8742779749931335"><ele>475.59999999999997</ele><time>2026-04-25T10:09:00Z</time></trkpt><trkpt lat="44.01621940262252" lon="7.874209332973278"><ele>474.40000000000003</ele><time>2026-04-25T10:09:01Z</time></trkpt><trkpt lat="44.016121486663764" lon="7.874163410302399"><ele>473.20000000000005</ele><time>2026-04-25T10:09:02Z</time></trkpt><trkpt lat="44.01604929856109" lon="7.874105736902982"><ele>472.0</ele><time>2026-04-25T10:09:03Z</time></trkpt><trkpt lat="44.01597728572533" lon="7.874069214497112"><ele>472.0</ele><time>2026-04-25T10:09:04Z</time></trkpt><trkpt lat="44.01588119251959" lon="7.873978837188471"><ele>472.0</ele><time>2026-04-25T10:09:06Z</time></trkpt><trkpt lat="44.01576345124257" lon="7.87392663490201"><ele>472.0</ele><time>2026-04-25T10:09:08Z</time></trkpt><trkpt lat="44.01563085643254" lon="7.873942849121654"><ele>472.0</ele><time>2026-04-25T10:09:10Z</time></trkpt><trkpt lat="44.01554788691971" lon="7.873928932029023"><ele>477.20000000000005</ele><time>2026-04-25T10:09:11Z</time></trkpt><trkpt lat="44.01547290999618" lon="7.873920805686008"><ele>482.40000000000003</ele><time>2026-04-25T10:09:12Z</time></trkpt><trkpt lat="44.0153571695997" lon="7.873826082442881"><ele>487.59999999999997</ele><time>2026-04-25T10:09:14Z</time></trkpt><trkpt lat="44.01529895057112" lon="7.873749911849801"><ele>492.79999999999995</ele><time>2026-04-25T10:09:15Z</time></trkpt><trkpt lat="44.01523517733103" lon="7.873711189583132"><ele>498.0</ele><time>2026-04-25T10:09:16Z</time></trkpt><trkpt lat="44.01514493891621" lon="7.873633273005884"><ele>498.0</ele><time>2026-04-25T10:09:18Z</time></trkpt><trkpt lat="44.0150490235331" lon="7.873475035786118"><ele>497.99999999999994</ele><time>2026-04-25T10:09:20Z</time></trkpt><trkpt lat="44.01498080718115" lon="7.873405243826141"><ele>497.99999999999994</ele><time>2026-04-25T10:09:21Z</time></trkpt><trkpt lat="44.01492308372002" lon="7.873325645767913"><ele>498.0</ele><time>2026-04-25T10:09:22Z</time></trkpt><trkpt lat="44.01488193284479" lon="7.873238634848844"><ele>498.0</ele><time>2026-04-25T10:09:23Z</time></trkpt><trkpt lat="44.01483422872171" lon="7.873157218553557"><ele>499.5</ele><time>2026-04-25T10:09:24Z</time></trkpt><trkpt lat="44.01477939338344" lon="7.87307319114802"><ele>501.0</ele><time>2026-04-25T10:09:25Z</time></trkpt><trkpt lat="44.01469577951966" lon="7.873021943871886"><ele>502.5</ele><time>2026-04-25T10:09:26Z</time></trkpt><trkpt lat="44.014624288702954" lon="7.872960459696504"><ele>504.0</ele><time>2026-04-25T10:09:27Z</time></trkpt><trkpt lat="44.01456522588288" lon="7.872878376093332"><ele>505.5</ele><time>2026-04-25T10:09:28Z</time></trkpt><trkpt lat="44.01449687034853" lon="7.872804845645699"><ele>507.0</ele><time>2026-04-25T10:09:29Z</time></trkpt><trkpt lat="44.0144392986501" lon="7.872716767731619"><ele>507.0</ele><time>2026-04-25T10:09:30Z</time></trkpt><trkpt lat="44.0143825375869" lon="7.872636114890498"><ele>507.0</ele><time>2026-04-25T10:09:31Z</time></trkpt><trkpt lat="44.014335807655264" lon="7.872555197103016"><ele>507.0</ele><time>2026-04-25T10:09:32Z</time></trkpt><trkpt lat="44.01428289457947" lon="7.872447413540782"><ele>507.0</ele><time>2026-04-25T10:09:33Z</time></trkpt><trkpt lat="44.014233019983244" lon="7.8723526458226445"><ele>507.0</ele><time>2026-04-25T10:09:34Z</time></trkpt><trkpt lat="44.01418084582957" lon="7.872242660111565"><ele>507.0</ele><time>2026-04-25T10:09:35Z</time></trkpt><trkpt lat="44.01414641572713" lon="7.872142887027055"><ele>506.6666666666667</ele><time>2026-04-25T10:09:36Z</time></trkpt><trkpt lat="44.01411893180281" lon="7.872050218752157"><ele>506.33333333333337</ele><time>2026-04-25T10:09:37Z</time></trkpt><trkpt lat="44.01408042981331" lon="7.871967656342756"><ele>506.0</ele><time>2026-04-25T10:09:38Z</time></trkpt><trkpt lat="44.01398922504697" lon="7.871920608517713"><ele>505.6666666666667</ele><time>2026-04-25T10:09:40Z</time></trkpt><trkpt lat="44.013916433379116" lon="7.871859981182631"><ele>505.33333333333337</ele><time>2026-04-25T10:09:42Z</time></trkpt><trkpt lat="44.013893810714606" lon="7.871708466549957"><ele>505.0</ele><time>2026-04-25T10:09:44Z</time></trkpt><trkpt lat="44.01386801291603" lon="7.871618479897087"><ele>505.0</ele><time>2026-04-25T10:09:46Z</time></trkpt><trkpt lat="44.01380454495029" lon="7.871417584001817"><ele>505.0</ele><time>2026-04-25T10:09:48Z</time></trkpt><trkpt lat="44.0137828887056" lon="7.8712976389284135"><ele>505.0</ele><time>2026-04-25T10:09:49Z</time></trkpt><trkpt lat="44.01376413813905" lon="7.87120398353166"><ele>505.0</ele><time>2026-04-25T10:09:50Z</time></trkpt><trkpt lat="44.01371313863425" lon="7.871101336038114"><ele>505.0</ele><time>2026-04-25T10:09:51Z</time></trkpt><trkpt lat="44.013678084291335" lon="7.870984994391696"><ele>503.6</ele><time>2026-04-25T10:09:52Z</time></trkpt><trkpt lat="44.01363879195334" lon="7.870866536939162"><ele>502.2</ele><time>2026-04-25T10:09:53Z</time></trkpt><trkpt lat="44.013609545545684" lon="7.870748609813167"><ele>500.79999999999995</ele><time>2026-04-25T10:09:54Z</time></trkpt><trkpt lat="44.013565571188686" lon="7.870645957755193"><ele>499.4</ele><time>2026-04-25T10:09:55Z</time></trkpt><trkpt lat="44.01352075544929" lon="7.870548569360872"><ele>498.0</ele><time>2026-04-25T10:09:56Z</time></trkpt><trkpt lat="44.01349044907725" lon="7.870411237526163"><ele>498.0</ele><time>2026-04-25T10:09:57Z</time></trkpt><trkpt lat="44.013449617627" lon="7.870280225666544"><ele>497.99999999999994</ele><time>2026-04-25T10:09:58Z</time></trkpt><trkpt lat="44.01339309282321" lon="7.870171443842507"><ele>497.99999999999994</ele><time>2026-04-25T10:09:59Z</time></trkpt><trkpt lat="44.01333282193552" lon="7.870065640596456"><ele>498.0</ele><time>2026-04-25T10:10:00Z</time></trkpt><trkpt lat="44.01328063526769" lon="7.869977505152943"><ele>498.0</ele><time>2026-04-25T10:10:01Z</time></trkpt><trkpt lat="44.01322091585781" lon="7.869891964032197"><ele>502.3333333333333</ele><time>2026-04-25T10:10:02Z</time></trkpt><trkpt lat="44.01314047132199" lon="7.8697835690099405"><ele>506.66666666666663</ele><time>2026-04-25T10:10:04Z</time></trkpt><trkpt lat="44.013086180328166" lon="7.869735836634339"><ele>511.0</ele><time>2026-04-25T10:10:05Z</time></trkpt><trkpt lat="44.013045991710996" lon="7.869663402323109"><ele>515.3333333333333</ele><time>2026-04-25T10:10:06Z</time></trkpt><trkpt lat="44.013018997645204" lon="7.869578200744414"><ele>519.6666666666666</ele><time>2026-04-25T10:10:07Z</time></trkpt><trkpt lat="44.01298340248556" lon="7.86949002948914"><ele>524.0</ele><time>2026-04-25T10:10:08Z</time></trkpt><trkpt lat="44.012930119734094" lon="7.869417189946437"><ele>524.0</ele><time>2026-04-25T10:10:09Z</time></trkpt><trkpt lat="44.012859675799284" lon="7.869323642978306"><ele>524.0</ele><time>2026-04-25T10:10:11Z</time></trkpt><trkpt lat="44.01282193813231" lon="7.869213004829792"><ele>524.0</ele><time>2026-04-25T10:10:13Z</time></trkpt><trkpt lat="44.012782298077155" lon="7.869109389983563"><ele>524.0</ele><time>2026-04-25T10:10:15Z</time></trkpt><trkpt lat="44.01274081439269" lon="7.86893473173186"><ele>524.0</ele><time>2026-04-25T10:10:17Z</time></trkpt><trkpt lat="44.01269106680941" lon="7.868851270626452"><ele>527.2857142857143</ele><time>2026-04-25T10:10:18Z</time></trkpt><trkpt lat="44.01263974901428" lon="7.868775740310172"><ele>530.5714285714287</ele><time>2026-04-25T10:10:19Z</time></trkpt><trkpt lat="44.012590177299664" lon="7.868711512304984"><ele>533.8571428571429</ele><time>2026-04-25T10:10:20Z</time></trkpt><trkpt lat="44.01253883111615" lon="7.868652523542713"><ele>537.1428571428571</ele><time>2026-04-25T10:10:21Z</time></trkpt><trkpt lat="44.01251272999688" lon="7.868563141430627"><ele>540.4285714285713</ele><time>2026-04-25T10:10:22Z</time></trkpt><trkpt lat="44.012499426847704" lon="7.868460411866586"><ele>543.7142857142857</ele><time>2026-04-25T10:10:23Z</time></trkpt><trkpt lat="44.01248923857169" lon="7.868352954317449"><ele>547.0</ele><time>2026-04-25T10:10:24Z</time></trkpt><trkpt lat="44.01249518209084" lon="7.868256093093534"><ele>547.0</ele><time>2026-04-25T10:10:25Z</time></trkpt><trkpt lat="44.012499100861184" lon="7.86816058014273"><ele>547.0</ele><time>2026-04-25T10:10:26Z</time></trkpt><trkpt lat="44.012486134892654" lon="7.868055383175673"><ele>547.0</ele><time>2026-04-25T10:10:27Z</time></trkpt><trkpt lat="44.012482055445766" lon="7.867948669635177"><ele>547.0</ele><time>2026-04-25T10:10:28Z</time></trkpt><trkpt lat="44.01246829081181" lon="7.86779566432078"><ele>547.0</ele><time>2026-04-25T10:10:30Z</time></trkpt><trkpt lat="44.01243071512126" lon="7.867706142084386"><ele>547.0</ele><time>2026-04-25T10:10:31Z</time></trkpt><trkpt lat="44.01238226723237" lon="7.867608981415709"><ele>545.5</ele><time>2026-04-25T10:10:32Z</time></trkpt><trkpt lat="44.01235685733365" lon="7.867523669644549"><ele>544.0</ele><time>2026-04-25T10:10:33Z</time></trkpt><trkpt lat="44.012375511620554" lon="7.8674158994123"><ele>542.5</ele><time>2026-04-25T10:10:34Z</time></trkpt><trkpt lat="44.01237822255078" lon="7.8672925356820596"><ele>541.0</ele><time>2026-04-25T10:10:35Z</time></trkpt><trkpt lat="44.01236436918282" lon="7.867175764837558"><ele>539.5</ele><time>2026-04-25T10:10:36Z</time></trkpt><trkpt lat="44.01233950775331" lon="7.867060838082526"><ele>538.0</ele><time>2026-04-25T10:10:37Z</time></trkpt><trkpt lat="44.012324608082245" lon="7.866944264293679"><ele>538.0</ele><time>2026-04-25T10:10:38Z</time></trkpt><trkpt lat="44.01228075660202" lon="7.866841431118926"><ele>538.0</ele><time>2026-04-25T10:10:39Z</time></trkpt><trkpt lat="44.01225243912753" lon="7.866761698704812"><ele>538.0</ele><time>2026-04-25T10:10:40Z</time></trkpt><trkpt lat="44.012225033299984" lon="7.866616737892153"><ele>538.0</ele><time>2026-04-25T10:10:42Z</time></trkpt><trkpt lat="44.01219840172742" lon="7.866472879021799"><ele>538.0</ele><time>2026-04-25T10:10:44Z</time></trkpt><trkpt lat="44.01213880486859" lon="7.866406252263529"><ele>538.0</ele><time>2026-04-25T10:10:46Z</time></trkpt><trkpt lat="44.012076259157126" lon="7.866370332800725"><ele>535.5</ele><time>2026-04-25T10:10:48Z</time></trkpt><trkpt lat="44.0120023915759" lon="7.8663641758224525"><ele>533.0</ele><time>2026-04-25T10:10:50Z</time></trkpt><trkpt lat="44.01193374754226" lon="7.86637386370702"><ele>530.5</ele><time>2026-04-25T10:10:52Z</time></trkpt><trkpt lat="44.011908107755595" lon="7.866284527449836"><ele>528.0</ele><time>2026-04-25T10:10:54Z</time></trkpt><trkpt lat="44.01192817618198" lon="7.866179518317799"><ele>525.5</ele><time>2026-04-25T10:10:56Z</time></trkpt><trkpt lat="44.012003029605545" lon="7.866119120921051"><ele>523.0</ele><time>2026-04-25T10:10:59Z</time></trkpt><trkpt lat="44.01205865893603" lon="7.866012902683541"><ele>521.5714285714286</ele><time>2026-04-25T10:11:02Z</time></trkpt><trkpt lat="44.01208467454308" lon="7.865930160327432"><ele>520.1428571428571</ele><time>2026-04-25T10:11:03Z</time></trkpt><trkpt lat="44.01209380865787" lon="7.865843363801788"><ele>518.7142857142858</ele><time>2026-04-25T10:11:04Z</time></trkpt><trkpt lat="44.01207576120748" lon="7.865752202580466"><ele>517.2857142857142</ele><time>2026-04-25T10:11:05Z</time></trkpt><trkpt lat="44.01206515825254" lon="7.865660112821473"><ele>515.8571428571429</ele><time>2026-04-25T10:11:06Z</time></trkpt><trkpt lat="44.01203827841637" lon="7.865565778638678"><ele>514.4285714285714</ele><time>2026-04-25T10:11:07Z</time></trkpt><trkpt lat="44.01203103525526" lon="7.865465416050308"><ele>513.0</ele><time>2026-04-25T10:11:08Z</time></trkpt><trkpt lat="44.0120115697019" lon="7.865313012963854"><ele>513.0</ele><time>2026-04-25T10:11:10Z</time></trkpt><trkpt lat="44.012034180426426" lon="7.86520781207404"><ele>513.0</ele><time>2026-04-25T10:11:12Z</time></trkpt><trkpt lat="44.01205786063475" lon="7.865044157351616"><ele>513.0</ele><time>2026-04-25T10:11:14Z</time></trkpt><trkpt lat="44.012041277667365" lon="7.864947303119077"><ele>513.0</ele><time>2026-04-25T10:11:15Z</time></trkpt><trkpt lat="44.01202081179738" lon="7.864864064469996"><ele>513.0</ele><time>2026-04-25T10:11:16Z</time></trkpt><trkpt lat="44.01202195283935" lon="7.864765263190543"><ele>513.0</ele><time>2026-04-25T10:11:17Z</time></trkpt><trkpt lat="44.01204079516073" lon="7.864665419540633"><ele>514.8571428571429</ele><time>2026-04-25T10:11:18Z</time></trkpt><trkpt lat="44.01205758477968" lon="7.864571834622451"><ele>516.7142857142858</ele><time>2026-04-25T10:11:19Z</time></trkpt><trkpt lat="44.012043960962146" lon="7.864470492985475"><ele>518.5714285714286</ele><time>2026-04-25T10:11:20Z</time></trkpt><trkpt lat="44.01204130001994" lon="7.864372034260035"><ele>520.4285714285714</ele><time>2026-04-25T10:11:21Z</time></trkpt><trkpt lat="44.012037044499614" lon="7.864267529413395"><ele>522.2857142857142</ele><time>2026-04-25T10:11:22Z</time></trkpt><trkpt lat="44.01204198308959" lon="7.864167538522329"><ele>524.1428571428571</ele><time>2026-04-25T10:11:23Z</time></trkpt><trkpt lat="44.01203461304646" lon="7.864074085669171"><ele>526.0</ele><time>2026-04-25T10:11:24Z</time></trkpt><trkpt lat="44.01199170682737" lon="7.863942576707935"><ele>526.0</ele><time>2026-04-25T10:11:26Z</time></trkpt><trkpt lat="44.01192762420489" lon="7.863861170403206"><ele>526.0</ele><time>2026-04-25T10:11:29Z</time></trkpt><trkpt lat="44.01187505881527" lon="7.863986558650909"><ele>526.0</ele><time>2026-04-25T10:11:32Z</time></trkpt><trkpt lat="44.01187042990377" lon="7.8640839285792214"><ele>526.0</ele><time>2026-04-25T10:11:33Z</time></trkpt><trkpt lat="44.011848944638096" lon="7.864179314553657"><ele>526.0</ele><time>2026-04-25T10:11:34Z</time></trkpt><trkpt lat="44.01182363360833" lon="7.864274206785299"><ele>526.0</ele><time>2026-04-25T10:11:35Z</time></trkpt><trkpt lat="44.01180776238245" lon="7.864362456449465"><ele>526.0</ele><time>2026-04-25T10:11:36Z</time></trkpt><trkpt lat="44.011816125626" lon="7.864544191177646"><ele>526.0</ele><time>2026-04-25T10:11:38Z</time></trkpt><trkpt lat="44.01182373139044" lon="7.864634406640064"><ele>526.0</ele><time>2026-04-25T10:11:39Z</time></trkpt><trkpt lat="44.011797597653" lon="7.864780893825758"><ele>526.0</ele><time>2026-04-25T10:11:41Z</time></trkpt><trkpt lat="44.011780656973976" lon="7.864933989381129"><ele>526.0</ele><time>2026-04-25T10:11:43Z</time></trkpt><trkpt lat="44.01181608113647" lon="7.865087547048268"><ele>526.8</ele><time>2026-04-25T10:11:45Z</time></trkpt><trkpt lat="44.01181352534263" lon="7.865249556046263"><ele>527.6</ele><time>2026-04-25T10:11:47Z</time></trkpt><trkpt lat="44.01174310305853" lon="7.8653477410008765"><ele>528.4</ele><time>2026-04-25T10:11:49Z</time></trkpt><trkpt lat="44.01167316630395" lon="7.865368193206946"><ele>529.2</ele><time>2026-04-25T10:11:50Z</time></trkpt><trkpt lat="44.0115802707018" lon="7.865382603111845"><ele>530.0</ele><time>2026-04-25T10:11:51Z</time></trkpt><trkpt lat="44.0115100168652" lon="7.8654059480542395"><ele>530.0</ele><time>2026-04-25T10:11:52Z</time></trkpt><trkpt lat="44.011402074710716" lon="7.865433547469162"><ele>530.0</ele><time>2026-04-25T10:11:54Z</time></trkpt><trkpt lat="44.01128539729385" lon="7.8654075119829185"><ele>530.0</ele><time>2026-04-25T10:11:56Z</time></trkpt><trkpt lat="44.01121832171294" lon="7.865406003608374"><ele>530.0</ele><time>2026-04-25T10:11:57Z</time></trkpt><trkpt lat="44.01111309728219" lon="7.865331650258177"><ele>530.0</ele><time>2026-04-25T10:11:59Z</time></trkpt><trkpt lat="44.01106428247256" lon="7.86527617295302"><ele>530.0</ele><time>2026-04-25T10:12:00Z</time></trkpt><trkpt lat="44.010971325154884" lon="7.865189723936727"><ele>530.0</ele><time>2026-04-25T10:12:02Z</time></trkpt><trkpt lat="44.010919424988494" lon="7.8651010806466894"><ele>530.0</ele><time>2026-04-25T10:12:03Z</time></trkpt><trkpt lat="44.010863115378214" lon="7.865039908793175"><ele>530.0</ele><time>2026-04-25T10:12:04Z</time></trkpt><trkpt lat="44.01077576525865" lon="7.865027069200016"><ele>530.0</ele><time>2026-04-25T10:12:05Z</time></trkpt><trkpt lat="44.010694414589715" lon="7.865040171355581"><ele>530.0</ele><time>2026-04-25T10:12:06Z</time></trkpt><trkpt lat="44.01062313757627" lon="7.8650392715315665"><ele>533.6666666666666</ele><time>2026-04-25T10:12:07Z</time></trkpt><trkpt lat="44.010558641648096" lon="7.865035088651642"><ele>537.3333333333333</ele><time>2026-04-25T10:12:08Z</time></trkpt><trkpt lat="44.01048408099985" lon="7.864986574487367"><ele>541.0</ele><time>2026-04-25T10:12:09Z</time></trkpt><trkpt lat="44.01041746843249" lon="7.864926101073224"><ele>544.6666666666666</ele><time>2026-04-25T10:12:10Z</time></trkpt><trkpt lat="44.010339406732875" lon="7.864936311376304"><ele>548.3333333333334</ele><time>2026-04-25T10:12:12Z</time></trkpt><trkpt lat="44.01026777641474" lon="7.864988892791364"><ele>552.0</ele><time>2026-04-25T10:12:13Z</time></trkpt><trkpt lat="44.01018675373559" lon="7.865045217933106"><ele>552.0</ele><time>2026-04-25T10:12:14Z</time></trkpt><trkpt lat="44.01012723265144" lon="7.865076229272801"><ele>552.0</ele><time>2026-04-25T10:12:15Z</time></trkpt><trkpt lat="44.010030779166065" lon="7.865158496414563"><ele>552.0</ele><time>2026-04-25T10:12:17Z</time></trkpt><trkpt lat="44.00997952556097" lon="7.865215843202325"><ele>552.0</ele><time>2026-04-25T10:12:18Z</time></trkpt><trkpt lat="44.00990570549691" lon="7.8652432580133125"><ele>552.0</ele><time>2026-04-25T10:12:19Z</time></trkpt><trkpt lat="44.00981412311891" lon="7.865294888861219"><ele>552.0</ele><time>2026-04-25T10:12:21Z</time></trkpt><trkpt lat="44.00975085553475" lon="7.865326269527928"><ele>552.5</ele><time>2026-04-25T10:12:24Z</time></trkpt><trkpt lat="44.00955513077998" lon="7.865364693999323"><ele>553.0</ele><time>2026-04-25T10:12:28Z</time></trkpt><trkpt lat="44.00944812887158" lon="7.865392023345144"><ele>553.5</ele><time>2026-04-25T10:12:29Z</time></trkpt><trkpt lat="44.00936271143472" lon="7.865358975552854"><ele>554.0</ele><time>2026-04-25T10:12:30Z</time></trkpt><trkpt lat="44.009281803961905" lon="7.865261787000071"><ele>554.0</ele><time>2026-04-25T10:12:32Z</time></trkpt><trkpt lat="44.009202971885195" lon="7.865192166594204"><ele>554.0</ele><time>2026-04-25T10:12:34Z</time></trkpt><trkpt lat="44.00921061254375" lon="7.865055413020734"><ele>554.0</ele><time>2026-04-25T10:12:36Z</time></trkpt><trkpt lat="44.00927913571976" lon="7.864969788313895"><ele>554.0</ele><time>2026-04-25T10:12:38Z</time></trkpt><trkpt lat="44.009365858137784" lon="7.864989401206127"><ele>554.0</ele><time>2026-04-25T10:12:40Z</time></trkpt><trkpt lat="44.00942430427022" lon="7.865022115865486"><ele>554.0</ele><time>2026-04-25T10:12:41Z</time></trkpt><trkpt lat="44.009546580887054" lon="7.86498880131865"><ele>555.8</ele><time>2026-04-25T10:12:43Z</time></trkpt><trkpt lat="44.009656215665984" lon="7.864953614003838"><ele>557.5999999999999</ele><time>2026-04-25T10:12:45Z</time></trkpt><trkpt lat="44.009720282019885" lon="7.864869630437105"><ele>559.4</ele><time>2026-04-25T10:12:46Z</time></trkpt><trkpt lat="44.00975906666745" lon="7.8647969820709775"><ele>561.1999999999999</ele><time>2026-04-25T10:12:47Z</time></trkpt><trkpt lat="44.00983982093385" lon="7.864767168833597"><ele>563.0</ele><time>2026-04-25T10:12:48Z</time></trkpt><trkpt lat="44.00993540858909" lon="7.864691126754145"><ele>561.1666666666666</ele><time>2026-04-25T10:12:50Z</time></trkpt><trkpt lat="44.01000393584889" lon="7.864661363840991"><ele>559.3333333333333</ele><time>2026-04-25T10:12:51Z</time></trkpt><trkpt lat="44.01008338383126" lon="7.864615580886612"><ele>557.5</ele><time>2026-04-25T10:12:52Z</time></trkpt><trkpt lat="44.01012783172071" lon="7.8645423760608635"><ele>555.6666666666666</ele><time>2026-04-25T10:12:54Z</time></trkpt><trkpt lat="44.010197257890574" lon="7.864513679377888"><ele>553.8333333333334</ele><time>2026-04-25T10:12:55Z</time></trkpt><trkpt lat="44.01025714647395" lon="7.864422131935471"><ele>552.0</ele><time>2026-04-25T10:12:56Z</time></trkpt><trkpt lat="44.01032869092659" lon="7.864366449698043"><ele>552.0</ele><time>2026-04-25T10:12:57Z</time></trkpt><trkpt lat="44.01040349827054" lon="7.8643359327693645"><ele>552.0</ele><time>2026-04-25T10:12:58Z</time></trkpt><trkpt lat="44.01047500598334" lon="7.8643230630608105"><ele>552.0</ele><time>2026-04-25T10:12:59Z</time></trkpt><trkpt lat="44.01056637399768" lon="7.8643431557664565"><ele>552.0</ele><time>2026-04-25T10:13:01Z</time></trkpt><trkpt lat="44.01061817257733" lon="7.864265224932467"><ele>552.0</ele><time>2026-04-25T10:13:04Z</time></trkpt><trkpt lat="44.01055827216927" lon="7.864219910545683"><ele>552.0</ele><time>2026-04-25T10:13:06Z</time></trkpt><trkpt lat="44.01047836212645" lon="7.864209914148948"><ele>552.0</ele><time>2026-04-25T10:13:57Z</time></trkpt><trkpt lat="44.010414070259664" lon="7.864198011510223"><ele>552.0</ele><time>2026-04-25T10:13:58Z</time></trkpt><trkpt lat="44.010345504544134" lon="7.86422498979407"><ele>552.0</ele><time>2026-04-25T10:13:59Z</time></trkpt><trkpt lat="44.01028999903566" lon="7.864273744990291"><ele>552.0</ele><time>2026-04-25T10:14:00Z</time></trkpt><trkpt lat="44.010194527319534" lon="7.864375929245156"><ele>552.0</ele><time>2026-04-25T10:14:02Z</time></trkpt><trkpt lat="44.01007311651181" lon="7.86442220885293"><ele>552.0</ele><time>2026-04-25T10:14:04Z</time></trkpt><trkpt lat="44.00998406669999" lon="7.864433858048656"><ele>554.2</ele><time>2026-04-25T10:14:05Z</time></trkpt><trkpt lat="44.009902121189036" lon="7.864447618366034"><ele>556.4000000000001</ele><time>2026-04-25T10:14:06Z</time></trkpt><trkpt lat="44.00979324331989" lon="7.864454593138891"><ele>558.5999999999999</ele><time>2026-04-25T10:14:08Z</time></trkpt><trkpt lat="44.00969336198492" lon="7.864383831362156"><ele>560.8</ele><time>2026-04-25T10:14:09.999Z</time></trkpt><trkpt lat="44.00962671698634" lon="7.8643545228697755"><ele>563.0</ele><time>2026-04-25T10:14:11Z</time></trkpt><trkpt lat="44.00955024679243" lon="7.864370509375264"><ele>563.0</ele><time>2026-04-25T10:14:12Z</time></trkpt><trkpt lat="44.009474750262555" lon="7.864403172038851"><ele>563.0</ele><time>2026-04-25T10:14:13Z</time></trkpt><trkpt lat="44.009396043593526" lon="7.864403576489478"><ele>563.0</ele><time>2026-04-25T10:14:14Z</time></trkpt><trkpt lat="44.00931024174279" lon="7.864383763468751"><ele>563.0</ele><time>2026-04-25T10:14:15Z</time></trkpt><trkpt lat="44.009231273970684" lon="7.864389203806586"><ele>563.0</ele><time>2026-04-25T10:14:16Z</time></trkpt><trkpt lat="44.00910590702947" lon="7.864457931937603"><ele>564.8333333333333</ele><time>2026-04-25T10:14:18Z</time></trkpt><trkpt lat="44.00904124779809" lon="7.8644623640701505"><ele>566.6666666666666</ele><time>2026-04-25T10:14:19Z</time></trkpt><trkpt lat="44.00895896066494" lon="7.8644591269638315"><ele>568.5</ele><time>2026-04-25T10:14:20Z</time></trkpt><trkpt lat="44.008883623137095" lon="7.864452164777646"><ele>570.3333333333334</ele><time>2026-04-25T10:14:21Z</time></trkpt><trkpt lat="44.00881989975349" lon="7.864462519770355"><ele>572.1666666666667</ele><time>2026-04-25T10:14:22Z</time></trkpt><trkpt lat="44.008741581242795" lon="7.864467741034305"><ele>574.0</ele><time>2026-04-25T10:14:23Z</time></trkpt><trkpt lat="44.00865299036288" lon="7.864489044273256"><ele>574.0</ele><time>2026-04-25T10:14:24Z</time></trkpt><trkpt lat="44.008569699423646" lon="7.864534509794238"><ele>574.0</ele><time>2026-04-25T10:14:25Z</time></trkpt><trkpt lat="44.008499444868" lon="7.8645894312627265"><ele>574.0</ele><time>2026-04-25T10:14:26Z</time></trkpt><trkpt lat="44.00842710539301" lon="7.864627059911862"><ele>574.0</ele><time>2026-04-25T10:14:27Z</time></trkpt><trkpt lat="44.00835995405931" lon="7.864672660430991"><ele>574.0</ele><time>2026-04-25T10:14:28Z</time></trkpt><trkpt lat="44.00828473355081" lon="7.864717639295745"><ele>574.0</ele><time>2026-04-25T10:14:29Z</time></trkpt><trkpt lat="44.00822373412389" lon="7.864762704370714"><ele>575.1666666666667</ele><time>2026-04-25T10:14:30Z</time></trkpt><trkpt lat="44.00814409585343" lon="7.864802054517376"><ele>576.3333333333334</ele><time>2026-04-25T10:14:31Z</time></trkpt><trkpt lat="44.008091368514144" lon="7.86485986141747"><ele>577.5</ele><time>2026-04-25T10:14:32Z</time></trkpt><trkpt lat="44.00799433586453" lon="7.86491564985856"><ele>578.6666666666666</ele><time>2026-04-25T10:14:34Z</time></trkpt><trkpt lat="44.00792419969835" lon="7.864897835087711"><ele>579.8333333333333</ele><time>2026-04-25T10:14:35Z</time></trkpt><trkpt lat="44.0078500741573" lon="7.86485367665949"><ele>581.0</ele><time>2026-04-25T10:14:36Z</time></trkpt><trkpt lat="44.00778700420886" lon="7.864773393262272"><ele>581.0</ele><time>2026-04-25T10:14:37Z</time></trkpt><trkpt lat="44.00771104906342" lon="7.864675705923436"><ele>581.0</ele><time>2026-04-25T10:14:38Z</time></trkpt><trkpt lat="44.00764874959293" lon="7.864620123465195"><ele>581.0</ele><time>2026-04-25T10:14:39Z</time></trkpt><trkpt lat="44.00758054744405" lon="7.864595822024755"><ele>581.0</ele><time>2026-04-25T10:14:40Z</time></trkpt><trkpt lat="44.00744341824966" lon="7.864545292805685"><ele>581.0</ele><time>2026-04-25T10:14:42Z</time></trkpt><trkpt lat="44.00736706372589" lon="7.86450828873018"><ele>583.0</ele><time>2026-04-25T10:14:43Z</time></trkpt><trkpt lat="44.00730447428797" lon="7.864471460908989"><ele>585.0</ele><time>2026-04-25T10:14:44Z</time></trkpt><trkpt lat="44.00723531778842" lon="7.864332671892998"><ele>587.0</ele><time>2026-04-25T10:14:46Z</time></trkpt><trkpt lat="44.00720354240633" lon="7.864212677430311"><ele>589.0</ele><time>2026-04-25T10:14:47Z</time></trkpt><trkpt lat="44.00717781898122" lon="7.864129317257002"><ele>591.0</ele><time>2026-04-25T10:14:48Z</time></trkpt><trkpt lat="44.00711238882581" lon="7.8640942001956775"><ele>593.0</ele><time>2026-04-25T10:14:49Z</time></trkpt><trkpt lat="44.00704292214521" lon="7.864059366225981"><ele>593.5</ele><time>2026-04-25T10:14:50Z</time></trkpt><trkpt lat="44.006973856684" lon="7.863996328504325"><ele>594.0</ele><time>2026-04-25T10:14:51Z</time></trkpt><trkpt lat="44.00688141210044" lon="7.863910450076695"><ele>594.5</ele><time>2026-04-25T10:14:53Z</time></trkpt><trkpt lat="44.006807132812085" lon="7.863921316422741"><ele>595.0</ele><time>2026-04-25T10:14:54Z</time></trkpt><trkpt lat="44.00671916818816" lon="7.8639033240541085"><ele>595.5</ele><time>2026-04-25T10:14:56Z</time></trkpt><trkpt lat="44.00664725523282" lon="7.863829140821857"><ele>596.0</ele><time>2026-04-25T10:14:58Z</time></trkpt><trkpt lat="44.00653160693333" lon="7.863935251977543"><ele>597.5</ele><time>2026-04-25T10:15:00Z</time></trkpt><trkpt lat="44.00644830170994" lon="7.864006811294069"><ele>599.0</ele><time>2026-04-25T10:15:01Z</time></trkpt><trkpt lat="44.00638063796664" lon="7.864033976585217"><ele>600.5</ele><time>2026-04-25T10:15:02Z</time></trkpt><trkpt lat="44.006318512461135" lon="7.864063916950821"><ele>602.0</ele><time>2026-04-25T10:15:03Z</time></trkpt><trkpt lat="44.006242655805124" lon="7.864100606522196"><ele>603.5</ele><time>2026-04-25T10:15:04Z</time></trkpt><trkpt lat="44.00617155640096" lon="7.8641385620976205"><ele>605.0</ele><time>2026-04-25T10:15:05Z</time></trkpt><trkpt lat="44.006096660810215" lon="7.864180692971607"><ele>605.0</ele><time>2026-04-25T10:15:06Z</time></trkpt><trkpt lat="44.0060221171509" lon="7.8642262261106"><ele>605.0</ele><time>2026-04-25T10:15:07Z</time></trkpt><trkpt lat="44.00591608097056" lon="7.864228894260137"><ele>605.0</ele><time>2026-04-25T10:15:09Z</time></trkpt><trkpt lat="44.00590666511315" lon="7.864130865773625"><ele>605.0</ele><time>2026-04-25T10:15:11Z</time></trkpt><trkpt lat="44.005990729956316" lon="7.864101096610459"><ele>605.0</ele><time>2026-04-25T10:15:13Z</time></trkpt><trkpt lat="44.006056019840685" lon="7.864086966010785"><ele>605.0</ele><time>2026-04-25T10:15:14Z</time></trkpt><trkpt lat="44.00613636143945" lon="7.864060629603697"><ele>605.0</ele><time>2026-04-25T10:15:15Z</time></trkpt><trkpt lat="44.006214224250655" lon="7.864017765183712"><ele>605.0</ele><time>2026-04-25T10:15:16Z</time></trkpt><trkpt lat="44.006293775427416" lon="7.8639391558576754"><ele>605.0</ele><time>2026-04-25T10:15:17Z</time></trkpt><trkpt lat="44.00636936485262" lon="7.8638828398025105"><ele>605.0</ele><time>2026-04-25T10:15:18Z</time></trkpt><trkpt lat="44.00643047856782" lon="7.863827841458543"><ele>605.0</ele><time>2026-04-25T10:15:19Z</time></trkpt><trkpt lat="44.00648361555658" lon="7.863741703967377"><ele>605.0</ele><time>2026-04-25T10:15:20Z</time></trkpt><trkpt lat="44.006532326012284" lon="7.863662916960861"><ele>605.0</ele><time>2026-04-25T10:15:21Z</time></trkpt><trkpt lat="44.00661065418167" lon="7.863659149155402"><ele>605.0</ele><time>2026-04-25T10:15:22Z</time></trkpt><trkpt lat="44.0066918603366" lon="7.86366010845967"><ele>605.0</ele><time>2026-04-25T10:15:23Z</time></trkpt><trkpt lat="44.006768250162146" lon="7.8636459957374125"><ele>605.0</ele><time>2026-04-25T10:15:24Z</time></trkpt><trkpt lat="44.0068731354159" lon="7.863556824063412"><ele>605.0</ele><time>2026-04-25T10:15:26Z</time></trkpt><trkpt lat="44.00698739768978" lon="7.863546003887274"><ele>603.5</ele><time>2026-04-25T10:15:28Z</time></trkpt><trkpt lat="44.00705943673978" lon="7.863579152492555"><ele>602.0</ele><time>2026-04-25T10:15:29Z</time></trkpt><trkpt lat="44.007187322687486" lon="7.863636240125781"><ele>600.5</ele><time>2026-04-25T10:15:31Z</time></trkpt><trkpt lat="44.00724714420086" lon="7.863675283555793"><ele>599.0</ele><time>2026-04-25T10:15:32Z</time></trkpt><trkpt lat="44.007301221474385" lon="7.863747309175252"><ele>597.5</ele><time>2026-04-25T10:15:33Z</time></trkpt><trkpt lat="44.007352623874866" lon="7.8638181206874105"><ele>596.0</ele><time>2026-04-25T10:15:34Z</time></trkpt><trkpt lat="44.00742080379005" lon="7.863867565752737"><ele>597.1666666666666</ele><time>2026-04-25T10:15:35Z</time></trkpt><trkpt lat="44.00750415603756" lon="7.863926806372386"><ele>598.3333333333333</ele><time>2026-04-25T10:15:36Z</time></trkpt><trkpt lat="44.007579582024846" lon="7.8639574127594765"><ele>599.5</ele><time>2026-04-25T10:15:37Z</time></trkpt><trkpt lat="44.00765579576139" lon="7.86397172788798"><ele>600.6666666666666</ele><time>2026-04-25T10:15:38Z</time></trkpt><trkpt lat="44.00773787507595" lon="7.863990759913556"><ele>601.8333333333334</ele><time>2026-04-25T10:15:39Z</time></trkpt><trkpt lat="44.00781423096352" lon="7.864032392540685"><ele>603.0</ele><time>2026-04-25T10:15:40Z</time></trkpt><trkpt lat="44.00795902740324" lon="7.864032490298197"><ele>603.0</ele><time>2026-04-25T10:15:42Z</time></trkpt><trkpt lat="44.00805545989261" lon="7.863967682958204"><ele>603.0</ele><time>2026-04-25T10:15:43Z</time></trkpt><trkpt lat="44.00810814387406" lon="7.863867015097709"><ele>603.0</ele><time>2026-04-25T10:15:44Z</time></trkpt><trkpt lat="44.00815006224186" lon="7.863769763715804"><ele>603.0</ele><time>2026-04-25T10:15:45Z</time></trkpt><trkpt lat="44.00819521791439" lon="7.863693620943917"><ele>603.0</ele><time>2026-04-25T10:15:46Z</time></trkpt><trkpt lat="44.008292435003085" lon="7.863653054289267"><ele>602.8</ele><time>2026-04-25T10:15:48Z</time></trkpt><trkpt lat="44.00835820654002" lon="7.863624048006612"><ele>602.5999999999999</ele><time>2026-04-25T10:15:49Z</time></trkpt><trkpt lat="44.00849168695836" lon="7.863610645574386"><ele>602.4000000000001</ele><time>2026-04-25T10:15:51Z</time></trkpt><trkpt lat="44.00856848903495" lon="7.863611242974895"><ele>602.2</ele><time>2026-04-25T10:15:52Z</time></trkpt><trkpt lat="44.00867797924568" lon="7.863545450449982"><ele>602.0</ele><time>2026-04-25T10:15:54Z</time></trkpt><trkpt lat="44.008725337230565" lon="7.863479758032576"><ele>605.6666666666666</ele><time>2026-04-25T10:15:55Z</time></trkpt><trkpt lat="44.00878444456981" lon="7.863407867235692"><ele>609.3333333333333</ele><time>2026-04-25T10:15:56Z</time></trkpt><trkpt lat="44.00885855240137" lon="7.863331021238845"><ele>613.0</ele><time>2026-04-25T10:15:57Z</time></trkpt><trkpt lat="44.008921140992584" lon="7.863299355996649"><ele>616.6666666666666</ele><time>2026-04-25T10:15:58Z</time></trkpt><trkpt lat="44.009019286494656" lon="7.863235502055253"><ele>620.3333333333334</ele><time>2026-04-25T10:16:00Z</time></trkpt><trkpt lat="44.0091077869757" lon="7.863246580845082"><ele>624.0</ele><time>2026-04-25T10:16:01Z</time></trkpt><trkpt lat="44.00918076341381" lon="7.863265646576115"><ele>624.0</ele><time>2026-04-25T10:16:02Z</time></trkpt><trkpt lat="44.00924778172417" lon="7.863306564577633"><ele>624.0</ele><time>2026-04-25T10:16:03Z</time></trkpt><trkpt lat="44.009357306815815" lon="7.863316993551108"><ele>624.0</ele><time>2026-04-25T10:16:05Z</time></trkpt><trkpt lat="44.009419471955894" lon="7.863252775894674"><ele>624.0</ele><time>2026-04-25T10:16:06Z</time></trkpt><trkpt lat="44.009474927809734" lon="7.863173536823524"><ele>624.0</ele><time>2026-04-25T10:16:07Z</time></trkpt><trkpt lat="44.009542534688435" lon="7.863120504474926"><ele>624.0</ele><time>2026-04-25T10:16:08Z</time></trkpt><trkpt lat="44.00962646420934" lon="7.86309974435884"><ele>624.0</ele><time>2026-04-25T10:16:09Z</time></trkpt><trkpt lat="44.00968975188069" lon="7.863058678942555"><ele>624.0</ele><time>2026-04-25T10:16:10Z</time></trkpt><trkpt lat="44.0097740029194" lon="7.8630125429856825"><ele>624.0</ele><time>2026-04-25T10:16:11Z</time></trkpt><trkpt lat="44.00987849042111" lon="7.862961029930479"><ele>624.0</ele><time>2026-04-25T10:16:12Z</time></trkpt><trkpt lat="44.00997954146521" lon="7.862918000108632"><ele>624.0</ele><time>2026-04-25T10:16:13Z</time></trkpt><trkpt lat="44.010043073461794" lon="7.862834243193168"><ele>622.1666666666666</ele><time>2026-04-25T10:16:14Z</time></trkpt><trkpt lat="44.01010899734946" lon="7.862771134563652"><ele>620.3333333333334</ele><time>2026-04-25T10:16:15Z</time></trkpt><trkpt lat="44.01017843111014" lon="7.862718827351275"><ele>618.5</ele><time>2026-04-25T10:16:16Z</time></trkpt><trkpt lat="44.01024354709708" lon="7.8626770577860325"><ele>616.6666666666667</ele><time>2026-04-25T10:16:17Z</time></trkpt><trkpt lat="44.010291284734365" lon="7.862593305770427"><ele>614.8333333333334</ele><time>2026-04-25T10:16:19Z</time></trkpt><trkpt lat="44.01025871987206" lon="7.8624513782603"><ele>613.0</ele><time>2026-04-25T10:16:21Z</time></trkpt><trkpt lat="44.010214402688156" lon="7.86237487419148"><ele>618.4</ele><time>2026-04-25T10:16:22Z</time></trkpt><trkpt lat="44.0101740192244" lon="7.862244516845323"><ele>623.8</ele><time>2026-04-25T10:16:24Z</time></trkpt><trkpt lat="44.01016212075234" lon="7.862052386809795"><ele>629.2</ele><time>2026-04-25T10:16:26Z</time></trkpt><trkpt lat="44.01013378688667" lon="7.861962903255633"><ele>634.6</ele><time>2026-04-25T10:16:27Z</time></trkpt><trkpt lat="44.010094216480105" lon="7.861881846508358"><ele>640.0</ele><time>2026-04-25T10:16:28Z</time></trkpt><trkpt lat="44.0100700376041" lon="7.86172704243655"><ele>640.0</ele><time>2026-04-25T10:16:30Z</time></trkpt><trkpt lat="44.01005242823526" lon="7.861635317773322"><ele>640.0</ele><time>2026-04-25T10:16:31Z</time></trkpt><trkpt lat="44.01001834752518" lon="7.861558282776143"><ele>640.0</ele><time>2026-04-25T10:16:32Z</time></trkpt><trkpt lat="44.00998723784331" lon="7.8614805571934525"><ele>640.0</ele><time>2026-04-25T10:16:33Z</time></trkpt><trkpt lat="44.00997679440696" lon="7.861298402851873"><ele>640.0</ele><time>2026-04-25T10:16:35Z</time></trkpt><trkpt lat="44.00999010329687" lon="7.861194238996508"><ele>640.0</ele><time>2026-04-25T10:16:36Z</time></trkpt><trkpt lat="44.009975380419064" lon="7.861085147157583"><ele>645.5</ele><time>2026-04-25T10:16:38Z</time></trkpt><trkpt lat="44.0099089357398" lon="7.860929200521585"><ele>651.0</ele><time>2026-04-25T10:16:40Z</time></trkpt><trkpt lat="44.00987522097349" lon="7.860803982249162"><ele>656.5</ele><time>2026-04-25T10:16:41Z</time></trkpt><trkpt lat="44.00985032993861" lon="7.8606911270164606"><ele>662.0</ele><time>2026-04-25T10:16:42Z</time></trkpt><trkpt lat="44.009823606544536" lon="7.86059747434369"><ele>667.5</ele><time>2026-04-25T10:16:43Z</time></trkpt><trkpt lat="44.0098178434044" lon="7.860508969169328"><ele>673.0</ele><time>2026-04-25T10:16:44Z</time></trkpt><trkpt lat="44.00979176385026" lon="7.860424597439332"><ele>673.0</ele><time>2026-04-25T10:16:45Z</time></trkpt><trkpt lat="44.00969802854248" lon="7.860286078977051"><ele>673.0</ele><time>2026-04-25T10:16:47Z</time></trkpt><trkpt lat="44.00963327110083" lon="7.860172058027471"><ele>673.0</ele><time>2026-04-25T10:16:48Z</time></trkpt><trkpt lat="44.009579851601785" lon="7.860049494573536"><ele>673.0</ele><time>2026-04-25T10:16:49Z</time></trkpt><trkpt lat="44.00954595581617" lon="7.859944323421608"><ele>673.0</ele><time>2026-04-25T10:16:50Z</time></trkpt><trkpt lat="44.00951163491284" lon="7.859854687250084"><ele>670.4</ele><time>2026-04-25T10:16:51Z</time></trkpt><trkpt lat="44.00945013970641" lon="7.859756965937637"><ele>667.8</ele><time>2026-04-25T10:16:53Z</time></trkpt><trkpt lat="44.009419697876545" lon="7.8596358449137185"><ele>665.2</ele><time>2026-04-25T10:16:55Z</time></trkpt><trkpt lat="44.00942624653167" lon="7.859489608263485"><ele>662.6</ele><time>2026-04-25T10:16:57Z</time></trkpt><trkpt lat="44.00951318206547" lon="7.8594228422129735"><ele>660.0</ele><time>2026-04-25T10:16:59Z</time></trkpt><trkpt lat="44.00958956033283" lon="7.8594163647712785"><ele>660.0</ele><time>2026-04-25T10:17:00Z</time></trkpt><trkpt lat="44.00968136400763" lon="7.859444061125131"><ele>660.0</ele><time>2026-04-25T10:17:01Z</time></trkpt><trkpt lat="44.00976600326157" lon="7.859462017242653"><ele>660.0</ele><time>2026-04-25T10:17:02Z</time></trkpt><trkpt lat="44.009838102494925" lon="7.859445264398064"><ele>660.0</ele><time>2026-04-25T10:17:03Z</time></trkpt><trkpt lat="44.00993354866365" lon="7.859404381147651"><ele>660.0</ele><time>2026-04-25T10:17:05Z</time></trkpt><trkpt lat="44.009986928463746" lon="7.859299019515371"><ele>660.0</ele><time>2026-04-25T10:17:07Z</time></trkpt><trkpt lat="44.009976402628645" lon="7.8591733642406725"><ele>659.1666666666666</ele><time>2026-04-25T10:17:09Z</time></trkpt><trkpt lat="44.00993359458275" lon="7.859100742967025"><ele>658.3333333333334</ele><time>2026-04-25T10:17:10Z</time></trkpt><trkpt lat="44.00988690557653" lon="7.859004981642708"><ele>657.5</ele><time>2026-04-25T10:17:11Z</time></trkpt><trkpt lat="44.00982566498825" lon="7.858911883558699"><ele>656.6666666666667</ele><time>2026-04-25T10:17:13Z</time></trkpt><trkpt lat="44.00978216706887" lon="7.858842704860813"><ele>655.8333333333334</ele><time>2026-04-25T10:17:16Z</time></trkpt><trkpt lat="44.00974797388401" lon="7.858762170983276"><ele>655.0</ele><time>2026-04-25T10:17:23Z</time></trkpt><trkpt lat="44.00970810331414" lon="7.858673460719912"><ele>655.0</ele><time>2026-04-25T10:17:25Z</time></trkpt><trkpt lat="44.009703842940155" lon="7.858542263757172"><ele>655.0</ele><time>2026-04-25T10:17:28Z</time></trkpt><trkpt lat="44.00973800411286" lon="7.858450571752813"><ele>655.0</ele><time>2026-04-25T10:17:29Z</time></trkpt><trkpt lat="44.00975643202295" lon="7.8583655837547015"><ele>655.0</ele><time>2026-04-25T10:17:30Z</time></trkpt><trkpt lat="44.00977742510074" lon="7.858212314987818"><ele>655.0</ele><time>2026-04-25T10:17:32Z</time></trkpt><trkpt lat="44.0097949202214" lon="7.858126312793269"><ele>655.0</ele><time>2026-04-25T10:17:33Z</time></trkpt><trkpt lat="44.00979449061844" lon="7.858034320619148"><ele>656.0</ele><time>2026-04-25T10:17:34Z</time></trkpt><trkpt lat="44.00979802367776" lon="7.85793980285601"><ele>657.0</ele><time>2026-04-25T10:17:35Z</time></trkpt><trkpt lat="44.009795385434046" lon="7.8578412960428725"><ele>658.0</ele><time>2026-04-25T10:17:36Z</time></trkpt><trkpt lat="44.00980130528349" lon="7.857749993064576"><ele>659.0</ele><time>2026-04-25T10:17:37Z</time></trkpt><trkpt lat="44.009809253654375" lon="7.857596223484024"><ele>660.0</ele><time>2026-04-25T10:17:39Z</time></trkpt><trkpt lat="44.00982646512253" lon="7.857457996376062"><ele>661.0</ele><time>2026-04-25T10:17:41Z</time></trkpt><trkpt lat="44.00988366731809" lon="7.857364103871659"><ele>662.6666666666667</ele><time>2026-04-25T10:17:43Z</time></trkpt><trkpt lat="44.00992169717261" lon="7.857248627329162"><ele>664.3333333333334</ele><time>2026-04-25T10:17:45Z</time></trkpt><trkpt lat="44.009957016429155" lon="7.857116521609804"><ele>666.0</ele><time>2026-04-25T10:17:47Z</time></trkpt><trkpt lat="44.009985603420475" lon="7.857031639021122"><ele>667.6666666666666</ele><time>2026-04-25T10:17:48Z</time></trkpt><trkpt lat="44.01001788933568" lon="7.856950951742785"><ele>669.3333333333333</ele><time>2026-04-25T10:17:49Z</time></trkpt><trkpt lat="44.01003813319834" lon="7.856865896273181"><ele>671.0</ele><time>2026-04-25T10:17:50Z</time></trkpt><trkpt lat="44.01010520693301" lon="7.8567865653248985"><ele>667.1666666666666</ele><time>2026-04-25T10:17:52Z</time></trkpt><trkpt lat="44.01018092440145" lon="7.856752529178197"><ele>663.3333333333333</ele><time>2026-04-25T10:17:53Z</time></trkpt><trkpt lat="44.01026044755936" lon="7.856729196114154"><ele>659.5</ele><time>2026-04-25T10:17:54Z</time></trkpt><trkpt lat="44.01031815890554" lon="7.856685827613693"><ele>655.6666666666666</ele><time>2026-04-25T10:17:55Z</time></trkpt><trkpt lat="44.01035782790923" lon="7.856574825394394"><ele>651.8333333333334</ele><time>2026-04-25T10:17:57Z</time></trkpt><trkpt lat="44.010411606044684" lon="7.856459781962161"><ele>648.0</ele><time>2026-04-25T10:18:02Z</time></trkpt><trkpt lat="44.01044925901617" lon="7.856384438112885"><ele>648.0</ele><time>2026-04-25T10:18:03Z</time></trkpt><trkpt lat="44.010558518287425" lon="7.8563302095122785"><ele>648.0</ele><time>2026-04-25T10:18:05Z</time></trkpt><trkpt lat="44.01060038194392" lon="7.8562642882191005"><ele>648.0</ele><time>2026-04-25T10:18:07Z</time></trkpt><trkpt lat="44.01064798481785" lon="7.856184829630015"><ele>648.0</ele><time>2026-04-25T10:20:58Z</time></trkpt><trkpt lat="44.01069428396885" lon="7.8560891091936975"><ele>648.0</ele><time>2026-04-25T10:21:51Z</time></trkpt><trkpt lat="44.01079577026588" lon="7.855968009731622"><ele>651.8333333333334</ele><time>2026-04-25T10:21:52.999Z</time></trkpt><trkpt lat="44.010822745855315" lon="7.855856362692416"><ele>655.6666666666666</ele><time>2026-04-25T10:21:54.999Z</time></trkpt><trkpt lat="44.010820830862436" lon="7.855734828664334"><ele>659.5</ele><time>2026-04-25T10:21:56.999Z</time></trkpt><trkpt lat="44.01080646544281" lon="7.855646043004399"><ele>663.3333333333333</ele><time>2026-04-25T10:21:57.999Z</time></trkpt><trkpt lat="44.01076222823038" lon="7.855556031264775"><ele>667.1666666666666</ele><time>2026-04-25T10:21:58.999Z</time></trkpt><trkpt lat="44.010693030688785" lon="7.855411813045986"><ele>671.0</ele><time>2026-04-25T10:22:00.999Z</time></trkpt><trkpt lat="44.01064601109978" lon="7.855293039900411"><ele>671.0</ele><time>2026-04-25T10:22:02.999Z</time></trkpt><trkpt lat="44.010565531351" lon="7.85518604591516"><ele>671.0</ele><time>2026-04-25T10:22:04.999Z</time></trkpt><trkpt lat="44.010499836856354" lon="7.855117922683251"><ele>671.0</ele><time>2026-04-25T10:22:05.999Z</time></trkpt><trkpt lat="44.010437738008605" lon="7.855032711468051"><ele>671.0</ele><time>2026-04-25T10:22:06.999Z</time></trkpt><trkpt lat="44.01036026385236" lon="7.8549779893562945"><ele>671.0</ele><time>2026-04-25T10:22:07.999Z</time></trkpt><trkpt lat="44.010260815663166" lon="7.8549491343525855"><ele>669.1999999999999</ele><time>2026-04-25T10:22:09.999Z</time></trkpt><trkpt lat="44.01016163612199" lon="7.854834341886885"><ele>667.4</ele><time>2026-04-25T10:22:11.999Z</time></trkpt><trkpt lat="44.01011376065503" lon="7.85475297392365"><ele>665.6</ele><time>2026-04-25T10:22:12.999Z</time></trkpt><trkpt lat="44.0100225495193" lon="7.854643274052256"><ele>663.8</ele><time>2026-04-25T10:22:14.999Z</time></trkpt><trkpt lat="44.009976879656925" lon="7.854566327878631"><ele>662.0</ele><time>2026-04-25T10:22:15.999Z</time></trkpt><trkpt lat="44.00992943957655" lon="7.854490226636029"><ele>667.6</ele><time>2026-04-25T10:22:16.999Z</time></trkpt><trkpt lat="44.00988953749155" lon="7.854388146739089"><ele>673.2</ele><time>2026-04-25T10:22:17.999Z</time></trkpt><trkpt lat="44.00986608175118" lon="7.854287336374026"><ele>678.8</ele><time>2026-04-25T10:22:18.999Z</time></trkpt><trkpt lat="44.009833517026564" lon="7.854195749243266"><ele>684.4</ele><time>2026-04-25T10:22:19.999Z</time></trkpt><trkpt lat="44.009762880201876" lon="7.854046813882514"><ele>690.0</ele><time>2026-04-25T10:22:21.999Z</time></trkpt><trkpt lat="44.00971857959965" lon="7.853932811039879"><ele>690.0</ele><time>2026-04-25T10:22:23.999Z</time></trkpt><trkpt lat="44.00966309301561" lon="7.853823241300432"><ele>690.0</ele><time>2026-04-25T10:22:25.999Z</time></trkpt><trkpt lat="44.009583349119175" lon="7.853740647088969"><ele>690.0</ele><time>2026-04-25T10:22:27.999Z</time></trkpt><trkpt lat="44.00946940065496" lon="7.853671445969375"><ele>690.0</ele><time>2026-04-25T10:22:29.999Z</time></trkpt><trkpt lat="44.00940462835001" lon="7.853581469128014"><ele>690.0</ele><time>2026-04-25T10:22:30.999Z</time></trkpt><trkpt lat="44.00933707641234" lon="7.853469156774844"><ele>693.2</ele><time>2026-04-25T10:22:31.999Z</time></trkpt><trkpt lat="44.00930798157635" lon="7.85336184541496"><ele>696.4</ele><time>2026-04-25T10:22:32.999Z</time></trkpt><trkpt lat="44.00927859651853" lon="7.853277892317722"><ele>699.5999999999999</ele><time>2026-04-25T10:22:33.999Z</time></trkpt><trkpt lat="44.00923991712113" lon="7.853167251903323"><ele>702.8</ele><time>2026-04-25T10:22:34.999Z</time></trkpt><trkpt lat="44.009139650685924" lon="7.853078378055194"><ele>706.0</ele><time>2026-04-25T10:22:36.999Z</time></trkpt><trkpt lat="44.00908283564421" lon="7.8529716829547835"><ele>706.0</ele><time>2026-04-25T10:22:38.999Z</time></trkpt><trkpt lat="44.00906468887845" lon="7.852882648957978"><ele>706.0</ele><time>2026-04-25T10:22:39.999Z</time></trkpt><trkpt lat="44.00904019205831" lon="7.852794351296641"><ele>706.0</ele><time>2026-04-25T10:22:40.999Z</time></trkpt><trkpt lat="44.0089828354546" lon="7.852663456523943"><ele>706.0</ele><time>2026-04-25T10:22:42.999Z</time></trkpt><trkpt lat="44.00894787912864" lon="7.8525322218800735"><ele>706.0</ele><time>2026-04-25T10:22:44.999Z</time></trkpt><trkpt lat="44.00891868884109" lon="7.852444318743157"><ele>706.0</ele><time>2026-04-25T10:22:46.999Z</time></trkpt><trkpt lat="44.00885470421115" lon="7.85239465799026"><ele>701.8333333333334</ele><time>2026-04-25T10:22:52Z</time></trkpt><trkpt lat="44.00888877802373" lon="7.852307669186024"><ele>697.6666666666667</ele><time>2026-04-25T10:22:56Z</time></trkpt><trkpt lat="44.00895372077213" lon="7.852303016537005"><ele>693.5</ele><time>2026-04-25T10:23:00Z</time></trkpt><trkpt lat="44.00902189709105" lon="7.852340216445124"><ele>689.3333333333334</ele><time>2026-04-25T10:23:02Z</time></trkpt><trkpt lat="44.00911514397645" lon="7.852351795299756"><ele>685.1666666666666</ele><time>2026-04-25T10:23:04Z</time></trkpt><trkpt lat="44.00920589229066" lon="7.852411309421782"><ele>681.0</ele><time>2026-04-25T10:23:06Z</time></trkpt><trkpt lat="44.00928028532956" lon="7.85245464295682"><ele>676.3333333333334</ele><time>2026-04-25T10:23:08Z</time></trkpt><trkpt lat="44.00938510867519" lon="7.852494874254475"><ele>671.6666666666666</ele><time>2026-04-25T10:23:10Z</time></trkpt><trkpt lat="44.009448888225606" lon="7.8525208957522805"><ele>667.0</ele><time>2026-04-25T10:23:11Z</time></trkpt><trkpt lat="44.00955310710649" lon="7.852573503757373"><ele>662.3333333333333</ele><time>2026-04-25T10:23:13Z</time></trkpt><trkpt lat="44.00961238013182" lon="7.8526066341996446"><ele>657.6666666666666</ele><time>2026-04-25T10:23:14Z</time></trkpt><trkpt lat="44.009672863432776" lon="7.852639988269648"><ele>653.0</ele><time>2026-04-25T10:23:15Z</time></trkpt><trkpt lat="44.00973745147977" lon="7.852675695355155"><ele>653.0</ele><time>2026-04-25T10:23:16Z</time></trkpt><trkpt lat="44.00984994646551" lon="7.852724397883859"><ele>653.0</ele><time>2026-04-25T10:23:18Z</time></trkpt><trkpt lat="44.00995958282955" lon="7.852752698014781"><ele>653.0</ele><time>2026-04-25T10:23:20Z</time></trkpt><trkpt lat="44.01005225397423" lon="7.852839525254802"><ele>653.0</ele><time>2026-04-25T10:23:22Z</time></trkpt><trkpt lat="44.010117309676076" lon="7.852842643985169"><ele>653.0</ele><time>2026-04-25T10:23:25Z</time></trkpt><trkpt lat="44.01020226200825" lon="7.852846828792169"><ele>644.6666666666666</ele><time>2026-04-25T10:23:30Z</time></trkpt><trkpt lat="44.01026476535517" lon="7.852897555449471"><ele>636.3333333333334</ele><time>2026-04-25T10:23:32Z</time></trkpt><trkpt lat="44.01032631569224" lon="7.852963309982339"><ele>628.0</ele><time>2026-04-25T10:23:35Z</time></trkpt><trkpt lat="44.01064049786752" lon="7.853221037982746"><ele>628.0</ele><time>2026-04-25T10:23:39Z</time></trkpt><trkpt lat="44.010690132795986" lon="7.853283392095409"><ele>628.0</ele><time>2026-04-25T10:23:40Z</time></trkpt><trkpt lat="44.01077047189114" lon="7.853370393741714"><ele>628.0</ele><time>2026-04-25T10:23:42Z</time></trkpt><trkpt lat="44.01084115483616" lon="7.853446246794603"><ele>628.0</ele><time>2026-04-25T10:23:45Z</time></trkpt><trkpt lat="44.01091537136133" lon="7.85342346557863"><ele>628.0</ele><time>2026-04-25T10:23:46.999Z</time></trkpt><trkpt lat="44.01096441433638" lon="7.8533669030136375"><ele>628.0</ele><time>2026-04-25T10:23:47.999Z</time></trkpt><trkpt lat="44.01099684300496" lon="7.853262054100283"><ele>630.0</ele><time>2026-04-25T10:23:48.999Z</time></trkpt><trkpt lat="44.011006343807544" lon="7.8531626040144475"><ele>632.0</ele><time>2026-04-25T10:23:49.999Z</time></trkpt><trkpt lat="44.011016142315285" lon="7.853069612239617"><ele>634.0</ele><time>2026-04-25T10:23:50.999Z</time></trkpt><trkpt lat="44.011041275532236" lon="7.85290255086553"><ele>636.0</ele><time>2026-04-25T10:23:52.999Z</time></trkpt><trkpt lat="44.01106280579318" lon="7.852762901418606"><ele>638.0</ele><time>2026-04-25T10:23:54.999Z</time></trkpt><trkpt lat="44.011086590739566" lon="7.852609853488113"><ele>644.5999999999999</ele><time>2026-04-25T10:23:56.999Z</time></trkpt><trkpt lat="44.01111578112864" lon="7.852477330157922"><ele>651.1999999999999</ele><time>2026-04-25T10:23:58.999Z</time></trkpt><trkpt lat="44.01123592559088" lon="7.852408099413602"><ele>657.8</ele><time>2026-04-25T10:24:00.999Z</time></trkpt><trkpt lat="44.01131157168631" lon="7.852364970439995"><ele>664.4</ele><time>2026-04-25T10:24:01.999Z</time></trkpt><trkpt lat="44.01137093498027" lon="7.852286272681174"><ele>671.0</ele><time>2026-04-25T10:24:02.999Z</time></trkpt><trkpt lat="44.01140716356754" lon="7.852209703883497"><ele>671.0</ele><time>2026-04-25T10:24:03.999Z</time></trkpt><trkpt lat="44.01145187815171" lon="7.852141738536568"><ele>671.0</ele><time>2026-04-25T10:24:04.999Z</time></trkpt><trkpt lat="44.01150162569277" lon="7.852068819327671"><ele>671.0</ele><time>2026-04-25T10:24:05.999Z</time></trkpt><trkpt lat="44.011547000641826" lon="7.851944664550123"><ele>671.0</ele><time>2026-04-25T10:24:07.999Z</time></trkpt><trkpt lat="44.01155797775295" lon="7.851830846748003"><ele>671.0</ele><time>2026-04-25T10:24:08.999Z</time></trkpt><trkpt lat="44.01156557792629" lon="7.851740022149757"><ele>671.0</ele><time>2026-04-25T10:24:09.999Z</time></trkpt><trkpt lat="44.01158365879189" lon="7.851650021166082"><ele>669.3333333333333</ele><time>2026-04-25T10:24:10.999Z</time></trkpt><trkpt lat="44.011618693520504" lon="7.851551121110264"><ele>667.6666666666666</ele><time>2026-04-25T10:24:11.999Z</time></trkpt><trkpt lat="44.01165342229534" lon="7.85144018215677"><ele>666.0</ele><time>2026-04-25T10:24:12.999Z</time></trkpt><trkpt lat="44.01169610989959" lon="7.851333563044531"><ele>664.3333333333334</ele><time>2026-04-25T10:24:13.999Z</time></trkpt><trkpt lat="44.011733067032544" lon="7.851242230253729"><ele>662.6666666666667</ele><time>2026-04-25T10:24:14.999Z</time></trkpt><trkpt lat="44.01178708667007" lon="7.8510957843217035"><ele>661.0</ele><time>2026-04-25T10:24:16.999Z</time></trkpt><trkpt lat="44.01187534120836" lon="7.850977548144825"><ele>667.1666666666667</ele><time>2026-04-25T10:24:18.999Z</time></trkpt><trkpt lat="44.011933004645584" lon="7.850928403887142"><ele>673.3333333333334</ele><time>2026-04-25T10:24:19.999Z</time></trkpt><trkpt lat="44.01199346095869" lon="7.8508744869227"><ele>679.5</ele><time>2026-04-25T10:24:20.999Z</time></trkpt><trkpt lat="44.01206238717552" lon="7.850830839069608"><ele>685.6666666666666</ele><time>2026-04-25T10:24:21.999Z</time></trkpt><trkpt lat="44.01212013165621" lon="7.850778375074517"><ele>691.8333333333333</ele><time>2026-04-25T10:24:22.999Z</time></trkpt><trkpt lat="44.01220219236287" lon="7.850663006383504"><ele>698.0</ele><time>2026-04-25T10:24:24.999Z</time></trkpt><trkpt lat="44.01225417471084" lon="7.850582571945577"><ele>698.0</ele><time>2026-04-25T10:24:25.999Z</time></trkpt><trkpt lat="44.01230909346116" lon="7.850503054418945"><ele>698.0</ele><time>2026-04-25T10:24:26.999Z</time></trkpt><trkpt lat="44.01236628914614" lon="7.8504361767947675"><ele>698.0</ele><time>2026-04-25T10:24:27.999Z</time></trkpt><trkpt lat="44.012425729174666" lon="7.850393721635265"><ele>698.0</ele><time>2026-04-25T10:24:28.999Z</time></trkpt><trkpt lat="44.01248437291421" lon="7.850317596650039"><ele>698.0</ele><time>2026-04-25T10:24:29.999Z</time></trkpt><trkpt lat="44.012541818498434" lon="7.850241324141247"><ele>698.0</ele><time>2026-04-25T10:24:30.999Z</time></trkpt><trkpt lat="44.01261112100019" lon="7.850154227347365"><ele>698.1428571428571</ele><time>2026-04-25T10:24:31.999Z</time></trkpt><trkpt lat="44.01267140408672" lon="7.850087510439723"><ele>698.2857142857142</ele><time>2026-04-25T10:24:32.999Z</time></trkpt><trkpt lat="44.01272567235596" lon="7.850034218693614"><ele>698.4285714285713</ele><time>2026-04-25T10:24:33.999Z</time></trkpt><trkpt lat="44.01278304116194" lon="7.849979853937835"><ele>698.5714285714286</ele><time>2026-04-25T10:24:34.999Z</time></trkpt><trkpt lat="44.012832767661635" lon="7.849921659181127"><ele>698.7142857142858</ele><time>2026-04-25T10:24:35.999Z</time></trkpt><trkpt lat="44.01289521363496" lon="7.849876823893853"><ele>698.8571428571428</ele><time>2026-04-25T10:24:36.999Z</time></trkpt><trkpt lat="44.01293895248482" lon="7.849811125560531"><ele>699.0</ele><time>2026-04-25T10:24:37.999Z</time></trkpt><trkpt lat="44.01298807805885" lon="7.8497422986186685"><ele>699.0</ele><time>2026-04-25T10:24:38.999Z</time></trkpt><trkpt lat="44.013047998421406" lon="7.849700006526702"><ele>699.0</ele><time>2026-04-25T10:24:40Z</time></trkpt><trkpt lat="44.01312217022001" lon="7.849681649391509"><ele>699.0</ele><time>2026-04-25T10:24:41Z</time></trkpt><trkpt lat="44.01319560539938" lon="7.849678574083427"><ele>699.0</ele><time>2026-04-25T10:24:42Z</time></trkpt><trkpt lat="44.01326496453203" lon="7.849691275627016"><ele>699.0</ele><time>2026-04-25T10:24:43Z</time></trkpt><trkpt lat="44.01338391906118" lon="7.849642986311232"><ele>699.0</ele><time>2026-04-25T10:24:45Z</time></trkpt><trkpt lat="44.013469200600696" lon="7.849573023474067"><ele>696.0</ele><time>2026-04-25T10:24:47Z</time></trkpt><trkpt lat="44.01351457969872" lon="7.849432663843318"><ele>693.0</ele><time>2026-04-25T10:24:49Z</time></trkpt><trkpt lat="44.01355714074762" lon="7.84930581618053"><ele>690.0</ele><time>2026-04-25T10:24:51Z</time></trkpt><trkpt lat="44.01358688455923" lon="7.849206993412474"><ele>687.0</ele><time>2026-04-25T10:24:52Z</time></trkpt><trkpt lat="44.013615694528276" lon="7.849074140462313"><ele>684.0</ele><time>2026-04-25T10:24:54Z</time></trkpt><trkpt lat="44.01355424435707" lon="7.8489070698392975"><ele>684.0</ele><time>2026-04-25T10:24:56Z</time></trkpt><trkpt lat="44.013496752895456" lon="7.848811961149267"><ele>684.0</ele><time>2026-04-25T10:24:57Z</time></trkpt><trkpt lat="44.013466516090155" lon="7.848723602276577"><ele>684.0</ele><time>2026-04-25T10:24:58Z</time></trkpt><trkpt lat="44.01338695772102" lon="7.848610893725994"><ele>684.0</ele><time>2026-04-25T10:25:00Z</time></trkpt><trkpt lat="44.013330382159346" lon="7.848547839880755"><ele>684.0</ele><time>2026-04-25T10:25:01Z</time></trkpt><trkpt lat="44.013237557043674" lon="7.848466681903489"><ele>695.6</ele><time>2026-04-25T10:25:03Z</time></trkpt><trkpt lat="44.013129478852875" lon="7.848394537881982"><ele>707.2</ele><time>2026-04-25T10:25:05Z</time></trkpt><trkpt lat="44.01306191363164" lon="7.8482727911393555"><ele>718.8000000000001</ele><time>2026-04-25T10:25:07Z</time></trkpt><trkpt lat="44.01299966229734" lon="7.848156517135277"><ele>730.4000000000001</ele><time>2026-04-25T10:25:09Z</time></trkpt><trkpt lat="44.01303135306221" lon="7.848017358875716"><ele>742.0</ele><time>2026-04-25T10:25:11Z</time></trkpt><trkpt lat="44.01316755089255" lon="7.848049108141408"><ele>742.0</ele><time>2026-04-25T10:25:14Z</time></trkpt><trkpt lat="44.01326187673384" lon="7.847964608839276"><ele>742.0</ele><time>2026-04-25T10:25:16Z</time></trkpt><trkpt lat="44.01337195985502" lon="7.847897796435406"><ele>742.0</ele><time>2026-04-25T10:25:18Z</time></trkpt><trkpt lat="44.01344364167868" lon="7.847891984016314"><ele>742.0</ele><time>2026-04-25T10:25:20Z</time></trkpt><trkpt lat="44.013522655046174" lon="7.847926560784906"><ele>742.0</ele><time>2026-04-25T10:25:23Z</time></trkpt><trkpt lat="44.01364345955247" lon="7.847939155150473"><ele>733.4000000000001</ele><time>2026-04-25T10:25:25Z</time></trkpt><trkpt lat="44.013706403570204" lon="7.847954863506236"><ele>724.8000000000001</ele><time>2026-04-25T10:25:26Z</time></trkpt><trkpt lat="44.01381919453318" lon="7.847933594317714"><ele>716.2</ele><time>2026-04-25T10:25:28Z</time></trkpt><trkpt lat="44.01392458043379" lon="7.84788846596916"><ele>707.6</ele><time>2026-04-25T10:25:30Z</time></trkpt><trkpt lat="44.0140186935643" lon="7.847843409794741"><ele>699.0</ele><time>2026-04-25T10:25:32Z</time></trkpt><trkpt lat="44.01409467853367" lon="7.847717290291932"><ele>703.8333333333334</ele><time>2026-04-25T10:25:34Z</time></trkpt><trkpt lat="44.01410290578113" lon="7.847575985384438"><ele>708.6666666666666</ele><time>2026-04-25T10:25:36Z</time></trkpt><trkpt lat="44.0140845415576" lon="7.847452815622824"><ele>713.5</ele><time>2026-04-25T10:25:37Z</time></trkpt><trkpt lat="44.014090439231815" lon="7.8473483553457655"><ele>718.3333333333333</ele><time>2026-04-25T10:25:38Z</time></trkpt><trkpt lat="44.01409712026322" lon="7.847251784075064"><ele>723.1666666666666</ele><time>2026-04-25T10:25:39Z</time></trkpt><trkpt lat="44.014103846465076" lon="7.847153349811124"><ele>728.0</ele><time>2026-04-25T10:25:40Z</time></trkpt><trkpt lat="44.014121122896924" lon="7.847051757583375"><ele>728.0</ele><time>2026-04-25T10:25:41Z</time></trkpt><trkpt lat="44.0141141815347" lon="7.846956582461205"><ele>728.0</ele><time>2026-04-25T10:25:42Z</time></trkpt><trkpt lat="44.01411953040268" lon="7.846858134706266"><ele>728.0</ele><time>2026-04-25T10:25:43Z</time></trkpt><trkpt lat="44.01421397214545" lon="7.846705079480663"><ele>728.0</ele><time>2026-04-25T10:25:45Z</time></trkpt><trkpt lat="44.01430811608399" lon="7.846558140767618"><ele>728.0</ele><time>2026-04-25T10:25:47Z</time></trkpt><trkpt lat="44.01436274391932" lon="7.846417286415385"><ele>728.8</ele><time>2026-04-25T10:25:49Z</time></trkpt><trkpt lat="44.014323232569005" lon="7.846278350500024"><ele>729.5999999999999</ele><time>2026-04-25T10:25:51Z</time></trkpt><trkpt lat="44.01430354481915" lon="7.846117542810695"><ele>730.4000000000001</ele><time>2026-04-25T10:25:53Z</time></trkpt><trkpt lat="44.01430049279566" lon="7.846021603019111"><ele>731.2</ele><time>2026-04-25T10:25:54Z</time></trkpt><trkpt lat="44.01426762513701" lon="7.845932800991137"><ele>732.0</ele><time>2026-04-25T10:25:55Z</time></trkpt><trkpt lat="44.01423571842233" lon="7.8457810400367345"><ele>732.0</ele><time>2026-04-25T10:25:57Z</time></trkpt><trkpt lat="44.01425171780273" lon="7.845675834839991"><ele>732.0</ele><time>2026-04-25T10:25:59Z</time></trkpt><trkpt lat="44.01433639211349" lon="7.845646524419289"><ele>732.0</ele><time>2026-04-25T10:26:01Z</time></trkpt><trkpt lat="44.014461139160126" lon="7.845699546429313"><ele>732.0</ele><time>2026-04-25T10:26:03Z</time></trkpt><trkpt lat="44.0145533567026" lon="7.845674916291483"><ele>732.0</ele><time>2026-04-25T10:26:04Z</time></trkpt><trkpt lat="44.01463623691161" lon="7.845673151459037"><ele>732.0</ele><time>2026-04-25T10:26:05Z</time></trkpt><trkpt lat="44.01474512212195" lon="7.845613339340114"><ele>732.0</ele><time>2026-04-25T10:26:07Z</time></trkpt><trkpt lat="44.01477059994216" lon="7.8455308347417585"><ele>732.0</ele><time>2026-04-25T10:26:08Z</time></trkpt><trkpt lat="44.014799090463946" lon="7.845446545411739"><ele>732.0</ele><time>2026-04-25T10:26:09Z</time></trkpt><trkpt lat="44.014821916083505" lon="7.845329159698645"><ele>732.0</ele><time>2026-04-25T10:26:10Z</time></trkpt><trkpt lat="44.01485521871726" lon="7.845214215732298"><ele>732.0</ele><time>2026-04-25T10:26:11Z</time></trkpt><trkpt lat="44.01488668910626" lon="7.845118559016896"><ele>732.1666666666666</ele><time>2026-04-25T10:26:12Z</time></trkpt><trkpt lat="44.01494522889539" lon="7.8450284955650025"><ele>732.3333333333334</ele><time>2026-04-25T10:26:13Z</time></trkpt><trkpt lat="44.01500426244217" lon="7.84494705207635"><ele>732.5</ele><time>2026-04-25T10:26:14Z</time></trkpt><trkpt lat="44.01509296093424" lon="7.844857768392371"><ele>732.6666666666667</ele><time>2026-04-25T10:26:16Z</time></trkpt><trkpt lat="44.01512820970386" lon="7.844756232210307"><ele>732.8333333333334</ele><time>2026-04-25T10:26:18Z</time></trkpt><trkpt lat="44.015165498145066" lon="7.8446553447277685"><ele>733.0</ele><time>2026-04-25T10:26:20Z</time></trkpt><trkpt lat="44.015212728645785" lon="7.844572138554873"><ele>733.0</ele><time>2026-04-25T10:26:23Z</time></trkpt><trkpt lat="44.0152432410685" lon="7.844472630692622"><ele>733.0</ele><time>2026-04-25T10:26:26Z</time></trkpt><trkpt lat="44.01530735838824" lon="7.844255464284544"><ele>733.0</ele><time>2026-04-25T10:26:27Z</time></trkpt><trkpt lat="44.01530720214423" lon="7.844163910983108"><ele>733.0</ele><time>2026-04-25T10:26:28Z</time></trkpt><trkpt lat="44.01531055313166" lon="7.8440624704781445"><ele>733.0</ele><time>2026-04-25T10:26:29Z</time></trkpt><trkpt lat="44.015319406590386" lon="7.843974195985546"><ele>737.5999999999999</ele><time>2026-04-25T10:26:30Z</time></trkpt><trkpt lat="44.01528994512905" lon="7.843813957447951"><ele>742.1999999999999</ele><time>2026-04-25T10:26:32Z</time></trkpt><trkpt lat="44.015259812296" lon="7.843647292559386"><ele>746.8</ele><time>2026-04-25T10:26:33.999Z</time></trkpt><trkpt lat="44.01520843686455" lon="7.843491839579927"><ele>751.4</ele><time>2026-04-25T10:26:35.999Z</time></trkpt><trkpt lat="44.01516750661744" lon="7.843412272642819"><ele>756.0</ele><time>2026-04-25T10:26:36.999Z</time></trkpt><trkpt lat="44.015122542691884" lon="7.843338969771007"><ele>757.5999999999999</ele><time>2026-04-25T10:26:37.999Z</time></trkpt><trkpt lat="44.01507449212131" lon="7.843258088773762"><ele>759.2</ele><time>2026-04-25T10:26:38.999Z</time></trkpt><trkpt lat="44.015000656685935" lon="7.843122745881434"><ele>760.8</ele><time>2026-04-25T10:26:40.999Z</time></trkpt><trkpt lat="44.014942202119684" lon="7.8429849110501"><ele>762.4000000000001</ele><time>2026-04-25T10:26:42.999Z</time></trkpt><trkpt lat="44.01493194697059" lon="7.842894092099649"><ele>764.0</ele><time>2026-04-25T10:26:44.999Z</time></trkpt><trkpt lat="44.01504880885464" lon="7.842887721022328"><ele>764.0</ele><time>2026-04-25T10:26:46Z</time></trkpt><trkpt lat="44.015120927741954" lon="7.84290112638106"><ele>764.0</ele><time>2026-04-25T10:26:47Z</time></trkpt><trkpt lat="44.01521111300427" lon="7.842924157083392"><ele>764.0</ele><time>2026-04-25T10:26:48Z</time></trkpt><trkpt lat="44.015296426775606" lon="7.842923271261386"><ele>764.0</ele><time>2026-04-25T10:26:49Z</time></trkpt><trkpt lat="44.01536734798886" lon="7.842914087203166"><ele>764.0</ele><time>2026-04-25T10:26:50Z</time></trkpt><trkpt lat="44.01543322521704" lon="7.842896515970831"><ele>764.0</ele><time>2026-04-25T10:26:51Z</time></trkpt><trkpt lat="44.01550600394522" lon="7.842851302040625"><ele>764.0</ele><time>2026-04-25T10:26:52Z</time></trkpt><trkpt lat="44.01557243368453" lon="7.842723197390697"><ele>764.0</ele><time>2026-04-25T10:26:54Z</time></trkpt><trkpt lat="44.01557444502533" lon="7.842624984755076"><ele>764.0</ele><time>2026-04-25T10:26:55Z</time></trkpt><trkpt lat="44.01557331206603" lon="7.842531848371494"><ele>764.0</ele><time>2026-04-25T10:26:56Z</time></trkpt><trkpt lat="44.01558106847178" lon="7.842439350679608"><ele>764.0</ele><time>2026-04-25T10:26:57Z</time></trkpt><trkpt lat="44.015578557803686" lon="7.842341822358969"><ele>764.0</ele><time>2026-04-25T10:26:58Z</time></trkpt><trkpt lat="44.01558981153064" lon="7.842238241055599"><ele>767.2</ele><time>2026-04-25T10:26:59Z</time></trkpt><trkpt lat="44.015615338832596" lon="7.8421575079318115"><ele>770.4000000000001</ele><time>2026-04-25T10:27:00Z</time></trkpt><trkpt lat="44.01567529642325" lon="7.8420206157090995"><ele>773.6</ele><time>2026-04-25T10:27:02Z</time></trkpt><trkpt lat="44.015794223796" lon="7.841986832959767"><ele>776.8</ele><time>2026-04-25T10:27:04Z</time></trkpt><trkpt lat="44.015896124178056" lon="7.841894276104334"><ele>780.0</ele><time>2026-04-25T10:27:06Z</time></trkpt><trkpt lat="44.015919153359754" lon="7.841798989500965"><ele>781.0</ele><time>2026-04-25T10:27:07Z</time></trkpt><trkpt lat="44.01596867375394" lon="7.841707350426086"><ele>782.0</ele><time>2026-04-25T10:27:09Z</time></trkpt><trkpt lat="44.01603645165068" lon="7.841703143773165"><ele>783.0</ele><time>2026-04-25T10:27:12Z</time></trkpt><trkpt lat="44.01615335670817" lon="7.841573695359152"><ele>784.0</ele><time>2026-04-25T10:27:14Z</time></trkpt><trkpt lat="44.01621428720995" lon="7.841468648789626"><ele>785.0</ele><time>2026-04-25T10:27:15Z</time></trkpt><trkpt lat="44.01630088660952" lon="7.841387683233632"><ele>785.0000000000001</ele><time>2026-04-25T10:27:16Z</time></trkpt><trkpt lat="44.016376549992096" lon="7.841338787027909"><ele>785.0</ele><time>2026-04-25T10:27:17Z</time></trkpt><trkpt lat="44.0164356746955" lon="7.841295928813925"><ele>785.0</ele><time>2026-04-25T10:27:18Z</time></trkpt><trkpt lat="44.01655486972813" lon="7.84127623235039"><ele>785.0</ele><time>2026-04-25T10:27:19Z</time></trkpt><trkpt lat="44.01662757484997" lon="7.841244369969452"><ele>785.0000000000001</ele><time>2026-04-25T10:27:20Z</time></trkpt><trkpt lat="44.016694427996526" lon="7.841208162202016"><ele>785.0</ele><time>2026-04-25T10:27:21Z</time></trkpt><trkpt lat="44.01676988594419" lon="7.841209282600119"><ele>780.3333333333334</ele><time>2026-04-25T10:27:22Z</time></trkpt><trkpt lat="44.016853933109964" lon="7.841262478778672"><ele>775.6666666666667</ele><time>2026-04-25T10:27:23Z</time></trkpt><trkpt lat="44.016954871831366" lon="7.841325254457534"><ele>771.0</ele><time>2026-04-25T10:27:24Z</time></trkpt><trkpt lat="44.01700271498209" lon="7.841411086616853"><ele>766.3333333333334</ele><time>2026-04-25T10:27:27Z</time></trkpt><trkpt lat="44.01705529310342" lon="7.841342397807648"><ele>761.6666666666667</ele><time>2026-04-25T10:27:29Z</time></trkpt><trkpt lat="44.01703086255771" lon="7.841233064447684"><ele>757.0</ele><time>2026-04-25T10:27:32Z</time></trkpt><trkpt lat="44.01699903173403" lon="7.84114561733968"><ele>757.0</ele><time>2026-04-25T10:27:35Z</time></trkpt><trkpt lat="44.016942634323804" lon="7.841192751080898"><ele>757.0</ele><time>2026-04-25T10:27:40Z</time></trkpt><trkpt lat="44.01687777779507" lon="7.8411632012137655"><ele>757.0</ele><time>2026-04-25T10:32:55.999Z</time></trkpt><trkpt lat="44.0168218481827" lon="7.841120538183122"><ele>757.0</ele><time>2026-04-25T10:32:56.999Z</time></trkpt><trkpt lat="44.01670095144437" lon="7.84110260639221"><ele>757.0</ele><time>2026-04-25T10:32:58.999Z</time></trkpt><trkpt lat="44.016613736336694" lon="7.841135054070682"><ele>757.0</ele><time>2026-04-25T10:32:59.999Z</time></trkpt><trkpt lat="44.0165238192246" lon="7.841159865306457"><ele>762.6</ele><time>2026-04-25T10:33:00.999Z</time></trkpt><trkpt lat="44.01641865850097" lon="7.84119057865077"><ele>768.2</ele><time>2026-04-25T10:33:01.999Z</time></trkpt><trkpt lat="44.01631881817969" lon="7.8412498766802585"><ele>773.8</ele><time>2026-04-25T10:33:03Z</time></trkpt><trkpt lat="44.01623501999968" lon="7.841333538802056"><ele>779.4</ele><time>2026-04-25T10:33:04Z</time></trkpt><trkpt lat="44.01616798188101" lon="7.841414530345156"><ele>785.0</ele><time>2026-04-25T10:33:05Z</time></trkpt><trkpt lat="44.01608131905358" lon="7.841485566418709"><ele>785.0</ele><time>2026-04-25T10:33:06Z</time></trkpt><trkpt lat="44.01597892773754" lon="7.841513842107704"><ele>785.0</ele><time>2026-04-25T10:33:07Z</time></trkpt><trkpt lat="44.015885126399375" lon="7.8415611775640235"><ele>785.0</ele><time>2026-04-25T10:33:08Z</time></trkpt><trkpt lat="44.0157967747881" lon="7.841662232943493"><ele>785.0</ele><time>2026-04-25T10:33:09Z</time></trkpt><trkpt lat="44.0157001070974" lon="7.8417729989300895"><ele>785.0</ele><time>2026-04-25T10:33:10Z</time></trkpt><trkpt lat="44.01558584087978" lon="7.841858093466325"><ele>783.75</ele><time>2026-04-25T10:33:11Z</time></trkpt><trkpt lat="44.015473820969625" lon="7.841919537334323"><ele>782.5</ele><time>2026-04-25T10:33:12Z</time></trkpt><trkpt lat="44.01535967796093" lon="7.842014633144929"><ele>781.25</ele><time>2026-04-25T10:33:13Z</time></trkpt><trkpt lat="44.015278089837956" lon="7.84212028112133"><ele>780.0</ele><time>2026-04-25T10:33:14Z</time></trkpt><trkpt lat="44.01521605273101" lon="7.842215525605463"><ele>780.0</ele><time>2026-04-25T10:33:15Z</time></trkpt><trkpt lat="44.01516185024188" lon="7.8423129708753985"><ele>780.0</ele><time>2026-04-25T10:33:16Z</time></trkpt><trkpt lat="44.01509460021312" lon="7.842357303154607"><ele>780.0</ele><time>2026-04-25T10:33:17Z</time></trkpt><trkpt lat="44.01501660303476" lon="7.8423430737815165"><ele>780.0</ele><time>2026-04-25T10:33:18Z</time></trkpt><trkpt lat="44.01491494119436" lon="7.842261465761163"><ele>780.0</ele><time>2026-04-25T10:33:19Z</time></trkpt><trkpt lat="44.0148132837768" lon="7.8421992724575365"><ele>788.2</ele><time>2026-04-25T10:33:20Z</time></trkpt><trkpt lat="44.01471773490524" lon="7.842225136643945"><ele>796.4</ele><time>2026-04-25T10:33:21Z</time></trkpt><trkpt lat="44.014587593506086" lon="7.842257145551953"><ele>804.5999999999999</ele><time>2026-04-25T10:33:22Z</time></trkpt><trkpt lat="44.01448727349495" lon="7.84228267396183"><ele>812.8</ele><time>2026-04-25T10:33:23Z</time></trkpt><trkpt lat="44.01440888062826" lon="7.842309876939216"><ele>821.0</ele><time>2026-04-25T10:33:23.999Z</time></trkpt><trkpt lat="44.01434661067191" lon="7.8424127472462155"><ele>821.0</ele><time>2026-04-25T10:33:24.999Z</time></trkpt><trkpt lat="44.014311286125164" lon="7.842544734436432"><ele>821.0</ele><time>2026-04-25T10:33:25.999Z</time></trkpt><trkpt lat="44.01435566137666" lon="7.842635132047421"><ele>821.0</ele><time>2026-04-25T10:33:26.999Z</time></trkpt><trkpt lat="44.014417226376956" lon="7.842757775224736"><ele>821.0</ele><time>2026-04-25T10:33:27.999Z</time></trkpt><trkpt lat="44.01446756894208" lon="7.842951874145593"><ele>821.0</ele><time>2026-04-25T10:33:28.999Z</time></trkpt><trkpt lat="44.01450140556456" lon="7.843160151571541"><ele>820.0</ele><time>2026-04-25T10:33:29.999Z</time></trkpt><trkpt lat="44.014524452629864" lon="7.8433460754702065"><ele>819.0</ele><time>2026-04-25T10:33:30.999Z</time></trkpt><trkpt lat="44.01457144852686" lon="7.843511115970892"><ele>818.0</ele><time>2026-04-25T10:33:31.999Z</time></trkpt><trkpt lat="44.01460291620898" lon="7.843643391296721"><ele>817.0</ele><time>2026-04-25T10:33:32.999Z</time></trkpt><trkpt lat="44.014619415159515" lon="7.843744742475088"><ele>816.0</ele><time>2026-04-25T10:33:33.999Z</time></trkpt><trkpt lat="44.01459495951474" lon="7.843829830222689"><ele>814.4</ele><time>2026-04-25T10:33:34.999Z</time></trkpt><trkpt lat="44.01452837634133" lon="7.8439002503416"><ele>812.8</ele><time>2026-04-25T10:33:35.999Z</time></trkpt><trkpt lat="44.01443826182449" lon="7.843948791998606"><ele>811.1999999999999</ele><time>2026-04-25T10:33:36.999Z</time></trkpt><trkpt lat="44.014300125620906" lon="7.8439805179707305"><ele>809.5999999999999</ele><time>2026-04-25T10:33:37.999Z</time></trkpt><trkpt lat="44.014194758180345" lon="7.844011272355112"><ele>808.0</ele><time>2026-04-25T10:33:38.999Z</time></trkpt><trkpt lat="44.014087032468986" lon="7.844017584935861"><ele>808.0</ele><time>2026-04-25T10:33:40Z</time></trkpt><trkpt lat="44.01396921112239" lon="7.843964020242163"><ele>808.0</ele><time>2026-04-25T10:33:41Z</time></trkpt><trkpt lat="44.01382276769855" lon="7.843896558041344"><ele>808.0</ele><time>2026-04-25T10:33:42Z</time></trkpt><trkpt lat="44.0137000440719" lon="7.8438422572004605"><ele>808.0</ele><time>2026-04-25T10:33:43Z</time></trkpt><trkpt lat="44.013578151783626" lon="7.843852513160927"><ele>808.0</ele><time>2026-04-25T10:33:44Z</time></trkpt><trkpt lat="44.01347934515253" lon="7.8438897171693664"><ele>808.0</ele><time>2026-04-25T10:33:45Z</time></trkpt><trkpt lat="44.01339936479664" lon="7.843954103142301"><ele>808.0</ele><time>2026-04-25T10:33:46Z</time></trkpt><trkpt lat="44.013346408413376" lon="7.844027404595686"><ele>808.0</ele><time>2026-04-25T10:33:47Z</time></trkpt><trkpt lat="44.01328961181462" lon="7.844175046524874"><ele>808.0</ele><time>2026-04-25T10:33:48Z</time></trkpt><trkpt lat="44.01320930671" lon="7.844238895858915"><ele>812.0</ele><time>2026-04-25T10:33:49Z</time></trkpt><trkpt lat="44.013102035062566" lon="7.844318844101431"><ele>816.0</ele><time>2026-04-25T10:33:50Z</time></trkpt><trkpt lat="44.013041911960364" lon="7.844411191942203"><ele>820.0</ele><time>2026-04-25T10:33:51Z</time></trkpt><trkpt lat="44.0129841362893" lon="7.844572420704563"><ele>824.0</ele><time>2026-04-25T10:33:52Z</time></trkpt><trkpt lat="44.01293486081123" lon="7.8447061050981715"><ele>828.0</ele><time>2026-04-25T10:33:53Z</time></trkpt><trkpt lat="44.01286256602827" lon="7.844833559828372"><ele>828.0</ele><time>2026-04-25T10:33:54Z</time></trkpt><trkpt lat="44.01277087765112" lon="7.844981490652075"><ele>828.0</ele><time>2026-04-25T10:33:55Z</time></trkpt><trkpt lat="44.01267853761658" lon="7.84509583788048"><ele>828.0</ele><time>2026-04-25T10:33:56Z</time></trkpt><trkpt lat="44.012610442508674" lon="7.845220372624737"><ele>828.0</ele><time>2026-04-25T10:33:57Z</time></trkpt><trkpt lat="44.01253583806159" lon="7.845363657726975"><ele>827.25</ele><time>2026-04-25T10:33:58Z</time></trkpt><trkpt lat="44.012493327891654" lon="7.845538944272161"><ele>826.5</ele><time>2026-04-25T10:33:59Z</time></trkpt><trkpt lat="44.0124724495017" lon="7.845717230323222"><ele>825.75</ele><time>2026-04-25T10:34:00Z</time></trkpt><trkpt lat="44.01243181821751" lon="7.845861513949756"><ele>825.0</ele><time>2026-04-25T10:34:01Z</time></trkpt><trkpt lat="44.01237626117082" lon="7.845984191399112"><ele>825.0</ele><time>2026-04-25T10:34:02Z</time></trkpt><trkpt lat="44.01230225053746" lon="7.846021384975329"><ele>825.0</ele><time>2026-04-25T10:34:04Z</time></trkpt><trkpt lat="44.01225994470798" lon="7.84592006562995"><ele>825.0</ele><time>2026-04-25T10:34:05Z</time></trkpt><trkpt lat="44.01227582168391" lon="7.8458017195063405"><ele>825.0</ele><time>2026-04-25T10:34:06Z</time></trkpt><trkpt lat="44.012335576464984" lon="7.845646592734055"><ele>825.0</ele><time>2026-04-25T10:34:07Z</time></trkpt><trkpt lat="44.012363279368785" lon="7.8454767456820385"><ele>825.0</ele><time>2026-04-25T10:34:08Z</time></trkpt><trkpt lat="44.012427229619796" lon="7.845270319477717"><ele>825.0</ele><time>2026-04-25T10:34:09Z</time></trkpt><trkpt lat="44.01248807998606" lon="7.845074590179308"><ele>825.0</ele><time>2026-04-25T10:34:10Z</time></trkpt><trkpt lat="44.01254978963847" lon="7.844864846311524"><ele>826.0</ele><time>2026-04-25T10:34:11Z</time></trkpt><trkpt lat="44.01261375891519" lon="7.844619563742522"><ele>827.0</ele><time>2026-04-25T10:34:12Z</time></trkpt><trkpt lat="44.01267296196631" lon="7.844387026982899"><ele>828.0</ele><time>2026-04-25T10:34:13Z</time></trkpt><trkpt lat="44.01273868983268" lon="7.844157379967674"><ele>832.0</ele><time>2026-04-25T10:34:14Z</time></trkpt><trkpt lat="44.012805071963264" lon="7.843941399254488"><ele>836.0</ele><time>2026-04-25T10:34:15Z</time></trkpt><trkpt lat="44.01285835814889" lon="7.843733676305926"><ele>840.0</ele><time>2026-04-25T10:34:16Z</time></trkpt><trkpt lat="44.012930283607474" lon="7.843563506561127"><ele>844.25</ele><time>2026-04-25T10:34:17Z</time></trkpt><trkpt lat="44.012975697768105" lon="7.843398571664047"><ele>848.5</ele><time>2026-04-25T10:34:18Z</time></trkpt><trkpt lat="44.01298864849565" lon="7.8432180952406965"><ele>852.75</ele><time>2026-04-25T10:34:19Z</time></trkpt><trkpt lat="44.01297516157674" lon="7.843053602668128"><ele>857.0</ele><time>2026-04-25T10:34:20Z</time></trkpt><trkpt lat="44.012951518327824" lon="7.8428958872624275"><ele>857.0000000000001</ele><time>2026-04-25T10:34:21Z</time></trkpt><trkpt lat="44.01296283784832" lon="7.842758831196531"><ele>857.0</ele><time>2026-04-25T10:34:22Z</time></trkpt><trkpt lat="44.013001764519174" lon="7.8426856810486125"><ele>857.0</ele><time>2026-04-25T10:34:23Z</time></trkpt><trkpt lat="44.01310546958576" lon="7.842714411651534"><ele>857.0</ele><time>2026-04-25T10:34:24Z</time></trkpt><trkpt lat="44.013188194256166" lon="7.842745966785433"><ele>857.0000000000001</ele><time>2026-04-25T10:34:26Z</time></trkpt><trkpt lat="44.013255198532775" lon="7.842718851351073"><ele>857.0</ele><time>2026-04-25T10:34:27Z</time></trkpt><trkpt lat="44.01332042426277" lon="7.8427993672858785"><ele>849.0</ele><time>2026-04-25T10:34:28Z</time></trkpt><trkpt lat="44.01339576201896" lon="7.842945827011423"><ele>841.0</ele><time>2026-04-25T10:34:29Z</time></trkpt><trkpt lat="44.013585144147996" lon="7.842968367291088"><ele>833.0</ele><time>2026-04-25T10:34:30Z</time></trkpt><trkpt lat="44.01370643279309" lon="7.8428842904505816"><ele>833.0</ele><time>2026-04-25T10:34:31Z</time></trkpt><trkpt lat="44.01372935471194" lon="7.842689320666479"><ele>833.0</ele><time>2026-04-25T10:34:32Z</time></trkpt><trkpt lat="44.01347979349623" lon="7.842723420167911"><ele>833.0</ele><time>2026-04-25T10:34:33Z</time></trkpt><trkpt lat="44.01330251798294" lon="7.842719799332278"><ele>839.0</ele><time>2026-04-25T10:34:35Z</time></trkpt><trkpt lat="44.013195154561615" lon="7.8426729287729575"><ele>845.0</ele><time>2026-04-25T10:34:36Z</time></trkpt><trkpt lat="44.01311453022501" lon="7.842470478916375"><ele>851.0</ele><time>2026-04-25T10:34:37Z</time></trkpt><trkpt lat="44.01302392035602" lon="7.842403603562755"><ele>857.0</ele><time>2026-04-25T10:34:38Z</time></trkpt><trkpt lat="44.01288412298222" lon="7.842341384970967"><ele>857.0000000000001</ele><time>2026-04-25T10:34:39Z</time></trkpt><trkpt lat="44.01281627041418" lon="7.842370665421355"><ele>857.0</ele><time>2026-04-25T10:34:40Z</time></trkpt><trkpt lat="44.012762091090046" lon="7.842437152679202"><ele>857.0</ele><time>2026-04-25T10:34:41Z</time></trkpt><trkpt lat="44.012699384421346" lon="7.842517516815921"><ele>857.0</ele><time>2026-04-25T10:34:42Z</time></trkpt><trkpt lat="44.01268200538002" lon="7.842625822934523"><ele>857.0000000000001</ele><time>2026-04-25T10:34:43Z</time></trkpt><trkpt lat="44.01261501649004" lon="7.842776367907523"><ele>857.0</ele><time>2026-04-25T10:34:44Z</time></trkpt><trkpt lat="44.01252279327621" lon="7.842964768968726"><ele>862.3333333333334</ele><time>2026-04-25T10:34:45Z</time></trkpt><trkpt lat="44.01243312482031" lon="7.843146885642959"><ele>867.6666666666667</ele><time>2026-04-25T10:34:46Z</time></trkpt><trkpt lat="44.01234264487332" lon="7.8433287433895"><ele>873.0</ele><time>2026-04-25T10:34:47Z</time></trkpt><trkpt lat="44.012225902077994" lon="7.843547525461678"><ele>873.0</ele><time>2026-04-25T10:34:48Z</time></trkpt><trkpt lat="44.012119139828464" lon="7.843749568249214"><ele>873.0</ele><time>2026-04-25T10:34:49Z</time></trkpt><trkpt lat="44.01202951943399" lon="7.843959214456846"><ele>873.0</ele><time>2026-04-25T10:34:50Z</time></trkpt><trkpt lat="44.01192124263382" lon="7.844121376463013"><ele>873.0</ele><time>2026-04-25T10:34:51Z</time></trkpt><trkpt lat="44.01183452926484" lon="7.844264340316542"><ele>873.0</ele><time>2026-04-25T10:34:52Z</time></trkpt><trkpt lat="44.01173713117578" lon="7.844413458070747"><ele>873.0</ele><time>2026-04-25T10:34:53Z</time></trkpt><trkpt lat="44.01165351031926" lon="7.844517209367589"><ele>873.0</ele><time>2026-04-25T10:34:54Z</time></trkpt><trkpt lat="44.01158268915903" lon="7.844590205277541"><ele>870.25</ele><time>2026-04-25T10:34:55Z</time></trkpt><trkpt lat="44.01149739963209" lon="7.844668418303907"><ele>867.5</ele><time>2026-04-25T10:34:56Z</time></trkpt><trkpt lat="44.01137931095029" lon="7.844706131082218"><ele>864.75</ele><time>2026-04-25T10:34:57Z</time></trkpt><trkpt lat="44.0112261766368" lon="7.844705510411242"><ele>862.0</ele><time>2026-04-25T10:34:58Z</time></trkpt><trkpt lat="44.01107797169673" lon="7.844734175871401"><ele>862.0</ele><time>2026-04-25T10:34:59Z</time></trkpt><trkpt lat="44.01094231620143" lon="7.844772839747426"><ele>862.0</ele><time>2026-04-25T10:35:00Z</time></trkpt><trkpt lat="44.01083192347337" lon="7.844790083224345"><ele>862.0</ele><time>2026-04-25T10:35:01Z</time></trkpt><trkpt lat="44.01073306353914" lon="7.844767093491067"><ele>862.0</ele><time>2026-04-25T10:35:02Z</time></trkpt><trkpt lat="44.010607852572264" lon="7.844733233650918"><ele>862.2</ele><time>2026-04-25T10:35:03Z</time></trkpt><trkpt lat="44.01049363724914" lon="7.844674350726042"><ele>862.4000000000001</ele><time>2026-04-25T10:35:04Z</time></trkpt><trkpt lat="44.01040428184942" lon="7.844616367051382"><ele>862.5999999999999</ele><time>2026-04-25T10:35:05Z</time></trkpt><trkpt lat="44.0103239163535" lon="7.844503821549167"><ele>862.8</ele><time>2026-04-25T10:35:07Z</time></trkpt><trkpt lat="44.01037958066449" lon="7.844405551306517"><ele>863.0</ele><time>2026-04-25T10:35:08Z</time></trkpt><trkpt lat="44.01045828881451" lon="7.844392812417647"><ele>863.0</ele><time>2026-04-25T10:35:09Z</time></trkpt><trkpt lat="44.01054465677861" lon="7.844491367026428"><ele>863.0</ele><time>2026-04-25T10:35:10Z</time></trkpt><trkpt lat="44.01064414621842" lon="7.844543372731728"><ele>863.0</ele><time>2026-04-25T10:35:11Z</time></trkpt><trkpt lat="44.01073416371535" lon="7.8446151400233735"><ele>863.0</ele><time>2026-04-25T10:35:12Z</time></trkpt><trkpt lat="44.01084687777865" lon="7.844639738946738"><ele>863.0</ele><time>2026-04-25T10:35:13Z</time></trkpt><trkpt lat="44.01095348296773" lon="7.844630461720405"><ele>862.75</ele><time>2026-04-25T10:35:14Z</time></trkpt><trkpt lat="44.01108350292186" lon="7.8445796158274215"><ele>862.5</ele><time>2026-04-25T10:35:15Z</time></trkpt><trkpt lat="44.01118625462996" lon="7.8444619856166735"><ele>862.25</ele><time>2026-04-25T10:35:16Z</time></trkpt><trkpt lat="44.01127872068368" lon="7.844353615409936"><ele>862.0</ele><time>2026-04-25T10:35:17Z</time></trkpt><trkpt lat="44.01135735542827" lon="7.8442009830605715"><ele>864.75</ele><time>2026-04-25T10:35:18Z</time></trkpt><trkpt lat="44.01145601403878" lon="7.84409303134296"><ele>867.5</ele><time>2026-04-25T10:35:19Z</time></trkpt><trkpt lat="44.01154169619663" lon="7.843992709354003"><ele>870.25</ele><time>2026-04-25T10:35:20Z</time></trkpt><trkpt lat="44.01164470864902" lon="7.84391110445372"><ele>873.0</ele><time>2026-04-25T10:35:21Z</time></trkpt><trkpt lat="44.011711424224245" lon="7.843774770329146"><ele>873.0</ele><time>2026-04-25T10:35:22Z</time></trkpt><trkpt lat="44.01177651166214" lon="7.843603945111375"><ele>873.0</ele><time>2026-04-25T10:35:23Z</time></trkpt><trkpt lat="44.011840404163884" lon="7.843416294035552"><ele>873.0</ele><time>2026-04-25T10:35:24Z</time></trkpt><trkpt lat="44.011900152469515" lon="7.8432231059204796"><ele>873.0</ele><time>2026-04-25T10:35:25Z</time></trkpt><trkpt lat="44.01196017298789" lon="7.843008175425033"><ele>879.6666666666667</ele><time>2026-04-25T10:35:26Z</time></trkpt><trkpt lat="44.01203069407598" lon="7.842790546619287"><ele>886.3333333333334</ele><time>2026-04-25T10:35:27Z</time></trkpt><trkpt lat="44.01211826888413" lon="7.842581053913251"><ele>893.0</ele><time>2026-04-25T10:35:28Z</time></trkpt><trkpt lat="44.01220149399775" lon="7.842394514865733"><ele>894.5</ele><time>2026-04-25T10:35:29Z</time></trkpt><trkpt lat="44.012296063608055" lon="7.842226347622392"><ele>896.0</ele><time>2026-04-25T10:35:30Z</time></trkpt><trkpt lat="44.01237444798138" lon="7.842051284131274"><ele>897.5</ele><time>2026-04-25T10:35:31Z</time></trkpt><trkpt lat="44.01244223837269" lon="7.841892095424932"><ele>899.0</ele><time>2026-04-25T10:35:32Z</time></trkpt><trkpt lat="44.01250656722223" lon="7.841760551846846"><ele>899.0000000000001</ele><time>2026-04-25T10:35:33Z</time></trkpt><trkpt lat="44.012562443980364" lon="7.8416561740431385"><ele>899.0</ele><time>2026-04-25T10:35:34Z</time></trkpt><trkpt lat="44.01259206534192" lon="7.841573512385044"><ele>899.0</ele><time>2026-04-25T10:35:35Z</time></trkpt><trkpt lat="44.01253088396651" lon="7.8414528892339135"><ele>899.0</ele><time>2026-04-25T10:35:37Z</time></trkpt><trkpt lat="44.01245656317593" lon="7.841453438260729"><ele>899.0000000000001</ele><time>2026-04-25T10:35:38Z</time></trkpt><trkpt lat="44.01238205786627" lon="7.841508799869414"><ele>899.0</ele><time>2026-04-25T10:35:39Z</time></trkpt><trkpt lat="44.0123393896243" lon="7.841666021855602"><ele>901.75</ele><time>2026-04-25T10:35:40Z</time></trkpt><trkpt lat="44.012285577449205" lon="7.841792613493288"><ele>904.5</ele><time>2026-04-25T10:35:41Z</time></trkpt><trkpt lat="44.01221651164775" lon="7.841925882035804"><ele>907.25</ele><time>2026-04-25T10:35:42Z</time></trkpt><trkpt lat="44.012122671788966" lon="7.842061467574105"><ele>910.0</ele><time>2026-04-25T10:35:43Z</time></trkpt><trkpt lat="44.01200757790183" lon="7.842207733734272"><ele>910.0</ele><time>2026-04-25T10:35:44Z</time></trkpt><trkpt lat="44.01189280064682" lon="7.842346857686234"><ele>910.0</ele><time>2026-04-25T10:35:45Z</time></trkpt><trkpt lat="44.01175934012276" lon="7.842505254757409"><ele>910.0</ele><time>2026-04-25T10:35:46Z</time></trkpt><trkpt lat="44.01163760728859" lon="7.842643522737556"><ele>909.3333333333333</ele><time>2026-04-25T10:35:47Z</time></trkpt><trkpt lat="44.01149792835875" lon="7.84278894904457"><ele>908.6666666666667</ele><time>2026-04-25T10:35:48Z</time></trkpt><trkpt lat="44.01138830196298" lon="7.8428894306309"><ele>908.0</ele><time>2026-04-25T10:35:49Z</time></trkpt><trkpt lat="44.01126538934698" lon="7.8429933560080505"><ele>908.0</ele><time>2026-04-25T10:35:50Z</time></trkpt><trkpt lat="44.011110379340145" lon="7.843112969690016"><ele>908.0</ele><time>2026-04-25T10:35:51Z</time></trkpt><trkpt lat="44.01097016702622" lon="7.843213077206514"><ele>908.0</ele><time>2026-04-25T10:35:52Z</time></trkpt><trkpt lat="44.01085786331406" lon="7.843280860179001"><ele>906.5000000000001</ele><time>2026-04-25T10:35:53Z</time></trkpt><trkpt lat="44.01075503139348" lon="7.843328299110787"><ele>905.0</ele><time>2026-04-25T10:35:54Z</time></trkpt><trkpt lat="44.01066398396959" lon="7.843358573296562"><ele>903.5</ele><time>2026-04-25T10:35:55Z</time></trkpt><trkpt lat="44.0105849142194" lon="7.843371762964365"><ele>902.0</ele><time>2026-04-25T10:35:56Z</time></trkpt><trkpt lat="44.01051560193649" lon="7.843353199515084"><ele>900.5000000000001</ele><time>2026-04-25T10:35:57Z</time></trkpt><trkpt lat="44.010472502089435" lon="7.8432892033558"><ele>899.0</ele><time>2026-04-25T10:35:58Z</time></trkpt><trkpt lat="44.010482368507766" lon="7.843198471769526"><ele>899.0</ele><time>2026-04-25T10:35:59Z</time></trkpt><trkpt lat="44.01055178899201" lon="7.843136898401726"><ele>899.0000000000001</ele><time>2026-04-25T10:36:00Z</time></trkpt><trkpt lat="44.01064534987875" lon="7.843155887232425"><ele>899.0000000000001</ele><time>2026-04-25T10:36:01Z</time></trkpt><trkpt lat="44.01074859773378" lon="7.843196082965942"><ele>899.0</ele><time>2026-04-25T10:36:02Z</time></trkpt><trkpt lat="44.010850592812254" lon="7.84317745748349"><ele>899.0</ele><time>2026-04-25T10:36:03Z</time></trkpt><trkpt lat="44.01091389365517" lon="7.843100910521445"><ele>901.25</ele><time>2026-04-25T10:36:04Z</time></trkpt><trkpt lat="44.0110025521979" lon="7.84300040295099"><ele>903.5</ele><time>2026-04-25T10:36:05Z</time></trkpt><trkpt lat="44.01109420559604" lon="7.842866083758739"><ele>905.75</ele><time>2026-04-25T10:36:06Z</time></trkpt><trkpt lat="44.01113514445306" lon="7.842658726411562"><ele>908.0</ele><time>2026-04-25T10:36:07Z</time></trkpt><trkpt lat="44.01120562374718" lon="7.842488223555879"><ele>912.75</ele><time>2026-04-25T10:36:08Z</time></trkpt><trkpt lat="44.0112778329849" lon="7.842338374689723"><ele>917.5</ele><time>2026-04-25T10:36:09Z</time></trkpt><trkpt lat="44.011369844842804" lon="7.84217254101792"><ele>922.25</ele><time>2026-04-25T10:36:10Z</time></trkpt><trkpt lat="44.0114874044925" lon="7.8420160265249494"><ele>927.0</ele><time>2026-04-25T10:36:11Z</time></trkpt><trkpt lat="44.01158741768921" lon="7.841860450275612"><ele>927.75</ele><time>2026-04-25T10:36:12Z</time></trkpt><trkpt lat="44.01168942857063" lon="7.84171397937591"><ele>928.5</ele><time>2026-04-25T10:36:13Z</time></trkpt><trkpt lat="44.011776745295855" lon="7.841554516256223"><ele>929.25</ele><time>2026-04-25T10:36:14Z</time></trkpt><trkpt lat="44.01186841795008" lon="7.84140711132032"><ele>930.0</ele><time>2026-04-25T10:36:15Z</time></trkpt><trkpt lat="44.0119415756951" lon="7.841259409366626"><ele>930.0</ele><time>2026-04-25T10:36:16Z</time></trkpt><trkpt lat="44.012007306733764" lon="7.841118506461833"><ele>930.0</ele><time>2026-04-25T10:36:17Z</time></trkpt><trkpt lat="44.012075809790595" lon="7.840968279777716"><ele>930.0</ele><time>2026-04-25T10:36:18Z</time></trkpt><trkpt lat="44.012148315783094" lon="7.840793268504683"><ele>930.0</ele><time>2026-04-25T10:36:19Z</time></trkpt><trkpt lat="44.01220648837712" lon="7.8406134086134065"><ele>932.25</ele><time>2026-04-25T10:36:20Z</time></trkpt><trkpt lat="44.01228210020971" lon="7.8404556495656985"><ele>934.5</ele><time>2026-04-25T10:36:21Z</time></trkpt><trkpt lat="44.012387180565526" lon="7.84034049042847"><ele>936.75</ele><time>2026-04-25T10:36:22Z</time></trkpt><trkpt lat="44.01249124825133" lon="7.840196899489678"><ele>939.0</ele><time>2026-04-25T10:36:23Z</time></trkpt><trkpt lat="44.01259412518114" lon="7.840045450797509"><ele>939.0</ele><time>2026-04-25T10:36:24Z</time></trkpt><trkpt lat="44.012680739294" lon="7.8399056333937525"><ele>939.0000000000001</ele><time>2026-04-25T10:36:25Z</time></trkpt><trkpt lat="44.012757100159256" lon="7.8398012467413665"><ele>939.0000000000001</ele><time>2026-04-25T10:36:26Z</time></trkpt><trkpt lat="44.01284221870546" lon="7.839704492598324"><ele>939.0</ele><time>2026-04-25T10:36:27Z</time></trkpt><trkpt lat="44.01288599472056" lon="7.839597749255063"><ele>939.0</ele><time>2026-04-25T10:36:28Z</time></trkpt><trkpt lat="44.01291449675839" lon="7.839445008306948"><ele>939.0</ele><time>2026-04-25T10:36:30Z</time></trkpt><trkpt lat="44.012847185506665" lon="7.8394144152256064"><ele>939.0000000000001</ele><time>2026-04-25T10:36:31Z</time></trkpt><trkpt lat="44.01275756755718" lon="7.8394361852752175"><ele>939.0000000000001</ele><time>2026-04-25T10:36:32Z</time></trkpt><trkpt lat="44.01266732997455" lon="7.839562875159872"><ele>939.0</ele><time>2026-04-25T10:36:33Z</time></trkpt><trkpt lat="44.01259758632205" lon="7.839671577271128"><ele>939.0</ele><time>2026-04-25T10:36:34Z</time></trkpt><trkpt lat="44.01252137059581" lon="7.839804718810374"><ele>941.5</ele><time>2026-04-25T10:36:35Z</time></trkpt><trkpt lat="44.01244180904699" lon="7.839944829991217"><ele>944.0</ele><time>2026-04-25T10:36:36Z</time></trkpt><trkpt lat="44.01237150052218" lon="7.840043032008773"><ele>946.5</ele><time>2026-04-25T10:36:37Z</time></trkpt><trkpt lat="44.012273166596835" lon="7.840144261478708"><ele>949.0</ele><time>2026-04-25T10:36:38Z</time></trkpt><trkpt lat="44.01214823698739" lon="7.840287743693197"><ele>949.0</ele><time>2026-04-25T10:36:39Z</time></trkpt><trkpt lat="44.012007304036345" lon="7.840429903965127"><ele>949.0</ele><time>2026-04-25T10:36:40Z</time></trkpt><trkpt lat="44.01185291512455" lon="7.840553762024939"><ele>949.0</ele><time>2026-04-25T10:36:41Z</time></trkpt><trkpt lat="44.01172445327455" lon="7.840669592278484"><ele>948.0</ele><time>2026-04-25T10:36:42Z</time></trkpt><trkpt lat="44.01161033547002" lon="7.8407789934085965"><ele>947.0</ele><time>2026-04-25T10:36:43Z</time></trkpt><trkpt lat="44.01151903224372" lon="7.840891282277228"><ele>946.0</ele><time>2026-04-25T10:36:44Z</time></trkpt><trkpt lat="44.011430790279654" lon="7.840997492872636"><ele>945.0</ele><time>2026-04-25T10:36:45Z</time></trkpt><trkpt lat="44.011351161777284" lon="7.841128641297294"><ele>945.0</ele><time>2026-04-25T10:36:46Z</time></trkpt><trkpt lat="44.011267777708" lon="7.841216958285223"><ele>945.0</ele><time>2026-04-25T10:36:47Z</time></trkpt><trkpt lat="44.011190705279645" lon="7.841297751294205"><ele>945.0</ele><time>2026-04-25T10:36:48Z</time></trkpt><trkpt lat="44.01105238020874" lon="7.841364401286839"><ele>945.0</ele><time>2026-04-25T10:36:49Z</time></trkpt><trkpt lat="44.01090696885943" lon="7.841427866407552"><ele>945.75</ele><time>2026-04-25T10:36:50Z</time></trkpt><trkpt lat="44.01076393459957" lon="7.841434822452006"><ele>946.5</ele><time>2026-04-25T10:36:51Z</time></trkpt><trkpt lat="44.01064246359666" lon="7.841452529175735"><ele>947.25</ele><time>2026-04-25T10:36:52Z</time></trkpt><trkpt lat="44.0105312790071" lon="7.8414430234703945"><ele>948.0</ele><time>2026-04-25T10:36:53Z</time></trkpt><trkpt lat="44.01042648994912" lon="7.841376935707207"><ele>948.0</ele><time>2026-04-25T10:36:54Z</time></trkpt><trkpt lat="44.01032130169423" lon="7.841273582742045"><ele>948.0</ele><time>2026-04-25T10:36:55Z</time></trkpt><trkpt lat="44.01024598518428" lon="7.841189014173004"><ele>948.0</ele><time>2026-04-25T10:36:56Z</time></trkpt><trkpt lat="44.010148711638955" lon="7.841243176235214"><ele>948.0</ele><time>2026-04-25T10:36:57Z</time></trkpt><trkpt lat="44.01002426110921" lon="7.841301528071055"><ele>953.0</ele><time>2026-04-25T10:36:58Z</time></trkpt><trkpt lat="44.00989686132595" lon="7.841313789337592"><ele>958.0</ele><time>2026-04-25T10:36:59Z</time></trkpt><trkpt lat="44.00976348419183" lon="7.8413413431164845"><ele>963.0</ele><time>2026-04-25T10:37:00Z</time></trkpt><trkpt lat="44.0096532023035" lon="7.841382791460115"><ele>968.0</ele><time>2026-04-25T10:37:01Z</time></trkpt><trkpt lat="44.00955896956905" lon="7.841372422564572"><ele>968.0</ele><time>2026-04-25T10:37:02Z</time></trkpt><trkpt lat="44.00948262808678" lon="7.8413743431919904"><ele>968.0</ele><time>2026-04-25T10:37:03Z</time></trkpt><trkpt lat="44.009364428790505" lon="7.841429719729967"><ele>968.0</ele><time>2026-04-25T10:37:04Z</time></trkpt><trkpt lat="44.00924177445253" lon="7.84153470364105"><ele>968.0</ele><time>2026-04-25T10:37:05Z</time></trkpt><trkpt lat="44.009120086982634" lon="7.841607788917664"><ele>973.25</ele><time>2026-04-25T10:37:06Z</time></trkpt><trkpt lat="44.008997325618175" lon="7.84172946154287"><ele>978.5</ele><time>2026-04-25T10:37:07Z</time></trkpt><trkpt lat="44.00888705988557" lon="7.841866848301182"><ele>983.75</ele><time>2026-04-25T10:37:08Z</time></trkpt><trkpt lat="44.00877544359169" lon="7.841986577640633"><ele>989.0</ele><time>2026-04-25T10:37:09Z</time></trkpt><trkpt lat="44.00868212421929" lon="7.842096751318526"><ele>989.0</ele><time>2026-04-25T10:37:10Z</time></trkpt><trkpt lat="44.00860686663099" lon="7.842212421094903"><ele>989.0000000000001</ele><time>2026-04-25T10:37:11Z</time></trkpt><trkpt lat="44.008552956588524" lon="7.842315802059183"><ele>989.0000000000001</ele><time>2026-04-25T10:37:12Z</time></trkpt><trkpt lat="44.00851848830256" lon="7.842466610383563"><ele>989.0</ele><time>2026-04-25T10:37:13Z</time></trkpt><trkpt lat="44.008503551045834" lon="7.842648396277361"><ele>989.0</ele><time>2026-04-25T10:37:14Z</time></trkpt><trkpt lat="44.00849438236548" lon="7.842857851246533"><ele>986.75</ele><time>2026-04-25T10:37:15Z</time></trkpt><trkpt lat="44.00847920303345" lon="7.843039171903304"><ele>984.5</ele><time>2026-04-25T10:37:16Z</time></trkpt><trkpt lat="44.00845184460648" lon="7.843205351735515"><ele>982.25</ele><time>2026-04-25T10:37:17Z</time></trkpt><trkpt lat="44.00841133652421" lon="7.843361042735356"><ele>980.0</ele><time>2026-04-25T10:37:18Z</time></trkpt><trkpt lat="44.00836697997348" lon="7.843490254406659"><ele>979.75</ele><time>2026-04-25T10:37:19Z</time></trkpt><trkpt lat="44.00831556435938" lon="7.843617884254754"><ele>979.5</ele><time>2026-04-25T10:37:20Z</time></trkpt><trkpt lat="44.008225189875816" lon="7.8437048048173095"><ele>979.25</ele><time>2026-04-25T10:37:21Z</time></trkpt><trkpt lat="44.008104679234876" lon="7.843788521980902"><ele>979.0</ele><time>2026-04-25T10:37:22Z</time></trkpt><trkpt lat="44.007959683867526" lon="7.843858725101684"><ele>979.0</ele><time>2026-04-25T10:37:23Z</time></trkpt><trkpt lat="44.00782816240286" lon="7.843958260104363"><ele>979.0</ele><time>2026-04-25T10:37:24Z</time></trkpt><trkpt lat="44.00768615762373" lon="7.844058472552602"><ele>979.0</ele><time>2026-04-25T10:37:25Z</time></trkpt><trkpt lat="44.007550880663466" lon="7.8441613889575175"><ele>976.0</ele><time>2026-04-25T10:37:26Z</time></trkpt><trkpt lat="44.00742442449659" lon="7.844236134373863"><ele>973.0</ele><time>2026-04-25T10:37:27Z</time></trkpt><trkpt lat="44.007311904196726" lon="7.844269003691661"><ele>970.0</ele><time>2026-04-25T10:37:28Z</time></trkpt><trkpt lat="44.007194955306716" lon="7.844313899491077"><ele>967.0</ele><time>2026-04-25T10:37:29Z</time></trkpt><trkpt lat="44.007048742948804" lon="7.8443150677701095"><ele>967.0</ele><time>2026-04-25T10:37:30Z</time></trkpt><trkpt lat="44.00692023918172" lon="7.84428983902986"><ele>967.0</ele><time>2026-04-25T10:37:31Z</time></trkpt><trkpt lat="44.006812042587" lon="7.844264131217985"><ele>967.0</ele><time>2026-04-25T10:37:32Z</time></trkpt><trkpt lat="44.006759826906865" lon="7.844188634995791"><ele>967.0</ele><time>2026-04-25T10:37:33Z</time></trkpt><trkpt lat="44.006740469008754" lon="7.8440732892033065"><ele>967.0</ele><time>2026-04-25T10:37:34Z</time></trkpt><trkpt lat="44.00668606800052" lon="7.843935208851049"><ele>961.0</ele><time>2026-04-25T10:37:35Z</time></trkpt><trkpt lat="44.00666002982814" lon="7.843774118879247"><ele>955.0</ele><time>2026-04-25T10:37:36Z</time></trkpt><trkpt lat="44.00660063962833" lon="7.843584735967563"><ele>949.0</ele><time>2026-04-25T10:37:37Z</time></trkpt><trkpt lat="44.006548119025965" lon="7.8433779516667395"><ele>943.0</ele><time>2026-04-25T10:37:38Z</time></trkpt><trkpt lat="44.006495872399064" lon="7.843174006274328"><ele>943.0</ele><time>2026-04-25T10:37:39Z</time></trkpt><trkpt lat="44.00642900428367" lon="7.843012850641007"><ele>943.0</ele><time>2026-04-25T10:37:40Z</time></trkpt><trkpt lat="44.006310244469724" lon="7.842924728372715"><ele>943.0</ele><time>2026-04-25T10:37:41Z</time></trkpt><trkpt lat="44.00623746928141" lon="7.842810755420942"><ele>943.0</ele><time>2026-04-25T10:37:42Z</time></trkpt><trkpt lat="44.006168499233524" lon="7.842731783825166"><ele>951.75</ele><time>2026-04-25T10:37:43Z</time></trkpt><trkpt lat="44.00611689711766" lon="7.842614978664151"><ele>960.5</ele><time>2026-04-25T10:37:44Z</time></trkpt><trkpt lat="44.00606628712522" lon="7.842443684968711"><ele>969.25</ele><time>2026-04-25T10:37:45Z</time></trkpt><trkpt lat="44.0060205301914" lon="7.8422453251173145"><ele>978.0</ele><time>2026-04-25T10:37:46Z</time></trkpt><trkpt lat="44.00595682020066" lon="7.8420630741316035"><ele>978.0</ele><time>2026-04-25T10:37:47Z</time></trkpt><trkpt lat="44.005875784014606" lon="7.841915365261943"><ele>978.0</ele><time>2026-04-25T10:37:48Z</time></trkpt><trkpt lat="44.005750505616234" lon="7.841811142836186"><ele>978.0</ele><time>2026-04-25T10:37:49Z</time></trkpt><trkpt lat="44.005656937944195" lon="7.841677644382931"><ele>978.0</ele><time>2026-04-25T10:37:50Z</time></trkpt><trkpt lat="44.00557167854187" lon="7.841541431710163"><ele>975.75</ele><time>2026-04-25T10:37:51Z</time></trkpt><trkpt lat="44.005505667157564" lon="7.841371535314865"><ele>973.5</ele><time>2026-04-25T10:37:52Z</time></trkpt><trkpt lat="44.00544074347309" lon="7.841192040144736"><ele>971.25</ele><time>2026-04-25T10:37:53Z</time></trkpt><trkpt lat="44.00537397954203" lon="7.841022607559107"><ele>969.0</ele><time>2026-04-25T10:37:54Z</time></trkpt><trkpt lat="44.00530312750895" lon="7.840890217455439"><ele>973.25</ele><time>2026-04-25T10:37:55Z</time></trkpt><trkpt lat="44.0052261317693" lon="7.840755597974593"><ele>977.5</ele><time>2026-04-25T10:37:56Z</time></trkpt><trkpt lat="44.0051333270532" lon="7.840603879227894"><ele>981.75</ele><time>2026-04-25T10:37:57Z</time></trkpt><trkpt lat="44.00501762885063" lon="7.84047653511468"><ele>986.0</ele><time>2026-04-25T10:37:58Z</time></trkpt><trkpt lat="44.00490436613236" lon="7.840358342815085"><ele>986.0</ele><time>2026-04-25T10:37:59Z</time></trkpt><trkpt lat="44.00478864305811" lon="7.840287731038178"><ele>986.0</ele><time>2026-04-25T10:38:00Z</time></trkpt><trkpt lat="44.00465359510566" lon="7.840258488050696"><ele>986.0</ele><time>2026-04-25T10:38:01Z</time></trkpt><trkpt lat="44.00452129820341" lon="7.840223328246183"><ele>986.0</ele><time>2026-04-25T10:38:02Z</time></trkpt><trkpt lat="44.004430554399846" lon="7.84015311977144"><ele>988.4</ele><time>2026-04-25T10:38:03Z</time></trkpt><trkpt lat="44.004372185885266" lon="7.840062829439822"><ele>990.8</ele><time>2026-04-25T10:38:04Z</time></trkpt><trkpt lat="44.004288766453584" lon="7.839995079899644"><ele>993.1999999999999</ele><time>2026-04-25T10:38:05Z</time></trkpt><trkpt lat="44.004220159451236" lon="7.839866074990178"><ele>995.5999999999999</ele><time>2026-04-25T10:38:06Z</time></trkpt><trkpt lat="44.00412828942374" lon="7.839770731939595"><ele>998.0</ele><time>2026-04-25T10:38:07Z</time></trkpt><trkpt lat="44.00401637818042" lon="7.839700563102408"><ele>998.0</ele><time>2026-04-25T10:38:08Z</time></trkpt><trkpt lat="44.00394286675784" lon="7.839572168413647"><ele>998.0</ele><time>2026-04-25T10:38:09Z</time></trkpt><trkpt lat="44.00390456404148" lon="7.839435281245693"><ele>998.0</ele><time>2026-04-25T10:38:10Z</time></trkpt><trkpt lat="44.00388599455531" lon="7.839291482699146"><ele>998.0</ele><time>2026-04-25T10:38:11Z</time></trkpt><trkpt lat="44.00387974716589" lon="7.839139238438849"><ele>998.0</ele><time>2026-04-25T10:38:12Z</time></trkpt><trkpt lat="44.003882067348975" lon="7.83894198412455"><ele>1001.4</ele><time>2026-04-25T10:38:13Z</time></trkpt><trkpt lat="44.003897371343584" lon="7.83875645237261"><ele>1004.8</ele><time>2026-04-25T10:38:14Z</time></trkpt><trkpt lat="44.00389467691026" lon="7.838614378479892"><ele>1008.2</ele><time>2026-04-25T10:38:15Z</time></trkpt><trkpt lat="44.00387117657738" lon="7.838481856012916"><ele>1011.6</ele><time>2026-04-25T10:38:16Z</time></trkpt><trkpt lat="44.003815815718035" lon="7.838383461158476"><ele>1015.0</ele><time>2026-04-25T10:38:17Z</time></trkpt><trkpt lat="44.00373096625764" lon="7.838362432618257"><ele>1015.0</ele><time>2026-04-25T10:38:18Z</time></trkpt><trkpt lat="44.00364927630865" lon="7.838429651714007"><ele>1015.0</ele><time>2026-04-25T10:38:19Z</time></trkpt><trkpt lat="44.00357503203878" lon="7.838512706339602"><ele>1015.0</ele><time>2026-04-25T10:38:20Z</time></trkpt><trkpt lat="44.003487778886004" lon="7.838635036567799"><ele>1015.0</ele><time>2026-04-25T10:38:21Z</time></trkpt><trkpt lat="44.00339283760432" lon="7.838720962783774"><ele>1015.0</ele><time>2026-04-25T10:38:22Z</time></trkpt><trkpt lat="44.00327174271654" lon="7.838858443683001"><ele>1016.25</ele><time>2026-04-25T10:38:23Z</time></trkpt><trkpt lat="44.00312702542382" lon="7.8389276743681355"><ele>1017.5</ele><time>2026-04-25T10:38:24Z</time></trkpt><trkpt lat="44.00300203681777" lon="7.838896532829472"><ele>1018.75</ele><time>2026-04-25T10:38:25Z</time></trkpt><trkpt lat="44.00288441331161" lon="7.838854353393083"><ele>1020.0</ele><time>2026-04-25T10:38:26Z</time></trkpt><trkpt lat="44.00275720633481" lon="7.838756759332667"><ele>1020.0</ele><time>2026-04-25T10:38:27Z</time></trkpt><trkpt lat="44.00263859326335" lon="7.8386192402785655"><ele>1020.0</ele><time>2026-04-25T10:38:28Z</time></trkpt><trkpt lat="44.00250845347938" lon="7.8384688136316"><ele>1020.0</ele><time>2026-04-25T10:38:29Z</time></trkpt><trkpt lat="44.00236250370197" lon="7.838378104473594"><ele>1027.0</ele><time>2026-04-25T10:38:30Z</time></trkpt><trkpt lat="44.002209571950935" lon="7.838290542484084"><ele>1034.0</ele><time>2026-04-25T10:38:31Z</time></trkpt><trkpt lat="44.002048120617616" lon="7.838271230762466"><ele>1041.0</ele><time>2026-04-25T10:38:32Z</time></trkpt><trkpt lat="44.00189180248413" lon="7.838254330503428"><ele>1041.0</ele><time>2026-04-25T10:38:33Z</time></trkpt><trkpt lat="44.0017615999367" lon="7.838269206486641"><ele>1041.0</ele><time>2026-04-25T10:38:34Z</time></trkpt><trkpt lat="44.00164852881111" lon="7.838257890389881"><ele>1041.0</ele><time>2026-04-25T10:38:35Z</time></trkpt><trkpt lat="44.00150889758136" lon="7.838243963927052"><ele>1041.0</ele><time>2026-04-25T10:38:36Z</time></trkpt><trkpt lat="44.00139356998605" lon="7.838239461535823"><ele>1043.5</ele><time>2026-04-25T10:38:37Z</time></trkpt><trkpt lat="44.001277971145896" lon="7.838247454198303"><ele>1046.0</ele><time>2026-04-25T10:38:38Z</time></trkpt><trkpt lat="44.00118220733713" lon="7.8383902352545585"><ele>1048.5</ele><time>2026-04-25T10:38:39Z</time></trkpt><trkpt lat="44.0010974642436" lon="7.838555109092791"><ele>1051.0</ele><time>2026-04-25T10:38:40Z</time></trkpt><trkpt lat="44.00102220469372" lon="7.838744409435012"><ele>1051.0</ele><time>2026-04-25T10:38:41Z</time></trkpt><trkpt lat="44.00097624640895" lon="7.838934622332483"><ele>1051.0</ele><time>2026-04-25T10:38:42Z</time></trkpt><trkpt lat="44.00090958602397" lon="7.839084519130881"><ele>1051.0</ele><time>2026-04-25T10:38:43Z</time></trkpt><trkpt lat="44.00084802190006" lon="7.839203142508936"><ele>1051.0</ele><time>2026-04-25T10:38:44Z</time></trkpt><trkpt lat="44.00079333759789" lon="7.839289620352811"><ele>1056.6</ele><time>2026-04-25T10:38:45Z</time></trkpt><trkpt lat="44.0007152284027" lon="7.83933415142327"><ele>1062.1999999999998</ele><time>2026-04-25T10:38:46Z</time></trkpt><trkpt lat="44.00063529452892" lon="7.839373957974784"><ele>1067.8000000000002</ele><time>2026-04-25T10:38:47Z</time></trkpt><trkpt lat="44.00055279392205" lon="7.839418046040413"><ele>1073.4</ele><time>2026-04-25T10:38:48Z</time></trkpt><trkpt lat="44.00049048101262" lon="7.839575640699033"><ele>1079.0</ele><time>2026-04-25T10:38:50Z</time></trkpt><trkpt lat="44.00046709831715" lon="7.839739496148518"><ele>1079.0</ele><time>2026-04-25T10:38:51Z</time></trkpt><trkpt lat="44.000499937861996" lon="7.839898630175124"><ele>1079.0</ele><time>2026-04-25T10:38:52Z</time></trkpt><trkpt lat="44.00053296438946" lon="7.840072750929237"><ele>1079.0</ele><time>2026-04-25T10:38:53Z</time></trkpt><trkpt lat="44.00057026898008" lon="7.840269250372429"><ele>1079.0</ele><time>2026-04-25T10:38:54Z</time></trkpt><trkpt lat="44.00060206003968" lon="7.840446041892207"><ele>1077.0</ele><time>2026-04-25T10:38:55Z</time></trkpt><trkpt lat="44.00063212684807" lon="7.840595063075861"><ele>1075.0</ele><time>2026-04-25T10:38:56Z</time></trkpt><trkpt lat="44.0006465860864" lon="7.840746073820696"><ele>1073.0</ele><time>2026-04-25T10:38:57Z</time></trkpt><trkpt lat="44.00063515945229" lon="7.840895281522233"><ele>1071.0</ele><time>2026-04-25T10:38:58Z</time></trkpt><trkpt lat="44.000596777132564" lon="7.841049288447713"><ele>1069.0</ele><time>2026-04-25T10:38:59Z</time></trkpt><trkpt lat="44.000496401757594" lon="7.841176521787313"><ele>1064.2</ele><time>2026-04-25T10:39:00Z</time></trkpt><trkpt lat="44.00054190955547" lon="7.841340900030627"><ele>1059.4</ele><time>2026-04-25T10:39:01Z</time></trkpt><trkpt lat="44.000544631435154" lon="7.841466253255682"><ele>1054.6</ele><time>2026-04-25T10:39:02Z</time></trkpt><trkpt lat="44.00046680659063" lon="7.841544546316009"><ele>1049.8</ele><time>2026-04-25T10:39:03Z</time></trkpt><trkpt lat="44.000386407101374" lon="7.8415498900236535"><ele>1045.0</ele><time>2026-04-25T10:39:04Z</time></trkpt><trkpt lat="44.00028532860126" lon="7.841505286000086"><ele>1045.0</ele><time>2026-04-25T10:39:05Z</time></trkpt><trkpt lat="44.000155790327284" lon="7.841469820075766"><ele>1045.0</ele><time>2026-04-25T10:39:06Z</time></trkpt><trkpt lat="44.00001749205834" lon="7.841446448122631"><ele>1045.0</ele><time>2026-04-25T10:39:07Z</time></trkpt><trkpt lat="43.999876219988174" lon="7.841420486282195"><ele>1045.0</ele><time>2026-04-25T10:39:08Z</time></trkpt><trkpt lat="43.999771956021725" lon="7.841443084782421"><ele>1045.0</ele><time>2026-04-25T10:39:09Z</time></trkpt><trkpt lat="43.99970183232381" lon="7.84146227523221"><ele>1045.0</ele><time>2026-04-25T10:39:10Z</time></trkpt><trkpt lat="43.99963543525122" lon="7.841527932904303"><ele>1045.0</ele><time>2026-04-25T10:39:11Z</time></trkpt><trkpt lat="43.99962611323657" lon="7.841667275131346"><ele>1045.0</ele><time>2026-04-25T10:39:12Z</time></trkpt><trkpt lat="43.999696585319484" lon="7.841803787762297"><ele>1045.0</ele><time>2026-04-25T10:39:13Z</time></trkpt><trkpt lat="43.99977929239366" lon="7.841936922010386"><ele>1042.8</ele><time>2026-04-25T10:39:14Z</time></trkpt><trkpt lat="43.99985380045709" lon="7.84206673474754"><ele>1040.6</ele><time>2026-04-25T10:39:15Z</time></trkpt><trkpt lat="43.999887260353304" lon="7.842212033614814"><ele>1038.4</ele><time>2026-04-25T10:39:16Z</time></trkpt><trkpt lat="43.999924250514766" lon="7.842349973210589"><ele>1036.2</ele><time>2026-04-25T10:39:17Z</time></trkpt><trkpt lat="43.999913620753404" lon="7.84248732671046"><ele>1034.0</ele><time>2026-04-25T10:39:18Z</time></trkpt><trkpt lat="43.999867369668195" lon="7.842610559892938"><ele>1028.5</ele><time>2026-04-25T10:39:19Z</time></trkpt><trkpt lat="43.99973550611549" lon="7.842669888902571"><ele>1023.0</ele><time>2026-04-25T10:39:20Z</time></trkpt><trkpt lat="43.99965120006885" lon="7.842801673966404"><ele>1017.5</ele><time>2026-04-25T10:39:21Z</time></trkpt><trkpt lat="43.999562039789865" lon="7.842918503631748"><ele>1012.0</ele><time>2026-04-25T10:39:22Z</time></trkpt><trkpt lat="43.99947628842649" lon="7.842998794285379"><ele>1012.0</ele><time>2026-04-25T10:39:23Z</time></trkpt><trkpt lat="43.999384143880086" lon="7.843022797249335"><ele>1012.0</ele><time>2026-04-25T10:39:24Z</time></trkpt><trkpt lat="43.99926779905988" lon="7.843032532604466"><ele>1012.0</ele><time>2026-04-25T10:39:25Z</time></trkpt><trkpt lat="43.9991384971762" lon="7.84304542333162"><ele>1012.0</ele><time>2026-04-25T10:39:26Z</time></trkpt><trkpt lat="43.99903319003209" lon="7.843059729184965"><ele>1012.0</ele><time>2026-04-25T10:39:27Z</time></trkpt><trkpt lat="43.998934999254516" lon="7.843064258477667"><ele>1018.0</ele><time>2026-04-25T10:39:28Z</time></trkpt><trkpt lat="43.99885548539513" lon="7.843119658045042"><ele>1024.0</ele><time>2026-04-25T10:39:29Z</time></trkpt><trkpt lat="43.99882103278481" lon="7.843226077516175"><ele>1030.0</ele><time>2026-04-25T10:39:30Z</time></trkpt><trkpt lat="43.99882725177833" lon="7.843331683651171"><ele>1036.0</ele><time>2026-04-25T10:39:31Z</time></trkpt><trkpt lat="43.998877113321925" lon="7.843451331839098"><ele>1042.0</ele><time>2026-04-25T10:39:32Z</time></trkpt><trkpt lat="43.99896344517108" lon="7.843549041475108"><ele>1042.25</ele><time>2026-04-25T10:39:33Z</time></trkpt><trkpt lat="43.99907885757093" lon="7.843622625047326"><ele>1042.5</ele><time>2026-04-25T10:39:34Z</time></trkpt><trkpt lat="43.999167885372174" lon="7.843723633209695"><ele>1042.75</ele><time>2026-04-25T10:39:35Z</time></trkpt><trkpt lat="43.999257116223625" lon="7.843838700522769"><ele>1043.0</ele><time>2026-04-25T10:39:36Z</time></trkpt><trkpt lat="43.999325236910295" lon="7.8439244953868155"><ele>1033.8</ele><time>2026-04-25T10:39:37Z</time></trkpt><trkpt lat="43.99933761419107" lon="7.84403379494243"><ele>1024.6</ele><time>2026-04-25T10:39:38Z</time></trkpt><trkpt lat="43.999306051856685" lon="7.844153589238217"><ele>1015.4000000000001</ele><time>2026-04-25T10:39:39Z</time></trkpt><trkpt lat="43.99926643002802" lon="7.8443232325768015"><ele>1006.2</ele><time>2026-04-25T10:39:40Z</time></trkpt><trkpt lat="43.99925893082421" lon="7.844523697014265"><ele>997.0</ele><time>2026-04-25T10:39:41Z</time></trkpt><trkpt lat="43.999240769600604" lon="7.8447204172929705"><ele>996.0</ele><time>2026-04-25T10:39:42Z</time></trkpt><trkpt lat="43.99921319500796" lon="7.844905379569113"><ele>995.0</ele><time>2026-04-25T10:39:43Z</time></trkpt><trkpt lat="43.99919241790416" lon="7.8450700648586"><ele>994.0</ele><time>2026-04-25T10:39:44Z</time></trkpt><trkpt lat="43.99918070481135" lon="7.845228132943646"><ele>993.0</ele><time>2026-04-25T10:39:45Z</time></trkpt><trkpt lat="43.99920436603076" lon="7.845402145994218"><ele>995.75</ele><time>2026-04-25T10:39:46Z</time></trkpt><trkpt lat="43.99926635151761" lon="7.845573618536929"><ele>998.5</ele><time>2026-04-25T10:39:47Z</time></trkpt><trkpt lat="43.99935811709856" lon="7.845731433664326"><ele>1001.25</ele><time>2026-04-25T10:39:48Z</time></trkpt><trkpt lat="43.999453766330376" lon="7.845867116684265"><ele>1004.0</ele><time>2026-04-25T10:39:49Z</time></trkpt><trkpt lat="43.99952791549252" lon="7.84600716642655"><ele>1006.0</ele><time>2026-04-25T10:39:50Z</time></trkpt><trkpt lat="43.99957722933326" lon="7.8461515464633225"><ele>1008.0</ele><time>2026-04-25T10:39:51Z</time></trkpt><trkpt lat="43.999621794422666" lon="7.846314194451533"><ele>1010.0</ele><time>2026-04-25T10:39:52Z</time></trkpt><trkpt lat="43.99963115234807" lon="7.846492174631969"><ele>1012.0</ele><time>2026-04-25T10:39:53Z</time></trkpt><trkpt lat="43.99961384042589" lon="7.846659401955963"><ele>1011.0</ele><time>2026-04-25T10:39:54Z</time></trkpt><trkpt lat="43.999567435264964" lon="7.846830756191513"><ele>1010.0</ele><time>2026-04-25T10:39:55Z</time></trkpt><trkpt lat="43.99949354359204" lon="7.847016177691545"><ele>1009.0</ele><time>2026-04-25T10:39:56Z</time></trkpt><trkpt lat="43.99940923511787" lon="7.847191016681297"><ele>1008.0</ele><time>2026-04-25T10:39:57Z</time></trkpt><trkpt lat="43.99932078803621" lon="7.847349954188431"><ele>1008.0</ele><time>2026-04-25T10:39:58Z</time></trkpt><trkpt lat="43.999246935269696" lon="7.847506360242357"><ele>1008.0</ele><time>2026-04-25T10:39:59Z</time></trkpt><trkpt lat="43.99919445435542" lon="7.847679434954593"><ele>1008.0</ele><time>2026-04-25T10:40:00Z</time></trkpt><trkpt lat="43.99916693245345" lon="7.847841971835143"><ele>1008.0</ele><time>2026-04-25T10:40:01Z</time></trkpt><trkpt lat="43.999147875669486" lon="7.847978977089582"><ele>1011.8</ele><time>2026-04-25T10:40:02Z</time></trkpt><trkpt lat="43.999101253276216" lon="7.848083073073601"><ele>1015.5999999999999</ele><time>2026-04-25T10:40:03Z</time></trkpt><trkpt lat="43.9989878507843" lon="7.848097526303438"><ele>1019.4000000000001</ele><time>2026-04-25T10:40:04Z</time></trkpt><trkpt lat="43.99891102411537" lon="7.848177391732652"><ele>1023.2</ele><time>2026-04-25T10:40:05Z</time></trkpt><trkpt lat="43.99885666246401" lon="7.848272512525726"><ele>1027.0</ele><time>2026-04-25T10:40:06Z</time></trkpt><trkpt lat="43.998861859072264" lon="7.848423018214154"><ele>1024.5</ele><time>2026-04-25T10:40:07Z</time></trkpt><trkpt lat="43.998886412967806" lon="7.848597593645285"><ele>1022.0</ele><time>2026-04-25T10:40:08Z</time></trkpt><trkpt lat="43.99888635328593" lon="7.848768355374378"><ele>1019.5</ele><time>2026-04-25T10:40:09Z</time></trkpt><trkpt lat="43.99887523989244" lon="7.84892869027187"><ele>1017.0</ele><time>2026-04-25T10:40:10Z</time></trkpt><trkpt lat="43.9988943087464" lon="7.849095242296573"><ele>1017.0</ele><time>2026-04-25T10:40:11Z</time></trkpt><trkpt lat="43.998929827088254" lon="7.849257306604808"><ele>1017.0</ele><time>2026-04-25T10:40:12Z</time></trkpt><trkpt lat="43.99898279848597" lon="7.849390296487684"><ele>1017.0</ele><time>2026-04-25T10:40:13Z</time></trkpt><trkpt lat="43.999032375939656" lon="7.849515521184533"><ele>1017.0</ele><time>2026-04-25T10:40:14Z</time></trkpt><trkpt lat="43.999051611029536" lon="7.849625296235207"><ele>1017.0</ele><time>2026-04-25T10:40:15Z</time></trkpt><trkpt lat="43.99903785458098" lon="7.849723959106364"><ele>1016.2</ele><time>2026-04-25T10:40:16Z</time></trkpt><trkpt lat="43.99898567541014" lon="7.849789282571348"><ele>1015.4000000000001</ele><time>2026-04-25T10:40:17Z</time></trkpt><trkpt lat="43.998924664894446" lon="7.849838028197572"><ele>1014.5999999999999</ele><time>2026-04-25T10:40:18Z</time></trkpt><trkpt lat="43.998846745786345" lon="7.849893579797087"><ele>1013.8</ele><time>2026-04-25T10:40:19Z</time></trkpt><trkpt lat="43.99874391991841" lon="7.849967892086487"><ele>1013.0</ele><time>2026-04-25T10:40:20Z</time></trkpt><trkpt lat="43.99862763123455" lon="7.8500391737792565"><ele>1013.0</ele><time>2026-04-25T10:40:21Z</time></trkpt><trkpt lat="43.99851307565332" lon="7.850084321042876"><ele>1013.0</ele><time>2026-04-25T10:40:22Z</time></trkpt><trkpt lat="43.998405460177274" lon="7.850125243737757"><ele>1013.0</ele><time>2026-04-25T10:40:23Z</time></trkpt><trkpt lat="43.99829547273967" lon="7.850147498390235"><ele>1013.0</ele><time>2026-04-25T10:40:24Z</time></trkpt><trkpt lat="43.998197769748856" lon="7.850125500531078"><ele>1013.0</ele><time>2026-04-25T10:40:25Z</time></trkpt><trkpt lat="43.9981011267505" lon="7.85005736501752"><ele>1016.0</ele><time>2026-04-25T10:40:26Z</time></trkpt><trkpt lat="43.998004895713514" lon="7.849950971898876"><ele>1019.0</ele><time>2026-04-25T10:40:27Z</time></trkpt><trkpt lat="43.99790572106692" lon="7.849884829622372"><ele>1022.0</ele><time>2026-04-25T10:40:28Z</time></trkpt><trkpt lat="43.99782365911514" lon="7.8498364580436695"><ele>1025.0</ele><time>2026-04-25T10:40:29Z</time></trkpt><trkpt lat="43.99774152354972" lon="7.849845610718872"><ele>1028.0</ele><time>2026-04-25T10:40:30Z</time></trkpt><trkpt lat="43.99766112346817" lon="7.849943722789504"><ele>1028.0</ele><time>2026-04-25T10:40:31Z</time></trkpt><trkpt lat="43.997602616297065" lon="7.850096477357328"><ele>1028.0</ele><time>2026-04-25T10:40:32Z</time></trkpt><trkpt lat="43.99756481569824" lon="7.8502482958263435"><ele>1028.0</ele><time>2026-04-25T10:40:33Z</time></trkpt><trkpt lat="43.99751731969855" lon="7.850365954095835"><ele>1028.0</ele><time>2026-04-25T10:40:34Z</time></trkpt><trkpt lat="43.997450356896785" lon="7.850433831104349"><ele>1028.0</ele><time>2026-04-25T10:40:35Z</time></trkpt><trkpt lat="43.997356793538216" lon="7.8504478794348564"><ele>1023.8</ele><time>2026-04-25T10:40:36Z</time></trkpt><trkpt lat="43.997251537329156" lon="7.850381785608767"><ele>1019.5999999999999</ele><time>2026-04-25T10:40:37Z</time></trkpt><trkpt lat="43.99715825723857" lon="7.850284273662559"><ele>1015.4000000000001</ele><time>2026-04-25T10:40:38Z</time></trkpt><trkpt lat="43.99705826434635" lon="7.850254691389199"><ele>1011.2</ele><time>2026-04-25T10:40:39Z</time></trkpt><trkpt lat="43.99697546747764" lon="7.850226946186523"><ele>1007.0</ele><time>2026-04-25T10:40:40Z</time></trkpt><trkpt lat="43.99691415242948" lon="7.850284385452289"><ele>1007.0</ele><time>2026-04-25T10:40:41Z</time></trkpt><trkpt lat="43.996859177763675" lon="7.850363109542917"><ele>1007.0</ele><time>2026-04-25T10:40:42Z</time></trkpt><trkpt lat="43.99686031436998" lon="7.850549415024135"><ele>1007.0</ele><time>2026-04-25T10:40:43Z</time></trkpt><trkpt lat="43.996891472224966" lon="7.85070820539631"><ele>1007.0</ele><time>2026-04-25T10:40:44Z</time></trkpt><trkpt lat="43.9969439002757" lon="7.850869530530286"><ele>1003.4000000000001</ele><time>2026-04-25T10:40:45Z</time></trkpt><trkpt lat="43.99698367282798" lon="7.850992280902798"><ele>999.8000000000001</ele><time>2026-04-25T10:40:46Z</time></trkpt><trkpt lat="43.99699333338026" lon="7.851109178413438"><ele>996.2</ele><time>2026-04-25T10:40:47Z</time></trkpt><trkpt lat="43.99695113758369" lon="7.85121710601111"><ele>992.6</ele><time>2026-04-25T10:40:48Z</time></trkpt><trkpt lat="43.99687496566833" lon="7.851299506969501"><ele>989.0</ele><time>2026-04-25T10:40:49Z</time></trkpt><trkpt lat="43.99676527656567" lon="7.851352070727644"><ele>996.0</ele><time>2026-04-25T10:40:50Z</time></trkpt><trkpt lat="43.996636787164185" lon="7.8514262619250195"><ele>1003.0</ele><time>2026-04-25T10:40:51Z</time></trkpt><trkpt lat="43.99653492306261" lon="7.851471384039639"><ele>1010.0</ele><time>2026-04-25T10:40:52Z</time></trkpt><trkpt lat="43.99645930371874" lon="7.851575221042244"><ele>1017.0</ele><time>2026-04-25T10:40:53Z</time></trkpt><trkpt lat="43.99640759599163" lon="7.851754872777493"><ele>1011.5</ele><time>2026-04-25T10:40:54Z</time></trkpt><trkpt lat="43.99636664982677" lon="7.851944507219392"><ele>1006.0</ele><time>2026-04-25T10:40:55Z</time></trkpt><trkpt lat="43.99627816790634" lon="7.852078165104802"><ele>1000.5</ele><time>2026-04-25T10:40:56Z</time></trkpt><trkpt lat="43.99616888464302" lon="7.852232490023944"><ele>995.0</ele><time>2026-04-25T10:40:57Z</time></trkpt><trkpt lat="43.99606706500652" lon="7.8523600546204"><ele>995.0</ele><time>2026-04-25T10:40:58Z</time></trkpt><trkpt lat="43.995963191854536" lon="7.852459562213661"><ele>995.0</ele><time>2026-04-25T10:40:59Z</time></trkpt><trkpt lat="43.995845796458156" lon="7.852510401426263"><ele>995.0</ele><time>2026-04-25T10:41:00Z</time></trkpt><trkpt lat="43.99571124859715" lon="7.852520302277978"><ele>995.0</ele><time>2026-04-25T10:41:01Z</time></trkpt><trkpt lat="43.99556872597581" lon="7.8524968073607155"><ele>1001.6666666666667</ele><time>2026-04-25T10:41:02Z</time></trkpt><trkpt lat="43.99541304929542" lon="7.8524504853785055"><ele>1008.3333333333333</ele><time>2026-04-25T10:41:03Z</time></trkpt><trkpt lat="43.99525287830583" lon="7.852392827790238"><ele>1015.0</ele><time>2026-04-25T10:41:04Z</time></trkpt><trkpt lat="43.99511814621302" lon="7.852396967401434"><ele>1014.0</ele><time>2026-04-25T10:41:05Z</time></trkpt><trkpt lat="43.99498396491278" lon="7.85238498468175"><ele>1013.0</ele><time>2026-04-25T10:41:06Z</time></trkpt><trkpt lat="43.99487284387185" lon="7.8523264126793695"><ele>1012.0</ele><time>2026-04-25T10:41:07Z</time></trkpt><trkpt lat="43.994773100959925" lon="7.852271650660947"><ele>1011.0</ele><time>2026-04-25T10:41:08Z</time></trkpt><trkpt lat="43.99468030934517" lon="7.8522000705549235"><ele>1011.0</ele><time>2026-04-25T10:41:09Z</time></trkpt><trkpt lat="43.994605390523716" lon="7.852066534201149"><ele>1010.9999999999999</ele><time>2026-04-25T10:41:10Z</time></trkpt><trkpt lat="43.99454151904026" lon="7.851928902598706"><ele>1010.9999999999999</ele><time>2026-04-25T10:41:11Z</time></trkpt><trkpt lat="43.99446765897001" lon="7.851847561157007"><ele>1011.0</ele><time>2026-04-25T10:41:12Z</time></trkpt><trkpt lat="43.994381053437124" lon="7.851805855952164"><ele>1011.0</ele><time>2026-04-25T10:41:13Z</time></trkpt><trkpt lat="43.99428990207544" lon="7.8517933176821275"><ele>1011.0</ele><time>2026-04-25T10:41:14Z</time></trkpt><trkpt lat="43.99420255050282" lon="7.851882415968115"><ele>1011.0</ele><time>2026-04-25T10:41:15Z</time></trkpt><trkpt lat="43.994179682425646" lon="7.8520600932687765"><ele>1011.0</ele><time>2026-04-25T10:41:16Z</time></trkpt><trkpt lat="43.99417898613304" lon="7.852228636644439"><ele>1011.0</ele><time>2026-04-25T10:41:17Z</time></trkpt><trkpt lat="43.99418867099941" lon="7.852361643838549"><ele>1013.0</ele><time>2026-04-25T10:41:18Z</time></trkpt><trkpt lat="43.99414914151837" lon="7.852471117402563"><ele>1014.9999999999999</ele><time>2026-04-25T10:41:19Z</time></trkpt><trkpt lat="43.99403276163527" lon="7.852523636068845"><ele>1016.9999999999999</ele><time>2026-04-25T10:41:20Z</time></trkpt><trkpt lat="43.99393321228787" lon="7.852619269393509"><ele>1019.0</ele><time>2026-04-25T10:41:21Z</time></trkpt><trkpt lat="43.9938472285122" lon="7.852693402851058"><ele>1021.0</ele><time>2026-04-25T10:41:22Z</time></trkpt><trkpt lat="43.99381064746744" lon="7.852793065813299"><ele>1022.0</ele><time>2026-04-25T10:41:23Z</time></trkpt><trkpt lat="43.99383352828296" lon="7.852919542122577"><ele>1022.9999999999999</ele><time>2026-04-25T10:41:24Z</time></trkpt><trkpt lat="43.99390758331276" lon="7.853021046860065"><ele>1023.9999999999999</ele><time>2026-04-25T10:41:25Z</time></trkpt><trkpt lat="43.99401902383693" lon="7.853041660814038"><ele>1025.0</ele><time>2026-04-25T10:41:26Z</time></trkpt><trkpt lat="43.99414093486811" lon="7.853063652477488"><ele>1026.0</ele><time>2026-04-25T10:41:27Z</time></trkpt><trkpt lat="43.994254194069875" lon="7.853067358306567"><ele>1016.0</ele><time>2026-04-25T10:41:28Z</time></trkpt><trkpt lat="43.99435087631312" lon="7.853153113183296"><ele>1006.0</ele><time>2026-04-25T10:41:29Z</time></trkpt><trkpt lat="43.99442338612104" lon="7.85329220099262"><ele>996.0</ele><time>2026-04-25T10:41:30Z</time></trkpt><trkpt lat="43.99442628141724" lon="7.853450198616014"><ele>986.0</ele><time>2026-04-25T10:41:31Z</time></trkpt><trkpt lat="43.9944385690475" lon="7.8536196845064365"><ele>984.5</ele><time>2026-04-25T10:41:32Z</time></trkpt><trkpt lat="43.99445273356723" lon="7.853793211815808"><ele>983.0</ele><time>2026-04-25T10:41:33Z</time></trkpt><trkpt lat="43.99445957181592" lon="7.853996357413966"><ele>981.5</ele><time>2026-04-25T10:41:34Z</time></trkpt><trkpt lat="43.99444913348927" lon="7.854185941764014"><ele>980.0</ele><time>2026-04-25T10:41:35Z</time></trkpt><trkpt lat="43.994437373327806" lon="7.8543893324093315"><ele>980.0</ele><time>2026-04-25T10:41:36Z</time></trkpt><trkpt lat="43.99443393856086" lon="7.8545794132111775"><ele>980.0</ele><time>2026-04-25T10:41:37Z</time></trkpt><trkpt lat="43.99441413060242" lon="7.854745914669908"><ele>980.0</ele><time>2026-04-25T10:41:38Z</time></trkpt><trkpt lat="43.99439239574222" lon="7.854894006466965"><ele>980.0</ele><time>2026-04-25T10:41:39Z</time></trkpt><trkpt lat="43.99436003938706" lon="7.855049595158403"><ele>981.0</ele><time>2026-04-25T10:41:40Z</time></trkpt><trkpt lat="43.99429606069465" lon="7.855189925056478"><ele>982.0</ele><time>2026-04-25T10:41:41Z</time></trkpt><trkpt lat="43.99422988560568" lon="7.855328696344088"><ele>983.0</ele><time>2026-04-25T10:41:42Z</time></trkpt><trkpt lat="43.99416173141315" lon="7.85546861525001"><ele>984.0</ele><time>2026-04-25T10:41:43Z</time></trkpt><trkpt lat="43.99410909595628" lon="7.855605357014367"><ele>987.75</ele><time>2026-04-25T10:41:44Z</time></trkpt><trkpt lat="43.99408304112975" lon="7.855724978710495"><ele>991.5</ele><time>2026-04-25T10:41:45Z</time></trkpt><trkpt lat="43.994126997486745" lon="7.855855048298399"><ele>995.25</ele><time>2026-04-25T10:41:46Z</time></trkpt><trkpt lat="43.99421517956704" lon="7.8559632716333105"><ele>999.0</ele><time>2026-04-25T10:41:47Z</time></trkpt><trkpt lat="43.994351793891916" lon="7.856012780245146"><ele>999.0</ele><time>2026-04-25T10:41:48Z</time></trkpt><trkpt lat="43.99448175008912" lon="7.856078425378844"><ele>999.0</ele><time>2026-04-25T10:41:49Z</time></trkpt><trkpt lat="43.994574545056565" lon="7.856175400057885"><ele>999.0</ele><time>2026-04-25T10:41:50Z</time></trkpt><trkpt lat="43.994673780079374" lon="7.856277322143135"><ele>999.0</ele><time>2026-04-25T10:41:51Z</time></trkpt><trkpt lat="43.9947546384428" lon="7.856368356121528"><ele>999.0</ele><time>2026-04-25T10:41:52Z</time></trkpt><trkpt lat="43.99482351980098" lon="7.856449443024236"><ele>999.0</ele><time>2026-04-25T10:41:53Z</time></trkpt><trkpt lat="43.99487099395703" lon="7.8565264431298925"><ele>999.0</ele><time>2026-04-25T10:41:54Z</time></trkpt><trkpt lat="43.99486866096758" lon="7.856630629238419"><ele>999.0</ele><time>2026-04-25T10:41:55Z</time></trkpt><trkpt lat="43.994806693008975" lon="7.856686094116597"><ele>999.0</ele><time>2026-04-25T10:41:56Z</time></trkpt><trkpt lat="43.994758283524355" lon="7.8568045341549775"><ele>999.0</ele><time>2026-04-25T10:41:57Z</time></trkpt><trkpt lat="43.99471353685628" lon="7.856998160257278"><ele>999.3333333333333</ele><time>2026-04-25T10:41:58Z</time></trkpt><trkpt lat="43.99473611679392" lon="7.857259693500458"><ele>999.6666666666666</ele><time>2026-04-25T10:41:59Z</time></trkpt><trkpt lat="43.9947607331224" lon="7.857479407917305"><ele>1000.0</ele><time>2026-04-25T10:42:00Z</time></trkpt><trkpt lat="43.99478768963543" lon="7.857691510603124"><ele>1000.0</ele><time>2026-04-25T10:42:01Z</time></trkpt><trkpt lat="43.994788480256304" lon="7.857929273179508"><ele>1000.0</ele><time>2026-04-25T10:42:02Z</time></trkpt><trkpt lat="43.99476866047312" lon="7.858161645702891"><ele>1000.0</ele><time>2026-04-25T10:42:03Z</time></trkpt><trkpt lat="43.99476188616149" lon="7.858377892696788"><ele>999.25</ele><time>2026-04-25T10:42:04Z</time></trkpt><trkpt lat="43.99476077835515" lon="7.858574137255396"><ele>998.5</ele><time>2026-04-25T10:42:05Z</time></trkpt><trkpt lat="43.99476092076054" lon="7.8587616594821"><ele>997.75</ele><time>2026-04-25T10:42:06Z</time></trkpt><trkpt lat="43.99472857713776" lon="7.8589488875918185"><ele>997.0</ele><time>2026-04-25T10:42:07Z</time></trkpt><trkpt lat="43.99466985525413" lon="7.859134708840634"><ele>992.6666666666666</ele><time>2026-04-25T10:42:08Z</time></trkpt><trkpt lat="43.994595118966814" lon="7.859307722245726"><ele>988.3333333333333</ele><time>2026-04-25T10:42:09Z</time></trkpt><trkpt lat="43.99449806643088" lon="7.859449108911937"><ele>984.0</ele><time>2026-04-25T10:42:10Z</time></trkpt><trkpt lat="43.99435890490433" lon="7.859591610066912"><ele>984.0</ele><time>2026-04-25T10:42:11Z</time></trkpt><trkpt lat="43.99419580656399" lon="7.859740270180734"><ele>984.0</ele><time>2026-04-25T10:42:12Z</time></trkpt><trkpt lat="43.99405178241128" lon="7.859871881745362"><ele>984.0</ele><time>2026-04-25T10:42:13Z</time></trkpt><trkpt lat="43.993918485906335" lon="7.859950586507292"><ele>986.75</ele><time>2026-04-25T10:42:14Z</time></trkpt><trkpt lat="43.99380433820711" lon="7.860014719789402"><ele>989.5</ele><time>2026-04-25T10:42:15Z</time></trkpt><trkpt lat="43.99372484735878" lon="7.860089614141242"><ele>992.25</ele><time>2026-04-25T10:42:16Z</time></trkpt><trkpt lat="43.993673612204425" lon="7.860211513873127"><ele>995.0</ele><time>2026-04-25T10:42:17Z</time></trkpt><trkpt lat="43.99368188702427" lon="7.860390346903349"><ele>995.0</ele><time>2026-04-25T10:42:18Z</time></trkpt><trkpt lat="43.993726183203414" lon="7.86058234472284"><ele>995.0</ele><time>2026-04-25T10:42:19Z</time></trkpt><trkpt lat="43.99378705046773" lon="7.860764468656557"><ele>995.0</ele><time>2026-04-25T10:42:20Z</time></trkpt><trkpt lat="43.993808891556725" lon="7.860968471466795"><ele>995.0</ele><time>2026-04-25T10:42:21Z</time></trkpt><trkpt lat="43.99380158840874" lon="7.861164822366497"><ele>995.0</ele><time>2026-04-25T10:42:22Z</time></trkpt><trkpt lat="43.99378318099091" lon="7.861351391075632"><ele>995.0</ele><time>2026-04-25T10:42:23Z</time></trkpt><trkpt lat="43.99372468780076" lon="7.861521901118099"><ele>995.0</ele><time>2026-04-25T10:42:24Z</time></trkpt><trkpt lat="43.99365359119431" lon="7.861672748494407"><ele>995.0</ele><time>2026-04-25T10:42:25Z</time></trkpt><trkpt lat="43.993598483569215" lon="7.861806187908025"><ele>1000.0</ele><time>2026-04-25T10:42:26Z</time></trkpt><trkpt lat="43.993587880209496" lon="7.861935398393319"><ele>1005.0</ele><time>2026-04-25T10:42:27Z</time></trkpt><trkpt lat="43.993633999053756" lon="7.8620402381554415"><ele>1010.0</ele><time>2026-04-25T10:42:28Z</time></trkpt><trkpt lat="43.99372145693217" lon="7.862141407737282"><ele>1015.0</ele><time>2026-04-25T10:42:29Z</time></trkpt><trkpt lat="43.993828347289195" lon="7.862201391771168"><ele>1020.0</ele><time>2026-04-25T10:42:30Z</time></trkpt><trkpt lat="43.99395551540232" lon="7.862238603559387"><ele>1020.0</ele><time>2026-04-25T10:42:31Z</time></trkpt><trkpt lat="43.99406422532334" lon="7.862297778817441"><ele>1020.0</ele><time>2026-04-25T10:42:32Z</time></trkpt><trkpt lat="43.994215810378684" lon="7.862364771745661"><ele>1020.0</ele><time>2026-04-25T10:42:33Z</time></trkpt><trkpt lat="43.99437089535849" lon="7.862431986024991"><ele>1020.0</ele><time>2026-04-25T10:42:34Z</time></trkpt><trkpt lat="43.99453460083577" lon="7.862501158329359"><ele>1024.3333333333333</ele><time>2026-04-25T10:42:35Z</time></trkpt><trkpt lat="43.99472195973474" lon="7.862590042899637"><ele>1028.6666666666665</ele><time>2026-04-25T10:42:36Z</time></trkpt><trkpt lat="43.9949041069085" lon="7.862662501768682"><ele>1033.0</ele><time>2026-04-25T10:42:37Z</time></trkpt><trkpt lat="43.99505687808017" lon="7.862746357849707"><ele>1019.6666666666666</ele><time>2026-04-25T10:42:38Z</time></trkpt><trkpt lat="43.99523232700175" lon="7.862768654126714"><ele>1006.3333333333333</ele><time>2026-04-25T10:42:39Z</time></trkpt><trkpt lat="43.99539387224252" lon="7.8628376528696595"><ele>993.0</ele><time>2026-04-25T10:42:40Z</time></trkpt><trkpt lat="43.995526424762666" lon="7.862881864970234"><ele>993.0</ele><time>2026-04-25T10:42:41Z</time></trkpt><trkpt lat="43.995585215669564" lon="7.862947395654525"><ele>993.0</ele><time>2026-04-25T10:42:42Z</time></trkpt><trkpt lat="43.99563680440705" lon="7.863013687048655"><ele>993.0</ele><time>2026-04-25T10:42:43Z</time></trkpt><trkpt lat="43.99563939096257" lon="7.863169901703619"><ele>993.0</ele><time>2026-04-25T10:42:44Z</time></trkpt><trkpt lat="43.99563646822274" lon="7.863380849040079"><ele>993.0</ele><time>2026-04-25T10:42:45Z</time></trkpt><trkpt lat="43.99565776360746" lon="7.863590339858965"><ele>994.3333333333333</ele><time>2026-04-25T10:42:46Z</time></trkpt><trkpt lat="43.99566413111968" lon="7.863839100317644"><ele>995.6666666666666</ele><time>2026-04-25T10:42:47Z</time></trkpt><trkpt lat="43.99568398507425" lon="7.864072964633125"><ele>997.0</ele><time>2026-04-25T10:42:48Z</time></trkpt><trkpt lat="43.99571079410621" lon="7.864303263052132"><ele>997.0</ele><time>2026-04-25T10:42:49Z</time></trkpt><trkpt lat="43.99575285160474" lon="7.864506724882293"><ele>997.0</ele><time>2026-04-25T10:42:50Z</time></trkpt><trkpt lat="43.995800971683224" lon="7.86467995913771"><ele>997.0</ele><time>2026-04-25T10:42:51Z</time></trkpt><trkpt lat="43.99578908499207" lon="7.864846658005904"><ele>997.0</ele><time>2026-04-25T10:42:52Z</time></trkpt><trkpt lat="43.99575644836162" lon="7.865013667388979"><ele>998.5</ele><time>2026-04-25T10:42:53Z</time></trkpt><trkpt lat="43.99571718107092" lon="7.8651823448281855"><ele>1000.0</ele><time>2026-04-25T10:42:54Z</time></trkpt><trkpt lat="43.995696785789434" lon="7.865352983813184"><ele>1001.5</ele><time>2026-04-25T10:42:55Z</time></trkpt><trkpt lat="43.995715144351266" lon="7.865529820814898"><ele>1003.0</ele><time>2026-04-25T10:42:56Z</time></trkpt><trkpt lat="43.99578535156797" lon="7.865722188599925"><ele>995.6666666666666</ele><time>2026-04-25T10:42:57Z</time></trkpt><trkpt lat="43.99586988142563" lon="7.865914947143868"><ele>988.3333333333333</ele><time>2026-04-25T10:42:58Z</time></trkpt><trkpt lat="43.995949149347524" lon="7.866124334744678"><ele>981.0</ele><time>2026-04-25T10:42:59Z</time></trkpt><trkpt lat="43.995995665297144" lon="7.866344032955656"><ele>981.0</ele><time>2026-04-25T10:43:00Z</time></trkpt><trkpt lat="43.99606586608024" lon="7.8665507454109"><ele>981.0</ele><time>2026-04-25T10:43:01Z</time></trkpt><trkpt lat="43.99611854344492" lon="7.866770350774915"><ele>981.0</ele><time>2026-04-25T10:43:02Z</time></trkpt><trkpt lat="43.996174178487855" lon="7.866990786823806"><ele>982.6666666666667</ele><time>2026-04-25T10:43:03Z</time></trkpt><trkpt lat="43.99623676295084" lon="7.867212229356217"><ele>984.3333333333334</ele><time>2026-04-25T10:43:04Z</time></trkpt><trkpt lat="43.99632603917609" lon="7.867416038632705"><ele>986.0</ele><time>2026-04-25T10:43:05Z</time></trkpt><trkpt lat="43.996414070638224" lon="7.867604534921124"><ele>988.6666666666667</ele><time>2026-04-25T10:43:06Z</time></trkpt><trkpt lat="43.9964899230359" lon="7.867811271779928"><ele>991.3333333333333</ele><time>2026-04-25T10:43:07Z</time></trkpt><trkpt lat="43.99652534615852" lon="7.868030224239425"><ele>994.0</ele><time>2026-04-25T10:43:08Z</time></trkpt><trkpt lat="43.99655086280278" lon="7.868226943192429"><ele>994.0</ele><time>2026-04-25T10:43:09Z</time></trkpt><trkpt lat="43.996568229181186" lon="7.868410907469497"><ele>994.0</ele><time>2026-04-25T10:43:10Z</time></trkpt><trkpt lat="43.996600842926895" lon="7.8685741729651735"><ele>994.0</ele><time>2026-04-25T10:43:11Z</time></trkpt><trkpt lat="43.996650864121186" lon="7.868722307695825"><ele>994.0</ele><time>2026-04-25T10:43:12Z</time></trkpt><trkpt lat="43.99675977852293" lon="7.868864633781583"><ele>991.3333333333333</ele><time>2026-04-25T10:43:13Z</time></trkpt><trkpt lat="43.996896262586226" lon="7.868973125690537"><ele>988.6666666666667</ele><time>2026-04-25T10:43:14Z</time></trkpt><trkpt lat="43.997053096520794" lon="7.869069050013859"><ele>986.0</ele><time>2026-04-25T10:43:15Z</time></trkpt><trkpt lat="43.99719795581881" lon="7.869178569713485"><ele>990.0</ele><time>2026-04-25T10:43:16Z</time></trkpt><trkpt lat="43.997334538506706" lon="7.869301885089015"><ele>994.0</ele><time>2026-04-25T10:43:17Z</time></trkpt><trkpt lat="43.997441397591395" lon="7.869454255396683"><ele>998.0</ele><time>2026-04-25T10:43:18Z</time></trkpt><trkpt lat="43.99752124235394" lon="7.869594842034236"><ele>1002.0</ele><time>2026-04-25T10:43:19Z</time></trkpt><trkpt lat="43.997582615746936" lon="7.869758103704115"><ele>993.3333333333333</ele><time>2026-04-25T10:43:20Z</time></trkpt><trkpt lat="43.997641316522966" lon="7.869955453054071"><ele>984.6666666666666</ele><time>2026-04-25T10:43:21Z</time></trkpt><trkpt lat="43.99770579011122" lon="7.870175193132082"><ele>976.0</ele><time>2026-04-25T10:43:22Z</time></trkpt><trkpt lat="43.99777410623949" lon="7.870398916630172"><ele>976.0</ele><time>2026-04-25T10:43:23Z</time></trkpt><trkpt lat="43.99786135756761" lon="7.870605571526257"><ele>976.0</ele><time>2026-04-25T10:43:24Z</time></trkpt><trkpt lat="43.99794766057088" lon="7.870814356070228"><ele>976.0</ele><time>2026-04-25T10:43:25Z</time></trkpt><trkpt lat="43.998035353577386" lon="7.8709925238972325"><ele>975.25</ele><time>2026-04-25T10:43:26Z</time></trkpt><trkpt lat="43.99811372548662" lon="7.871159878565467"><ele>974.5</ele><time>2026-04-25T10:43:27Z</time></trkpt><trkpt lat="43.998195580122726" lon="7.8713108260630875"><ele>973.75</ele><time>2026-04-25T10:43:28Z</time></trkpt><trkpt lat="43.998280515824085" lon="7.871421686818577"><ele>973.0</ele><time>2026-04-25T10:43:29Z</time></trkpt><trkpt lat="43.99836509650981" lon="7.87150828046577"><ele>973.0</ele><time>2026-04-25T10:43:30Z</time></trkpt><trkpt lat="43.99845106136575" lon="7.871573326374062"><ele>973.0</ele><time>2026-04-25T10:43:31Z</time></trkpt><trkpt lat="43.9985231389789" lon="7.871637213629527"><ele>973.0</ele><time>2026-04-25T10:43:32Z</time></trkpt><trkpt lat="43.99857791035743" lon="7.871749206228425"><ele>973.0</ele><time>2026-04-25T10:43:34Z</time></trkpt><trkpt lat="43.998626429218696" lon="7.871859485554368"><ele>973.0</ele><time>2026-04-25T10:43:36Z</time></trkpt><trkpt lat="43.99869204211891" lon="7.871933076848715"><ele>975.2</ele><time>2026-04-25T10:43:37Z</time></trkpt><trkpt lat="43.99878307617727" lon="7.87201836458349"><ele>977.4</ele><time>2026-04-25T10:43:38Z</time></trkpt><trkpt lat="43.998881743928095" lon="7.87210026842965"><ele>979.6000000000001</ele><time>2026-04-25T10:43:39Z</time></trkpt><trkpt lat="43.998968667393" lon="7.872164867908226"><ele>981.8000000000001</ele><time>2026-04-25T10:43:40Z</time></trkpt><trkpt lat="43.99904479470438" lon="7.872218700251036"><ele>984.0</ele><time>2026-04-25T10:43:41Z</time></trkpt><trkpt lat="43.99911583781583" lon="7.872266033344372"><ele>983.6</ele><time>2026-04-25T10:43:42Z</time></trkpt><trkpt lat="43.999188957901644" lon="7.872310421092119"><ele>983.2</ele><time>2026-04-25T10:43:43Z</time></trkpt><trkpt lat="43.99926856735319" lon="7.872359040695594"><ele>982.8000000000001</ele><time>2026-04-25T10:43:44Z</time></trkpt><trkpt lat="43.99937089987895" lon="7.872419264586185"><ele>982.4000000000001</ele><time>2026-04-25T10:43:45Z</time></trkpt><trkpt lat="43.99948255160473" lon="7.872491313716678"><ele>982.0</ele><time>2026-04-25T10:43:46Z</time></trkpt><trkpt lat="43.99958959602563" lon="7.8725756587638545"><ele>982.25</ele><time>2026-04-25T10:43:47Z</time></trkpt><trkpt lat="43.999699047603215" lon="7.872677973176981"><ele>982.5</ele><time>2026-04-25T10:43:48Z</time></trkpt><trkpt lat="43.99979711294548" lon="7.872797753963913"><ele>982.75</ele><time>2026-04-25T10:43:49Z</time></trkpt><trkpt lat="43.99987945680014" lon="7.872927281226941"><ele>983.0</ele><time>2026-04-25T10:43:50Z</time></trkpt><trkpt lat="43.9999592395484" lon="7.873059055698433"><ele>983.0</ele><time>2026-04-25T10:43:51Z</time></trkpt><trkpt lat="44.000042710141514" lon="7.873176880023758"><ele>983.0</ele><time>2026-04-25T10:43:52Z</time></trkpt><trkpt lat="44.00012304485176" lon="7.873308402572963"><ele>983.0</ele><time>2026-04-25T10:43:53Z</time></trkpt><trkpt lat="44.000199302157164" lon="7.873458287434103"><ele>983.0</ele><time>2026-04-25T10:43:54Z</time></trkpt><trkpt lat="44.000277210980684" lon="7.873597345261835"><ele>979.5</ele><time>2026-04-25T10:43:55Z</time></trkpt><trkpt lat="44.000355610906844" lon="7.873722420177748"><ele>976.0</ele><time>2026-04-25T10:43:56Z</time></trkpt><trkpt lat="44.00039805119052" lon="7.87388751755733"><ele>972.5</ele><time>2026-04-25T10:43:57Z</time></trkpt><trkpt lat="44.000420255275316" lon="7.874070727392646"><ele>969.0</ele><time>2026-04-25T10:43:58Z</time></trkpt><trkpt lat="44.00040195145541" lon="7.874254129928622"><ele>967.0</ele><time>2026-04-25T10:43:59Z</time></trkpt><trkpt lat="44.0003786815256" lon="7.874460612748367"><ele>965.0</ele><time>2026-04-25T10:44:00Z</time></trkpt><trkpt lat="44.000368620639684" lon="7.874646174723491"><ele>963.0</ele><time>2026-04-25T10:44:01Z</time></trkpt><trkpt lat="44.00036057418251" lon="7.874813939184247"><ele>961.0</ele><time>2026-04-25T10:44:02Z</time></trkpt><trkpt lat="44.00039113383664" lon="7.87497909242991"><ele>958.75</ele><time>2026-04-25T10:44:03Z</time></trkpt><trkpt lat="44.00046765496354" lon="7.875147019353167"><ele>956.5</ele><time>2026-04-25T10:44:04Z</time></trkpt><trkpt lat="44.00057180064173" lon="7.8752926812469415"><ele>954.25</ele><time>2026-04-25T10:44:05Z</time></trkpt><trkpt lat="44.000619173143534" lon="7.875468476270699"><ele>952.0</ele><time>2026-04-25T10:44:06Z</time></trkpt><trkpt lat="44.00066869605261" lon="7.875644606543844"><ele>952.0</ele><time>2026-04-25T10:44:07Z</time></trkpt><trkpt lat="44.00075153533145" lon="7.875783941463054"><ele>952.0</ele><time>2026-04-25T10:44:08Z</time></trkpt><trkpt lat="44.00081736191117" lon="7.8759289832674515"><ele>952.0</ele><time>2026-04-25T10:44:09Z</time></trkpt><trkpt lat="44.000885421129006" lon="7.876072637496419"><ele>952.0</ele><time>2026-04-25T10:44:10Z</time></trkpt><trkpt lat="44.00093929211046" lon="7.876198106543941"><ele>949.5</ele><time>2026-04-25T10:44:11Z</time></trkpt><trkpt lat="44.000929681873416" lon="7.876337793737818"><ele>947.0</ele><time>2026-04-25T10:44:12Z</time></trkpt><trkpt lat="44.00084533987974" lon="7.876448010675728"><ele>944.5</ele><time>2026-04-25T10:44:13Z</time></trkpt><trkpt lat="44.00078561362072" lon="7.8766192947096965"><ele>942.0</ele><time>2026-04-25T10:44:14Z</time></trkpt><trkpt lat="44.00072505766129" lon="7.8767714202905905"><ele>939.75</ele><time>2026-04-25T10:44:15Z</time></trkpt><trkpt lat="44.000704218072144" lon="7.87694826989918"><ele>937.5</ele><time>2026-04-25T10:44:16Z</time></trkpt><trkpt lat="44.000746034437405" lon="7.877152155982707"><ele>935.25</ele><time>2026-04-25T10:44:17Z</time></trkpt><trkpt lat="44.00082476752338" lon="7.877334478853334"><ele>933.0</ele><time>2026-04-25T10:44:18Z</time></trkpt><trkpt lat="44.00090517257145" lon="7.877494540258601"><ele>940.25</ele><time>2026-04-25T10:44:19Z</time></trkpt><trkpt lat="44.000947926302985" lon="7.877635510381507"><ele>947.5</ele><time>2026-04-25T10:44:20Z</time></trkpt><trkpt lat="44.00094375913682" lon="7.877776464702343"><ele>954.75</ele><time>2026-04-25T10:44:21Z</time></trkpt><trkpt lat="44.00086652089798" lon="7.877923394279043"><ele>962.0</ele><time>2026-04-25T10:44:22Z</time></trkpt><trkpt lat="44.00083548765364" lon="7.878088669461081"><ele>963.5</ele><time>2026-04-25T10:44:23Z</time></trkpt><trkpt lat="44.00082274138478" lon="7.878272886291948"><ele>965.0</ele><time>2026-04-25T10:44:24Z</time></trkpt><trkpt lat="44.00084684312142" lon="7.878462624210118"><ele>966.5</ele><time>2026-04-25T10:44:25Z</time></trkpt><trkpt lat="44.00087504961621" lon="7.878635244522353"><ele>968.0</ele><time>2026-04-25T10:44:26Z</time></trkpt><trkpt lat="44.00081594180918" lon="7.878777621760634"><ele>957.0</ele><time>2026-04-25T10:44:27Z</time></trkpt><trkpt lat="44.0007420843858" lon="7.878913321352329"><ele>946.0</ele><time>2026-04-25T10:44:28Z</time></trkpt><trkpt lat="44.0006820244432" lon="7.879071494398264"><ele>935.0</ele><time>2026-04-25T10:44:29Z</time></trkpt><trkpt lat="44.00065876528988" lon="7.8792476932228865"><ele>924.0</ele><time>2026-04-25T10:44:30Z</time></trkpt><trkpt lat="44.00067174395741" lon="7.879436953064945"><ele>924.0</ele><time>2026-04-25T10:44:31Z</time></trkpt><trkpt lat="44.00071832977097" lon="7.879602272614733"><ele>924.0</ele><time>2026-04-25T10:44:32Z</time></trkpt><trkpt lat="44.00078158955828" lon="7.879767061905095"><ele>924.0</ele><time>2026-04-25T10:44:33Z</time></trkpt><trkpt lat="44.00085183618201" lon="7.87989971256003"><ele>924.0</ele><time>2026-04-25T10:44:34Z</time></trkpt><trkpt lat="44.00087559191964" lon="7.8800489872252015"><ele>927.0</ele><time>2026-04-25T10:44:35Z</time></trkpt><trkpt lat="44.00085056214065" lon="7.880207904059111"><ele>930.0</ele><time>2026-04-25T10:44:36Z</time></trkpt><trkpt lat="44.00081733053278" lon="7.880349307729562"><ele>933.0</ele><time>2026-04-25T10:44:37Z</time></trkpt><trkpt lat="44.00073977721659" lon="7.880462657252558"><ele>936.0</ele><time>2026-04-25T10:44:38Z</time></trkpt><trkpt lat="44.000626884570444" lon="7.880547636345554"><ele>936.0</ele><time>2026-04-25T10:44:39Z</time></trkpt><trkpt lat="44.000537231488515" lon="7.880663675804665"><ele>936.0</ele><time>2026-04-25T10:44:40Z</time></trkpt><trkpt lat="44.000469841135384" lon="7.8807901419759325"><ele>936.0</ele><time>2026-04-25T10:44:41Z</time></trkpt><trkpt lat="44.000454084798115" lon="7.880969576858944"><ele>936.0</ele><time>2026-04-25T10:44:42Z</time></trkpt><trkpt lat="44.00041463811114" lon="7.881136331908648"><ele>939.75</ele><time>2026-04-25T10:44:43Z</time></trkpt><trkpt lat="44.00032198588994" lon="7.881233161394626"><ele>943.5</ele><time>2026-04-25T10:44:44Z</time></trkpt><trkpt lat="44.00021495139184" lon="7.881334953909778"><ele>947.25</ele><time>2026-04-25T10:44:45Z</time></trkpt><trkpt lat="44.000111746525114" lon="7.881440314870378"><ele>951.0</ele><time>2026-04-25T10:44:46Z</time></trkpt><trkpt lat="44.00002213891156" lon="7.881541116240878"><ele>951.0</ele><time>2026-04-25T10:44:47Z</time></trkpt><trkpt lat="43.99994698431502" lon="7.881647030309113"><ele>950.9999999999999</ele><time>2026-04-25T10:44:48Z</time></trkpt><trkpt lat="43.99988732614938" lon="7.881758928926409"><ele>950.9999999999999</ele><time>2026-04-25T10:44:49Z</time></trkpt><trkpt lat="43.99986493606852" lon="7.881898664330665"><ele>951.0</ele><time>2026-04-25T10:44:50Z</time></trkpt><trkpt lat="43.99987943303165" lon="7.882055133853964"><ele>951.0</ele><time>2026-04-25T10:44:51Z</time></trkpt><trkpt lat="43.99994591311685" lon="7.88221503059622"><ele>948.3333333333333</ele><time>2026-04-25T10:44:52Z</time></trkpt><trkpt lat="44.000042862077194" lon="7.882376647099296"><ele>945.6666666666666</ele><time>2026-04-25T10:44:53Z</time></trkpt><trkpt lat="44.000160057682194" lon="7.882531938245458"><ele>943.0</ele><time>2026-04-25T10:44:54Z</time></trkpt><trkpt lat="44.00027029653468" lon="7.882710289589343"><ele>936.0</ele><time>2026-04-25T10:44:55Z</time></trkpt><trkpt lat="44.00038134223071" lon="7.882908453484657"><ele>929.0</ele><time>2026-04-25T10:44:56Z</time></trkpt><trkpt lat="44.00050148493254" lon="7.8831094624436275"><ele>922.0</ele><time>2026-04-25T10:44:57Z</time></trkpt><trkpt lat="44.000626621013126" lon="7.883317592784447"><ele>916.6666666666666</ele><time>2026-04-25T10:44:58Z</time></trkpt><trkpt lat="44.00074312873621" lon="7.883504089026027"><ele>911.3333333333333</ele><time>2026-04-25T10:44:59Z</time></trkpt><trkpt lat="44.00084908358351" lon="7.883683379657512"><ele>906.0</ele><time>2026-04-25T10:45:00Z</time></trkpt><trkpt lat="44.00093774665714" lon="7.8838505485612265"><ele>915.0</ele><time>2026-04-25T10:45:01Z</time></trkpt><trkpt lat="44.00100089253395" lon="7.88399358806659"><ele>924.0</ele><time>2026-04-25T10:45:02Z</time></trkpt><trkpt lat="44.00102660344088" lon="7.8841587929615375"><ele>933.0</ele><time>2026-04-25T10:45:03Z</time></trkpt><trkpt lat="44.000998031552136" lon="7.884340105132882"><ele>942.0</ele><time>2026-04-25T10:45:04Z</time></trkpt><trkpt lat="44.00096560898527" lon="7.884556423204006"><ele>942.0</ele><time>2026-04-25T10:45:05Z</time></trkpt><trkpt lat="44.00093031452281" lon="7.8847964092546015"><ele>942.0</ele><time>2026-04-25T10:45:06Z</time></trkpt><trkpt lat="44.00091081922927" lon="7.885021490732917"><ele>942.0</ele><time>2026-04-25T10:45:07Z</time></trkpt><trkpt lat="44.0008738039139" lon="7.885223277280721"><ele>931.75</ele><time>2026-04-25T10:45:08Z</time></trkpt><trkpt lat="44.0008024565709" lon="7.885377158678605"><ele>921.5</ele><time>2026-04-25T10:45:09Z</time></trkpt><trkpt lat="44.000716246232535" lon="7.885502532860571"><ele>911.25</ele><time>2026-04-25T10:45:10Z</time></trkpt><trkpt lat="44.00063544945694" lon="7.88564367481016"><ele>901.0</ele><time>2026-04-25T10:45:11Z</time></trkpt><trkpt lat="44.00055352084384" lon="7.885771200648976"><ele>902.5</ele><time>2026-04-25T10:45:12Z</time></trkpt><trkpt lat="44.00051422513473" lon="7.885939947663659"><ele>904.0</ele><time>2026-04-25T10:45:13Z</time></trkpt><trkpt lat="44.00051268385072" lon="7.886141428672539"><ele>905.5</ele><time>2026-04-25T10:45:14Z</time></trkpt><trkpt lat="44.00053923966996" lon="7.886371149009499"><ele>907.0</ele><time>2026-04-25T10:45:15Z</time></trkpt><trkpt lat="44.00051206638122" lon="7.886549754562941"><ele>907.0</ele><time>2026-04-25T10:45:16Z</time></trkpt><trkpt lat="44.00046867582134" lon="7.886723567715485"><ele>907.0</ele><time>2026-04-25T10:45:17Z</time></trkpt><trkpt lat="44.00043149609692" lon="7.886885594605849"><ele>907.0</ele><time>2026-04-25T10:45:18Z</time></trkpt><trkpt lat="44.00039689023703" lon="7.887043915705648"><ele>907.0</ele><time>2026-04-25T10:45:19Z</time></trkpt><trkpt lat="44.00040448488599" lon="7.887199678255153"><ele>907.25</ele><time>2026-04-25T10:45:20Z</time></trkpt><trkpt lat="44.00046946550777" lon="7.887349371186957"><ele>907.5</ele><time>2026-04-25T10:45:21Z</time></trkpt><trkpt lat="44.000582844113836" lon="7.887499268986646"><ele>907.75</ele><time>2026-04-25T10:45:22Z</time></trkpt><trkpt lat="44.00069930737317" lon="7.887647910687534"><ele>908.0</ele><time>2026-04-25T10:45:23Z</time></trkpt><trkpt lat="44.000771012835834" lon="7.887867431638727"><ele>909.0</ele><time>2026-04-25T10:45:24Z</time></trkpt><trkpt lat="44.00084952173787" lon="7.8880765659027325"><ele>910.0</ele><time>2026-04-25T10:45:25Z</time></trkpt><trkpt lat="44.000903748326714" lon="7.888311453871606"><ele>911.0</ele><time>2026-04-25T10:45:26Z</time></trkpt><trkpt lat="44.000978284174764" lon="7.88853749098396"><ele>911.0</ele><time>2026-04-25T10:45:27Z</time></trkpt><trkpt lat="44.00108258420026" lon="7.888737311110935"><ele>911.0</ele><time>2026-04-25T10:45:28Z</time></trkpt><trkpt lat="44.00118767157579" lon="7.88891700827713"><ele>911.0</ele><time>2026-04-25T10:45:29Z</time></trkpt><trkpt lat="44.00124220311818" lon="7.889098622665398"><ele>905.75</ele><time>2026-04-25T10:45:30Z</time></trkpt><trkpt lat="44.00127936362845" lon="7.889283355138573"><ele>900.5</ele><time>2026-04-25T10:45:31Z</time></trkpt><trkpt lat="44.00133863288858" lon="7.88943832388449"><ele>895.25</ele><time>2026-04-25T10:45:32Z</time></trkpt><trkpt lat="44.001427578532486" lon="7.8895826785346665"><ele>890.0</ele><time>2026-04-25T10:45:33Z</time></trkpt><trkpt lat="44.00154838679574" lon="7.889693448721934"><ele>890.0</ele><time>2026-04-25T10:45:34Z</time></trkpt><trkpt lat="44.001613059491355" lon="7.889861992091454"><ele>890.0</ele><time>2026-04-25T10:45:35Z</time></trkpt><trkpt lat="44.00167197438183" lon="7.890065791704593"><ele>890.0</ele><time>2026-04-25T10:45:36Z</time></trkpt><trkpt lat="44.00173634656045" lon="7.890298801904095"><ele>893.6666666666667</ele><time>2026-04-25T10:45:37Z</time></trkpt><trkpt lat="44.00178257990053" lon="7.8905535564678955"><ele>897.3333333333333</ele><time>2026-04-25T10:45:38Z</time></trkpt><trkpt lat="44.00182663163899" lon="7.890798526927858"><ele>901.0</ele><time>2026-04-25T10:45:39Z</time></trkpt><trkpt lat="44.00189855537428" lon="7.891005109012294"><ele>901.0</ele><time>2026-04-25T10:45:40Z</time></trkpt><trkpt lat="44.001951287310696" lon="7.89120461443189"><ele>901.0</ele><time>2026-04-25T10:45:41Z</time></trkpt><trkpt lat="44.00193452261049" lon="7.891402677851514"><ele>901.0</ele><time>2026-04-25T10:45:42Z</time></trkpt><trkpt lat="44.001957403546164" lon="7.8916047432331435"><ele>901.0</ele><time>2026-04-25T10:45:43Z</time></trkpt><trkpt lat="44.001993616211045" lon="7.891805227358523"><ele>897.5</ele><time>2026-04-25T10:45:44Z</time></trkpt><trkpt lat="44.00205974375315" lon="7.891994082583168"><ele>894.0</ele><time>2026-04-25T10:45:45Z</time></trkpt><trkpt lat="44.00212113768634" lon="7.892173055195626"><ele>890.5</ele><time>2026-04-25T10:45:46Z</time></trkpt><trkpt lat="44.00219692441827" lon="7.892314497066413"><ele>887.0</ele><time>2026-04-25T10:45:47Z</time></trkpt><trkpt lat="44.00227352045195" lon="7.892423760828284"><ele>887.0</ele><time>2026-04-25T10:45:48Z</time></trkpt><trkpt lat="44.00230772323278" lon="7.892552535276906"><ele>887.0</ele><time>2026-04-25T10:45:49Z</time></trkpt><trkpt lat="44.00224764884888" lon="7.892703015741683"><ele>887.0</ele><time>2026-04-25T10:45:50Z</time></trkpt><trkpt lat="44.00221979635978" lon="7.892894617485342"><ele>887.0</ele><time>2026-04-25T10:45:51Z</time></trkpt><trkpt lat="44.0021998278304" lon="7.893065548239425"><ele>884.6666666666667</ele><time>2026-04-25T10:45:52Z</time></trkpt><trkpt lat="44.00223530867979" lon="7.893244948373025"><ele>882.3333333333333</ele><time>2026-04-25T10:45:53Z</time></trkpt><trkpt lat="44.002320953750875" lon="7.893431327067764"><ele>880.0</ele><time>2026-04-25T10:45:54Z</time></trkpt><trkpt lat="44.00243246130485" lon="7.893601328360578"><ele>887.0</ele><time>2026-04-25T10:45:55Z</time></trkpt><trkpt lat="44.002543427384026" lon="7.8937343446614605"><ele>894.0</ele><time>2026-04-25T10:45:56Z</time></trkpt><trkpt lat="44.00262400437891" lon="7.893873663986146"><ele>901.0</ele><time>2026-04-25T10:45:57Z</time></trkpt><trkpt lat="44.00265875350406" lon="7.894024573932305"><ele>908.0</ele><time>2026-04-25T10:45:58Z</time></trkpt><trkpt lat="44.00259705641611" lon="7.894159736210563"><ele>908.5</ele><time>2026-04-25T10:45:59Z</time></trkpt><trkpt lat="44.00257423107743" lon="7.89433285810377"><ele>909.0</ele><time>2026-04-25T10:46:00Z</time></trkpt><trkpt lat="44.002550665690435" lon="7.894489694801977"><ele>909.5</ele><time>2026-04-25T10:46:01Z</time></trkpt><trkpt lat="44.00258740985361" lon="7.894656344473598"><ele>910.0</ele><time>2026-04-25T10:46:02Z</time></trkpt><trkpt lat="44.00262757328788" lon="7.894810420555025"><ele>910.0</ele><time>2026-04-25T10:46:03Z</time></trkpt><trkpt lat="44.00261464481642" lon="7.894940907936352"><ele>910.0</ele><time>2026-04-25T10:46:04Z</time></trkpt><trkpt lat="44.00251728143992" lon="7.895033468032691"><ele>910.0</ele><time>2026-04-25T10:46:05Z</time></trkpt><trkpt lat="44.00240778340804" lon="7.895152006207058"><ele>910.0</ele><time>2026-04-25T10:46:06Z</time></trkpt><trkpt lat="44.002299078127145" lon="7.895279766337908"><ele>904.0</ele><time>2026-04-25T10:46:07Z</time></trkpt><trkpt lat="44.00220385651018" lon="7.895396817495011"><ele>898.0</ele><time>2026-04-25T10:46:08Z</time></trkpt><trkpt lat="44.00213970995083" lon="7.895558851422059"><ele>892.0</ele><time>2026-04-25T10:46:09Z</time></trkpt><trkpt lat="44.002090777918994" lon="7.895758727830937"><ele>886.0</ele><time>2026-04-25T10:46:10Z</time></trkpt><trkpt lat="44.00201019281778" lon="7.8959315393892195"><ele>886.0</ele><time>2026-04-25T10:46:11Z</time></trkpt><trkpt lat="44.00193542681632" lon="7.896105928133778"><ele>886.0</ele><time>2026-04-25T10:46:12Z</time></trkpt><trkpt lat="44.00185766733557" lon="7.896243089189504"><ele>886.0</ele><time>2026-04-25T10:46:13Z</time></trkpt><trkpt lat="44.00181387278467" lon="7.896375263876693"><ele>886.0</ele><time>2026-04-25T10:46:14Z</time></trkpt><trkpt lat="44.00181184234191" lon="7.896528950011885"><ele>886.0</ele><time>2026-04-25T10:46:15Z</time></trkpt><trkpt lat="44.00186301548193" lon="7.896696046631758"><ele>886.0</ele><time>2026-04-25T10:46:16Z</time></trkpt><trkpt lat="44.001911715726415" lon="7.896877940539993"><ele>886.0</ele><time>2026-04-25T10:46:17Z</time></trkpt><trkpt lat="44.001917852527804" lon="7.897050492529563"><ele>886.0</ele><time>2026-04-25T10:46:18Z</time></trkpt><trkpt lat="44.0018579312036" lon="7.897187363873083"><ele>888.75</ele><time>2026-04-25T10:46:19Z</time></trkpt><trkpt lat="44.001789225676994" lon="7.8973470410259825"><ele>891.5</ele><time>2026-04-25T10:46:20Z</time></trkpt><trkpt lat="44.001752003694655" lon="7.897518770000284"><ele>894.25</ele><time>2026-04-25T10:46:21Z</time></trkpt><trkpt lat="44.00173986504868" lon="7.897689404837106"><ele>897.0</ele><time>2026-04-25T10:46:22Z</time></trkpt><trkpt lat="44.00169201208455" lon="7.897827390717239"><ele>892.25</ele><time>2026-04-25T10:46:23Z</time></trkpt><trkpt lat="44.00159221560031" lon="7.89790761269739"><ele>887.5</ele><time>2026-04-25T10:46:24Z</time></trkpt><trkpt lat="44.00147502005084" lon="7.897935616728505"><ele>882.75</ele><time>2026-04-25T10:46:25Z</time></trkpt><trkpt lat="44.00133770801074" lon="7.897942278429373"><ele>878.0</ele><time>2026-04-25T10:46:26Z</time></trkpt><trkpt lat="44.00121157211383" lon="7.8979753746973405"><ele>878.0</ele><time>2026-04-25T10:46:27Z</time></trkpt><trkpt lat="44.00109725422143" lon="7.898040156824064"><ele>878.0</ele><time>2026-04-25T10:46:28Z</time></trkpt><trkpt lat="44.001017662088586" lon="7.898169188016324"><ele>878.0</ele><time>2026-04-25T10:46:29Z</time></trkpt><trkpt lat="44.00098655128865" lon="7.8983305821693826"><ele>878.0</ele><time>2026-04-25T10:46:30Z</time></trkpt><trkpt lat="44.00099110554864" lon="7.898547130144917"><ele>879.0</ele><time>2026-04-25T10:46:31Z</time></trkpt><trkpt lat="44.0009991439242" lon="7.898762537189765"><ele>880.0</ele><time>2026-04-25T10:46:32Z</time></trkpt><trkpt lat="44.00099255471541" lon="7.898992240563628"><ele>881.0</ele><time>2026-04-25T10:46:33Z</time></trkpt><trkpt lat="44.000975748629074" lon="7.899228278944688"><ele>878.3333333333334</ele><time>2026-04-25T10:46:34Z</time></trkpt><trkpt lat="44.00096546765678" lon="7.899443998833809"><ele>875.6666666666667</ele><time>2026-04-25T10:46:35Z</time></trkpt><trkpt lat="44.00096759279332" lon="7.899658461947635"><ele>873.0</ele><time>2026-04-25T10:46:36Z</time></trkpt><trkpt lat="44.00100448704141" lon="7.899890383590551"><ele>872.3333333333333</ele><time>2026-04-25T10:46:37Z</time></trkpt><trkpt lat="44.001073777232975" lon="7.9001226949008485"><ele>871.6666666666666</ele><time>2026-04-25T10:46:38Z</time></trkpt><trkpt lat="44.001145962504204" lon="7.900331988954289"><ele>871.0</ele><time>2026-04-25T10:46:39Z</time></trkpt><trkpt lat="44.001173231969396" lon="7.9005128441136625"><ele>871.0</ele><time>2026-04-25T10:46:40Z</time></trkpt><trkpt lat="44.001197448194155" lon="7.90066667154864"><ele>871.0</ele><time>2026-04-25T10:46:41Z</time></trkpt><trkpt lat="44.00115950962465" lon="7.900820537271165"><ele>871.0</ele><time>2026-04-25T10:46:42Z</time></trkpt><trkpt lat="44.00104440302876" lon="7.900920111565991"><ele>871.0</ele><time>2026-04-25T10:46:43Z</time></trkpt><trkpt lat="44.0009782506016" lon="7.9010824350979165"><ele>875.75</ele><time>2026-04-25T10:46:44Z</time></trkpt><trkpt lat="44.000914871600756" lon="7.901245210738826"><ele>880.5</ele><time>2026-04-25T10:46:45Z</time></trkpt><trkpt lat="44.0008865497177" lon="7.901436106461706"><ele>885.25</ele><time>2026-04-25T10:46:46Z</time></trkpt><trkpt lat="44.00086584665702" lon="7.9016145719541075"><ele>890.0</ele><time>2026-04-25T10:46:47Z</time></trkpt><trkpt lat="44.00083163590723" lon="7.901745193458839"><ele>888.75</ele><time>2026-04-25T10:46:48Z</time></trkpt><trkpt lat="44.00074673944283" lon="7.901833711487527"><ele>887.5</ele><time>2026-04-25T10:46:49Z</time></trkpt><trkpt lat="44.000636683413944" lon="7.901890818547872"><ele>886.25</ele><time>2026-04-25T10:46:50Z</time></trkpt><trkpt lat="44.0004999440983" lon="7.901935883942229"><ele>885.0</ele><time>2026-04-25T10:46:51Z</time></trkpt><trkpt lat="44.00037973498404" lon="7.901979568297489"><ele>885.0</ele><time>2026-04-25T10:46:52Z</time></trkpt><trkpt lat="44.000285359959086" lon="7.9020647924841"><ele>885.0</ele><time>2026-04-25T10:46:53Z</time></trkpt><trkpt lat="44.00022197559583" lon="7.9021859793127325"><ele>885.0</ele><time>2026-04-25T10:46:54Z</time></trkpt><trkpt lat="44.000188041238374" lon="7.902360666040202"><ele>885.0</ele><time>2026-04-25T10:46:55Z</time></trkpt><trkpt lat="44.000125271329004" lon="7.902489171265116"><ele>885.0</ele><time>2026-04-25T10:46:56Z</time></trkpt><trkpt lat="44.000036608023294" lon="7.902577681161073"><ele>885.0</ele><time>2026-04-25T10:46:57Z</time></trkpt><trkpt lat="43.99990958892927" lon="7.902612265308975"><ele>885.0</ele><time>2026-04-25T10:46:58Z</time></trkpt><trkpt lat="43.999770669243475" lon="7.9026508290430915"><ele>885.0</ele><time>2026-04-25T10:46:59Z</time></trkpt><trkpt lat="43.9996269958413" lon="7.902646564024753"><ele>885.0</ele><time>2026-04-25T10:47:00Z</time></trkpt><trkpt lat="43.999482020986" lon="7.90261142834912"><ele>885.0</ele><time>2026-04-25T10:47:01Z</time></trkpt><trkpt lat="43.99935372885937" lon="7.902569780959536"><ele>885.0</ele><time>2026-04-25T10:47:02Z</time></trkpt><trkpt lat="43.99922984123906" lon="7.902579594012889"><ele>885.0</ele><time>2026-04-25T10:47:03Z</time></trkpt><trkpt lat="43.999119991628845" lon="7.902605386223178"><ele>889.0</ele><time>2026-04-25T10:47:04Z</time></trkpt><trkpt lat="43.99901912859037" lon="7.902747680727244"><ele>893.0</ele><time>2026-04-25T10:47:05Z</time></trkpt><trkpt lat="43.99894150892598" lon="7.902908043394651"><ele>897.0</ele><time>2026-04-25T10:47:06Z</time></trkpt><trkpt lat="43.998830570078844" lon="7.903037523303807"><ele>901.0</ele><time>2026-04-25T10:47:07Z</time></trkpt><trkpt lat="43.99871635387652" lon="7.903141746968442"><ele>901.0</ele><time>2026-04-25T10:47:08Z</time></trkpt><trkpt lat="43.998577538434795" lon="7.903225945387924"><ele>901.0</ele><time>2026-04-25T10:47:09Z</time></trkpt><trkpt lat="43.998424006327" lon="7.90327626188468"><ele>901.0</ele><time>2026-04-25T10:47:10Z</time></trkpt><trkpt lat="43.99826623400082" lon="7.903351531917267"><ele>891.0</ele><time>2026-04-25T10:47:11Z</time></trkpt><trkpt lat="43.998123249216015" lon="7.903351131742465"><ele>881.0</ele><time>2026-04-25T10:47:12Z</time></trkpt><trkpt lat="43.99799901255281" lon="7.903334022956549"><ele>871.0</ele><time>2026-04-25T10:47:13Z</time></trkpt><trkpt lat="43.99789709891333" lon="7.903340236780937"><ele>861.0</ele><time>2026-04-25T10:47:14Z</time></trkpt><trkpt lat="43.997810876383205" lon="7.9033683578397165"><ele>865.25</ele><time>2026-04-25T10:47:15Z</time></trkpt><trkpt lat="43.997749606167886" lon="7.9034793322489625"><ele>869.5</ele><time>2026-04-25T10:47:16Z</time></trkpt><trkpt lat="43.997718063221605" lon="7.903648916474235"><ele>873.75</ele><time>2026-04-25T10:47:17Z</time></trkpt><trkpt lat="43.99773058528138" lon="7.903845837490518"><ele>878.0</ele><time>2026-04-25T10:47:18Z</time></trkpt><trkpt lat="43.99776770718532" lon="7.9040447450667735"><ele>875.6666666666667</ele><time>2026-04-25T10:47:19Z</time></trkpt><trkpt lat="43.9978192402064" lon="7.904252747915217"><ele>873.3333333333333</ele><time>2026-04-25T10:47:20Z</time></trkpt><trkpt lat="43.997872230117146" lon="7.90447831578074"><ele>871.0</ele><time>2026-04-25T10:47:21Z</time></trkpt><trkpt lat="43.9979517353769" lon="7.90471253721666"><ele>871.0</ele><time>2026-04-25T10:47:22Z</time></trkpt><trkpt lat="43.99803289682813" lon="7.904923149626164"><ele>871.0</ele><time>2026-04-25T10:47:23Z</time></trkpt><trkpt lat="43.998106800550225" lon="7.905118726354963"><ele>871.0</ele><time>2026-04-25T10:47:24Z</time></trkpt><trkpt lat="43.99814727470448" lon="7.905303230871012"><ele>870.5</ele><time>2026-04-25T10:47:25Z</time></trkpt><trkpt lat="43.998180104687265" lon="7.905462458800546"><ele>870.0</ele><time>2026-04-25T10:47:26Z</time></trkpt><trkpt lat="43.99816337421903" lon="7.905621031584699"><ele>869.5</ele><time>2026-04-25T10:47:27Z</time></trkpt><trkpt lat="43.99811249840035" lon="7.905782494528636"><ele>869.0</ele><time>2026-04-25T10:47:28Z</time></trkpt><trkpt lat="43.99803505559527" lon="7.90595546715691"><ele>873.5</ele><time>2026-04-25T10:47:29Z</time></trkpt><trkpt lat="43.99795970388655" lon="7.906112224881719"><ele>878.0</ele><time>2026-04-25T10:47:30Z</time></trkpt><trkpt lat="43.99787354684422" lon="7.906261568763691"><ele>882.5</ele><time>2026-04-25T10:47:31Z</time></trkpt><trkpt lat="43.997790841023566" lon="7.906407540476127"><ele>887.0</ele><time>2026-04-25T10:47:32Z</time></trkpt><trkpt lat="43.997726521359766" lon="7.906574869874056"><ele>890.0</ele><time>2026-04-25T10:47:33Z</time></trkpt><trkpt lat="43.99768673326626" lon="7.906777529835197"><ele>893.0</ele><time>2026-04-25T10:47:34Z</time></trkpt><trkpt lat="43.997674316878864" lon="7.907021855267142"><ele>896.0</ele><time>2026-04-25T10:47:35Z</time></trkpt><trkpt lat="43.997675436048844" lon="7.907265344370677"><ele>896.0</ele><time>2026-04-25T10:47:36Z</time></trkpt><trkpt lat="43.997657036954585" lon="7.907490850294718"><ele>896.0</ele><time>2026-04-25T10:47:37Z</time></trkpt><trkpt lat="43.99762733535366" lon="7.907695305120374"><ele>896.0</ele><time>2026-04-25T10:47:38Z</time></trkpt><trkpt lat="43.997593881749545" lon="7.907888271760291"><ele>895.25</ele><time>2026-04-25T10:47:39Z</time></trkpt><trkpt lat="43.99756960751553" lon="7.908077162768643"><ele>894.5</ele><time>2026-04-25T10:47:40Z</time></trkpt><trkpt lat="43.99756644199333" lon="7.9082613501524905"><ele>893.75</ele><time>2026-04-25T10:47:41Z</time></trkpt><trkpt lat="43.997572158881795" lon="7.908426612382548"><ele>893.0</ele><time>2026-04-25T10:47:42Z</time></trkpt><trkpt lat="43.99753074538649" lon="7.9085533638658205"><ele>888.5</ele><time>2026-04-25T10:47:43Z</time></trkpt><trkpt lat="43.99746062800927" lon="7.908642437439823"><ele>884.0</ele><time>2026-04-25T10:47:44Z</time></trkpt><trkpt lat="43.99734270348474" lon="7.908694275922491"><ele>879.5</ele><time>2026-04-25T10:47:45Z</time></trkpt><trkpt lat="43.997223771352786" lon="7.908754692155872"><ele>875.0</ele><time>2026-04-25T10:47:46Z</time></trkpt><trkpt lat="43.997097765450306" lon="7.908798482780894"><ele>875.0</ele><time>2026-04-25T10:47:47Z</time></trkpt><trkpt lat="43.99696737466423" lon="7.908798885701918"><ele>875.0</ele><time>2026-04-25T10:47:48Z</time></trkpt><trkpt lat="43.99683423271828" lon="7.908736230650642"><ele>875.0</ele><time>2026-04-25T10:47:49Z</time></trkpt><trkpt lat="43.99670894557026" lon="7.908733295133032"><ele>875.0</ele><time>2026-04-25T10:47:50Z</time></trkpt><trkpt lat="43.996569268836666" lon="7.90874426243956"><ele>871.5</ele><time>2026-04-25T10:47:51Z</time></trkpt><trkpt lat="43.99643121152909" lon="7.908837442719322"><ele>868.0</ele><time>2026-04-25T10:47:52Z</time></trkpt><trkpt lat="43.99630625280405" lon="7.908913271837773"><ele>864.5</ele><time>2026-04-25T10:47:53Z</time></trkpt><trkpt lat="43.99617589373587" lon="7.908943346506765"><ele>861.0</ele><time>2026-04-25T10:47:54Z</time></trkpt><trkpt lat="43.99604718894964" lon="7.908927519561831"><ele>861.0</ele><time>2026-04-25T10:47:55Z</time></trkpt><trkpt lat="43.99593266400808" lon="7.908919338425543"><ele>861.0</ele><time>2026-04-25T10:47:56Z</time></trkpt><trkpt lat="43.99583504972106" lon="7.908974777991777"><ele>861.0</ele><time>2026-04-25T10:47:57Z</time></trkpt><trkpt lat="43.99575475535397" lon="7.909093848486861"><ele>861.0</ele><time>2026-04-25T10:47:58Z</time></trkpt><trkpt lat="43.99570955902246" lon="7.90927188460285"><ele>858.75</ele><time>2026-04-25T10:47:59Z</time></trkpt><trkpt lat="43.99565631823241" lon="7.909458049776668"><ele>856.5</ele><time>2026-04-25T10:48:00Z</time></trkpt><trkpt lat="43.995591329915705" lon="7.909625236805271"><ele>854.25</ele><time>2026-04-25T10:48:01Z</time></trkpt><trkpt lat="43.995501427877116" lon="7.9097813544359985"><ele>852.0</ele><time>2026-04-25T10:48:02Z</time></trkpt><trkpt lat="43.99538527516611" lon="7.9098909218490006"><ele>852.0</ele><time>2026-04-25T10:48:03Z</time></trkpt><trkpt lat="43.99527022546832" lon="7.909995703507582"><ele>852.0</ele><time>2026-04-25T10:48:04Z</time></trkpt><trkpt lat="43.995189836647185" lon="7.910091834609573"><ele>852.0</ele><time>2026-04-25T10:48:05Z</time></trkpt><trkpt lat="43.995151875048656" lon="7.910174281544938"><ele>852.0</ele><time>2026-04-25T10:48:06Z</time></trkpt><trkpt lat="43.995218048108626" lon="7.910307387806267"><ele>852.0</ele><time>2026-04-25T10:48:07Z</time></trkpt><trkpt lat="43.99529951001523" lon="7.910391034658382"><ele>849.0</ele><time>2026-04-25T10:48:08Z</time></trkpt><trkpt lat="43.99542167854652" lon="7.9104502475057865"><ele>846.0</ele><time>2026-04-25T10:48:09Z</time></trkpt><trkpt lat="43.99553838938891" lon="7.910498643128501"><ele>843.0</ele><time>2026-04-25T10:48:10Z</time></trkpt><trkpt lat="43.995623553918804" lon="7.910600798744003"><ele>840.0</ele><time>2026-04-25T10:48:11Z</time></trkpt><trkpt lat="43.99568653825414" lon="7.910742416252924"><ele>845.0</ele><time>2026-04-25T10:48:12Z</time></trkpt><trkpt lat="43.995737655576015" lon="7.910951621261837"><ele>850.0</ele><time>2026-04-25T10:48:13Z</time></trkpt><trkpt lat="43.995811257222876" lon="7.911163227391689"><ele>855.0</ele><time>2026-04-25T10:48:14Z</time></trkpt><trkpt lat="43.995894692792696" lon="7.911378439829226"><ele>855.0</ele><time>2026-04-25T10:48:15Z</time></trkpt><trkpt lat="43.995994338600866" lon="7.911595522638812"><ele>855.0</ele><time>2026-04-25T10:48:16Z</time></trkpt><trkpt lat="43.99607278024878" lon="7.911838000751418"><ele>855.0</ele><time>2026-04-25T10:48:17Z</time></trkpt><trkpt lat="43.996174383149466" lon="7.9120487527004"><ele>850.0</ele><time>2026-04-25T10:48:18Z</time></trkpt><trkpt lat="43.99627360452593" lon="7.912232898143838"><ele>845.0</ele><time>2026-04-25T10:48:19Z</time></trkpt><trkpt lat="43.996347572867876" lon="7.912443003169224"><ele>840.0</ele><time>2026-04-25T10:48:20Z</time></trkpt><trkpt lat="43.99635770794913" lon="7.9126963841764475"><ele>838.0</ele><time>2026-04-25T10:48:21Z</time></trkpt><trkpt lat="43.99638575717395" lon="7.912984063320336"><ele>836.0</ele><time>2026-04-25T10:48:22Z</time></trkpt><trkpt lat="43.99642664974809" lon="7.913263180709789"><ele>834.0</ele><time>2026-04-25T10:48:23Z</time></trkpt><trkpt lat="43.99646707737455" lon="7.913542884799394"><ele>832.0</ele><time>2026-04-25T10:48:24Z</time></trkpt><trkpt lat="43.996526062612375" lon="7.913807394068551"><ele>830.0</ele><time>2026-04-25T10:48:25Z</time></trkpt><trkpt lat="43.99659184923712" lon="7.914042953597272"><ele>828.0</ele><time>2026-04-25T10:48:26Z</time></trkpt><trkpt lat="43.99665246796959" lon="7.914257733552173"><ele>834.6666666666667</ele><time>2026-04-25T10:48:27Z</time></trkpt><trkpt lat="43.99672507347897" lon="7.9144671902493835"><ele>841.3333333333334</ele><time>2026-04-25T10:48:28Z</time></trkpt><trkpt lat="43.996824360053495" lon="7.91465500707777"><ele>848.0</ele><time>2026-04-25T10:48:29Z</time></trkpt><trkpt lat="43.99691832014394" lon="7.914821530737607"><ele>848.0</ele><time>2026-04-25T10:48:30Z</time></trkpt><trkpt lat="43.99699400446732" lon="7.914964383356664"><ele>848.0</ele><time>2026-04-25T10:48:31Z</time></trkpt><trkpt lat="43.99704094829321" lon="7.915125978305875"><ele>848.0</ele><time>2026-04-25T10:48:32Z</time></trkpt><trkpt lat="43.997031300189995" lon="7.915319700788333"><ele>848.0</ele><time>2026-04-25T10:48:33Z</time></trkpt><trkpt lat="43.99699428048995" lon="7.915529382103805"><ele>848.6666666666667</ele><time>2026-04-25T10:48:34Z</time></trkpt><trkpt lat="43.99692944417111" lon="7.915772552392691"><ele>849.3333333333333</ele><time>2026-04-25T10:48:35Z</time></trkpt><trkpt lat="43.99689404943047" lon="7.9160101984977524"><ele>850.0</ele><time>2026-04-25T10:48:36Z</time></trkpt><trkpt lat="43.996873384291966" lon="7.916238488804388"><ele>850.5</ele><time>2026-04-25T10:48:37Z</time></trkpt><trkpt lat="43.996866554609255" lon="7.916454125486063"><ele>851.0</ele><time>2026-04-25T10:48:38Z</time></trkpt><trkpt lat="43.996856201779146" lon="7.916655447579267"><ele>851.5</ele><time>2026-04-25T10:48:39Z</time></trkpt><trkpt lat="43.996778624625485" lon="7.916819786793831"><ele>852.0</ele><time>2026-04-25T10:48:40Z</time></trkpt><trkpt lat="43.99667598728006" lon="7.916920309846176"><ele>847.0</ele><time>2026-04-25T10:48:41Z</time></trkpt><trkpt lat="43.996557249064075" lon="7.917053379232856"><ele>842.0</ele><time>2026-04-25T10:48:42Z</time></trkpt><trkpt lat="43.99643285113929" lon="7.917193420770184"><ele>837.0</ele><time>2026-04-25T10:48:43Z</time></trkpt><trkpt lat="43.99631887482321" lon="7.917353652734623"><ele>837.0</ele><time>2026-04-25T10:48:44Z</time></trkpt><trkpt lat="43.996193241290406" lon="7.917488426164375"><ele>837.0</ele><time>2026-04-25T10:48:45Z</time></trkpt><trkpt lat="43.996100543231215" lon="7.917664846663513"><ele>837.0</ele><time>2026-04-25T10:48:46Z</time></trkpt><trkpt lat="43.99603276020842" lon="7.917831225305093"><ele>839.75</ele><time>2026-04-25T10:48:47Z</time></trkpt><trkpt lat="43.99601243598115" lon="7.918003673341304"><ele>842.5</ele><time>2026-04-25T10:48:48Z</time></trkpt><trkpt lat="43.996033387365415" lon="7.918192044454991"><ele>845.25</ele><time>2026-04-25T10:48:49Z</time></trkpt><trkpt lat="43.99604603646879" lon="7.918366385828779"><ele>848.0</ele><time>2026-04-25T10:48:50Z</time></trkpt><trkpt lat="43.99600792173834" lon="7.918504528734709"><ele>848.0</ele><time>2026-04-25T10:48:51Z</time></trkpt><trkpt lat="43.99592949967752" lon="7.91862748365206"><ele>848.0</ele><time>2026-04-25T10:48:52Z</time></trkpt><trkpt lat="43.9958353907628" lon="7.918694858299044"><ele>848.0</ele><time>2026-04-25T10:48:53Z</time></trkpt><trkpt lat="43.99572737385697" lon="7.918787728866914"><ele>848.0</ele><time>2026-04-25T10:48:54Z</time></trkpt><trkpt lat="43.99564812865673" lon="7.918868665396535"><ele>848.0</ele><time>2026-04-25T10:48:55Z</time></trkpt><trkpt lat="43.99557706969421" lon="7.918992591264954"><ele>840.75</ele><time>2026-04-25T10:48:56Z</time></trkpt><trkpt lat="43.995602614513686" lon="7.919194231977266"><ele>833.5</ele><time>2026-04-25T10:48:57Z</time></trkpt><trkpt lat="43.995613963123354" lon="7.919349112446395"><ele>826.25</ele><time>2026-04-25T10:48:58Z</time></trkpt><trkpt lat="43.995559755465905" lon="7.919446481446539"><ele>819.0</ele><time>2026-04-25T10:48:59Z</time></trkpt><trkpt lat="43.995478001795384" lon="7.919574511057709"><ele>819.0</ele><time>2026-04-25T10:49:00Z</time></trkpt><trkpt lat="43.99539257830893" lon="7.919748203798764"><ele>819.0</ele><time>2026-04-25T10:49:01Z</time></trkpt><trkpt lat="43.99534253924628" lon="7.919917085747502"><ele>819.0</ele><time>2026-04-25T10:49:02Z</time></trkpt><trkpt lat="43.99533299682012" lon="7.920136557085693"><ele>819.0</ele><time>2026-04-25T10:49:03Z</time></trkpt><trkpt lat="43.99533334393312" lon="7.9203797493936055"><ele>818.6666666666667</ele><time>2026-04-25T10:49:04Z</time></trkpt><trkpt lat="43.99532089879441" lon="7.920614493591648"><ele>818.3333333333334</ele><time>2026-04-25T10:49:05Z</time></trkpt><trkpt lat="43.99529123196951" lon="7.920820776199293"><ele>818.0</ele><time>2026-04-25T10:49:06Z</time></trkpt><trkpt lat="43.99527328320393" lon="7.921015662601931"><ele>819.0</ele><time>2026-04-25T10:49:07Z</time></trkpt><trkpt lat="43.99523943276891" lon="7.921194061762519"><ele>820.0</ele><time>2026-04-25T10:49:08Z</time></trkpt><trkpt lat="43.995168684888554" lon="7.921340838106026"><ele>821.0</ele><time>2026-04-25T10:49:09Z</time></trkpt><trkpt lat="43.99505792975735" lon="7.921455681234112"><ele>822.0</ele><time>2026-04-25T10:49:10Z</time></trkpt><trkpt lat="43.994912703319144" lon="7.921565852404239"><ele>825.6666666666667</ele><time>2026-04-25T10:49:11Z</time></trkpt><trkpt lat="43.994757785039695" lon="7.921699867197257"><ele>829.3333333333334</ele><time>2026-04-25T10:49:12Z</time></trkpt><trkpt lat="43.99460202965216" lon="7.921808711283175"><ele>833.0</ele><time>2026-04-25T10:49:13Z</time></trkpt><trkpt lat="43.99444553795848" lon="7.921928632421787"><ele>833.0</ele><time>2026-04-25T10:49:14Z</time></trkpt><trkpt lat="43.99428298662944" lon="7.922054379212699"><ele>833.0</ele><time>2026-04-25T10:49:15Z</time></trkpt><trkpt lat="43.99412450923202" lon="7.922168162566042"><ele>833.0</ele><time>2026-04-25T10:49:16Z</time></trkpt><trkpt lat="43.99397859861949" lon="7.92227633265705"><ele>832.3333333333334</ele><time>2026-04-25T10:49:17Z</time></trkpt><trkpt lat="43.99383756745986" lon="7.922381725967657"><ele>831.6666666666667</ele><time>2026-04-25T10:49:18Z</time></trkpt><trkpt lat="43.9937000717482" lon="7.922492774665062"><ele>831.0</ele><time>2026-04-25T10:49:19Z</time></trkpt><trkpt lat="43.993568817047" lon="7.922608691175912"><ele>831.0</ele><time>2026-04-25T10:49:20Z</time></trkpt><trkpt lat="43.993443299976924" lon="7.922740780098455"><ele>831.0</ele><time>2026-04-25T10:49:21Z</time></trkpt><trkpt lat="43.99333071614723" lon="7.922888508978873"><ele>831.0</ele><time>2026-04-25T10:49:22Z</time></trkpt><trkpt lat="43.99320292113728" lon="7.92298994072981"><ele>825.25</ele><time>2026-04-25T10:49:23Z</time></trkpt><trkpt lat="43.993070985848256" lon="7.923073963700796"><ele>819.5</ele><time>2026-04-25T10:49:24Z</time></trkpt><trkpt lat="43.99294781212808" lon="7.923171772438276"><ele>813.75</ele><time>2026-04-25T10:49:25Z</time></trkpt><trkpt lat="43.992843202735486" lon="7.923269508690495"><ele>808.0</ele><time>2026-04-25T10:49:26Z</time></trkpt><trkpt lat="43.99274937763062" lon="7.92341150320044"><ele>808.0</ele><time>2026-04-25T10:49:27Z</time></trkpt><trkpt lat="43.992700154448535" lon="7.923594775020765"><ele>808.0</ele><time>2026-04-25T10:49:28Z</time></trkpt><trkpt lat="43.99267770092601" lon="7.923793905197405"><ele>808.0</ele><time>2026-04-25T10:49:29Z</time></trkpt><trkpt lat="43.99268547277294" lon="7.924024888472064"><ele>808.0</ele><time>2026-04-25T10:49:30Z</time></trkpt><trkpt lat="43.99271971710463" lon="7.924285832954607"><ele>808.0</ele><time>2026-04-25T10:49:31Z</time></trkpt><trkpt lat="43.99271344116156" lon="7.92452488321967"><ele>808.0</ele><time>2026-04-25T10:49:32Z</time></trkpt><trkpt lat="43.99271094389124" lon="7.924757520740608"><ele>808.0</ele><time>2026-04-25T10:49:33Z</time></trkpt><trkpt lat="43.99271633796606" lon="7.924985773004108"><ele>808.0</ele><time>2026-04-25T10:49:34Z</time></trkpt><trkpt lat="43.99270609397783" lon="7.925210079397775"><ele>808.0</ele><time>2026-04-25T10:49:35Z</time></trkpt><trkpt lat="43.99270048653725" lon="7.925421918023854"><ele>806.75</ele><time>2026-04-25T10:49:36Z</time></trkpt><trkpt lat="43.992694709120244" lon="7.925619209468081"><ele>805.5</ele><time>2026-04-25T10:49:37Z</time></trkpt><trkpt lat="43.99270635136564" lon="7.925792902389958"><ele>804.25</ele><time>2026-04-25T10:49:38Z</time></trkpt><trkpt lat="43.99275239126819" lon="7.925962416723842"><ele>803.0</ele><time>2026-04-25T10:49:39Z</time></trkpt><trkpt lat="43.9928364508068" lon="7.926121374341498"><ele>798.6666666666667</ele><time>2026-04-25T10:49:40Z</time></trkpt><trkpt lat="43.99296177377579" lon="7.92626552675324"><ele>794.3333333333333</ele><time>2026-04-25T10:49:41Z</time></trkpt><trkpt lat="43.993081838978945" lon="7.926408992794988"><ele>790.0</ele><time>2026-04-25T10:49:42Z</time></trkpt><trkpt lat="43.993186703156276" lon="7.926547300522838"><ele>790.0</ele><time>2026-04-25T10:49:43Z</time></trkpt><trkpt lat="43.99328669540392" lon="7.926698750789839"><ele>790.0</ele><time>2026-04-25T10:49:44Z</time></trkpt><trkpt lat="43.993368724735106" lon="7.9268956035725635"><ele>790.0</ele><time>2026-04-25T10:49:45Z</time></trkpt><trkpt lat="43.99339436325508" lon="7.9271263459436945"><ele>792.3333333333333</ele><time>2026-04-25T10:49:46Z</time></trkpt><trkpt lat="43.993418333396974" lon="7.927348454227676"><ele>794.6666666666667</ele><time>2026-04-25T10:49:47Z</time></trkpt><trkpt lat="43.99344007316431" lon="7.927557643225516"><ele>797.0</ele><time>2026-04-25T10:49:48Z</time></trkpt><trkpt lat="43.99344531627467" lon="7.927757622734283"><ele>797.0</ele><time>2026-04-25T10:49:49Z</time></trkpt><trkpt lat="43.993471960058194" lon="7.9279458455613945"><ele>797.0</ele><time>2026-04-25T10:49:50Z</time></trkpt><trkpt lat="43.99353473097402" lon="7.928109293433155"><ele>797.0</ele><time>2026-04-25T10:49:51Z</time></trkpt><trkpt lat="43.99360659542189" lon="7.928247702941249"><ele>797.0</ele><time>2026-04-25T10:49:52Z</time></trkpt><trkpt lat="43.99363272275049" lon="7.928369531066253"><ele>795.25</ele><time>2026-04-25T10:49:53Z</time></trkpt><trkpt lat="43.99358099924329" lon="7.928480730841171"><ele>793.5</ele><time>2026-04-25T10:49:54Z</time></trkpt><trkpt lat="43.993513220451874" lon="7.928573729972594"><ele>791.75</ele><time>2026-04-25T10:49:55Z</time></trkpt><trkpt lat="43.99338561794698" lon="7.928543841027352"><ele>790.0</ele><time>2026-04-25T10:49:56Z</time></trkpt><trkpt lat="43.99323577739385" lon="7.928571503079708"><ele>790.0</ele><time>2026-04-25T10:49:57Z</time></trkpt><trkpt lat="43.993079220323665" lon="7.928616859159375"><ele>790.0</ele><time>2026-04-25T10:49:58Z</time></trkpt><trkpt lat="43.99293288518496" lon="7.928676341323248"><ele>790.0</ele><time>2026-04-25T10:49:59Z</time></trkpt><trkpt lat="43.992814421575694" lon="7.928754128786296"><ele>790.0</ele><time>2026-04-25T10:50:00Z</time></trkpt><trkpt lat="43.992732138736145" lon="7.9288481920441045"><ele>790.0</ele><time>2026-04-25T10:50:01Z</time></trkpt><trkpt lat="43.99269450385764" lon="7.928987361238696"><ele>790.0</ele><time>2026-04-25T10:50:02Z</time></trkpt><trkpt lat="43.992701610550455" lon="7.929158350316843"><ele>790.0</ele><time>2026-04-25T10:50:03Z</time></trkpt><trkpt lat="43.99273041717358" lon="7.929350628976097"><ele>790.0</ele><time>2026-04-25T10:50:04Z</time></trkpt><trkpt lat="43.99277899705452" lon="7.9295432549058695"><ele>788.75</ele><time>2026-04-25T10:50:05Z</time></trkpt><trkpt lat="43.99279328322621" lon="7.92973696806882"><ele>787.5</ele><time>2026-04-25T10:50:06Z</time></trkpt><trkpt lat="43.99285277684341" lon="7.929926422911678"><ele>786.25</ele><time>2026-04-25T10:50:07Z</time></trkpt><trkpt lat="43.992919363922745" lon="7.930112683540363"><ele>785.0</ele><time>2026-04-25T10:50:08Z</time></trkpt><trkpt lat="43.99300763883597" lon="7.930269542192871"><ele>786.0</ele><time>2026-04-25T10:50:09Z</time></trkpt><trkpt lat="43.99313119121892" lon="7.930444190534847"><ele>787.0</ele><time>2026-04-25T10:50:10Z</time></trkpt><trkpt lat="43.99324212580452" lon="7.93059908834137"><ele>788.0</ele><time>2026-04-25T10:50:11Z</time></trkpt><trkpt lat="43.99334183108625" lon="7.930756146417894"><ele>788.5</ele><time>2026-04-25T10:50:12Z</time></trkpt><trkpt lat="43.99343688069795" lon="7.930897359063155"><ele>789.0</ele><time>2026-04-25T10:50:13Z</time></trkpt><trkpt lat="43.99352159868862" lon="7.931020306564927"><ele>789.5</ele><time>2026-04-25T10:50:14Z</time></trkpt><trkpt lat="43.99357146587543" lon="7.931156112933223"><ele>790.0</ele><time>2026-04-25T10:50:15Z</time></trkpt><trkpt lat="43.99360302042833" lon="7.931266669512921"><ele>790.0</ele><time>2026-04-25T10:50:16Z</time></trkpt><trkpt lat="43.99353814212392" lon="7.931393793339354"><ele>790.0</ele><time>2026-04-25T10:50:17Z</time></trkpt><trkpt lat="43.99347459080823" lon="7.93153971548272"><ele>790.0</ele><time>2026-04-25T10:50:18Z</time></trkpt><trkpt lat="43.99344157214446" lon="7.931724468361552"><ele>790.0</ele><time>2026-04-25T10:50:19Z</time></trkpt><trkpt lat="43.993427491397625" lon="7.931922785700328"><ele>789.0</ele><time>2026-04-25T10:50:20Z</time></trkpt><trkpt lat="43.99339468733839" lon="7.93215560749479"><ele>788.0</ele><time>2026-04-25T10:50:21Z</time></trkpt><trkpt lat="43.993391315874426" lon="7.932377493325975"><ele>787.0</ele><time>2026-04-25T10:50:22Z</time></trkpt><trkpt lat="43.99337044876003" lon="7.932560147015011"><ele>785.75</ele><time>2026-04-25T10:50:23Z</time></trkpt><trkpt lat="43.99338194103315" lon="7.932708506963762"><ele>784.5</ele><time>2026-04-25T10:50:24Z</time></trkpt><trkpt lat="43.99344905364637" lon="7.932821753985524"><ele>783.25</ele><time>2026-04-25T10:50:25Z</time></trkpt><trkpt lat="43.99356090461248" lon="7.932941775529088"><ele>782.0</ele><time>2026-04-25T10:50:26Z</time></trkpt><trkpt lat="43.99363543760653" lon="7.933076074485077"><ele>782.0</ele><time>2026-04-25T10:50:27Z</time></trkpt><trkpt lat="43.99369469087417" lon="7.933206366053105"><ele>782.0</ele><time>2026-04-25T10:50:28Z</time></trkpt><trkpt lat="43.993707742169036" lon="7.933346568978612"><ele>782.0</ele><time>2026-04-25T10:50:29Z</time></trkpt><trkpt lat="43.993662529352626" lon="7.933475403072012"><ele>782.0</ele><time>2026-04-25T10:50:30Z</time></trkpt><trkpt lat="43.99358007419202" lon="7.933601349504959"><ele>782.0</ele><time>2026-04-25T10:50:31Z</time></trkpt><trkpt lat="43.993470704329546" lon="7.933712899837456"><ele>783.0</ele><time>2026-04-25T10:50:32Z</time></trkpt><trkpt lat="43.99341535789602" lon="7.933868338848457"><ele>784.0</ele><time>2026-04-25T10:50:33Z</time></trkpt><trkpt lat="43.993374116521125" lon="7.934025799492615"><ele>785.0</ele><time>2026-04-25T10:50:34Z</time></trkpt><trkpt lat="43.993354315476424" lon="7.9341876987437665"><ele>786.0</ele><time>2026-04-25T10:50:35Z</time></trkpt><trkpt lat="43.993368534382974" lon="7.934348637569563"><ele>786.0</ele><time>2026-04-25T10:50:36Z</time></trkpt><trkpt lat="43.99343238090562" lon="7.934496680082588"><ele>786.0</ele><time>2026-04-25T10:50:37Z</time></trkpt><trkpt lat="43.9935331550587" lon="7.934635743679473"><ele>786.0</ele><time>2026-04-25T10:50:38Z</time></trkpt><trkpt lat="43.993619368059605" lon="7.9347580994283184"><ele>786.0</ele><time>2026-04-25T10:50:39Z</time></trkpt><trkpt lat="43.99367015077711" lon="7.934887956005224"><ele>786.0</ele><time>2026-04-25T10:50:40Z</time></trkpt><trkpt lat="43.99367755054042" lon="7.935036053966185"><ele>786.0</ele><time>2026-04-25T10:50:41Z</time></trkpt><trkpt lat="43.99360896811518" lon="7.935172851751859"><ele>786.0</ele><time>2026-04-25T10:50:42Z</time></trkpt><trkpt lat="43.99351566175335" lon="7.935276334685353"><ele>786.0</ele><time>2026-04-25T10:50:43Z</time></trkpt><trkpt lat="43.99346080895803" lon="7.935404761133906"><ele>786.25</ele><time>2026-04-25T10:50:44Z</time></trkpt><trkpt lat="43.9934478945684" lon="7.935565319326683"><ele>786.5</ele><time>2026-04-25T10:50:45Z</time></trkpt><trkpt lat="43.99345239345056" lon="7.9357909869328775"><ele>786.75</ele><time>2026-04-25T10:50:46Z</time></trkpt><trkpt lat="43.99346629431803" lon="7.936020883439336"><ele>787.0</ele><time>2026-04-25T10:50:47Z</time></trkpt><trkpt lat="43.99347786834541" lon="7.936219258276387"><ele>787.75</ele><time>2026-04-25T10:50:48Z</time></trkpt><trkpt lat="43.99349471393182" lon="7.93640220683317"><ele>788.5</ele><time>2026-04-25T10:50:49Z</time></trkpt><trkpt lat="43.99349024815171" lon="7.936587454884113"><ele>789.25</ele><time>2026-04-25T10:50:50Z</time></trkpt><trkpt lat="43.99343252882229" lon="7.936781012576051"><ele>790.0</ele><time>2026-04-25T10:50:51Z</time></trkpt><trkpt lat="43.99337183730987" lon="7.936974880504185"><ele>780.0</ele><time>2026-04-25T10:50:52Z</time></trkpt><trkpt lat="43.99331203604969" lon="7.937187774089426"><ele>770.0</ele><time>2026-04-25T10:50:53Z</time></trkpt><trkpt lat="43.993264996113545" lon="7.937398853169803"><ele>760.0</ele><time>2026-04-25T10:50:54Z</time></trkpt><trkpt lat="43.99325469828341" lon="7.937651161691336"><ele>760.0</ele><time>2026-04-25T10:50:55Z</time></trkpt><trkpt lat="43.99323599410957" lon="7.937870386425127"><ele>760.0</ele><time>2026-04-25T10:50:56Z</time></trkpt><trkpt lat="43.993202159621106" lon="7.9380607706347845"><ele>760.0</ele><time>2026-04-25T10:50:57Z</time></trkpt><trkpt lat="43.99314436587666" lon="7.938217833464448"><ele>760.0</ele><time>2026-04-25T10:50:58Z</time></trkpt><trkpt lat="43.99305250965495" lon="7.9383643482956705"><ele>762.5</ele><time>2026-04-25T10:50:59Z</time></trkpt><trkpt lat="43.992981527432164" lon="7.938518143602478"><ele>765.0</ele><time>2026-04-25T10:51:00Z</time></trkpt><trkpt lat="43.99291472541962" lon="7.938688571173145"><ele>767.5</ele><time>2026-04-25T10:51:01Z</time></trkpt><trkpt lat="43.99288845573377" lon="7.938909925315881"><ele>770.0</ele><time>2026-04-25T10:51:02Z</time></trkpt><trkpt lat="43.992851240967894" lon="7.939131856110459"><ele>772.3333333333334</ele><time>2026-04-25T10:51:03Z</time></trkpt><trkpt lat="43.99277486521556" lon="7.939304224006139"><ele>774.6666666666667</ele><time>2026-04-25T10:51:04Z</time></trkpt><trkpt lat="43.992716052578785" lon="7.939504520418409"><ele>777.0</ele><time>2026-04-25T10:51:05Z</time></trkpt><trkpt lat="43.99266133454422" lon="7.939733298846792"><ele>777.0</ele><time>2026-04-25T10:51:06Z</time></trkpt><trkpt lat="43.9926406969297" lon="7.939987844744557"><ele>777.0</ele><time>2026-04-25T10:51:07Z</time></trkpt><trkpt lat="43.99262609272196" lon="7.9402628355063385"><ele>777.0</ele><time>2026-04-25T10:51:08Z</time></trkpt><trkpt lat="43.99256372234546" lon="7.94055202052401"><ele>773.3333333333334</ele><time>2026-04-25T10:51:09Z</time></trkpt><trkpt lat="43.99252349141264" lon="7.940826985790021"><ele>769.6666666666667</ele><time>2026-04-25T10:51:10Z</time></trkpt><trkpt lat="43.992477548300116" lon="7.941069064597556"><ele>766.0</ele><time>2026-04-25T10:51:11Z</time></trkpt><trkpt lat="43.992442027960564" lon="7.941281772934215"><ele>758.4</ele><time>2026-04-25T10:51:12Z</time></trkpt><trkpt lat="43.99241503825887" lon="7.941453533528749"><ele>750.8</ele><time>2026-04-25T10:51:13Z</time></trkpt><trkpt lat="43.99240666684609" lon="7.9415851001465345"><ele>743.1999999999999</ele><time>2026-04-25T10:51:14Z</time></trkpt><trkpt lat="43.9924432927668" lon="7.9416927591361"><ele>735.5999999999999</ele><time>2026-04-25T10:51:15Z</time></trkpt><trkpt lat="43.99253534856525" lon="7.941770548450138"><ele>728.0</ele><time>2026-04-25T10:51:16Z</time></trkpt><trkpt lat="43.99266518635607" lon="7.941808458138982"><ele>719.6666666666666</ele><time>2026-04-25T10:51:17Z</time></trkpt><trkpt lat="43.992823243292776" lon="7.941835282356948"><ele>711.3333333333334</ele><time>2026-04-25T10:51:18Z</time></trkpt><trkpt lat="43.99298493423124" lon="7.941867796603725"><ele>703.0</ele><time>2026-04-25T10:51:19Z</time></trkpt><trkpt lat="43.993119202448426" lon="7.941929066549921"><ele>703.0</ele><time>2026-04-25T10:51:20Z</time></trkpt><trkpt lat="43.99323669615192" lon="7.941957448945894"><ele>703.0</ele><time>2026-04-25T10:51:21Z</time></trkpt><trkpt lat="43.99335221909744" lon="7.9419359822050275"><ele>703.0</ele><time>2026-04-25T10:51:22Z</time></trkpt><trkpt lat="43.993481192576" lon="7.9418447641893275"><ele>703.0</ele><time>2026-04-25T10:51:23Z</time></trkpt><trkpt lat="43.9936215750593" lon="7.941744758553106"><ele>714.3333333333334</ele><time>2026-04-25T10:51:24Z</time></trkpt><trkpt lat="43.993757364731486" lon="7.941690341363739"><ele>725.6666666666666</ele><time>2026-04-25T10:51:25Z</time></trkpt><trkpt lat="43.99390675275993" lon="7.94167321876473"><ele>737.0</ele><time>2026-04-25T10:51:26Z</time></trkpt><trkpt lat="43.99407024022628" lon="7.941692316353316"><ele>731.0</ele><time>2026-04-25T10:51:27Z</time></trkpt><trkpt lat="43.9942405568346" lon="7.941723988631518"><ele>725.0</ele><time>2026-04-25T10:51:28Z</time></trkpt><trkpt lat="43.994389524819276" lon="7.9417546316925645"><ele>719.0</ele><time>2026-04-25T10:51:29Z</time></trkpt><trkpt lat="43.994537822457936" lon="7.941853375747559"><ele>719.0</ele><time>2026-04-25T10:51:30Z</time></trkpt><trkpt lat="43.99468791616264" lon="7.941983923236144"><ele>719.0</ele><time>2026-04-25T10:51:31Z</time></trkpt><trkpt lat="43.9948505781261" lon="7.942063609783581"><ele>719.0</ele><time>2026-04-25T10:51:32Z</time></trkpt><trkpt lat="43.99499501349019" lon="7.942156662375292"><ele>723.3333333333333</ele><time>2026-04-25T10:51:33Z</time></trkpt><trkpt lat="43.995124476929824" lon="7.942261730407823"><ele>727.6666666666666</ele><time>2026-04-25T10:51:34Z</time></trkpt><trkpt lat="43.995243737033555" lon="7.942377563866038"><ele>732.0</ele><time>2026-04-25T10:51:35Z</time></trkpt><trkpt lat="43.995330633237174" lon="7.942562641555067"><ele>732.0</ele><time>2026-04-25T10:51:36Z</time></trkpt><trkpt lat="43.99542312251275" lon="7.942782590204898"><ele>732.0</ele><time>2026-04-25T10:51:37Z</time></trkpt><trkpt lat="43.99553356036535" lon="7.942996961464722"><ele>732.0</ele><time>2026-04-25T10:51:38Z</time></trkpt><trkpt lat="43.99563373953282" lon="7.943231975137056"><ele>738.0</ele><time>2026-04-25T10:51:39Z</time></trkpt><trkpt lat="43.99573259024457" lon="7.943487890537933"><ele>744.0</ele><time>2026-04-25T10:51:40Z</time></trkpt><trkpt lat="43.995859200275675" lon="7.943739634429354"><ele>750.0</ele><time>2026-04-25T10:51:41Z</time></trkpt><trkpt lat="43.9959631720493" lon="7.94397796804518"><ele>750.0</ele><time>2026-04-25T10:51:42Z</time></trkpt><trkpt lat="43.996057894111885" lon="7.94419664780531"><ele>750.0</ele><time>2026-04-25T10:51:43Z</time></trkpt><trkpt lat="43.99615834195659" lon="7.944421447783506"><ele>750.0</ele><time>2026-04-25T10:51:44Z</time></trkpt><trkpt lat="43.99624430841246" lon="7.944646105882231"><ele>740.0</ele><time>2026-04-25T10:51:45Z</time></trkpt><trkpt lat="43.996373797962995" lon="7.944822150758022"><ele>730.0</ele><time>2026-04-25T10:51:46Z</time></trkpt><trkpt lat="43.99648087961202" lon="7.944986823506007"><ele>720.0</ele><time>2026-04-25T10:51:47Z</time></trkpt><trkpt lat="43.996568180127454" lon="7.945139791643385"><ele>716.5</ele><time>2026-04-25T10:51:48Z</time></trkpt><trkpt lat="43.9966378127115" lon="7.945272136822201"><ele>713.0</ele><time>2026-04-25T10:51:49Z</time></trkpt><trkpt lat="43.99672017891041" lon="7.945375005404734"><ele>709.5</ele><time>2026-04-25T10:51:50Z</time></trkpt><trkpt lat="43.99685612477454" lon="7.9454477323006545"><ele>706.0</ele><time>2026-04-25T10:51:51Z</time></trkpt><trkpt lat="43.99701398031179" lon="7.94551168839102"><ele>706.0</ele><time>2026-04-25T10:51:52Z</time></trkpt><trkpt lat="43.99717357300237" lon="7.945587971591771"><ele>706.0</ele><time>2026-04-25T10:51:53Z</time></trkpt><trkpt lat="43.9973387747784" lon="7.945687894400302"><ele>706.0</ele><time>2026-04-25T10:51:54Z</time></trkpt><trkpt lat="43.99751746429939" lon="7.945775541855836"><ele>709.3333333333334</ele><time>2026-04-25T10:51:55Z</time></trkpt><trkpt lat="43.99772217603821" lon="7.945841168311441"><ele>712.6666666666666</ele><time>2026-04-25T10:51:56Z</time></trkpt><trkpt lat="43.997916071287335" lon="7.945886308203739"><ele>716.0</ele><time>2026-04-25T10:51:57Z</time></trkpt><trkpt lat="43.998089031211684" lon="7.9459367864214565"><ele>705.3333333333333</ele><time>2026-04-25T10:51:58Z</time></trkpt><trkpt lat="43.998253451660915" lon="7.945981945241988"><ele>694.6666666666666</ele><time>2026-04-25T10:51:59Z</time></trkpt><trkpt lat="43.99841913908395" lon="7.9460145424325"><ele>684.0</ele><time>2026-04-25T10:52:00Z</time></trkpt><trkpt lat="43.99859741188008" lon="7.946016068978538"><ele>684.0</ele><time>2026-04-25T10:52:01Z</time></trkpt><trkpt lat="43.99876567550162" lon="7.945982044657012"><ele>684.0</ele><time>2026-04-25T10:52:02Z</time></trkpt><trkpt lat="43.99892385047286" lon="7.94594628597451"><ele>684.0</ele><time>2026-04-25T10:52:03Z</time></trkpt><trkpt lat="43.99907423444894" lon="7.945940958694823"><ele>687.3333333333334</ele><time>2026-04-25T10:52:04Z</time></trkpt><trkpt lat="43.999206287352656" lon="7.946013474348143"><ele>690.6666666666667</ele><time>2026-04-25T10:52:05Z</time></trkpt><trkpt lat="43.99932726707663" lon="7.946127000678907"><ele>694.0</ele><time>2026-04-25T10:52:06Z</time></trkpt><trkpt lat="43.99945452745733" lon="7.946272755495922"><ele>694.0</ele><time>2026-04-25T10:52:07Z</time></trkpt><trkpt lat="43.99957984775027" lon="7.946398852773055"><ele>694.0</ele><time>2026-04-25T10:52:08Z</time></trkpt><trkpt lat="43.999683465279496" lon="7.946531540296796"><ele>694.0</ele><time>2026-04-25T10:52:09Z</time></trkpt><trkpt lat="43.99979310247045" lon="7.946646159598631"><ele>694.0</ele><time>2026-04-25T10:52:10Z</time></trkpt><trkpt lat="43.99989088409712" lon="7.94670776651995"><ele>694.0</ele><time>2026-04-25T10:52:11Z</time></trkpt><trkpt lat="44.000008454468194" lon="7.946706530932862"><ele>694.0</ele><time>2026-04-25T10:52:12Z</time></trkpt><trkpt lat="44.00014825128898" lon="7.946653512607079"><ele>694.0</ele><time>2026-04-25T10:52:13Z</time></trkpt><trkpt lat="44.00029111337524" lon="7.9465907023362305"><ele>694.0</ele><time>2026-04-25T10:52:14Z</time></trkpt><trkpt lat="44.00044093948735" lon="7.946552402612342"><ele>694.0</ele><time>2026-04-25T10:52:15Z</time></trkpt><trkpt lat="44.00059520513641" lon="7.946510570649101"><ele>694.0</ele><time>2026-04-25T10:52:16Z</time></trkpt><trkpt lat="44.00074956683039" lon="7.94647371880083"><ele>694.0</ele><time>2026-04-25T10:52:17Z</time></trkpt><trkpt lat="44.000904608613155" lon="7.946437777667145"><ele>692.3333333333334</ele><time>2026-04-25T10:52:18Z</time></trkpt><trkpt lat="44.00104912457292" lon="7.946403337355682"><ele>690.6666666666666</ele><time>2026-04-25T10:52:19Z</time></trkpt><trkpt lat="44.00120788027731" lon="7.946436120402595"><ele>689.0</ele><time>2026-04-25T10:52:20Z</time></trkpt><trkpt lat="44.001350494312696" lon="7.9464987088296875"><ele>689.0</ele><time>2026-04-25T10:52:21Z</time></trkpt><trkpt lat="44.0015361529168" lon="7.94656458935568"><ele>689.0</ele><time>2026-04-25T10:52:22Z</time></trkpt><trkpt lat="44.00171852979425" lon="7.946600229697879"><ele>689.0</ele><time>2026-04-25T10:52:23Z</time></trkpt><trkpt lat="44.00193455341514" lon="7.946634068687642"><ele>688.3333333333333</ele><time>2026-04-25T10:52:24Z</time></trkpt><trkpt lat="44.00213752725732" lon="7.946680890271787"><ele>687.6666666666666</ele><time>2026-04-25T10:52:25Z</time></trkpt><trkpt lat="44.002319461300026" lon="7.94672735851908"><ele>687.0</ele><time>2026-04-25T10:52:26Z</time></trkpt><trkpt lat="44.00250485701334" lon="7.946761076373277"><ele>677.3333333333334</ele><time>2026-04-25T10:52:27Z</time></trkpt><trkpt lat="44.00270047818117" lon="7.946777530698728"><ele>667.6666666666667</ele><time>2026-04-25T10:52:28Z</time></trkpt><trkpt lat="44.00288991276333" lon="7.946801033286679"><ele>658.0</ele><time>2026-04-25T10:52:29Z</time></trkpt><trkpt lat="44.00308121926469" lon="7.946841471125562"><ele>658.0</ele><time>2026-04-25T10:52:30Z</time></trkpt><trkpt lat="44.0032644762124" lon="7.946884564764213"><ele>658.0</ele><time>2026-04-25T10:52:31Z</time></trkpt><trkpt lat="44.003441220619166" lon="7.946916824602117"><ele>658.0</ele><time>2026-04-25T10:52:32Z</time></trkpt><trkpt lat="44.0036095828054" lon="7.94695228378084"><ele>658.0</ele><time>2026-04-25T10:52:33Z</time></trkpt><trkpt lat="44.00377580031104" lon="7.9469878165954375"><ele>658.0</ele><time>2026-04-25T10:52:34Z</time></trkpt><trkpt lat="44.00394061852243" lon="7.947020134333792"><ele>658.0</ele><time>2026-04-25T10:52:35Z</time></trkpt><trkpt lat="44.00410932094828" lon="7.947068654913245"><ele>659.3333333333334</ele><time>2026-04-25T10:52:36Z</time></trkpt><trkpt lat="44.00426531788371" lon="7.947164521628325"><ele>660.6666666666666</ele><time>2026-04-25T10:52:37Z</time></trkpt><trkpt lat="44.00443439437072" lon="7.947259702914386"><ele>662.0</ele><time>2026-04-25T10:52:38Z</time></trkpt><trkpt lat="44.00459322469424" lon="7.947378328715756"><ele>662.0</ele><time>2026-04-25T10:52:39Z</time></trkpt><trkpt lat="44.0047375152081" lon="7.947506274146201"><ele>662.0</ele><time>2026-04-25T10:52:40Z</time></trkpt><trkpt lat="44.004893268900894" lon="7.947557113989977"><ele>662.0</ele><time>2026-04-25T10:52:41Z</time></trkpt><trkpt lat="44.00503139146899" lon="7.9476159064169885"><ele>657.5</ele><time>2026-04-25T10:52:42Z</time></trkpt><trkpt lat="44.00514618628001" lon="7.947690310837685"><ele>653.0</ele><time>2026-04-25T10:52:43Z</time></trkpt><trkpt lat="44.005226822464834" lon="7.947815358832099"><ele>648.5</ele><time>2026-04-25T10:52:44Z</time></trkpt><trkpt lat="44.005253712720936" lon="7.948000662143058"><ele>644.0</ele><time>2026-04-25T10:52:45Z</time></trkpt><trkpt lat="44.0053095544718" lon="7.948184468150181"><ele>644.0</ele><time>2026-04-25T10:52:46Z</time></trkpt><trkpt lat="44.00537918995543" lon="7.948348803516723"><ele>644.0</ele><time>2026-04-25T10:52:47Z</time></trkpt><trkpt lat="44.00549434805498" lon="7.948483866728386"><ele>644.0</ele><time>2026-04-25T10:52:48Z</time></trkpt><trkpt lat="44.00561776019677" lon="7.948604976463257"><ele>644.0</ele><time>2026-04-25T10:52:49Z</time></trkpt><trkpt lat="44.005703970898175" lon="7.9487757984547205"><ele>645.0</ele><time>2026-04-25T10:52:50Z</time></trkpt><trkpt lat="44.00580250950725" lon="7.948948589373009"><ele>646.0</ele><time>2026-04-25T10:52:51Z</time></trkpt><trkpt lat="44.00589686151902" lon="7.9491295837665685"><ele>647.0</ele><time>2026-04-25T10:52:52Z</time></trkpt><trkpt lat="44.00602665176862" lon="7.949274878878491"><ele>640.3333333333333</ele><time>2026-04-25T10:52:53Z</time></trkpt><trkpt lat="44.00616577543519" lon="7.949400801964453"><ele>633.6666666666666</ele><time>2026-04-25T10:52:54Z</time></trkpt><trkpt lat="44.00630297461382" lon="7.949513986752406"><ele>627.0</ele><time>2026-04-25T10:52:55Z</time></trkpt><trkpt lat="44.00642617087732" lon="7.949602222268638"><ele>627.0</ele><time>2026-04-25T10:52:56Z</time></trkpt><trkpt lat="44.006563996862475" lon="7.949641059992584"><ele>627.0</ele><time>2026-04-25T10:52:57Z</time></trkpt><trkpt lat="44.006730376804946" lon="7.949617157767997"><ele>627.0</ele><time>2026-04-25T10:52:58Z</time></trkpt><trkpt lat="44.006907910622104" lon="7.949607032641126"><ele>631.0</ele><time>2026-04-25T10:52:59Z</time></trkpt><trkpt lat="44.00708077157577" lon="7.949642915714061"><ele>635.0</ele><time>2026-04-25T10:53:00Z</time></trkpt><trkpt lat="44.00726397586204" lon="7.94969117392861"><ele>639.0</ele><time>2026-04-25T10:53:01Z</time></trkpt><trkpt lat="44.007447877741235" lon="7.949734150054128"><ele>636.6666666666666</ele><time>2026-04-25T10:53:02Z</time></trkpt><trkpt lat="44.007622858796964" lon="7.949781367028443"><ele>634.3333333333333</ele><time>2026-04-25T10:53:03Z</time></trkpt><trkpt lat="44.00779143503436" lon="7.949835672746076"><ele>632.0</ele><time>2026-04-25T10:53:04Z</time></trkpt><trkpt lat="44.00794453910077" lon="7.94992528429114"><ele>632.0</ele><time>2026-04-25T10:53:05Z</time></trkpt><trkpt lat="44.008095168207646" lon="7.950005020994184"><ele>632.0</ele><time>2026-04-25T10:53:06Z</time></trkpt><trkpt lat="44.00822747874451" lon="7.950065008164754"><ele>632.0</ele><time>2026-04-25T10:53:07Z</time></trkpt><trkpt lat="44.008330867338856" lon="7.950164858756304"><ele>632.0</ele><time>2026-04-25T10:53:08Z</time></trkpt><trkpt lat="44.008396199280334" lon="7.950304470223425"><ele>630.5</ele><time>2026-04-25T10:53:09Z</time></trkpt><trkpt lat="44.00838517302512" lon="7.950489541505526"><ele>629.0</ele><time>2026-04-25T10:53:10Z</time></trkpt><trkpt lat="44.00837657713992" lon="7.950669192458705"><ele>627.5</ele><time>2026-04-25T10:53:11Z</time></trkpt><trkpt lat="44.00838121613399" lon="7.950829162381873"><ele>626.0</ele><time>2026-04-25T10:53:12Z</time></trkpt><trkpt lat="44.00841743319914" lon="7.9509601293264325"><ele>622.0</ele><time>2026-04-25T10:53:13Z</time></trkpt><trkpt lat="44.00849942498" lon="7.95104168911497"><ele>618.0</ele><time>2026-04-25T10:53:14Z</time></trkpt><trkpt lat="44.00860254526369" lon="7.9510588170573016"><ele>614.0</ele><time>2026-04-25T10:53:15Z</time></trkpt><trkpt lat="44.00871217799804" lon="7.9510529225392785"><ele>610.0</ele><time>2026-04-25T10:53:16Z</time></trkpt><trkpt lat="44.00883416336415" lon="7.951058566229113"><ele>606.0</ele><time>2026-04-25T10:53:17Z</time></trkpt><trkpt lat="44.008967387427425" lon="7.951089299407923"><ele>606.0</ele><time>2026-04-25T10:53:18Z</time></trkpt><trkpt lat="44.00910742735461" lon="7.951127919304149"><ele>606.0</ele><time>2026-04-25T10:53:19Z</time></trkpt><trkpt lat="44.00923355880012" lon="7.9511800035196005"><ele>606.0</ele><time>2026-04-25T10:53:20Z</time></trkpt><trkpt lat="44.009320075951074" lon="7.951305647418978"><ele>606.0</ele><time>2026-04-25T10:53:21Z</time></trkpt><trkpt lat="44.0093877890436" lon="7.951462281067481"><ele>604.75</ele><time>2026-04-25T10:53:22Z</time></trkpt><trkpt lat="44.00945781577847" lon="7.951620092284648"><ele>603.5</ele><time>2026-04-25T10:53:23Z</time></trkpt><trkpt lat="44.00951293177582" lon="7.951777606461977"><ele>602.25</ele><time>2026-04-25T10:53:24Z</time></trkpt><trkpt lat="44.00959266852381" lon="7.951909410454878"><ele>601.0</ele><time>2026-04-25T10:53:25Z</time></trkpt><trkpt lat="44.0096872169418" lon="7.952006509161505"><ele>601.0</ele><time>2026-04-25T10:53:26Z</time></trkpt><trkpt lat="44.00979727685058" lon="7.952068245648123"><ele>601.0</ele><time>2026-04-25T10:53:27Z</time></trkpt><trkpt lat="44.0099092400235" lon="7.952079036963284"><ele>601.0</ele><time>2026-04-25T10:53:28Z</time></trkpt><trkpt lat="44.010003414979316" lon="7.952052027234325"><ele>601.0</ele><time>2026-04-25T10:53:29Z</time></trkpt><trkpt lat="44.01007073120008" lon="7.952049010768257"><ele>601.0</ele><time>2026-04-25T10:53:30Z</time></trkpt><trkpt lat="44.01016128830052" lon="7.952080097077428"><ele>604.6</ele><time>2026-04-25T10:53:32Z</time></trkpt><trkpt lat="44.010231841418765" lon="7.952099107106024"><ele>608.2</ele><time>2026-04-25T10:53:36Z</time></trkpt><trkpt lat="44.0102666673182" lon="7.951884824906277"><ele>611.8</ele><time>2026-04-25T10:53:37Z</time></trkpt><trkpt lat="44.010282295217706" lon="7.951783164082515"><ele>615.4</ele><time>2026-04-25T10:53:38Z</time></trkpt><trkpt lat="44.010296074389366" lon="7.951681430597409"><ele>619.0</ele><time>2026-04-25T10:53:39Z</time></trkpt><trkpt lat="44.010306964578795" lon="7.951552375467442"><ele>620.5</ele><time>2026-04-25T10:53:40Z</time></trkpt><trkpt lat="44.0103019457" lon="7.951402542523277"><ele>622.0</ele><time>2026-04-25T10:53:41Z</time></trkpt><trkpt lat="44.01026627268946" lon="7.951248540430793"><ele>623.5</ele><time>2026-04-25T10:53:42Z</time></trkpt><trkpt lat="44.0102030474925" lon="7.951097799818529"><ele>625.0</ele><time>2026-04-25T10:53:43Z</time></trkpt><trkpt lat="44.01011054955248" lon="7.950978933473396"><ele>625.0</ele><time>2026-04-25T10:53:44Z</time></trkpt><trkpt lat="44.01000729506416" lon="7.950883105539941"><ele>625.0</ele><time>2026-04-25T10:53:45Z</time></trkpt><trkpt lat="44.009892586430226" lon="7.950836890859242"><ele>625.0</ele><time>2026-04-25T10:53:46Z</time></trkpt><trkpt lat="44.00978264116155" lon="7.950825657154468"><ele>625.0</ele><time>2026-04-25T10:53:47Z</time></trkpt><trkpt lat="44.00971553241577" lon="7.9508339671711665"><ele>625.0</ele><time>2026-04-25T10:53:48Z</time></trkpt><trkpt lat="44.00967379974538" lon="7.950760443596242"><ele>625.0</ele><time>2026-04-25T10:53:52Z</time></trkpt><trkpt lat="44.00964378682669" lon="7.950672964282274"><ele>625.0</ele><time>2026-04-25T10:54:23Z</time></trkpt><trkpt lat="44.009539883840596" lon="7.950625416910463"><ele>625.0</ele><time>2026-04-25T10:54:25Z</time></trkpt><trkpt lat="44.009426751795935" lon="7.950596558566831"><ele>625.0</ele><time>2026-04-25T10:54:27Z</time></trkpt><trkpt lat="44.00935458760686" lon="7.950480340362801"><ele>625.0</ele><time>2026-04-25T10:54:29Z</time></trkpt><trkpt lat="44.00930739155461" lon="7.950365140918379"><ele>625.0</ele><time>2026-04-25T10:54:30Z</time></trkpt><trkpt lat="44.009280343000974" lon="7.950239500546006"><ele>625.0</ele><time>2026-04-25T10:54:31Z</time></trkpt><trkpt lat="44.009271795202956" lon="7.950109419325001"><ele>625.0</ele><time>2026-04-25T10:54:32Z</time></trkpt><trkpt lat="44.00927364291956" lon="7.949983887073751"><ele>625.0</ele><time>2026-04-25T10:54:33Z</time></trkpt><trkpt lat="44.009294582769854" lon="7.949853568577971"><ele>625.0</ele><time>2026-04-25T10:54:34Z</time></trkpt><trkpt lat="44.00933697760658" lon="7.949693964564413"><ele>625.0</ele><time>2026-04-25T10:54:35Z</time></trkpt><trkpt lat="44.00938785390416" lon="7.949523879357753"><ele>625.0</ele><time>2026-04-25T10:54:36Z</time></trkpt><trkpt lat="44.00944263138391" lon="7.94934079231472"><ele>625.0</ele><time>2026-04-25T10:54:37Z</time></trkpt><trkpt lat="44.0094833759117" lon="7.949165280306691"><ele>625.0</ele><time>2026-04-25T10:54:38Z</time></trkpt><trkpt lat="44.00952303879104" lon="7.9490130970150235"><ele>623.6</ele><time>2026-04-25T10:54:39Z</time></trkpt><trkpt lat="44.009573034585436" lon="7.948887764824423"><ele>622.2</ele><time>2026-04-25T10:54:40Z</time></trkpt><trkpt lat="44.009601261320775" lon="7.948766689291634"><ele>620.8</ele><time>2026-04-25T10:54:41Z</time></trkpt><trkpt lat="44.009593052616445" lon="7.948647923905644"><ele>619.4</ele><time>2026-04-25T10:54:42Z</time></trkpt><trkpt lat="44.00953284402929" lon="7.948556114251218"><ele>618.0</ele><time>2026-04-25T10:54:43Z</time></trkpt><trkpt lat="44.00941962840601" lon="7.948521471872945"><ele>618.0</ele><time>2026-04-25T10:54:44Z</time></trkpt><trkpt lat="44.00927427947485" lon="7.9485401386153685"><ele>618.0</ele><time>2026-04-25T10:54:45Z</time></trkpt><trkpt lat="44.009128075438774" lon="7.948574727250709"><ele>618.0</ele><time>2026-04-25T10:54:46Z</time></trkpt><trkpt lat="44.008967899286226" lon="7.948598292045829"><ele>624.0</ele><time>2026-04-25T10:54:47Z</time></trkpt><trkpt lat="44.008802897482454" lon="7.948592757169325"><ele>630.0</ele><time>2026-04-25T10:54:48Z</time></trkpt><trkpt lat="44.00863855903449" lon="7.948559973519234"><ele>636.0</ele><time>2026-04-25T10:54:49Z</time></trkpt><trkpt lat="44.00847921576505" lon="7.948518073542064"><ele>636.0</ele><time>2026-04-25T10:54:50Z</time></trkpt><trkpt lat="44.008363000052626" lon="7.948507793736129"><ele>636.0</ele><time>2026-04-25T10:54:51Z</time></trkpt><trkpt lat="44.00829394466134" lon="7.9484832090127195"><ele>636.0</ele><time>2026-04-25T10:54:52Z</time></trkpt><trkpt lat="44.00821275538662" lon="7.948442692042001"><ele>636.0</ele><time>2026-04-25T10:54:53Z</time></trkpt><trkpt lat="44.008183466203846" lon="7.9482952376842215"><ele>636.0</ele><time>2026-04-25T10:54:54Z</time></trkpt><trkpt lat="44.00823354824314" lon="7.948159146142925"><ele>635.0</ele><time>2026-04-25T10:54:55Z</time></trkpt><trkpt lat="44.00822648389271" lon="7.947935315488157"><ele>634.0</ele><time>2026-04-25T10:54:56Z</time></trkpt><trkpt lat="44.00818804897886" lon="7.947730215214283"><ele>633.0</ele><time>2026-04-25T10:54:57Z</time></trkpt><trkpt lat="44.00817060169218" lon="7.947533703857446"><ele>626.75</ele><time>2026-04-25T10:54:58Z</time></trkpt><trkpt lat="44.00813958834058" lon="7.947345773012844"><ele>620.5</ele><time>2026-04-25T10:54:59Z</time></trkpt><trkpt lat="44.00809835180114" lon="7.94719066528259"><ele>614.25</ele><time>2026-04-25T10:55:00Z</time></trkpt><trkpt lat="44.008025447273056" lon="7.947061634796147"><ele>608.0</ele><time>2026-04-25T10:55:01Z</time></trkpt><trkpt lat="44.007906577317115" lon="7.946992210885808"><ele>608.0</ele><time>2026-04-25T10:55:02Z</time></trkpt><trkpt lat="44.007770177138525" lon="7.9470726076168745"><ele>608.0</ele><time>2026-04-25T10:55:03Z</time></trkpt><trkpt lat="44.00763001887556" lon="7.947112044004648"><ele>608.0</ele><time>2026-04-25T10:55:04Z</time></trkpt><trkpt lat="44.00750547719444" lon="7.947144500179287"><ele>608.0</ele><time>2026-04-25T10:55:05Z</time></trkpt><trkpt lat="44.00740955569191" lon="7.947175369594363"><ele>610.4</ele><time>2026-04-25T10:55:06Z</time></trkpt><trkpt lat="44.00732113456276" lon="7.94713586591205"><ele>612.8</ele><time>2026-04-25T10:55:07Z</time></trkpt><trkpt lat="44.00725821602326" lon="7.947047475083132"><ele>615.2</ele><time>2026-04-25T10:55:08Z</time></trkpt><trkpt lat="44.00723302487163" lon="7.946912571308451"><ele>617.6</ele><time>2026-04-25T10:55:09Z</time></trkpt><trkpt lat="44.007284058459526" lon="7.946769516139633"><ele>620.0</ele><time>2026-04-25T10:55:10Z</time></trkpt><trkpt lat="44.00733878246647" lon="7.9466135054669556"><ele>620.0</ele><time>2026-04-25T10:55:11Z</time></trkpt><trkpt lat="44.007400130754164" lon="7.946410504268641"><ele>620.0</ele><time>2026-04-25T10:55:12Z</time></trkpt><trkpt lat="44.007445755163275" lon="7.946221413671879"><ele>620.0</ele><time>2026-04-25T10:55:13Z</time></trkpt><trkpt lat="44.0074932401381" lon="7.9460617830236435"><ele>620.0</ele><time>2026-04-25T10:55:14Z</time></trkpt><trkpt lat="44.00753092502028" lon="7.9459003301125675"><ele>619.5</ele><time>2026-04-25T10:55:15Z</time></trkpt><trkpt lat="44.007541373659585" lon="7.945727911612672"><ele>619.0</ele><time>2026-04-25T10:55:16Z</time></trkpt><trkpt lat="44.007507510731884" lon="7.945538356232741"><ele>618.5</ele><time>2026-04-25T10:55:17Z</time></trkpt><trkpt lat="44.00745207742598" lon="7.945359384600709"><ele>618.0</ele><time>2026-04-25T10:55:18Z</time></trkpt><trkpt lat="44.007428789646916" lon="7.945146462645207"><ele>617.0</ele><time>2026-04-25T10:55:19Z</time></trkpt><trkpt lat="44.007377293706234" lon="7.944929258479776"><ele>616.0</ele><time>2026-04-25T10:55:20Z</time></trkpt><trkpt lat="44.00735127583628" lon="7.944711498806063"><ele>615.0</ele><time>2026-04-25T10:55:21Z</time></trkpt><trkpt lat="44.00731528120575" lon="7.944489706523922"><ele>615.0</ele><time>2026-04-25T10:55:22Z</time></trkpt><trkpt lat="44.007284799506635" lon="7.94427153711457"><ele>615.0</ele><time>2026-04-25T10:55:23Z</time></trkpt><trkpt lat="44.00725142942917" lon="7.944060914996765"><ele>615.0</ele><time>2026-04-25T10:55:24Z</time></trkpt><trkpt lat="44.00719581787775" lon="7.943862351085954"><ele>611.0</ele><time>2026-04-25T10:55:25Z</time></trkpt><trkpt lat="44.00710623983158" lon="7.943692444889344"><ele>607.0</ele><time>2026-04-25T10:55:26Z</time></trkpt><trkpt lat="44.00698360038291" lon="7.943531729403064"><ele>603.0</ele><time>2026-04-25T10:55:27Z</time></trkpt><trkpt lat="44.00685684416082" lon="7.943403016813717"><ele>605.1999999999999</ele><time>2026-04-25T10:55:28Z</time></trkpt><trkpt lat="44.006729781805106" lon="7.943332615704762"><ele>607.4</ele><time>2026-04-25T10:55:29Z</time></trkpt><trkpt lat="44.00662019907867" lon="7.943251264423738"><ele>609.5999999999999</ele><time>2026-04-25T10:55:30Z</time></trkpt><trkpt lat="44.006545963801415" lon="7.943182832334194"><ele>611.8</ele><time>2026-04-25T10:55:31Z</time></trkpt><trkpt lat="44.00648980554655" lon="7.943109029469351"><ele>614.0</ele><time>2026-04-25T10:55:32Z</time></trkpt><trkpt lat="44.006498806775525" lon="7.942969552910001"><ele>614.0</ele><time>2026-04-25T10:55:33Z</time></trkpt><trkpt lat="44.00655770139789" lon="7.94283883241004"><ele>614.0</ele><time>2026-04-25T10:55:34Z</time></trkpt><trkpt lat="44.00665422053743" lon="7.942755456927815"><ele>614.0</ele><time>2026-04-25T10:55:35Z</time></trkpt><trkpt lat="44.006785615217716" lon="7.942784766574972"><ele>614.0</ele><time>2026-04-25T10:55:36Z</time></trkpt><trkpt lat="44.00695121213486" lon="7.942741951170636"><ele>602.0</ele><time>2026-04-25T10:55:37Z</time></trkpt><trkpt lat="44.00710977628098" lon="7.942738387258397"><ele>590.0</ele><time>2026-04-25T10:55:38Z</time></trkpt><trkpt lat="44.00728052897307" lon="7.942720568759992"><ele>578.0</ele><time>2026-04-25T10:55:39Z</time></trkpt><trkpt lat="44.007462444150256" lon="7.942697513321084"><ele>569.0</ele><time>2026-04-25T10:55:40Z</time></trkpt><trkpt lat="44.00765595818097" lon="7.942667355815668"><ele>560.0</ele><time>2026-04-25T10:55:41Z</time></trkpt><trkpt lat="44.00786526466548" lon="7.942631565846537"><ele>551.0</ele><time>2026-04-25T10:55:42Z</time></trkpt><trkpt lat="44.00808454750716" lon="7.942594959112512"><ele>551.0</ele><time>2026-04-25T10:55:43Z</time></trkpt><trkpt lat="44.00829107019586" lon="7.9425606753512925"><ele>551.0</ele><time>2026-04-25T10:55:44Z</time></trkpt><trkpt lat="44.008485702878055" lon="7.942542387603247"><ele>551.0</ele><time>2026-04-25T10:55:45Z</time></trkpt><trkpt lat="44.00866392074635" lon="7.942525794524883"><ele>549.75</ele><time>2026-04-25T10:55:46Z</time></trkpt><trkpt lat="44.008825292251764" lon="7.9425215882669855"><ele>548.5</ele><time>2026-04-25T10:55:47Z</time></trkpt><trkpt lat="44.00896835761878" lon="7.942520813454152"><ele>547.25</ele><time>2026-04-25T10:55:48Z</time></trkpt><trkpt lat="44.009091250419154" lon="7.94250302105096"><ele>546.0</ele><time>2026-04-25T10:55:49Z</time></trkpt><trkpt lat="44.00919763201595" lon="7.9424330793630356"><ele>546.0</ele><time>2026-04-25T10:55:50Z</time></trkpt><trkpt lat="44.00926131189644" lon="7.942294421645559"><ele>546.0</ele><time>2026-04-25T10:55:51Z</time></trkpt><trkpt lat="44.00926883639139" lon="7.942103162537868"><ele>546.0</ele><time>2026-04-25T10:55:52Z</time></trkpt><trkpt lat="44.00927267940919" lon="7.941884731932492"><ele>546.0</ele><time>2026-04-25T10:55:53Z</time></trkpt><trkpt lat="44.00925035715352" lon="7.941645519828425"><ele>547.3333333333334</ele><time>2026-04-25T10:55:54Z</time></trkpt><trkpt lat="44.0092331389524" lon="7.941404061365942"><ele>548.6666666666667</ele><time>2026-04-25T10:55:55Z</time></trkpt><trkpt lat="44.00921418718237" lon="7.941189872019448"><ele>550.0</ele><time>2026-04-25T10:55:55.999Z</time></trkpt><trkpt lat="44.00919366732859" lon="7.940983477766486"><ele>549.6666666666667</ele><time>2026-04-25T10:55:56.999Z</time></trkpt><trkpt lat="44.0091746369324" lon="7.94077544370812"><ele>549.3333333333334</ele><time>2026-04-25T10:55:57.999Z</time></trkpt><trkpt lat="44.00920845871892" lon="7.94055234633377"><ele>549.0</ele><time>2026-04-25T10:55:58.999Z</time></trkpt><trkpt lat="44.00924842109874" lon="7.940342678791623"><ele>549.0</ele><time>2026-04-25T10:55:59.999Z</time></trkpt><trkpt lat="44.00929159254614" lon="7.9401794380515405"><ele>549.0</ele><time>2026-04-25T10:56:00.999Z</time></trkpt><trkpt lat="44.00933534896672" lon="7.940050261688057"><ele>549.0</ele><time>2026-04-25T10:56:01.999Z</time></trkpt><trkpt lat="44.009428837023236" lon="7.939982191221262"><ele>549.0</ele><time>2026-04-25T10:56:02.999Z</time></trkpt><trkpt lat="44.0095376777761" lon="7.939994103570731"><ele>549.0</ele><time>2026-04-25T10:56:03.999Z</time></trkpt><trkpt lat="44.00963222954969" lon="7.940123823544303"><ele>549.0</ele><time>2026-04-25T10:56:04.999Z</time></trkpt><trkpt lat="44.00970428629277" lon="7.940274018180958"><ele>549.0</ele><time>2026-04-25T10:56:05.999Z</time></trkpt><trkpt lat="44.009814014881314" lon="7.940446391278048"><ele>549.0</ele><time>2026-04-25T10:56:06.999Z</time></trkpt><trkpt lat="44.009966012002636" lon="7.940568048759439"><ele>543.0</ele><time>2026-04-25T10:56:08Z</time></trkpt><trkpt lat="44.010137726949615" lon="7.940669999595526"><ele>537.0</ele><time>2026-04-25T10:56:09Z</time></trkpt><trkpt lat="44.01028926240057" lon="7.940769317424812"><ele>531.0</ele><time>2026-04-25T10:56:10Z</time></trkpt><trkpt lat="44.01044421892731" lon="7.940925418740526"><ele>525.6666666666666</ele><time>2026-04-25T10:56:11Z</time></trkpt><trkpt lat="44.01057237145921" lon="7.9410778766221215"><ele>520.3333333333333</ele><time>2026-04-25T10:56:12Z</time></trkpt><trkpt lat="44.010715731298504" lon="7.9412233027130075"><ele>515.0</ele><time>2026-04-25T10:56:13Z</time></trkpt><trkpt lat="44.01086303028605" lon="7.941335944436345"><ele>514.5</ele><time>2026-04-25T10:56:14Z</time></trkpt><trkpt lat="44.01100930876794" lon="7.9414188310933165"><ele>514.0</ele><time>2026-04-25T10:56:15Z</time></trkpt><trkpt lat="44.01114377211144" lon="7.94146885004896"><ele>513.5</ele><time>2026-04-25T10:56:16Z</time></trkpt><trkpt lat="44.01126106372201" lon="7.941468748716718"><ele>513.0</ele><time>2026-04-25T10:56:17Z</time></trkpt><trkpt lat="44.01136456340437" lon="7.94141164593256"><ele>513.0</ele><time>2026-04-25T10:56:18Z</time></trkpt><trkpt lat="44.01144710795148" lon="7.941302939086951"><ele>513.0</ele><time>2026-04-25T10:56:19Z</time></trkpt><trkpt lat="44.011509111540114" lon="7.941201852482867"><ele>513.0</ele><time>2026-04-25T10:56:20Z</time></trkpt><trkpt lat="44.011569475517355" lon="7.9411514806297765"><ele>513.0</ele><time>2026-04-25T10:56:21Z</time></trkpt><trkpt lat="44.0116201537749" lon="7.941092781365084"><ele>513.0</ele><time>2026-04-25T10:56:22Z</time></trkpt><trkpt lat="44.0115775971095" lon="7.941310357563071"><ele>513.0</ele><time>2026-04-25T10:56:28Z</time></trkpt><trkpt lat="44.011542581318594" lon="7.941397396386887"><ele>513.0</ele><time>2026-04-25T10:56:29Z</time></trkpt><trkpt lat="44.011448356493304" lon="7.941524513463699"><ele>513.0</ele><time>2026-04-25T10:56:31Z</time></trkpt><trkpt lat="44.01139088380589" lon="7.941572522947681"><ele>513.0</ele><time>2026-04-25T10:56:32Z</time></trkpt><trkpt lat="44.01133855435315" lon="7.941628507721542"><ele>513.0</ele><time>2026-04-25T10:56:33Z</time></trkpt><trkpt lat="44.01122832864218" lon="7.941668159039336"><ele>513.0</ele><time>2026-04-25T10:56:35Z</time></trkpt><trkpt lat="44.011141648393995" lon="7.941659590131197"><ele>513.0</ele><time>2026-04-25T10:56:36Z</time></trkpt><trkpt lat="44.01104659385835" lon="7.941629169788321"><ele>513.0</ele><time>2026-04-25T10:56:37Z</time></trkpt><trkpt lat="44.01096430721805" lon="7.941608036477546"><ele>513.0</ele><time>2026-04-25T10:56:38Z</time></trkpt><trkpt lat="44.01088539732401" lon="7.941600790152108"><ele>513.0</ele><time>2026-04-25T10:56:39Z</time></trkpt><trkpt lat="44.010803679448685" lon="7.941596186614507"><ele>513.0</ele><time>2026-04-25T10:56:40Z</time></trkpt><trkpt lat="44.01072497099498" lon="7.9415844383126775"><ele>513.3333333333334</ele><time>2026-04-25T10:56:41Z</time></trkpt><trkpt lat="44.01065699267989" lon="7.94155556496982"><ele>513.6666666666666</ele><time>2026-04-25T10:56:42Z</time></trkpt><trkpt lat="44.01058616923286" lon="7.941532945210757"><ele>514.0</ele><time>2026-04-25T10:56:43Z</time></trkpt><trkpt lat="44.0105152692045" lon="7.941535962870361"><ele>514.3333333333333</ele><time>2026-04-25T10:56:44Z</time></trkpt><trkpt lat="44.01044701563612" lon="7.941523658535885"><ele>514.6666666666666</ele><time>2026-04-25T10:56:45Z</time></trkpt><trkpt lat="44.01038499518038" lon="7.941551302800542"><ele>515.0</ele><time>2026-04-25T10:56:46Z</time></trkpt><trkpt lat="44.010296644884704" lon="7.9416599654055355"><ele>515.8</ele><time>2026-04-25T10:56:48Z</time></trkpt><trkpt lat="44.01025857304619" lon="7.941735021741126"><ele>516.6</ele><time>2026-04-25T10:56:49Z</time></trkpt><trkpt lat="44.01019332439671" lon="7.9418767665630545"><ele>517.4</ele><time>2026-04-25T10:56:51Z</time></trkpt><trkpt lat="44.01012871110918" lon="7.941995628350669"><ele>518.2</ele><time>2026-04-25T10:56:53Z</time></trkpt><trkpt lat="44.01015638687255" lon="7.942146738792934"><ele>519.0</ele><time>2026-04-25T10:56:55Z</time></trkpt><trkpt lat="44.010186570986065" lon="7.942235438675279"><ele>519.0</ele><time>2026-04-25T10:56:56Z</time></trkpt><trkpt lat="44.01022432359253" lon="7.942316305923296"><ele>519.0</ele><time>2026-04-25T10:56:57Z</time></trkpt><trkpt lat="44.01028285861122" lon="7.942403487670823"><ele>519.0</ele><time>2026-04-25T10:56:58Z</time></trkpt><trkpt lat="44.010322163910764" lon="7.942499445654741"><ele>519.0</ele><time>2026-04-25T10:56:59Z</time></trkpt><trkpt lat="44.01037460142161" lon="7.942577951353782"><ele>519.0</ele><time>2026-04-25T10:57:00Z</time></trkpt><trkpt lat="44.01042408055213" lon="7.94263715711787"><ele>519.0</ele><time>2026-04-25T10:57:01Z</time></trkpt><trkpt lat="44.010530656429914" lon="7.942711516013901"><ele>519.0</ele><time>2026-04-25T10:57:03Z</time></trkpt><trkpt lat="44.01062655482855" lon="7.942746304824908"><ele>519.0</ele><time>2026-04-25T10:57:05Z</time></trkpt><trkpt lat="44.01067251320933" lon="7.942829837256891"><ele>519.0</ele><time>2026-04-25T10:57:07Z</time></trkpt><trkpt lat="44.01071517883096" lon="7.942940583887738"><ele>519.0</ele><time>2026-04-25T10:57:09Z</time></trkpt><trkpt lat="44.01073511728752" lon="7.943044905185832"><ele>519.0</ele><time>2026-04-25T10:57:11Z</time></trkpt><trkpt lat="44.01077523510246" lon="7.943141652365161"><ele>519.0</ele><time>2026-04-25T10:57:14Z</time></trkpt><trkpt lat="44.010815038107" lon="7.943218070378434"><ele>519.0</ele><time>2026-04-25T10:57:18Z</time></trkpt><trkpt lat="44.01085542676181" lon="7.94330921482265"><ele>492.0</ele><time>2026-04-25T10:57:23Z</time></trkpt><trkpt lat="44.01087271043658" lon="7.943412604518747"><ele>486.0</ele><time>2026-04-25T10:58:42Z</time></trkpt><trkpt lat="44.01088218019493" lon="7.943513301496249"><ele>486.0</ele><time>2026-04-25T10:58:51Z</time></trkpt><trkpt lat="44.010869624291985" lon="7.943599929024388"><ele>486.0</ele><time>2026-04-25T10:58:53Z</time></trkpt><trkpt lat="44.01085437221976" lon="7.943713276912817"><ele>486.0</ele><time>2026-04-25T10:58:56Z</time></trkpt><trkpt lat="44.01084524666413" lon="7.943808272936686"><ele>486.0</ele><time>2026-04-25T10:59:00Z</time></trkpt></trkseg></trk></gpx>